<?xml version="1.0" encoding="UTF-8" standalone="no" ?>
<gpx xmlns="http://www.topografix.com/GPX/1/1" xmlns:xsi="http://www.w3.org/2001/XMLSchema-instance" xsi:schemaLocation="http://www.topografix.com/GPX/1/1 http://www.topografix.com/GPX/1/1/gpx.xsd" version="1.1" creator="VisuGPX - https://www.visugpx.com">
  <metadata>
    <name>Ambrevetta 2026</name>
    <desc><![CDATA[AlpineQuest Track 3/13/26 09:05:47]]></desc>
  </metadata>
  <trk>
    <name><![CDATA[Ambrevetta 2026]]></name>
    <trkseg>
      <trkpt lat="45.92271" lon="6.48389">
        <ele>1452.288</ele>
        <time>2026-03-13T08:05:46Z</time>
      </trkpt>
      <trkpt lat="45.92285" lon="6.4839">
        <ele>1449.684</ele>
        <time>2026-03-13T08:05:49Z</time>
      </trkpt>
      <trkpt lat="45.92288" lon="6.48393">
        <ele>1445.6</ele>
        <time>2026-03-13T08:05:54Z</time>
      </trkpt>
      <trkpt lat="45.92287" lon="6.48397">
        <ele>1455.702</ele>
        <time>2026-03-13T08:06:00Z</time>
      </trkpt>
      <trkpt lat="45.92287" lon="6.48397">
        <ele>1446.908</ele>
        <time>2026-03-13T08:06:05Z</time>
      </trkpt>
      <trkpt lat="45.92287" lon="6.48397">
        <ele>1446.58</ele>
        <time>2026-03-13T08:06:10Z</time>
      </trkpt>
      <trkpt lat="45.92287" lon="6.48397">
        <ele>1444.746</ele>
        <time>2026-03-13T08:06:15Z</time>
      </trkpt>
      <trkpt lat="45.92287" lon="6.48397">
        <ele>1444.434</ele>
        <time>2026-03-13T08:06:20Z</time>
      </trkpt>
      <trkpt lat="45.92287" lon="6.48397">
        <ele>1445.515</ele>
        <time>2026-03-13T08:06:25Z</time>
      </trkpt>
      <trkpt lat="45.92287" lon="6.48397">
        <ele>1445.131</ele>
        <time>2026-03-13T08:06:30Z</time>
      </trkpt>
      <trkpt lat="45.92287" lon="6.48397">
        <ele>1445.125</ele>
        <time>2026-03-13T08:06:35Z</time>
      </trkpt>
      <trkpt lat="45.92287" lon="6.48397">
        <ele>1445.113</ele>
        <time>2026-03-13T08:06:40Z</time>
      </trkpt>
      <trkpt lat="45.92287" lon="6.48397">
        <ele>1445.112</ele>
        <time>2026-03-13T08:06:45Z</time>
      </trkpt>
      <trkpt lat="45.92287" lon="6.48397">
        <ele>1445.107</ele>
        <time>2026-03-13T08:06:50Z</time>
      </trkpt>
      <trkpt lat="45.92287" lon="6.48397">
        <ele>1445.109</ele>
        <time>2026-03-13T08:06:55Z</time>
      </trkpt>
      <trkpt lat="45.92287" lon="6.48397">
        <ele>1445.521</ele>
        <time>2026-03-13T08:07:00Z</time>
      </trkpt>
      <trkpt lat="45.92287" lon="6.48397">
        <ele>1445.165</ele>
        <time>2026-03-13T08:07:05Z</time>
      </trkpt>
      <trkpt lat="45.92287" lon="6.48397">
        <ele>1443.508</ele>
        <time>2026-03-13T08:07:10Z</time>
      </trkpt>
      <trkpt lat="45.92287" lon="6.48397">
        <ele>1443.068</ele>
        <time>2026-03-13T08:07:15Z</time>
      </trkpt>
      <trkpt lat="45.92287" lon="6.48397">
        <ele>1443.34</ele>
        <time>2026-03-13T08:07:20Z</time>
      </trkpt>
      <trkpt lat="45.92287" lon="6.48397">
        <ele>1443</ele>
        <time>2026-03-13T08:07:25Z</time>
      </trkpt>
      <trkpt lat="45.92287" lon="6.48397">
        <ele>1442.937</ele>
        <time>2026-03-13T08:07:30Z</time>
      </trkpt>
      <trkpt lat="45.92287" lon="6.48397">
        <ele>1442.932</ele>
        <time>2026-03-13T08:07:35Z</time>
      </trkpt>
      <trkpt lat="45.92287" lon="6.48397">
        <ele>1442.28</ele>
        <time>2026-03-13T08:07:40Z</time>
      </trkpt>
      <trkpt lat="45.92287" lon="6.48397">
        <ele>1441.313</ele>
        <time>2026-03-13T08:07:45Z</time>
      </trkpt>
      <trkpt lat="45.92287" lon="6.48397">
        <ele>1441.338</ele>
        <time>2026-03-13T08:07:50Z</time>
      </trkpt>
      <trkpt lat="45.92287" lon="6.48397">
        <ele>1441.317</ele>
        <time>2026-03-13T08:07:55Z</time>
      </trkpt>
      <trkpt lat="45.92287" lon="6.48397">
        <ele>1441.307</ele>
        <time>2026-03-13T08:08:00Z</time>
      </trkpt>
      <trkpt lat="45.92287" lon="6.48397">
        <ele>1441.281</ele>
        <time>2026-03-13T08:08:05Z</time>
      </trkpt>
      <trkpt lat="45.92287" lon="6.48397">
        <ele>1441.266</ele>
        <time>2026-03-13T08:08:10Z</time>
      </trkpt>
      <trkpt lat="45.92287" lon="6.48397">
        <ele>1441.105</ele>
        <time>2026-03-13T08:08:15Z</time>
      </trkpt>
      <trkpt lat="45.92287" lon="6.48397">
        <ele>1440.927</ele>
        <time>2026-03-13T08:08:20Z</time>
      </trkpt>
      <trkpt lat="45.92287" lon="6.48397">
        <ele>1440.848</ele>
        <time>2026-03-13T08:08:25Z</time>
      </trkpt>
      <trkpt lat="45.92287" lon="6.48397">
        <ele>1440.768</ele>
        <time>2026-03-13T08:08:30Z</time>
      </trkpt>
      <trkpt lat="45.92287" lon="6.48397">
        <ele>1440.715</ele>
        <time>2026-03-13T08:08:35Z</time>
      </trkpt>
      <trkpt lat="45.92287" lon="6.48397">
        <ele>1440.69</ele>
        <time>2026-03-13T08:08:40Z</time>
      </trkpt>
      <trkpt lat="45.92287" lon="6.48397">
        <ele>1440.671</ele>
        <time>2026-03-13T08:08:45Z</time>
      </trkpt>
      <trkpt lat="45.92287" lon="6.48397">
        <ele>1440.66</ele>
        <time>2026-03-13T08:08:50Z</time>
      </trkpt>
      <trkpt lat="45.92287" lon="6.48397">
        <ele>1440.646</ele>
        <time>2026-03-13T08:08:55Z</time>
      </trkpt>
      <trkpt lat="45.92287" lon="6.48397">
        <ele>1440.632</ele>
        <time>2026-03-13T08:09:00Z</time>
      </trkpt>
      <trkpt lat="45.92287" lon="6.48397">
        <ele>1440.633</ele>
        <time>2026-03-13T08:09:05Z</time>
      </trkpt>
      <trkpt lat="45.92287" lon="6.48397">
        <ele>1440.624</ele>
        <time>2026-03-13T08:09:10Z</time>
      </trkpt>
      <trkpt lat="45.92287" lon="6.48397">
        <ele>1440.64</ele>
        <time>2026-03-13T08:09:15Z</time>
      </trkpt>
      <trkpt lat="45.92287" lon="6.48397">
        <ele>1440.574</ele>
        <time>2026-03-13T08:09:20Z</time>
      </trkpt>
      <trkpt lat="45.92287" lon="6.48397">
        <ele>1440.548</ele>
        <time>2026-03-13T08:09:25Z</time>
      </trkpt>
      <trkpt lat="45.92287" lon="6.48397">
        <ele>1440.536</ele>
        <time>2026-03-13T08:09:30Z</time>
      </trkpt>
      <trkpt lat="45.92287" lon="6.48397">
        <ele>1440.527</ele>
        <time>2026-03-13T08:09:35Z</time>
      </trkpt>
      <trkpt lat="45.92287" lon="6.48397">
        <ele>1440.519</ele>
        <time>2026-03-13T08:09:40Z</time>
      </trkpt>
      <trkpt lat="45.92287" lon="6.48397">
        <ele>1440.514</ele>
        <time>2026-03-13T08:09:45Z</time>
      </trkpt>
      <trkpt lat="45.92287" lon="6.48397">
        <ele>1440.504</ele>
        <time>2026-03-13T08:09:50Z</time>
      </trkpt>
      <trkpt lat="45.92287" lon="6.48397">
        <ele>1440.499</ele>
        <time>2026-03-13T08:09:55Z</time>
      </trkpt>
      <trkpt lat="45.92287" lon="6.48397">
        <ele>1440.489</ele>
        <time>2026-03-13T08:10:00Z</time>
      </trkpt>
      <trkpt lat="45.92287" lon="6.48397">
        <ele>1440.483</ele>
        <time>2026-03-13T08:10:05Z</time>
      </trkpt>
      <trkpt lat="45.92287" lon="6.48397">
        <ele>1440.475</ele>
        <time>2026-03-13T08:10:10Z</time>
      </trkpt>
      <trkpt lat="45.92287" lon="6.48397">
        <ele>1440.465</ele>
        <time>2026-03-13T08:10:15Z</time>
      </trkpt>
      <trkpt lat="45.92287" lon="6.48397">
        <ele>1440.472</ele>
        <time>2026-03-13T08:10:20Z</time>
      </trkpt>
      <trkpt lat="45.92287" lon="6.48397">
        <ele>1440.469</ele>
        <time>2026-03-13T08:10:25Z</time>
      </trkpt>
      <trkpt lat="45.92287" lon="6.48397">
        <ele>1440.467</ele>
        <time>2026-03-13T08:10:30Z</time>
      </trkpt>
      <trkpt lat="45.92287" lon="6.48397">
        <ele>1440.463</ele>
        <time>2026-03-13T08:10:35Z</time>
      </trkpt>
      <trkpt lat="45.92287" lon="6.48397">
        <ele>1440.454</ele>
        <time>2026-03-13T08:10:40Z</time>
      </trkpt>
      <trkpt lat="45.92287" lon="6.48397">
        <ele>1440.445</ele>
        <time>2026-03-13T08:10:45Z</time>
      </trkpt>
      <trkpt lat="45.92287" lon="6.48397">
        <ele>1440.45</ele>
        <time>2026-03-13T08:10:50Z</time>
      </trkpt>
      <trkpt lat="45.92287" lon="6.48397">
        <ele>1440.442</ele>
        <time>2026-03-13T08:10:55Z</time>
      </trkpt>
      <trkpt lat="45.92287" lon="6.48397">
        <ele>1440.427</ele>
        <time>2026-03-13T08:11:00Z</time>
      </trkpt>
      <trkpt lat="45.92287" lon="6.48397">
        <ele>1440.422</ele>
        <time>2026-03-13T08:11:05Z</time>
      </trkpt>
      <trkpt lat="45.92287" lon="6.48397">
        <ele>1440.424</ele>
        <time>2026-03-13T08:11:10Z</time>
      </trkpt>
      <trkpt lat="45.92287" lon="6.48397">
        <ele>1440.459</ele>
        <time>2026-03-13T08:11:15Z</time>
      </trkpt>
      <trkpt lat="45.92287" lon="6.48397">
        <ele>1440.443</ele>
        <time>2026-03-13T08:11:20Z</time>
      </trkpt>
      <trkpt lat="45.92287" lon="6.48397">
        <ele>1440.431</ele>
        <time>2026-03-13T08:11:25Z</time>
      </trkpt>
      <trkpt lat="45.92287" lon="6.48397">
        <ele>1440.418</ele>
        <time>2026-03-13T08:11:30Z</time>
      </trkpt>
      <trkpt lat="45.92287" lon="6.48397">
        <ele>1440.404</ele>
        <time>2026-03-13T08:11:35Z</time>
      </trkpt>
      <trkpt lat="45.92287" lon="6.48397">
        <ele>1440.4</ele>
        <time>2026-03-13T08:11:40Z</time>
      </trkpt>
      <trkpt lat="45.92287" lon="6.48397">
        <ele>1440.401</ele>
        <time>2026-03-13T08:11:45Z</time>
      </trkpt>
      <trkpt lat="45.92287" lon="6.48397">
        <ele>1440.393</ele>
        <time>2026-03-13T08:11:50Z</time>
      </trkpt>
      <trkpt lat="45.92287" lon="6.48397">
        <ele>1440.389</ele>
        <time>2026-03-13T08:11:55Z</time>
      </trkpt>
      <trkpt lat="45.92287" lon="6.48397">
        <ele>1440.372</ele>
        <time>2026-03-13T08:12:00Z</time>
      </trkpt>
      <trkpt lat="45.92287" lon="6.48397">
        <ele>1440.359</ele>
        <time>2026-03-13T08:12:05Z</time>
      </trkpt>
      <trkpt lat="45.92287" lon="6.48397">
        <ele>1440.342</ele>
        <time>2026-03-13T08:12:10Z</time>
      </trkpt>
      <trkpt lat="45.92287" lon="6.48397">
        <ele>1439.892</ele>
        <time>2026-03-13T08:12:15Z</time>
      </trkpt>
      <trkpt lat="45.92287" lon="6.48397">
        <ele>1440.665</ele>
        <time>2026-03-13T08:12:20Z</time>
      </trkpt>
      <trkpt lat="45.92287" lon="6.48397">
        <ele>1441.113</ele>
        <time>2026-03-13T08:12:25Z</time>
      </trkpt>
      <trkpt lat="45.92287" lon="6.48397">
        <ele>1441.252</ele>
        <time>2026-03-13T08:12:30Z</time>
      </trkpt>
      <trkpt lat="45.92287" lon="6.48397">
        <ele>1442.55</ele>
        <time>2026-03-13T08:12:35Z</time>
      </trkpt>
      <trkpt lat="45.92287" lon="6.48397">
        <ele>1438.725</ele>
        <time>2026-03-13T08:12:40Z</time>
      </trkpt>
      <trkpt lat="45.92287" lon="6.48397">
        <ele>1439.022</ele>
        <time>2026-03-13T08:12:45Z</time>
      </trkpt>
      <trkpt lat="45.92287" lon="6.48397">
        <ele>1437.984</ele>
        <time>2026-03-13T08:12:50Z</time>
      </trkpt>
      <trkpt lat="45.92287" lon="6.48397">
        <ele>1437.258</ele>
        <time>2026-03-13T08:12:55Z</time>
      </trkpt>
      <trkpt lat="45.92287" lon="6.48397">
        <ele>1436.253</ele>
        <time>2026-03-13T08:13:00Z</time>
      </trkpt>
      <trkpt lat="45.92287" lon="6.48397">
        <ele>1436.246</ele>
        <time>2026-03-13T08:13:05Z</time>
      </trkpt>
      <trkpt lat="45.92287" lon="6.48397">
        <ele>1436.25</ele>
        <time>2026-03-13T08:13:10Z</time>
      </trkpt>
      <trkpt lat="45.92287" lon="6.48397">
        <ele>1437.282</ele>
        <time>2026-03-13T08:13:15Z</time>
      </trkpt>
      <trkpt lat="45.92287" lon="6.48397">
        <ele>1439.038</ele>
        <time>2026-03-13T08:13:20Z</time>
      </trkpt>
      <trkpt lat="45.92287" lon="6.48397">
        <ele>1439.453</ele>
        <time>2026-03-13T08:13:25Z</time>
      </trkpt>
      <trkpt lat="45.92287" lon="6.48397">
        <ele>1438.65</ele>
        <time>2026-03-13T08:13:30Z</time>
      </trkpt>
      <trkpt lat="45.92287" lon="6.48397">
        <ele>1440.046</ele>
        <time>2026-03-13T08:13:35Z</time>
      </trkpt>
      <trkpt lat="45.92287" lon="6.48397">
        <ele>1441.503</ele>
        <time>2026-03-13T08:13:40Z</time>
      </trkpt>
      <trkpt lat="45.92287" lon="6.48397">
        <ele>1444.284</ele>
        <time>2026-03-13T08:13:45Z</time>
      </trkpt>
      <trkpt lat="45.92287" lon="6.48397">
        <ele>1444.577</ele>
        <time>2026-03-13T08:13:50Z</time>
      </trkpt>
      <trkpt lat="45.92287" lon="6.48397">
        <ele>1444.157</ele>
        <time>2026-03-13T08:13:55Z</time>
      </trkpt>
      <trkpt lat="45.92287" lon="6.48397">
        <ele>1441.388</ele>
        <time>2026-03-13T08:14:00Z</time>
      </trkpt>
      <trkpt lat="45.92287" lon="6.48397">
        <ele>1440.528</ele>
        <time>2026-03-13T08:14:05Z</time>
      </trkpt>
      <trkpt lat="45.92287" lon="6.48397">
        <ele>1440.646</ele>
        <time>2026-03-13T08:14:10Z</time>
      </trkpt>
      <trkpt lat="45.92287" lon="6.48397">
        <ele>1440.636</ele>
        <time>2026-03-13T08:14:15Z</time>
      </trkpt>
      <trkpt lat="45.92287" lon="6.48397">
        <ele>1442.422</ele>
        <time>2026-03-13T08:14:20Z</time>
      </trkpt>
      <trkpt lat="45.92287" lon="6.48397">
        <ele>1443.108</ele>
        <time>2026-03-13T08:14:25Z</time>
      </trkpt>
      <trkpt lat="45.92287" lon="6.48397">
        <ele>1443.365</ele>
        <time>2026-03-13T08:14:30Z</time>
      </trkpt>
      <trkpt lat="45.92287" lon="6.48397">
        <ele>1441.397</ele>
        <time>2026-03-13T08:14:35Z</time>
      </trkpt>
      <trkpt lat="45.92287" lon="6.48397">
        <ele>1441.624</ele>
        <time>2026-03-13T08:14:40Z</time>
      </trkpt>
      <trkpt lat="45.92287" lon="6.48397">
        <ele>1441.972</ele>
        <time>2026-03-13T08:14:45Z</time>
      </trkpt>
      <trkpt lat="45.92287" lon="6.48397">
        <ele>1441.983</ele>
        <time>2026-03-13T08:14:50Z</time>
      </trkpt>
      <trkpt lat="45.92287" lon="6.48397">
        <ele>1441.99</ele>
        <time>2026-03-13T08:14:55Z</time>
      </trkpt>
      <trkpt lat="45.92287" lon="6.48397">
        <ele>1441.989</ele>
        <time>2026-03-13T08:15:00Z</time>
      </trkpt>
      <trkpt lat="45.92287" lon="6.48397">
        <ele>1441.98</ele>
        <time>2026-03-13T08:15:05Z</time>
      </trkpt>
      <trkpt lat="45.92287" lon="6.48397">
        <ele>1441.972</ele>
        <time>2026-03-13T08:15:10Z</time>
      </trkpt>
      <trkpt lat="45.92287" lon="6.48397">
        <ele>1441.973</ele>
        <time>2026-03-13T08:15:15Z</time>
      </trkpt>
      <trkpt lat="45.92287" lon="6.48397">
        <ele>1441.721</ele>
        <time>2026-03-13T08:15:20Z</time>
      </trkpt>
      <trkpt lat="45.92287" lon="6.48397">
        <ele>1443.242</ele>
        <time>2026-03-13T08:15:25Z</time>
      </trkpt>
      <trkpt lat="45.92287" lon="6.48397">
        <ele>1444.933</ele>
        <time>2026-03-13T08:15:30Z</time>
      </trkpt>
      <trkpt lat="45.92287" lon="6.48397">
        <ele>1445.496</ele>
        <time>2026-03-13T08:15:35Z</time>
      </trkpt>
      <trkpt lat="45.92287" lon="6.48397">
        <ele>1446.921</ele>
        <time>2026-03-13T08:15:40Z</time>
      </trkpt>
      <trkpt lat="45.92287" lon="6.48397">
        <ele>1447.853</ele>
        <time>2026-03-13T08:15:45Z</time>
      </trkpt>
      <trkpt lat="45.92287" lon="6.48397">
        <ele>1447.242</ele>
        <time>2026-03-13T08:15:50Z</time>
      </trkpt>
      <trkpt lat="45.92287" lon="6.48397">
        <ele>1447.245</ele>
        <time>2026-03-13T08:15:55Z</time>
      </trkpt>
      <trkpt lat="45.92287" lon="6.48397">
        <ele>1446.816</ele>
        <time>2026-03-13T08:16:00Z</time>
      </trkpt>
      <trkpt lat="45.92287" lon="6.48397">
        <ele>1446.957</ele>
        <time>2026-03-13T08:16:05Z</time>
      </trkpt>
      <trkpt lat="45.92287" lon="6.48397">
        <ele>1446.844</ele>
        <time>2026-03-13T08:16:10Z</time>
      </trkpt>
      <trkpt lat="45.92287" lon="6.48397">
        <ele>1446.422</ele>
        <time>2026-03-13T08:16:15Z</time>
      </trkpt>
      <trkpt lat="45.92287" lon="6.48397">
        <ele>1446.566</ele>
        <time>2026-03-13T08:16:20Z</time>
      </trkpt>
      <trkpt lat="45.92287" lon="6.48397">
        <ele>1446.274</ele>
        <time>2026-03-13T08:16:25Z</time>
      </trkpt>
      <trkpt lat="45.92287" lon="6.48397">
        <ele>1446.21</ele>
        <time>2026-03-13T08:16:30Z</time>
      </trkpt>
      <trkpt lat="45.92287" lon="6.48397">
        <ele>1446.182</ele>
        <time>2026-03-13T08:16:35Z</time>
      </trkpt>
      <trkpt lat="45.92287" lon="6.48397">
        <ele>1446.194</ele>
        <time>2026-03-13T08:16:40Z</time>
      </trkpt>
      <trkpt lat="45.92287" lon="6.48397">
        <ele>1446.042</ele>
        <time>2026-03-13T08:16:45Z</time>
      </trkpt>
      <trkpt lat="45.92287" lon="6.48397">
        <ele>1445.637</ele>
        <time>2026-03-13T08:16:50Z</time>
      </trkpt>
      <trkpt lat="45.92287" lon="6.48397">
        <ele>1444.225</ele>
        <time>2026-03-13T08:16:55Z</time>
      </trkpt>
      <trkpt lat="45.92287" lon="6.48397">
        <ele>1444.811</ele>
        <time>2026-03-13T08:17:00Z</time>
      </trkpt>
      <trkpt lat="45.92287" lon="6.48397">
        <ele>1444.696</ele>
        <time>2026-03-13T08:17:05Z</time>
      </trkpt>
      <trkpt lat="45.92287" lon="6.48397">
        <ele>1444.578</ele>
        <time>2026-03-13T08:17:10Z</time>
      </trkpt>
      <trkpt lat="45.92287" lon="6.48397">
        <ele>1446.133</ele>
        <time>2026-03-13T08:17:15Z</time>
      </trkpt>
      <trkpt lat="45.92287" lon="6.48397">
        <ele>1445.956</ele>
        <time>2026-03-13T08:17:20Z</time>
      </trkpt>
      <trkpt lat="45.92287" lon="6.48397">
        <ele>1445.675</ele>
        <time>2026-03-13T08:17:25Z</time>
      </trkpt>
      <trkpt lat="45.92287" lon="6.48397">
        <ele>1445.889</ele>
        <time>2026-03-13T08:17:30Z</time>
      </trkpt>
      <trkpt lat="45.92287" lon="6.48397">
        <ele>1445.83</ele>
        <time>2026-03-13T08:17:35Z</time>
      </trkpt>
      <trkpt lat="45.92287" lon="6.48397">
        <ele>1445.828</ele>
        <time>2026-03-13T08:17:40Z</time>
      </trkpt>
      <trkpt lat="45.92287" lon="6.48397">
        <ele>1445.816</ele>
        <time>2026-03-13T08:17:45Z</time>
      </trkpt>
      <trkpt lat="45.92287" lon="6.48397">
        <ele>1444.88</ele>
        <time>2026-03-13T08:17:50Z</time>
      </trkpt>
      <trkpt lat="45.92287" lon="6.48397">
        <ele>1444.928</ele>
        <time>2026-03-13T08:17:55Z</time>
      </trkpt>
      <trkpt lat="45.92287" lon="6.48397">
        <ele>1445.452</ele>
        <time>2026-03-13T08:18:00Z</time>
      </trkpt>
      <trkpt lat="45.92287" lon="6.48397">
        <ele>1445.6</ele>
        <time>2026-03-13T08:18:05Z</time>
      </trkpt>
      <trkpt lat="45.92287" lon="6.48397">
        <ele>1445.486</ele>
        <time>2026-03-13T08:18:10Z</time>
      </trkpt>
      <trkpt lat="45.92287" lon="6.48397">
        <ele>1445.47</ele>
        <time>2026-03-13T08:18:15Z</time>
      </trkpt>
      <trkpt lat="45.92287" lon="6.48397">
        <ele>1445.45</ele>
        <time>2026-03-13T08:18:20Z</time>
      </trkpt>
      <trkpt lat="45.92287" lon="6.48397">
        <ele>1445.583</ele>
        <time>2026-03-13T08:18:25Z</time>
      </trkpt>
      <trkpt lat="45.92287" lon="6.48397">
        <ele>1445.596</ele>
        <time>2026-03-13T08:18:30Z</time>
      </trkpt>
      <trkpt lat="45.92287" lon="6.48397">
        <ele>1445.843</ele>
        <time>2026-03-13T08:18:35Z</time>
      </trkpt>
      <trkpt lat="45.92287" lon="6.48397">
        <ele>1445.146</ele>
        <time>2026-03-13T08:18:40Z</time>
      </trkpt>
      <trkpt lat="45.92287" lon="6.48397">
        <ele>1443.924</ele>
        <time>2026-03-13T08:18:45Z</time>
      </trkpt>
      <trkpt lat="45.92287" lon="6.48397">
        <ele>1443.626</ele>
        <time>2026-03-13T08:18:50Z</time>
      </trkpt>
      <trkpt lat="45.92287" lon="6.48397">
        <ele>1443.854</ele>
        <time>2026-03-13T08:18:55Z</time>
      </trkpt>
      <trkpt lat="45.92287" lon="6.48397">
        <ele>1444.166</ele>
        <time>2026-03-13T08:19:00Z</time>
      </trkpt>
      <trkpt lat="45.92287" lon="6.48397">
        <ele>1443.909</ele>
        <time>2026-03-13T08:19:05Z</time>
      </trkpt>
      <trkpt lat="45.92287" lon="6.48397">
        <ele>1445.075</ele>
        <time>2026-03-13T08:19:10Z</time>
      </trkpt>
      <trkpt lat="45.92287" lon="6.48397">
        <ele>1444.906</ele>
        <time>2026-03-13T08:19:15Z</time>
      </trkpt>
      <trkpt lat="45.92287" lon="6.48397">
        <ele>1444.757</ele>
        <time>2026-03-13T08:19:20Z</time>
      </trkpt>
      <trkpt lat="45.92287" lon="6.48397">
        <ele>1444.782</ele>
        <time>2026-03-13T08:19:25Z</time>
      </trkpt>
      <trkpt lat="45.92287" lon="6.48397">
        <ele>1444.786</ele>
        <time>2026-03-13T08:19:30Z</time>
      </trkpt>
      <trkpt lat="45.92287" lon="6.48397">
        <ele>1444.789</ele>
        <time>2026-03-13T08:19:35Z</time>
      </trkpt>
      <trkpt lat="45.92287" lon="6.48397">
        <ele>1444.791</ele>
        <time>2026-03-13T08:19:39Z</time>
      </trkpt>
      <trkpt lat="45.92287" lon="6.48397">
        <ele>1444.779</ele>
        <time>2026-03-13T08:19:45Z</time>
      </trkpt>
      <trkpt lat="45.92287" lon="6.48397">
        <ele>1444.789</ele>
        <time>2026-03-13T08:19:49Z</time>
      </trkpt>
      <trkpt lat="45.92287" lon="6.48397">
        <ele>1444.788</ele>
        <time>2026-03-13T08:19:55Z</time>
      </trkpt>
      <trkpt lat="45.92287" lon="6.48397">
        <ele>1444.79</ele>
        <time>2026-03-13T08:20:00Z</time>
      </trkpt>
      <trkpt lat="45.92287" lon="6.48397">
        <ele>1444.789</ele>
        <time>2026-03-13T08:20:05Z</time>
      </trkpt>
      <trkpt lat="45.92287" lon="6.48397">
        <ele>1444.778</ele>
        <time>2026-03-13T08:20:10Z</time>
      </trkpt>
      <trkpt lat="45.92287" lon="6.48397">
        <ele>1444.777</ele>
        <time>2026-03-13T08:20:15Z</time>
      </trkpt>
      <trkpt lat="45.92287" lon="6.48397">
        <ele>1444.777</ele>
        <time>2026-03-13T08:20:20Z</time>
      </trkpt>
      <trkpt lat="45.92287" lon="6.48397">
        <ele>1444.773</ele>
        <time>2026-03-13T08:20:25Z</time>
      </trkpt>
      <trkpt lat="45.92287" lon="6.48397">
        <ele>1444.77</ele>
        <time>2026-03-13T08:20:30Z</time>
      </trkpt>
      <trkpt lat="45.92287" lon="6.48397">
        <ele>1444.774</ele>
        <time>2026-03-13T08:20:35Z</time>
      </trkpt>
      <trkpt lat="45.92287" lon="6.48397">
        <ele>1444.779</ele>
        <time>2026-03-13T08:20:40Z</time>
      </trkpt>
      <trkpt lat="45.92287" lon="6.48397">
        <ele>1444.778</ele>
        <time>2026-03-13T08:20:45Z</time>
      </trkpt>
      <trkpt lat="45.92287" lon="6.48397">
        <ele>1444.773</ele>
        <time>2026-03-13T08:20:50Z</time>
      </trkpt>
      <trkpt lat="45.92287" lon="6.48397">
        <ele>1444.765</ele>
        <time>2026-03-13T08:20:55Z</time>
      </trkpt>
      <trkpt lat="45.92287" lon="6.48397">
        <ele>1444.753</ele>
        <time>2026-03-13T08:21:00Z</time>
      </trkpt>
      <trkpt lat="45.92287" lon="6.48397">
        <ele>1444.743</ele>
        <time>2026-03-13T08:21:05Z</time>
      </trkpt>
      <trkpt lat="45.92287" lon="6.48397">
        <ele>1444.736</ele>
        <time>2026-03-13T08:21:10Z</time>
      </trkpt>
      <trkpt lat="45.92287" lon="6.48397">
        <ele>1445.105</ele>
        <time>2026-03-13T08:21:15Z</time>
      </trkpt>
      <trkpt lat="45.92287" lon="6.48397">
        <ele>1445.4</ele>
        <time>2026-03-13T08:21:20Z</time>
      </trkpt>
      <trkpt lat="45.92287" lon="6.48397">
        <ele>1445.689</ele>
        <time>2026-03-13T08:21:25Z</time>
      </trkpt>
      <trkpt lat="45.92287" lon="6.48397">
        <ele>1445.698</ele>
        <time>2026-03-13T08:21:30Z</time>
      </trkpt>
      <trkpt lat="45.92287" lon="6.48397">
        <ele>1445.705</ele>
        <time>2026-03-13T08:21:35Z</time>
      </trkpt>
      <trkpt lat="45.92287" lon="6.48397">
        <ele>1445.707</ele>
        <time>2026-03-13T08:21:40Z</time>
      </trkpt>
      <trkpt lat="45.92287" lon="6.48397">
        <ele>1445.707</ele>
        <time>2026-03-13T08:21:45Z</time>
      </trkpt>
      <trkpt lat="45.92287" lon="6.48397">
        <ele>1445.712</ele>
        <time>2026-03-13T08:21:50Z</time>
      </trkpt>
      <trkpt lat="45.92287" lon="6.48397">
        <ele>1445.716</ele>
        <time>2026-03-13T08:21:55Z</time>
      </trkpt>
      <trkpt lat="45.92287" lon="6.48397">
        <ele>1445.718</ele>
        <time>2026-03-13T08:22:00Z</time>
      </trkpt>
      <trkpt lat="45.92287" lon="6.48397">
        <ele>1445.718</ele>
        <time>2026-03-13T08:22:05Z</time>
      </trkpt>
      <trkpt lat="45.92287" lon="6.48397">
        <ele>1445.724</ele>
        <time>2026-03-13T08:22:10Z</time>
      </trkpt>
      <trkpt lat="45.92287" lon="6.48397">
        <ele>1445.717</ele>
        <time>2026-03-13T08:22:15Z</time>
      </trkpt>
      <trkpt lat="45.92287" lon="6.48397">
        <ele>1445.719</ele>
        <time>2026-03-13T08:22:20Z</time>
      </trkpt>
      <trkpt lat="45.92287" lon="6.48397">
        <ele>1445.714</ele>
        <time>2026-03-13T08:22:25Z</time>
      </trkpt>
      <trkpt lat="45.92287" lon="6.48397">
        <ele>1445.715</ele>
        <time>2026-03-13T08:22:30Z</time>
      </trkpt>
      <trkpt lat="45.92287" lon="6.48397">
        <ele>1446.209</ele>
        <time>2026-03-13T08:22:35Z</time>
      </trkpt>
      <trkpt lat="45.92287" lon="6.48397">
        <ele>1445.515</ele>
        <time>2026-03-13T08:22:40Z</time>
      </trkpt>
      <trkpt lat="45.92287" lon="6.48397">
        <ele>1445.379</ele>
        <time>2026-03-13T08:22:45Z</time>
      </trkpt>
      <trkpt lat="45.92287" lon="6.48397">
        <ele>1445.531</ele>
        <time>2026-03-13T08:22:50Z</time>
      </trkpt>
      <trkpt lat="45.92287" lon="6.48397">
        <ele>1445.54</ele>
        <time>2026-03-13T08:22:55Z</time>
      </trkpt>
      <trkpt lat="45.92287" lon="6.48397">
        <ele>1445.546</ele>
        <time>2026-03-13T08:23:00Z</time>
      </trkpt>
      <trkpt lat="45.92287" lon="6.48397">
        <ele>1445.559</ele>
        <time>2026-03-13T08:23:05Z</time>
      </trkpt>
      <trkpt lat="45.92287" lon="6.48397">
        <ele>1445.549</ele>
        <time>2026-03-13T08:23:10Z</time>
      </trkpt>
      <trkpt lat="45.92287" lon="6.48397">
        <ele>1445.557</ele>
        <time>2026-03-13T08:23:15Z</time>
      </trkpt>
      <trkpt lat="45.92287" lon="6.48397">
        <ele>1445.555</ele>
        <time>2026-03-13T08:23:20Z</time>
      </trkpt>
      <trkpt lat="45.92287" lon="6.48397">
        <ele>1445.547</ele>
        <time>2026-03-13T08:23:25Z</time>
      </trkpt>
      <trkpt lat="45.92287" lon="6.48397">
        <ele>1445.539</ele>
        <time>2026-03-13T08:23:30Z</time>
      </trkpt>
      <trkpt lat="45.92287" lon="6.48397">
        <ele>1445.534</ele>
        <time>2026-03-13T08:23:35Z</time>
      </trkpt>
      <trkpt lat="45.92287" lon="6.48397">
        <ele>1445.517</ele>
        <time>2026-03-13T08:23:40Z</time>
      </trkpt>
      <trkpt lat="45.92287" lon="6.48397">
        <ele>1445.517</ele>
        <time>2026-03-13T08:23:45Z</time>
      </trkpt>
      <trkpt lat="45.92287" lon="6.48397">
        <ele>1445.525</ele>
        <time>2026-03-13T08:23:50Z</time>
      </trkpt>
      <trkpt lat="45.92287" lon="6.48397">
        <ele>1445.509</ele>
        <time>2026-03-13T08:23:55Z</time>
      </trkpt>
      <trkpt lat="45.92287" lon="6.48397">
        <ele>1445.499</ele>
        <time>2026-03-13T08:24:00Z</time>
      </trkpt>
      <trkpt lat="45.92287" lon="6.48397">
        <ele>1445.48</ele>
        <time>2026-03-13T08:24:05Z</time>
      </trkpt>
      <trkpt lat="45.92287" lon="6.48397">
        <ele>1445.448</ele>
        <time>2026-03-13T08:24:10Z</time>
      </trkpt>
      <trkpt lat="45.92287" lon="6.48397">
        <ele>1445.41</ele>
        <time>2026-03-13T08:24:15Z</time>
      </trkpt>
      <trkpt lat="45.92287" lon="6.48397">
        <ele>1445.402</ele>
        <time>2026-03-13T08:24:20Z</time>
      </trkpt>
      <trkpt lat="45.92287" lon="6.48397">
        <ele>1445.399</ele>
        <time>2026-03-13T08:24:25Z</time>
      </trkpt>
      <trkpt lat="45.92287" lon="6.48397">
        <ele>1445.402</ele>
        <time>2026-03-13T08:24:30Z</time>
      </trkpt>
      <trkpt lat="45.92287" lon="6.48397">
        <ele>1445.395</ele>
        <time>2026-03-13T08:24:35Z</time>
      </trkpt>
      <trkpt lat="45.92287" lon="6.48397">
        <ele>1445.391</ele>
        <time>2026-03-13T08:24:40Z</time>
      </trkpt>
      <trkpt lat="45.92287" lon="6.48397">
        <ele>1445.378</ele>
        <time>2026-03-13T08:24:45Z</time>
      </trkpt>
      <trkpt lat="45.92287" lon="6.48397">
        <ele>1445.385</ele>
        <time>2026-03-13T08:24:50Z</time>
      </trkpt>
      <trkpt lat="45.92287" lon="6.48397">
        <ele>1445.39</ele>
        <time>2026-03-13T08:24:55Z</time>
      </trkpt>
      <trkpt lat="45.92287" lon="6.48397">
        <ele>1445.39</ele>
        <time>2026-03-13T08:25:00Z</time>
      </trkpt>
      <trkpt lat="45.92287" lon="6.48397">
        <ele>1445.392</ele>
        <time>2026-03-13T08:25:05Z</time>
      </trkpt>
      <trkpt lat="45.92287" lon="6.48397">
        <ele>1445.395</ele>
        <time>2026-03-13T08:25:10Z</time>
      </trkpt>
      <trkpt lat="45.92287" lon="6.48397">
        <ele>1445.392</ele>
        <time>2026-03-13T08:25:15Z</time>
      </trkpt>
      <trkpt lat="45.92287" lon="6.48397">
        <ele>1445.382</ele>
        <time>2026-03-13T08:25:20Z</time>
      </trkpt>
      <trkpt lat="45.92287" lon="6.48397">
        <ele>1445.353</ele>
        <time>2026-03-13T08:25:25Z</time>
      </trkpt>
      <trkpt lat="45.92287" lon="6.48397">
        <ele>1445.338</ele>
        <time>2026-03-13T08:25:30Z</time>
      </trkpt>
      <trkpt lat="45.92287" lon="6.48397">
        <ele>1445.318</ele>
        <time>2026-03-13T08:25:35Z</time>
      </trkpt>
      <trkpt lat="45.92287" lon="6.48397">
        <ele>1445.304</ele>
        <time>2026-03-13T08:25:40Z</time>
      </trkpt>
      <trkpt lat="45.92287" lon="6.48397">
        <ele>1445.29</ele>
        <time>2026-03-13T08:25:45Z</time>
      </trkpt>
      <trkpt lat="45.92287" lon="6.48397">
        <ele>1445.279</ele>
        <time>2026-03-13T08:25:50Z</time>
      </trkpt>
      <trkpt lat="45.92287" lon="6.48397">
        <ele>1445.267</ele>
        <time>2026-03-13T08:25:55Z</time>
      </trkpt>
      <trkpt lat="45.92287" lon="6.48397">
        <ele>1445.267</ele>
        <time>2026-03-13T08:26:00Z</time>
      </trkpt>
      <trkpt lat="45.92287" lon="6.48397">
        <ele>1445.263</ele>
        <time>2026-03-13T08:26:05Z</time>
      </trkpt>
      <trkpt lat="45.92287" lon="6.48397">
        <ele>1445.254</ele>
        <time>2026-03-13T08:26:10Z</time>
      </trkpt>
      <trkpt lat="45.92287" lon="6.48397">
        <ele>1445.247</ele>
        <time>2026-03-13T08:26:15Z</time>
      </trkpt>
      <trkpt lat="45.92287" lon="6.48397">
        <ele>1445.236</ele>
        <time>2026-03-13T08:26:20Z</time>
      </trkpt>
      <trkpt lat="45.92287" lon="6.48397">
        <ele>1445.225</ele>
        <time>2026-03-13T08:26:25Z</time>
      </trkpt>
      <trkpt lat="45.92287" lon="6.48397">
        <ele>1445.211</ele>
        <time>2026-03-13T08:26:30Z</time>
      </trkpt>
      <trkpt lat="45.92287" lon="6.48397">
        <ele>1445.188</ele>
        <time>2026-03-13T08:26:35Z</time>
      </trkpt>
      <trkpt lat="45.92287" lon="6.48397">
        <ele>1443.974</ele>
        <time>2026-03-13T08:26:40Z</time>
      </trkpt>
      <trkpt lat="45.92287" lon="6.48397">
        <ele>1441.718</ele>
        <time>2026-03-13T08:26:45Z</time>
      </trkpt>
      <trkpt lat="45.92287" lon="6.48397">
        <ele>1443.282</ele>
        <time>2026-03-13T08:26:50Z</time>
      </trkpt>
      <trkpt lat="45.92287" lon="6.48397">
        <ele>1443.608</ele>
        <time>2026-03-13T08:26:55Z</time>
      </trkpt>
      <trkpt lat="45.92287" lon="6.48397">
        <ele>1443.397</ele>
        <time>2026-03-13T08:27:00Z</time>
      </trkpt>
      <trkpt lat="45.92287" lon="6.48397">
        <ele>1443.549</ele>
        <time>2026-03-13T08:27:05Z</time>
      </trkpt>
      <trkpt lat="45.92287" lon="6.48397">
        <ele>1443.604</ele>
        <time>2026-03-13T08:27:10Z</time>
      </trkpt>
      <trkpt lat="45.92287" lon="6.48397">
        <ele>1442.94</ele>
        <time>2026-03-13T08:27:15Z</time>
      </trkpt>
      <trkpt lat="45.92287" lon="6.48397">
        <ele>1441.918</ele>
        <time>2026-03-13T08:27:20Z</time>
      </trkpt>
      <trkpt lat="45.92287" lon="6.48397">
        <ele>1441.651</ele>
        <time>2026-03-13T08:27:25Z</time>
      </trkpt>
      <trkpt lat="45.92287" lon="6.48397">
        <ele>1441.659</ele>
        <time>2026-03-13T08:27:30Z</time>
      </trkpt>
      <trkpt lat="45.92287" lon="6.48397">
        <ele>1442.884</ele>
        <time>2026-03-13T08:27:35Z</time>
      </trkpt>
      <trkpt lat="45.92282" lon="6.48387">
        <ele>1444.61</ele>
        <time>2026-03-13T08:27:40Z</time>
      </trkpt>
      <trkpt lat="45.92278" lon="6.48387">
        <ele>1443.486</ele>
        <time>2026-03-13T08:27:45Z</time>
      </trkpt>
      <trkpt lat="45.92273" lon="6.4839">
        <ele>1443.265</ele>
        <time>2026-03-13T08:27:50Z</time>
      </trkpt>
      <trkpt lat="45.92269" lon="6.48392">
        <ele>1444.39</ele>
        <time>2026-03-13T08:27:55Z</time>
      </trkpt>
      <trkpt lat="45.92264" lon="6.48395">
        <ele>1444.574</ele>
        <time>2026-03-13T08:28:00Z</time>
      </trkpt>
      <trkpt lat="45.92259" lon="6.48397">
        <ele>1445.827</ele>
        <time>2026-03-13T08:28:05Z</time>
      </trkpt>
      <trkpt lat="45.92256" lon="6.48398">
        <ele>1448.484</ele>
        <time>2026-03-13T08:28:10Z</time>
      </trkpt>
      <trkpt lat="45.92251" lon="6.484">
        <ele>1449.442</ele>
        <time>2026-03-13T08:28:16Z</time>
      </trkpt>
      <trkpt lat="45.92246" lon="6.48398">
        <ele>1451.115</ele>
        <time>2026-03-13T08:28:21Z</time>
      </trkpt>
      <trkpt lat="45.92241" lon="6.48402">
        <ele>1449.694</ele>
        <time>2026-03-13T08:28:26Z</time>
      </trkpt>
      <trkpt lat="45.92238" lon="6.48406">
        <ele>1449.637</ele>
        <time>2026-03-13T08:28:31Z</time>
      </trkpt>
      <trkpt lat="45.92235" lon="6.48411">
        <ele>1449.21</ele>
        <time>2026-03-13T08:28:36Z</time>
      </trkpt>
      <trkpt lat="45.92231" lon="6.48415">
        <ele>1449.369</ele>
        <time>2026-03-13T08:28:41Z</time>
      </trkpt>
      <trkpt lat="45.92228" lon="6.48419">
        <ele>1449.355</ele>
        <time>2026-03-13T08:28:46Z</time>
      </trkpt>
      <trkpt lat="45.92224" lon="6.48422">
        <ele>1450.621</ele>
        <time>2026-03-13T08:28:51Z</time>
      </trkpt>
      <trkpt lat="45.92221" lon="6.48424">
        <ele>1451.964</ele>
        <time>2026-03-13T08:28:56Z</time>
      </trkpt>
      <trkpt lat="45.92219" lon="6.48427">
        <ele>1452.334</ele>
        <time>2026-03-13T08:29:01Z</time>
      </trkpt>
      <trkpt lat="45.92216" lon="6.4843">
        <ele>1452.594</ele>
        <time>2026-03-13T08:29:06Z</time>
      </trkpt>
      <trkpt lat="45.92213" lon="6.48432">
        <ele>1453.44</ele>
        <time>2026-03-13T08:29:11Z</time>
      </trkpt>
      <trkpt lat="45.9221" lon="6.48434">
        <ele>1454.465</ele>
        <time>2026-03-13T08:29:16Z</time>
      </trkpt>
      <trkpt lat="45.92207" lon="6.48436">
        <ele>1455.533</ele>
        <time>2026-03-13T08:29:21Z</time>
      </trkpt>
      <trkpt lat="45.92207" lon="6.48436">
        <ele>1455.63</ele>
        <time>2026-03-13T08:29:26Z</time>
      </trkpt>
      <trkpt lat="45.92207" lon="6.48436">
        <ele>1455.632</ele>
        <time>2026-03-13T08:29:31Z</time>
      </trkpt>
      <trkpt lat="45.92207" lon="6.48436">
        <ele>1455.634</ele>
        <time>2026-03-13T08:29:36Z</time>
      </trkpt>
      <trkpt lat="45.92207" lon="6.48436">
        <ele>1455.639</ele>
        <time>2026-03-13T08:29:41Z</time>
      </trkpt>
      <trkpt lat="45.92207" lon="6.48436">
        <ele>1455.687</ele>
        <time>2026-03-13T08:29:46Z</time>
      </trkpt>
      <trkpt lat="45.92207" lon="6.48436">
        <ele>1455.693</ele>
        <time>2026-03-13T08:29:51Z</time>
      </trkpt>
      <trkpt lat="45.92207" lon="6.48436">
        <ele>1455.742</ele>
        <time>2026-03-13T08:29:56Z</time>
      </trkpt>
      <trkpt lat="45.92206" lon="6.48436">
        <ele>1455.933</ele>
        <time>2026-03-13T08:30:01Z</time>
      </trkpt>
      <trkpt lat="45.92206" lon="6.48436">
        <ele>1455.866</ele>
        <time>2026-03-13T08:30:06Z</time>
      </trkpt>
      <trkpt lat="45.92206" lon="6.48436">
        <ele>1455.865</ele>
        <time>2026-03-13T08:30:11Z</time>
      </trkpt>
      <trkpt lat="45.92204" lon="6.48437">
        <ele>1456.587</ele>
        <time>2026-03-13T08:30:16Z</time>
      </trkpt>
      <trkpt lat="45.922" lon="6.48441">
        <ele>1457.213</ele>
        <time>2026-03-13T08:30:21Z</time>
      </trkpt>
      <trkpt lat="45.92197" lon="6.48445">
        <ele>1457.847</ele>
        <time>2026-03-13T08:30:26Z</time>
      </trkpt>
      <trkpt lat="45.92193" lon="6.48449">
        <ele>1458.636</ele>
        <time>2026-03-13T08:30:31Z</time>
      </trkpt>
      <trkpt lat="45.92189" lon="6.48453">
        <ele>1458.263</ele>
        <time>2026-03-13T08:30:36Z</time>
      </trkpt>
      <trkpt lat="45.92186" lon="6.48458">
        <ele>1459.785</ele>
        <time>2026-03-13T08:30:41Z</time>
      </trkpt>
      <trkpt lat="45.92182" lon="6.48462">
        <ele>1460.665</ele>
        <time>2026-03-13T08:30:46Z</time>
      </trkpt>
      <trkpt lat="45.92177" lon="6.48467">
        <ele>1462.165</ele>
        <time>2026-03-13T08:30:51Z</time>
      </trkpt>
      <trkpt lat="45.92173" lon="6.48472">
        <ele>1462.295</ele>
        <time>2026-03-13T08:30:56Z</time>
      </trkpt>
      <trkpt lat="45.9217" lon="6.48476">
        <ele>1462.789</ele>
        <time>2026-03-13T08:31:01Z</time>
      </trkpt>
      <trkpt lat="45.92166" lon="6.4848">
        <ele>1463.973</ele>
        <time>2026-03-13T08:31:06Z</time>
      </trkpt>
      <trkpt lat="45.92163" lon="6.48485">
        <ele>1463.808</ele>
        <time>2026-03-13T08:31:11Z</time>
      </trkpt>
      <trkpt lat="45.9216" lon="6.4849">
        <ele>1463.396</ele>
        <time>2026-03-13T08:31:16Z</time>
      </trkpt>
      <trkpt lat="45.92158" lon="6.48494">
        <ele>1464.18</ele>
        <time>2026-03-13T08:31:21Z</time>
      </trkpt>
      <trkpt lat="45.92155" lon="6.48498">
        <ele>1464.023</ele>
        <time>2026-03-13T08:31:26Z</time>
      </trkpt>
      <trkpt lat="45.92153" lon="6.48501">
        <ele>1465.045</ele>
        <time>2026-03-13T08:31:31Z</time>
      </trkpt>
      <trkpt lat="45.9215" lon="6.48504">
        <ele>1466.048</ele>
        <time>2026-03-13T08:31:36Z</time>
      </trkpt>
      <trkpt lat="45.92149" lon="6.48508">
        <ele>1466.871</ele>
        <time>2026-03-13T08:31:41Z</time>
      </trkpt>
      <trkpt lat="45.92149" lon="6.48509">
        <ele>1467.567</ele>
        <time>2026-03-13T08:31:46Z</time>
      </trkpt>
      <trkpt lat="45.92149" lon="6.48509">
        <ele>1467.575</ele>
        <time>2026-03-13T08:31:51Z</time>
      </trkpt>
      <trkpt lat="45.92149" lon="6.48509">
        <ele>1467.578</ele>
        <time>2026-03-13T08:31:56Z</time>
      </trkpt>
      <trkpt lat="45.92149" lon="6.48509">
        <ele>1467.562</ele>
        <time>2026-03-13T08:32:01Z</time>
      </trkpt>
      <trkpt lat="45.92149" lon="6.48509">
        <ele>1467.521</ele>
        <time>2026-03-13T08:32:06Z</time>
      </trkpt>
      <trkpt lat="45.92149" lon="6.48509">
        <ele>1467.528</ele>
        <time>2026-03-13T08:32:11Z</time>
      </trkpt>
      <trkpt lat="45.92149" lon="6.48509">
        <ele>1467.534</ele>
        <time>2026-03-13T08:32:16Z</time>
      </trkpt>
      <trkpt lat="45.92149" lon="6.48509">
        <ele>1467.539</ele>
        <time>2026-03-13T08:32:21Z</time>
      </trkpt>
      <trkpt lat="45.92149" lon="6.48509">
        <ele>1467.536</ele>
        <time>2026-03-13T08:32:26Z</time>
      </trkpt>
      <trkpt lat="45.92149" lon="6.48509">
        <ele>1467.698</ele>
        <time>2026-03-13T08:32:31Z</time>
      </trkpt>
      <trkpt lat="45.92149" lon="6.48509">
        <ele>1467.788</ele>
        <time>2026-03-13T08:32:36Z</time>
      </trkpt>
      <trkpt lat="45.92149" lon="6.48509">
        <ele>1467.778</ele>
        <time>2026-03-13T08:32:41Z</time>
      </trkpt>
      <trkpt lat="45.92149" lon="6.48509">
        <ele>1467.766</ele>
        <time>2026-03-13T08:32:46Z</time>
      </trkpt>
      <trkpt lat="45.92149" lon="6.48509">
        <ele>1467.763</ele>
        <time>2026-03-13T08:32:51Z</time>
      </trkpt>
      <trkpt lat="45.92149" lon="6.48509">
        <ele>1467.763</ele>
        <time>2026-03-13T08:32:56Z</time>
      </trkpt>
      <trkpt lat="45.92149" lon="6.48509">
        <ele>1467.753</ele>
        <time>2026-03-13T08:33:01Z</time>
      </trkpt>
      <trkpt lat="45.92149" lon="6.48509">
        <ele>1467.739</ele>
        <time>2026-03-13T08:33:06Z</time>
      </trkpt>
      <trkpt lat="45.92149" lon="6.48509">
        <ele>1467.728</ele>
        <time>2026-03-13T08:33:11Z</time>
      </trkpt>
      <trkpt lat="45.92149" lon="6.48509">
        <ele>1467.722</ele>
        <time>2026-03-13T08:33:16Z</time>
      </trkpt>
      <trkpt lat="45.92149" lon="6.48509">
        <ele>1467.711</ele>
        <time>2026-03-13T08:33:21Z</time>
      </trkpt>
      <trkpt lat="45.92149" lon="6.48509">
        <ele>1467.706</ele>
        <time>2026-03-13T08:33:26Z</time>
      </trkpt>
      <trkpt lat="45.92149" lon="6.48509">
        <ele>1467.711</ele>
        <time>2026-03-13T08:33:31Z</time>
      </trkpt>
      <trkpt lat="45.92149" lon="6.48509">
        <ele>1467.717</ele>
        <time>2026-03-13T08:33:36Z</time>
      </trkpt>
      <trkpt lat="45.92149" lon="6.48509">
        <ele>1467.721</ele>
        <time>2026-03-13T08:33:41Z</time>
      </trkpt>
      <trkpt lat="45.92149" lon="6.48509">
        <ele>1467.729</ele>
        <time>2026-03-13T08:33:46Z</time>
      </trkpt>
      <trkpt lat="45.92149" lon="6.48509">
        <ele>1467.734</ele>
        <time>2026-03-13T08:33:51Z</time>
      </trkpt>
      <trkpt lat="45.92149" lon="6.48509">
        <ele>1467.739</ele>
        <time>2026-03-13T08:33:56Z</time>
      </trkpt>
      <trkpt lat="45.92149" lon="6.48509">
        <ele>1467.741</ele>
        <time>2026-03-13T08:34:01Z</time>
      </trkpt>
      <trkpt lat="45.92149" lon="6.48509">
        <ele>1467.748</ele>
        <time>2026-03-13T08:34:06Z</time>
      </trkpt>
      <trkpt lat="45.92149" lon="6.48509">
        <ele>1467.732</ele>
        <time>2026-03-13T08:34:11Z</time>
      </trkpt>
      <trkpt lat="45.92149" lon="6.48509">
        <ele>1467.721</ele>
        <time>2026-03-13T08:34:16Z</time>
      </trkpt>
      <trkpt lat="45.92149" lon="6.48509">
        <ele>1467.709</ele>
        <time>2026-03-13T08:34:21Z</time>
      </trkpt>
      <trkpt lat="45.92149" lon="6.48509">
        <ele>1467.702</ele>
        <time>2026-03-13T08:34:26Z</time>
      </trkpt>
      <trkpt lat="45.92149" lon="6.48509">
        <ele>1467.677</ele>
        <time>2026-03-13T08:34:31Z</time>
      </trkpt>
      <trkpt lat="45.92149" lon="6.48509">
        <ele>1467.661</ele>
        <time>2026-03-13T08:34:36Z</time>
      </trkpt>
      <trkpt lat="45.92149" lon="6.48509">
        <ele>1467.66</ele>
        <time>2026-03-13T08:34:41Z</time>
      </trkpt>
      <trkpt lat="45.92149" lon="6.48509">
        <ele>1467.671</ele>
        <time>2026-03-13T08:34:46Z</time>
      </trkpt>
      <trkpt lat="45.92149" lon="6.48509">
        <ele>1467.679</ele>
        <time>2026-03-13T08:34:51Z</time>
      </trkpt>
      <trkpt lat="45.92149" lon="6.48509">
        <ele>1467.689</ele>
        <time>2026-03-13T08:34:56Z</time>
      </trkpt>
      <trkpt lat="45.92149" lon="6.48509">
        <ele>1467.692</ele>
        <time>2026-03-13T08:35:01Z</time>
      </trkpt>
      <trkpt lat="45.92149" lon="6.48509">
        <ele>1467.698</ele>
        <time>2026-03-13T08:35:06Z</time>
      </trkpt>
      <trkpt lat="45.92149" lon="6.48509">
        <ele>1467.705</ele>
        <time>2026-03-13T08:35:11Z</time>
      </trkpt>
      <trkpt lat="45.92149" lon="6.48509">
        <ele>1467.714</ele>
        <time>2026-03-13T08:35:16Z</time>
      </trkpt>
      <trkpt lat="45.92149" lon="6.48509">
        <ele>1467.72</ele>
        <time>2026-03-13T08:35:21Z</time>
      </trkpt>
      <trkpt lat="45.92149" lon="6.48509">
        <ele>1467.736</ele>
        <time>2026-03-13T08:35:26Z</time>
      </trkpt>
      <trkpt lat="45.92149" lon="6.48509">
        <ele>1467.739</ele>
        <time>2026-03-13T08:35:31Z</time>
      </trkpt>
      <trkpt lat="45.92149" lon="6.48509">
        <ele>1467.752</ele>
        <time>2026-03-13T08:35:36Z</time>
      </trkpt>
      <trkpt lat="45.92149" lon="6.48509">
        <ele>1467.761</ele>
        <time>2026-03-13T08:35:41Z</time>
      </trkpt>
      <trkpt lat="45.92149" lon="6.48509">
        <ele>1467.771</ele>
        <time>2026-03-13T08:35:46Z</time>
      </trkpt>
      <trkpt lat="45.92149" lon="6.48509">
        <ele>1467.785</ele>
        <time>2026-03-13T08:35:51Z</time>
      </trkpt>
      <trkpt lat="45.92149" lon="6.48509">
        <ele>1467.8</ele>
        <time>2026-03-13T08:35:56Z</time>
      </trkpt>
      <trkpt lat="45.92149" lon="6.48509">
        <ele>1467.818</ele>
        <time>2026-03-13T08:36:01Z</time>
      </trkpt>
      <trkpt lat="45.92149" lon="6.48509">
        <ele>1467.835</ele>
        <time>2026-03-13T08:36:06Z</time>
      </trkpt>
      <trkpt lat="45.92149" lon="6.48509">
        <ele>1467.85</ele>
        <time>2026-03-13T08:36:11Z</time>
      </trkpt>
      <trkpt lat="45.92149" lon="6.48509">
        <ele>1467.867</ele>
        <time>2026-03-13T08:36:16Z</time>
      </trkpt>
      <trkpt lat="45.92149" lon="6.48509">
        <ele>1467.878</ele>
        <time>2026-03-13T08:36:21Z</time>
      </trkpt>
      <trkpt lat="45.92149" lon="6.48509">
        <ele>1467.895</ele>
        <time>2026-03-13T08:36:26Z</time>
      </trkpt>
      <trkpt lat="45.92149" lon="6.48509">
        <ele>1467.91</ele>
        <time>2026-03-13T08:36:31Z</time>
      </trkpt>
      <trkpt lat="45.92149" lon="6.48509">
        <ele>1467.921</ele>
        <time>2026-03-13T08:36:36Z</time>
      </trkpt>
      <trkpt lat="45.92149" lon="6.48509">
        <ele>1467.935</ele>
        <time>2026-03-13T08:36:41Z</time>
      </trkpt>
      <trkpt lat="45.92149" lon="6.48509">
        <ele>1467.947</ele>
        <time>2026-03-13T08:36:46Z</time>
      </trkpt>
      <trkpt lat="45.92149" lon="6.48509">
        <ele>1467.951</ele>
        <time>2026-03-13T08:36:51Z</time>
      </trkpt>
      <trkpt lat="45.92149" lon="6.48509">
        <ele>1467.956</ele>
        <time>2026-03-13T08:36:56Z</time>
      </trkpt>
      <trkpt lat="45.92149" lon="6.48509">
        <ele>1467.965</ele>
        <time>2026-03-13T08:37:01Z</time>
      </trkpt>
      <trkpt lat="45.92149" lon="6.48509">
        <ele>1467.973</ele>
        <time>2026-03-13T08:37:06Z</time>
      </trkpt>
      <trkpt lat="45.92149" lon="6.48509">
        <ele>1467.967</ele>
        <time>2026-03-13T08:37:11Z</time>
      </trkpt>
      <trkpt lat="45.92149" lon="6.48509">
        <ele>1467.96</ele>
        <time>2026-03-13T08:37:16Z</time>
      </trkpt>
      <trkpt lat="45.92149" lon="6.48509">
        <ele>1467.961</ele>
        <time>2026-03-13T08:37:21Z</time>
      </trkpt>
      <trkpt lat="45.92149" lon="6.48509">
        <ele>1467.951</ele>
        <time>2026-03-13T08:37:26Z</time>
      </trkpt>
      <trkpt lat="45.92149" lon="6.48509">
        <ele>1467.951</ele>
        <time>2026-03-13T08:37:31Z</time>
      </trkpt>
      <trkpt lat="45.92149" lon="6.48509">
        <ele>1467.954</ele>
        <time>2026-03-13T08:37:36Z</time>
      </trkpt>
      <trkpt lat="45.92149" lon="6.48509">
        <ele>1467.954</ele>
        <time>2026-03-13T08:37:41Z</time>
      </trkpt>
      <trkpt lat="45.92149" lon="6.48509">
        <ele>1467.955</ele>
        <time>2026-03-13T08:37:46Z</time>
      </trkpt>
      <trkpt lat="45.92149" lon="6.48509">
        <ele>1467.962</ele>
        <time>2026-03-13T08:37:51Z</time>
      </trkpt>
      <trkpt lat="45.92149" lon="6.48509">
        <ele>1467.961</ele>
        <time>2026-03-13T08:37:56Z</time>
      </trkpt>
      <trkpt lat="45.92149" lon="6.48509">
        <ele>1467.955</ele>
        <time>2026-03-13T08:38:01Z</time>
      </trkpt>
      <trkpt lat="45.92149" lon="6.48509">
        <ele>1467.948</ele>
        <time>2026-03-13T08:38:06Z</time>
      </trkpt>
      <trkpt lat="45.92149" lon="6.48509">
        <ele>1467.955</ele>
        <time>2026-03-13T08:38:11Z</time>
      </trkpt>
      <trkpt lat="45.92149" lon="6.48509">
        <ele>1467.957</ele>
        <time>2026-03-13T08:38:16Z</time>
      </trkpt>
      <trkpt lat="45.92149" lon="6.48509">
        <ele>1467.957</ele>
        <time>2026-03-13T08:38:21Z</time>
      </trkpt>
      <trkpt lat="45.92149" lon="6.48509">
        <ele>1467.957</ele>
        <time>2026-03-13T08:38:26Z</time>
      </trkpt>
      <trkpt lat="45.92149" lon="6.48509">
        <ele>1467.961</ele>
        <time>2026-03-13T08:38:31Z</time>
      </trkpt>
      <trkpt lat="45.92149" lon="6.48509">
        <ele>1467.96</ele>
        <time>2026-03-13T08:38:36Z</time>
      </trkpt>
      <trkpt lat="45.92149" lon="6.48509">
        <ele>1467.961</ele>
        <time>2026-03-13T08:38:41Z</time>
      </trkpt>
      <trkpt lat="45.92149" lon="6.48509">
        <ele>1467.965</ele>
        <time>2026-03-13T08:38:46Z</time>
      </trkpt>
      <trkpt lat="45.92149" lon="6.48509">
        <ele>1467.98</ele>
        <time>2026-03-13T08:38:51Z</time>
      </trkpt>
      <trkpt lat="45.92149" lon="6.48509">
        <ele>1467.984</ele>
        <time>2026-03-13T08:38:56Z</time>
      </trkpt>
      <trkpt lat="45.92149" lon="6.48509">
        <ele>1467.993</ele>
        <time>2026-03-13T08:39:01Z</time>
      </trkpt>
      <trkpt lat="45.92149" lon="6.48509">
        <ele>1468.002</ele>
        <time>2026-03-13T08:39:06Z</time>
      </trkpt>
      <trkpt lat="45.92149" lon="6.48509">
        <ele>1468.005</ele>
        <time>2026-03-13T08:39:11Z</time>
      </trkpt>
      <trkpt lat="45.92148" lon="6.4851">
        <ele>1468.016</ele>
        <time>2026-03-13T08:39:16Z</time>
      </trkpt>
      <trkpt lat="45.92148" lon="6.4851">
        <ele>1468.026</ele>
        <time>2026-03-13T08:39:21Z</time>
      </trkpt>
      <trkpt lat="45.92148" lon="6.4851">
        <ele>1468.036</ele>
        <time>2026-03-13T08:39:26Z</time>
      </trkpt>
      <trkpt lat="45.92148" lon="6.4851">
        <ele>1468.046</ele>
        <time>2026-03-13T08:39:31Z</time>
      </trkpt>
      <trkpt lat="45.92148" lon="6.4851">
        <ele>1468.058</ele>
        <time>2026-03-13T08:39:36Z</time>
      </trkpt>
      <trkpt lat="45.92148" lon="6.4851">
        <ele>1468.066</ele>
        <time>2026-03-13T08:39:41Z</time>
      </trkpt>
      <trkpt lat="45.92148" lon="6.4851">
        <ele>1468.077</ele>
        <time>2026-03-13T08:39:46Z</time>
      </trkpt>
      <trkpt lat="45.92148" lon="6.4851">
        <ele>1468.084</ele>
        <time>2026-03-13T08:39:51Z</time>
      </trkpt>
      <trkpt lat="45.92148" lon="6.4851">
        <ele>1468.093</ele>
        <time>2026-03-13T08:39:56Z</time>
      </trkpt>
      <trkpt lat="45.92148" lon="6.4851">
        <ele>1468.1</ele>
        <time>2026-03-13T08:40:01Z</time>
      </trkpt>
      <trkpt lat="45.92148" lon="6.4851">
        <ele>1468.108</ele>
        <time>2026-03-13T08:40:06Z</time>
      </trkpt>
      <trkpt lat="45.92148" lon="6.4851">
        <ele>1468.111</ele>
        <time>2026-03-13T08:40:11Z</time>
      </trkpt>
      <trkpt lat="45.92148" lon="6.4851">
        <ele>1468.112</ele>
        <time>2026-03-13T08:40:16Z</time>
      </trkpt>
      <trkpt lat="45.92148" lon="6.4851">
        <ele>1468.119</ele>
        <time>2026-03-13T08:40:21Z</time>
      </trkpt>
      <trkpt lat="45.92148" lon="6.4851">
        <ele>1468.122</ele>
        <time>2026-03-13T08:40:26Z</time>
      </trkpt>
      <trkpt lat="45.92148" lon="6.4851">
        <ele>1468.127</ele>
        <time>2026-03-13T08:40:31Z</time>
      </trkpt>
      <trkpt lat="45.92148" lon="6.4851">
        <ele>1468.138</ele>
        <time>2026-03-13T08:40:36Z</time>
      </trkpt>
      <trkpt lat="45.92148" lon="6.4851">
        <ele>1468.143</ele>
        <time>2026-03-13T08:40:41Z</time>
      </trkpt>
      <trkpt lat="45.92148" lon="6.4851">
        <ele>1468.152</ele>
        <time>2026-03-13T08:40:46Z</time>
      </trkpt>
      <trkpt lat="45.92148" lon="6.4851">
        <ele>1468.149</ele>
        <time>2026-03-13T08:40:51Z</time>
      </trkpt>
      <trkpt lat="45.92148" lon="6.4851">
        <ele>1468.149</ele>
        <time>2026-03-13T08:40:56Z</time>
      </trkpt>
      <trkpt lat="45.92148" lon="6.4851">
        <ele>1468.147</ele>
        <time>2026-03-13T08:41:01Z</time>
      </trkpt>
      <trkpt lat="45.92148" lon="6.4851">
        <ele>1468.142</ele>
        <time>2026-03-13T08:41:06Z</time>
      </trkpt>
      <trkpt lat="45.92148" lon="6.4851">
        <ele>1468.134</ele>
        <time>2026-03-13T08:41:11Z</time>
      </trkpt>
      <trkpt lat="45.92148" lon="6.4851">
        <ele>1468.131</ele>
        <time>2026-03-13T08:41:16Z</time>
      </trkpt>
      <trkpt lat="45.92148" lon="6.4851">
        <ele>1468.121</ele>
        <time>2026-03-13T08:41:21Z</time>
      </trkpt>
      <trkpt lat="45.92148" lon="6.4851">
        <ele>1468.116</ele>
        <time>2026-03-13T08:41:26Z</time>
      </trkpt>
      <trkpt lat="45.92148" lon="6.4851">
        <ele>1468.112</ele>
        <time>2026-03-13T08:41:31Z</time>
      </trkpt>
      <trkpt lat="45.92148" lon="6.4851">
        <ele>1468.103</ele>
        <time>2026-03-13T08:41:36Z</time>
      </trkpt>
      <trkpt lat="45.92148" lon="6.4851">
        <ele>1468.104</ele>
        <time>2026-03-13T08:41:41Z</time>
      </trkpt>
      <trkpt lat="45.92148" lon="6.4851">
        <ele>1468.102</ele>
        <time>2026-03-13T08:41:46Z</time>
      </trkpt>
      <trkpt lat="45.92148" lon="6.4851">
        <ele>1468.102</ele>
        <time>2026-03-13T08:41:51Z</time>
      </trkpt>
      <trkpt lat="45.92148" lon="6.4851">
        <ele>1468.1</ele>
        <time>2026-03-13T08:41:56Z</time>
      </trkpt>
      <trkpt lat="45.92148" lon="6.4851">
        <ele>1468.099</ele>
        <time>2026-03-13T08:42:01Z</time>
      </trkpt>
      <trkpt lat="45.92148" lon="6.4851">
        <ele>1468.099</ele>
        <time>2026-03-13T08:42:06Z</time>
      </trkpt>
      <trkpt lat="45.92148" lon="6.4851">
        <ele>1468.1</ele>
        <time>2026-03-13T08:42:11Z</time>
      </trkpt>
      <trkpt lat="45.92148" lon="6.4851">
        <ele>1468.189</ele>
        <time>2026-03-13T08:42:16Z</time>
      </trkpt>
      <trkpt lat="45.92148" lon="6.48515">
        <ele>1467.747</ele>
        <time>2026-03-13T08:42:21Z</time>
      </trkpt>
      <trkpt lat="45.92147" lon="6.48522">
        <ele>1468.522</ele>
        <time>2026-03-13T08:42:26Z</time>
      </trkpt>
      <trkpt lat="45.92146" lon="6.48529">
        <ele>1468.102</ele>
        <time>2026-03-13T08:42:31Z</time>
      </trkpt>
      <trkpt lat="45.92145" lon="6.48535">
        <ele>1467.954</ele>
        <time>2026-03-13T08:42:36Z</time>
      </trkpt>
      <trkpt lat="45.92144" lon="6.48542">
        <ele>1467.69</ele>
        <time>2026-03-13T08:42:41Z</time>
      </trkpt>
      <trkpt lat="45.92144" lon="6.48549">
        <ele>1467.002</ele>
        <time>2026-03-13T08:42:46Z</time>
      </trkpt>
      <trkpt lat="45.92144" lon="6.48556">
        <ele>1468.464</ele>
        <time>2026-03-13T08:42:51Z</time>
      </trkpt>
      <trkpt lat="45.92142" lon="6.48561">
        <ele>1468.9</ele>
        <time>2026-03-13T08:42:56Z</time>
      </trkpt>
      <trkpt lat="45.9214" lon="6.48568">
        <ele>1469.051</ele>
        <time>2026-03-13T08:43:01Z</time>
      </trkpt>
      <trkpt lat="45.92138" lon="6.48574">
        <ele>1469.344</ele>
        <time>2026-03-13T08:43:06Z</time>
      </trkpt>
      <trkpt lat="45.92136" lon="6.48582">
        <ele>1468.192</ele>
        <time>2026-03-13T08:43:11Z</time>
      </trkpt>
      <trkpt lat="45.92133" lon="6.48591">
        <ele>1467.945</ele>
        <time>2026-03-13T08:43:16Z</time>
      </trkpt>
      <trkpt lat="45.92131" lon="6.48599">
        <ele>1468.437</ele>
        <time>2026-03-13T08:43:21Z</time>
      </trkpt>
      <trkpt lat="45.92128" lon="6.48606">
        <ele>1468.189</ele>
        <time>2026-03-13T08:43:26Z</time>
      </trkpt>
      <trkpt lat="45.92125" lon="6.48614">
        <ele>1468.454</ele>
        <time>2026-03-13T08:43:31Z</time>
      </trkpt>
      <trkpt lat="45.92122" lon="6.48622">
        <ele>1467.659</ele>
        <time>2026-03-13T08:43:36Z</time>
      </trkpt>
      <trkpt lat="45.9212" lon="6.4863">
        <ele>1467.073</ele>
        <time>2026-03-13T08:43:41Z</time>
      </trkpt>
      <trkpt lat="45.92118" lon="6.48637">
        <ele>1467.541</ele>
        <time>2026-03-13T08:43:46Z</time>
      </trkpt>
      <trkpt lat="45.92117" lon="6.48646">
        <ele>1467.24</ele>
        <time>2026-03-13T08:43:51Z</time>
      </trkpt>
      <trkpt lat="45.92118" lon="6.48654">
        <ele>1466.408</ele>
        <time>2026-03-13T08:43:56Z</time>
      </trkpt>
      <trkpt lat="45.92121" lon="6.48662">
        <ele>1465.978</ele>
        <time>2026-03-13T08:44:01Z</time>
      </trkpt>
      <trkpt lat="45.92126" lon="6.48669">
        <ele>1465.08</ele>
        <time>2026-03-13T08:44:06Z</time>
      </trkpt>
      <trkpt lat="45.9213" lon="6.48676">
        <ele>1464</ele>
        <time>2026-03-13T08:44:11Z</time>
      </trkpt>
      <trkpt lat="45.92135" lon="6.48682">
        <ele>1462.736</ele>
        <time>2026-03-13T08:44:16Z</time>
      </trkpt>
      <trkpt lat="45.92139" lon="6.48688">
        <ele>1463.477</ele>
        <time>2026-03-13T08:44:21Z</time>
      </trkpt>
      <trkpt lat="45.92143" lon="6.48693">
        <ele>1463.285</ele>
        <time>2026-03-13T08:44:26Z</time>
      </trkpt>
      <trkpt lat="45.92147" lon="6.48697">
        <ele>1462.871</ele>
        <time>2026-03-13T08:44:31Z</time>
      </trkpt>
      <trkpt lat="45.92151" lon="6.48703">
        <ele>1461.946</ele>
        <time>2026-03-13T08:44:36Z</time>
      </trkpt>
      <trkpt lat="45.92154" lon="6.4871">
        <ele>1461.383</ele>
        <time>2026-03-13T08:44:41Z</time>
      </trkpt>
      <trkpt lat="45.92157" lon="6.48717">
        <ele>1461.355</ele>
        <time>2026-03-13T08:44:46Z</time>
      </trkpt>
      <trkpt lat="45.92159" lon="6.48725">
        <ele>1461.341</ele>
        <time>2026-03-13T08:44:51Z</time>
      </trkpt>
      <trkpt lat="45.92162" lon="6.48731">
        <ele>1461.284</ele>
        <time>2026-03-13T08:44:56Z</time>
      </trkpt>
      <trkpt lat="45.92164" lon="6.4874">
        <ele>1460.509</ele>
        <time>2026-03-13T08:45:01Z</time>
      </trkpt>
      <trkpt lat="45.92168" lon="6.48751">
        <ele>1459.201</ele>
        <time>2026-03-13T08:45:06Z</time>
      </trkpt>
      <trkpt lat="45.92171" lon="6.48761">
        <ele>1458.233</ele>
        <time>2026-03-13T08:45:11Z</time>
      </trkpt>
      <trkpt lat="45.92173" lon="6.48769">
        <ele>1458.411</ele>
        <time>2026-03-13T08:45:16Z</time>
      </trkpt>
      <trkpt lat="45.92175" lon="6.48779">
        <ele>1458.467</ele>
        <time>2026-03-13T08:45:21Z</time>
      </trkpt>
      <trkpt lat="45.92177" lon="6.48787">
        <ele>1457.825</ele>
        <time>2026-03-13T08:45:26Z</time>
      </trkpt>
      <trkpt lat="45.92179" lon="6.48794">
        <ele>1457.627</ele>
        <time>2026-03-13T08:45:31Z</time>
      </trkpt>
      <trkpt lat="45.9218" lon="6.48804">
        <ele>1457.041</ele>
        <time>2026-03-13T08:45:36Z</time>
      </trkpt>
      <trkpt lat="45.92181" lon="6.48812">
        <ele>1457.426</ele>
        <time>2026-03-13T08:45:41Z</time>
      </trkpt>
      <trkpt lat="45.92178" lon="6.48825">
        <ele>1457.766</ele>
        <time>2026-03-13T08:45:46Z</time>
      </trkpt>
      <trkpt lat="45.92173" lon="6.48835">
        <ele>1463.628</ele>
        <time>2026-03-13T08:45:51Z</time>
      </trkpt>
      <trkpt lat="45.9217" lon="6.48843">
        <ele>1461.623</ele>
        <time>2026-03-13T08:45:56Z</time>
      </trkpt>
      <trkpt lat="45.92166" lon="6.4885">
        <ele>1461.589</ele>
        <time>2026-03-13T08:46:01Z</time>
      </trkpt>
      <trkpt lat="45.92164" lon="6.48858">
        <ele>1461.205</ele>
        <time>2026-03-13T08:46:06Z</time>
      </trkpt>
      <trkpt lat="45.92162" lon="6.48866">
        <ele>1460.797</ele>
        <time>2026-03-13T08:46:11Z</time>
      </trkpt>
      <trkpt lat="45.92162" lon="6.48869">
        <ele>1459.028</ele>
        <time>2026-03-13T08:46:16Z</time>
      </trkpt>
      <trkpt lat="45.92162" lon="6.48874">
        <ele>1457.308</ele>
        <time>2026-03-13T08:46:21Z</time>
      </trkpt>
      <trkpt lat="45.92165" lon="6.48881">
        <ele>1454.109</ele>
        <time>2026-03-13T08:46:26Z</time>
      </trkpt>
      <trkpt lat="45.9217" lon="6.48888">
        <ele>1454.214</ele>
        <time>2026-03-13T08:46:31Z</time>
      </trkpt>
      <trkpt lat="45.92175" lon="6.48892">
        <ele>1453.304</ele>
        <time>2026-03-13T08:46:36Z</time>
      </trkpt>
      <trkpt lat="45.92179" lon="6.48898">
        <ele>1452.813</ele>
        <time>2026-03-13T08:46:41Z</time>
      </trkpt>
      <trkpt lat="45.92184" lon="6.48904">
        <ele>1452.782</ele>
        <time>2026-03-13T08:46:46Z</time>
      </trkpt>
      <trkpt lat="45.92189" lon="6.48909">
        <ele>1453.157</ele>
        <time>2026-03-13T08:46:51Z</time>
      </trkpt>
      <trkpt lat="45.92194" lon="6.48914">
        <ele>1453.127</ele>
        <time>2026-03-13T08:46:56Z</time>
      </trkpt>
      <trkpt lat="45.92198" lon="6.48918">
        <ele>1453.028</ele>
        <time>2026-03-13T08:47:01Z</time>
      </trkpt>
      <trkpt lat="45.92201" lon="6.48923">
        <ele>1453.388</ele>
        <time>2026-03-13T08:47:06Z</time>
      </trkpt>
      <trkpt lat="45.92204" lon="6.48928">
        <ele>1454.791</ele>
        <time>2026-03-13T08:47:11Z</time>
      </trkpt>
      <trkpt lat="45.92208" lon="6.48933">
        <ele>1454.27</ele>
        <time>2026-03-13T08:47:16Z</time>
      </trkpt>
      <trkpt lat="45.92211" lon="6.48938">
        <ele>1454.091</ele>
        <time>2026-03-13T08:47:21Z</time>
      </trkpt>
      <trkpt lat="45.92214" lon="6.48943">
        <ele>1454.196</ele>
        <time>2026-03-13T08:47:26Z</time>
      </trkpt>
      <trkpt lat="45.92217" lon="6.48947">
        <ele>1454.728</ele>
        <time>2026-03-13T08:47:31Z</time>
      </trkpt>
      <trkpt lat="45.92219" lon="6.48951">
        <ele>1455.079</ele>
        <time>2026-03-13T08:47:36Z</time>
      </trkpt>
      <trkpt lat="45.92222" lon="6.48955">
        <ele>1454.967</ele>
        <time>2026-03-13T08:47:41Z</time>
      </trkpt>
      <trkpt lat="45.92225" lon="6.48959">
        <ele>1454.848</ele>
        <time>2026-03-13T08:47:46Z</time>
      </trkpt>
      <trkpt lat="45.92228" lon="6.48962">
        <ele>1456.03</ele>
        <time>2026-03-13T08:47:51Z</time>
      </trkpt>
      <trkpt lat="45.9223" lon="6.48966">
        <ele>1456.299</ele>
        <time>2026-03-13T08:47:56Z</time>
      </trkpt>
      <trkpt lat="45.92233" lon="6.48972">
        <ele>1456.062</ele>
        <time>2026-03-13T08:48:01Z</time>
      </trkpt>
      <trkpt lat="45.92236" lon="6.48977">
        <ele>1455.655</ele>
        <time>2026-03-13T08:48:06Z</time>
      </trkpt>
      <trkpt lat="45.92239" lon="6.48981">
        <ele>1456.086</ele>
        <time>2026-03-13T08:48:11Z</time>
      </trkpt>
      <trkpt lat="45.92242" lon="6.48985">
        <ele>1456.452</ele>
        <time>2026-03-13T08:48:16Z</time>
      </trkpt>
      <trkpt lat="45.92246" lon="6.48989">
        <ele>1457.593</ele>
        <time>2026-03-13T08:48:21Z</time>
      </trkpt>
      <trkpt lat="45.92249" lon="6.48993">
        <ele>1458.087</ele>
        <time>2026-03-13T08:48:26Z</time>
      </trkpt>
      <trkpt lat="45.92252" lon="6.48999">
        <ele>1458.271</ele>
        <time>2026-03-13T08:48:31Z</time>
      </trkpt>
      <trkpt lat="45.92256" lon="6.49002">
        <ele>1459.072</ele>
        <time>2026-03-13T08:48:36Z</time>
      </trkpt>
      <trkpt lat="45.92259" lon="6.49006">
        <ele>1459.352</ele>
        <time>2026-03-13T08:48:41Z</time>
      </trkpt>
      <trkpt lat="45.92263" lon="6.4901">
        <ele>1459.054</ele>
        <time>2026-03-13T08:48:46Z</time>
      </trkpt>
      <trkpt lat="45.92267" lon="6.49014">
        <ele>1458.836</ele>
        <time>2026-03-13T08:48:51Z</time>
      </trkpt>
      <trkpt lat="45.9227" lon="6.49018">
        <ele>1459.272</ele>
        <time>2026-03-13T08:48:56Z</time>
      </trkpt>
      <trkpt lat="45.92273" lon="6.49023">
        <ele>1459.982</ele>
        <time>2026-03-13T08:49:01Z</time>
      </trkpt>
      <trkpt lat="45.92276" lon="6.49027">
        <ele>1460.882</ele>
        <time>2026-03-13T08:49:06Z</time>
      </trkpt>
      <trkpt lat="45.92278" lon="6.49032">
        <ele>1461.725</ele>
        <time>2026-03-13T08:49:11Z</time>
      </trkpt>
      <trkpt lat="45.9228" lon="6.49037">
        <ele>1462.439</ele>
        <time>2026-03-13T08:49:16Z</time>
      </trkpt>
      <trkpt lat="45.92283" lon="6.49041">
        <ele>1463.248</ele>
        <time>2026-03-13T08:49:21Z</time>
      </trkpt>
      <trkpt lat="45.92286" lon="6.49045">
        <ele>1463.109</ele>
        <time>2026-03-13T08:49:26Z</time>
      </trkpt>
      <trkpt lat="45.92289" lon="6.49048">
        <ele>1464.171</ele>
        <time>2026-03-13T08:49:31Z</time>
      </trkpt>
      <trkpt lat="45.92292" lon="6.49052">
        <ele>1465.155</ele>
        <time>2026-03-13T08:49:36Z</time>
      </trkpt>
      <trkpt lat="45.92295" lon="6.49055">
        <ele>1465.729</ele>
        <time>2026-03-13T08:49:41Z</time>
      </trkpt>
      <trkpt lat="45.92299" lon="6.49057">
        <ele>1466.192</ele>
        <time>2026-03-13T08:49:46Z</time>
      </trkpt>
      <trkpt lat="45.92302" lon="6.49059">
        <ele>1466.951</ele>
        <time>2026-03-13T08:49:51Z</time>
      </trkpt>
      <trkpt lat="45.92306" lon="6.49062">
        <ele>1466.88</ele>
        <time>2026-03-13T08:49:56Z</time>
      </trkpt>
      <trkpt lat="45.9231" lon="6.49063">
        <ele>1467.846</ele>
        <time>2026-03-13T08:50:01Z</time>
      </trkpt>
      <trkpt lat="45.92314" lon="6.49065">
        <ele>1468.34</ele>
        <time>2026-03-13T08:50:06Z</time>
      </trkpt>
      <trkpt lat="45.92318" lon="6.49065">
        <ele>1469.749</ele>
        <time>2026-03-13T08:50:11Z</time>
      </trkpt>
      <trkpt lat="45.92322" lon="6.49067">
        <ele>1470.209</ele>
        <time>2026-03-13T08:50:16Z</time>
      </trkpt>
      <trkpt lat="45.92325" lon="6.49069">
        <ele>1471.446</ele>
        <time>2026-03-13T08:50:21Z</time>
      </trkpt>
      <trkpt lat="45.92328" lon="6.49069">
        <ele>1471.927</ele>
        <time>2026-03-13T08:50:26Z</time>
      </trkpt>
      <trkpt lat="45.92331" lon="6.4907">
        <ele>1472.179</ele>
        <time>2026-03-13T08:50:31Z</time>
      </trkpt>
      <trkpt lat="45.92334" lon="6.49072">
        <ele>1472.514</ele>
        <time>2026-03-13T08:50:36Z</time>
      </trkpt>
      <trkpt lat="45.92338" lon="6.49074">
        <ele>1473.076</ele>
        <time>2026-03-13T08:50:41Z</time>
      </trkpt>
      <trkpt lat="45.92341" lon="6.49077">
        <ele>1472.99</ele>
        <time>2026-03-13T08:50:46Z</time>
      </trkpt>
      <trkpt lat="45.92343" lon="6.4908">
        <ele>1473.38</ele>
        <time>2026-03-13T08:50:51Z</time>
      </trkpt>
      <trkpt lat="45.92346" lon="6.49085">
        <ele>1473.399</ele>
        <time>2026-03-13T08:50:56Z</time>
      </trkpt>
      <trkpt lat="45.92348" lon="6.49088">
        <ele>1473.65</ele>
        <time>2026-03-13T08:51:01Z</time>
      </trkpt>
      <trkpt lat="45.9235" lon="6.49091">
        <ele>1474.632</ele>
        <time>2026-03-13T08:51:06Z</time>
      </trkpt>
      <trkpt lat="45.92353" lon="6.49095">
        <ele>1474.901</ele>
        <time>2026-03-13T08:51:11Z</time>
      </trkpt>
      <trkpt lat="45.92356" lon="6.49099">
        <ele>1475.497</ele>
        <time>2026-03-13T08:51:16Z</time>
      </trkpt>
      <trkpt lat="45.92359" lon="6.49102">
        <ele>1476.629</ele>
        <time>2026-03-13T08:51:21Z</time>
      </trkpt>
      <trkpt lat="45.92362" lon="6.49106">
        <ele>1476.803</ele>
        <time>2026-03-13T08:51:26Z</time>
      </trkpt>
      <trkpt lat="45.92364" lon="6.49109">
        <ele>1477.681</ele>
        <time>2026-03-13T08:51:31Z</time>
      </trkpt>
      <trkpt lat="45.92367" lon="6.49112">
        <ele>1478.062</ele>
        <time>2026-03-13T08:51:36Z</time>
      </trkpt>
      <trkpt lat="45.9237" lon="6.49114">
        <ele>1478.104</ele>
        <time>2026-03-13T08:51:41Z</time>
      </trkpt>
      <trkpt lat="45.92374" lon="6.49116">
        <ele>1478.749</ele>
        <time>2026-03-13T08:51:46Z</time>
      </trkpt>
      <trkpt lat="45.92377" lon="6.49117">
        <ele>1479.389</ele>
        <time>2026-03-13T08:51:51Z</time>
      </trkpt>
      <trkpt lat="45.92381" lon="6.49117">
        <ele>1479.78</ele>
        <time>2026-03-13T08:51:56Z</time>
      </trkpt>
      <trkpt lat="45.92385" lon="6.49117">
        <ele>1480.097</ele>
        <time>2026-03-13T08:52:01Z</time>
      </trkpt>
      <trkpt lat="45.92388" lon="6.49117">
        <ele>1480.834</ele>
        <time>2026-03-13T08:52:06Z</time>
      </trkpt>
      <trkpt lat="45.92391" lon="6.49116">
        <ele>1481.117</ele>
        <time>2026-03-13T08:52:11Z</time>
      </trkpt>
      <trkpt lat="45.92394" lon="6.49114">
        <ele>1481.704</ele>
        <time>2026-03-13T08:52:16Z</time>
      </trkpt>
      <trkpt lat="45.92397" lon="6.49113">
        <ele>1482.151</ele>
        <time>2026-03-13T08:52:21Z</time>
      </trkpt>
      <trkpt lat="45.924" lon="6.49112">
        <ele>1483.4</ele>
        <time>2026-03-13T08:52:26Z</time>
      </trkpt>
      <trkpt lat="45.92403" lon="6.49112">
        <ele>1484.082</ele>
        <time>2026-03-13T08:52:31Z</time>
      </trkpt>
      <trkpt lat="45.92406" lon="6.49112">
        <ele>1485.594</ele>
        <time>2026-03-13T08:52:36Z</time>
      </trkpt>
      <trkpt lat="45.92409" lon="6.49112">
        <ele>1485.666</ele>
        <time>2026-03-13T08:52:41Z</time>
      </trkpt>
      <trkpt lat="45.92412" lon="6.49112">
        <ele>1486.907</ele>
        <time>2026-03-13T08:52:46Z</time>
      </trkpt>
      <trkpt lat="45.92415" lon="6.49112">
        <ele>1487.549</ele>
        <time>2026-03-13T08:52:51Z</time>
      </trkpt>
      <trkpt lat="45.92419" lon="6.4911">
        <ele>1487.909</ele>
        <time>2026-03-13T08:52:56Z</time>
      </trkpt>
      <trkpt lat="45.92423" lon="6.4911">
        <ele>1489.005</ele>
        <time>2026-03-13T08:53:01Z</time>
      </trkpt>
      <trkpt lat="45.92427" lon="6.4911">
        <ele>1490</ele>
        <time>2026-03-13T08:53:06Z</time>
      </trkpt>
      <trkpt lat="45.9243" lon="6.4911">
        <ele>1490.035</ele>
        <time>2026-03-13T08:53:11Z</time>
      </trkpt>
      <trkpt lat="45.92434" lon="6.4911">
        <ele>1490.643</ele>
        <time>2026-03-13T08:53:16Z</time>
      </trkpt>
      <trkpt lat="45.92437" lon="6.49112">
        <ele>1491.089</ele>
        <time>2026-03-13T08:53:21Z</time>
      </trkpt>
      <trkpt lat="45.9244" lon="6.49115">
        <ele>1491.419</ele>
        <time>2026-03-13T08:53:26Z</time>
      </trkpt>
      <trkpt lat="45.92443" lon="6.49117">
        <ele>1492.728</ele>
        <time>2026-03-13T08:53:31Z</time>
      </trkpt>
      <trkpt lat="45.92445" lon="6.49121">
        <ele>1492.398</ele>
        <time>2026-03-13T08:53:36Z</time>
      </trkpt>
      <trkpt lat="45.92448" lon="6.49125">
        <ele>1493</ele>
        <time>2026-03-13T08:53:41Z</time>
      </trkpt>
      <trkpt lat="45.9245" lon="6.49129">
        <ele>1493.88</ele>
        <time>2026-03-13T08:53:46Z</time>
      </trkpt>
      <trkpt lat="45.92452" lon="6.49133">
        <ele>1494.175</ele>
        <time>2026-03-13T08:53:51Z</time>
      </trkpt>
      <trkpt lat="45.92453" lon="6.49136">
        <ele>1495.426</ele>
        <time>2026-03-13T08:53:56Z</time>
      </trkpt>
      <trkpt lat="45.92455" lon="6.49141">
        <ele>1496.044</ele>
        <time>2026-03-13T08:54:01Z</time>
      </trkpt>
      <trkpt lat="45.92458" lon="6.49145">
        <ele>1496.401</ele>
        <time>2026-03-13T08:54:06Z</time>
      </trkpt>
      <trkpt lat="45.92461" lon="6.49149">
        <ele>1496.838</ele>
        <time>2026-03-13T08:54:11Z</time>
      </trkpt>
      <trkpt lat="45.92464" lon="6.49154">
        <ele>1497.474</ele>
        <time>2026-03-13T08:54:16Z</time>
      </trkpt>
      <trkpt lat="45.92467" lon="6.49159">
        <ele>1498.223</ele>
        <time>2026-03-13T08:54:21Z</time>
      </trkpt>
      <trkpt lat="45.9247" lon="6.49163">
        <ele>1498.107</ele>
        <time>2026-03-13T08:54:26Z</time>
      </trkpt>
      <trkpt lat="45.92473" lon="6.49167">
        <ele>1497.939</ele>
        <time>2026-03-13T08:54:31Z</time>
      </trkpt>
      <trkpt lat="45.92477" lon="6.49173">
        <ele>1498.939</ele>
        <time>2026-03-13T08:54:36Z</time>
      </trkpt>
      <trkpt lat="45.92481" lon="6.49179">
        <ele>1498.251</ele>
        <time>2026-03-13T08:54:41Z</time>
      </trkpt>
      <trkpt lat="45.92485" lon="6.49184">
        <ele>1497.932</ele>
        <time>2026-03-13T08:54:46Z</time>
      </trkpt>
      <trkpt lat="45.92491" lon="6.4919">
        <ele>1497.632</ele>
        <time>2026-03-13T08:54:51Z</time>
      </trkpt>
      <trkpt lat="45.92498" lon="6.49195">
        <ele>1497.471</ele>
        <time>2026-03-13T08:54:56Z</time>
      </trkpt>
      <trkpt lat="45.92506" lon="6.49198">
        <ele>1497.066</ele>
        <time>2026-03-13T08:55:01Z</time>
      </trkpt>
      <trkpt lat="45.92513" lon="6.49201">
        <ele>1495.831</ele>
        <time>2026-03-13T08:55:06Z</time>
      </trkpt>
      <trkpt lat="45.9252" lon="6.49202">
        <ele>1495.64</ele>
        <time>2026-03-13T08:55:11Z</time>
      </trkpt>
      <trkpt lat="45.92525" lon="6.49203">
        <ele>1495.787</ele>
        <time>2026-03-13T08:55:16Z</time>
      </trkpt>
      <trkpt lat="45.92528" lon="6.49207">
        <ele>1495.858</ele>
        <time>2026-03-13T08:55:21Z</time>
      </trkpt>
      <trkpt lat="45.92532" lon="6.4921">
        <ele>1495.198</ele>
        <time>2026-03-13T08:55:26Z</time>
      </trkpt>
      <trkpt lat="45.92537" lon="6.49214">
        <ele>1494.228</ele>
        <time>2026-03-13T08:55:31Z</time>
      </trkpt>
      <trkpt lat="45.92542" lon="6.49217">
        <ele>1491.666</ele>
        <time>2026-03-13T08:55:36Z</time>
      </trkpt>
      <trkpt lat="45.92548" lon="6.49219">
        <ele>1491.396</ele>
        <time>2026-03-13T08:55:41Z</time>
      </trkpt>
      <trkpt lat="45.92554" lon="6.4922">
        <ele>1491.236</ele>
        <time>2026-03-13T08:55:46Z</time>
      </trkpt>
      <trkpt lat="45.92557" lon="6.4922">
        <ele>1491.311</ele>
        <time>2026-03-13T08:55:51Z</time>
      </trkpt>
      <trkpt lat="45.92562" lon="6.49219">
        <ele>1490.443</ele>
        <time>2026-03-13T08:55:56Z</time>
      </trkpt>
      <trkpt lat="45.92566" lon="6.4922">
        <ele>1490.517</ele>
        <time>2026-03-13T08:56:01Z</time>
      </trkpt>
      <trkpt lat="45.9257" lon="6.49222">
        <ele>1489.873</ele>
        <time>2026-03-13T08:56:06Z</time>
      </trkpt>
      <trkpt lat="45.92573" lon="6.49222">
        <ele>1489.597</ele>
        <time>2026-03-13T08:56:11Z</time>
      </trkpt>
      <trkpt lat="45.92578" lon="6.49222">
        <ele>1489.363</ele>
        <time>2026-03-13T08:56:16Z</time>
      </trkpt>
      <trkpt lat="45.92582" lon="6.49224">
        <ele>1489.35</ele>
        <time>2026-03-13T08:56:21Z</time>
      </trkpt>
      <trkpt lat="45.92589" lon="6.49225">
        <ele>1494.349</ele>
        <time>2026-03-13T08:56:26Z</time>
      </trkpt>
      <trkpt lat="45.92592" lon="6.49225">
        <ele>1496.014</ele>
        <time>2026-03-13T08:56:31Z</time>
      </trkpt>
      <trkpt lat="45.92597" lon="6.49225">
        <ele>1496.958</ele>
        <time>2026-03-13T08:56:36Z</time>
      </trkpt>
      <trkpt lat="45.926" lon="6.49227">
        <ele>1497</ele>
        <time>2026-03-13T08:56:41Z</time>
      </trkpt>
      <trkpt lat="45.92601" lon="6.49228">
        <ele>1495.63</ele>
        <time>2026-03-13T08:56:46Z</time>
      </trkpt>
      <trkpt lat="45.92603" lon="6.4923">
        <ele>1494.933</ele>
        <time>2026-03-13T08:56:51Z</time>
      </trkpt>
      <trkpt lat="45.92604" lon="6.49232">
        <ele>1494.372</ele>
        <time>2026-03-13T08:56:56Z</time>
      </trkpt>
      <trkpt lat="45.92606" lon="6.49233">
        <ele>1492.369</ele>
        <time>2026-03-13T08:57:01Z</time>
      </trkpt>
      <trkpt lat="45.92611" lon="6.49231">
        <ele>1490.443</ele>
        <time>2026-03-13T08:57:06Z</time>
      </trkpt>
      <trkpt lat="45.92614" lon="6.49232">
        <ele>1490.32</ele>
        <time>2026-03-13T08:57:11Z</time>
      </trkpt>
      <trkpt lat="45.92623" lon="6.49236">
        <ele>1489.846</ele>
        <time>2026-03-13T08:57:16Z</time>
      </trkpt>
      <trkpt lat="45.92632" lon="6.49245">
        <ele>1489.24</ele>
        <time>2026-03-13T08:57:21Z</time>
      </trkpt>
      <trkpt lat="45.92635" lon="6.49251">
        <ele>1489.577</ele>
        <time>2026-03-13T08:57:26Z</time>
      </trkpt>
      <trkpt lat="45.9264" lon="6.49256">
        <ele>1488.62</ele>
        <time>2026-03-13T08:57:31Z</time>
      </trkpt>
      <trkpt lat="45.92642" lon="6.49259">
        <ele>1488.957</ele>
        <time>2026-03-13T08:57:36Z</time>
      </trkpt>
      <trkpt lat="45.92646" lon="6.49262">
        <ele>1489.324</ele>
        <time>2026-03-13T08:57:41Z</time>
      </trkpt>
      <trkpt lat="45.92651" lon="6.49265">
        <ele>1487.415</ele>
        <time>2026-03-13T08:57:46Z</time>
      </trkpt>
      <trkpt lat="45.92656" lon="6.49267">
        <ele>1486.623</ele>
        <time>2026-03-13T08:57:51Z</time>
      </trkpt>
      <trkpt lat="45.92667" lon="6.49268">
        <ele>1486.18</ele>
        <time>2026-03-13T08:57:56Z</time>
      </trkpt>
      <trkpt lat="45.92671" lon="6.4927">
        <ele>1485.605</ele>
        <time>2026-03-13T08:58:01Z</time>
      </trkpt>
      <trkpt lat="45.92675" lon="6.49273">
        <ele>1485.87</ele>
        <time>2026-03-13T08:58:06Z</time>
      </trkpt>
      <trkpt lat="45.92679" lon="6.49276">
        <ele>1486.084</ele>
        <time>2026-03-13T08:58:11Z</time>
      </trkpt>
      <trkpt lat="45.92682" lon="6.49279">
        <ele>1485.877</ele>
        <time>2026-03-13T08:58:16Z</time>
      </trkpt>
      <trkpt lat="45.92685" lon="6.49282">
        <ele>1484.862</ele>
        <time>2026-03-13T08:58:21Z</time>
      </trkpt>
      <trkpt lat="45.92689" lon="6.49284">
        <ele>1484.518</ele>
        <time>2026-03-13T08:58:26Z</time>
      </trkpt>
      <trkpt lat="45.92692" lon="6.49288">
        <ele>1483.567</ele>
        <time>2026-03-13T08:58:31Z</time>
      </trkpt>
      <trkpt lat="45.92695" lon="6.49293">
        <ele>1483.634</ele>
        <time>2026-03-13T08:58:36Z</time>
      </trkpt>
      <trkpt lat="45.92697" lon="6.49297">
        <ele>1484.338</ele>
        <time>2026-03-13T08:58:41Z</time>
      </trkpt>
      <trkpt lat="45.92699" lon="6.49302">
        <ele>1484.294</ele>
        <time>2026-03-13T08:58:46Z</time>
      </trkpt>
      <trkpt lat="45.92701" lon="6.49306">
        <ele>1484.337</ele>
        <time>2026-03-13T08:58:51Z</time>
      </trkpt>
      <trkpt lat="45.92702" lon="6.4931">
        <ele>1484.936</ele>
        <time>2026-03-13T08:58:56Z</time>
      </trkpt>
      <trkpt lat="45.92703" lon="6.49314">
        <ele>1485.955</ele>
        <time>2026-03-13T08:59:01Z</time>
      </trkpt>
      <trkpt lat="45.92705" lon="6.4932">
        <ele>1486.503</ele>
        <time>2026-03-13T08:59:06Z</time>
      </trkpt>
      <trkpt lat="45.92705" lon="6.49321">
        <ele>1486.133</ele>
        <time>2026-03-13T08:59:11Z</time>
      </trkpt>
      <trkpt lat="45.92706" lon="6.49326">
        <ele>1485.57</ele>
        <time>2026-03-13T08:59:16Z</time>
      </trkpt>
      <trkpt lat="45.92707" lon="6.49332">
        <ele>1485.542</ele>
        <time>2026-03-13T08:59:21Z</time>
      </trkpt>
      <trkpt lat="45.92708" lon="6.49339">
        <ele>1486.188</ele>
        <time>2026-03-13T08:59:26Z</time>
      </trkpt>
      <trkpt lat="45.92709" lon="6.49345">
        <ele>1485.862</ele>
        <time>2026-03-13T08:59:31Z</time>
      </trkpt>
      <trkpt lat="45.9271" lon="6.49351">
        <ele>1485.351</ele>
        <time>2026-03-13T08:59:36Z</time>
      </trkpt>
      <trkpt lat="45.92712" lon="6.49356">
        <ele>1486.49</ele>
        <time>2026-03-13T08:59:41Z</time>
      </trkpt>
      <trkpt lat="45.92712" lon="6.49361">
        <ele>1484.286</ele>
        <time>2026-03-13T08:59:46Z</time>
      </trkpt>
      <trkpt lat="45.92713" lon="6.49366">
        <ele>1484.808</ele>
        <time>2026-03-13T08:59:51Z</time>
      </trkpt>
      <trkpt lat="45.92715" lon="6.49369">
        <ele>1486.883</ele>
        <time>2026-03-13T08:59:56Z</time>
      </trkpt>
      <trkpt lat="45.92717" lon="6.49373">
        <ele>1487.145</ele>
        <time>2026-03-13T09:00:01Z</time>
      </trkpt>
      <trkpt lat="45.92719" lon="6.49378">
        <ele>1487.147</ele>
        <time>2026-03-13T09:00:06Z</time>
      </trkpt>
      <trkpt lat="45.92722" lon="6.49384">
        <ele>1487.777</ele>
        <time>2026-03-13T09:00:11Z</time>
      </trkpt>
      <trkpt lat="45.92724" lon="6.49389">
        <ele>1489.468</ele>
        <time>2026-03-13T09:00:16Z</time>
      </trkpt>
      <trkpt lat="45.92725" lon="6.49395">
        <ele>1490.168</ele>
        <time>2026-03-13T09:00:21Z</time>
      </trkpt>
      <trkpt lat="45.92727" lon="6.494">
        <ele>1490.325</ele>
        <time>2026-03-13T09:00:26Z</time>
      </trkpt>
      <trkpt lat="45.92729" lon="6.49407">
        <ele>1490.5</ele>
        <time>2026-03-13T09:00:31Z</time>
      </trkpt>
      <trkpt lat="45.9273" lon="6.49412">
        <ele>1489.552</ele>
        <time>2026-03-13T09:00:36Z</time>
      </trkpt>
      <trkpt lat="45.92732" lon="6.49417">
        <ele>1489.721</ele>
        <time>2026-03-13T09:00:41Z</time>
      </trkpt>
      <trkpt lat="45.92733" lon="6.49422">
        <ele>1490.314</ele>
        <time>2026-03-13T09:00:46Z</time>
      </trkpt>
      <trkpt lat="45.92733" lon="6.49422">
        <ele>1490.533</ele>
        <time>2026-03-13T09:00:51Z</time>
      </trkpt>
      <trkpt lat="45.92733" lon="6.49422">
        <ele>1490.518</ele>
        <time>2026-03-13T09:00:56Z</time>
      </trkpt>
      <trkpt lat="45.92733" lon="6.49422">
        <ele>1490.121</ele>
        <time>2026-03-13T09:01:01Z</time>
      </trkpt>
      <trkpt lat="45.92733" lon="6.49422">
        <ele>1490.39</ele>
        <time>2026-03-13T09:01:06Z</time>
      </trkpt>
      <trkpt lat="45.92733" lon="6.49422">
        <ele>1490.305</ele>
        <time>2026-03-13T09:01:11Z</time>
      </trkpt>
      <trkpt lat="45.92733" lon="6.49422">
        <ele>1489.83</ele>
        <time>2026-03-13T09:01:16Z</time>
      </trkpt>
      <trkpt lat="45.92733" lon="6.49422">
        <ele>1490.151</ele>
        <time>2026-03-13T09:01:21Z</time>
      </trkpt>
      <trkpt lat="45.92733" lon="6.49422">
        <ele>1490.148</ele>
        <time>2026-03-13T09:01:26Z</time>
      </trkpt>
      <trkpt lat="45.92733" lon="6.49422">
        <ele>1490.153</ele>
        <time>2026-03-13T09:01:31Z</time>
      </trkpt>
      <trkpt lat="45.92733" lon="6.49422">
        <ele>1490.148</ele>
        <time>2026-03-13T09:01:36Z</time>
      </trkpt>
      <trkpt lat="45.92733" lon="6.49422">
        <ele>1490.131</ele>
        <time>2026-03-13T09:01:41Z</time>
      </trkpt>
      <trkpt lat="45.92733" lon="6.49422">
        <ele>1490.122</ele>
        <time>2026-03-13T09:01:46Z</time>
      </trkpt>
      <trkpt lat="45.92733" lon="6.49422">
        <ele>1490.137</ele>
        <time>2026-03-13T09:01:51Z</time>
      </trkpt>
      <trkpt lat="45.92733" lon="6.49422">
        <ele>1490.151</ele>
        <time>2026-03-13T09:01:56Z</time>
      </trkpt>
      <trkpt lat="45.92733" lon="6.49422">
        <ele>1490.162</ele>
        <time>2026-03-13T09:02:01Z</time>
      </trkpt>
      <trkpt lat="45.92733" lon="6.49422">
        <ele>1490.162</ele>
        <time>2026-03-13T09:02:06Z</time>
      </trkpt>
      <trkpt lat="45.92733" lon="6.49422">
        <ele>1490.165</ele>
        <time>2026-03-13T09:02:11Z</time>
      </trkpt>
      <trkpt lat="45.92733" lon="6.49422">
        <ele>1490.167</ele>
        <time>2026-03-13T09:02:16Z</time>
      </trkpt>
      <trkpt lat="45.92733" lon="6.49422">
        <ele>1496.658</ele>
        <time>2026-03-13T09:02:21Z</time>
      </trkpt>
      <trkpt lat="45.92733" lon="6.49422">
        <ele>1494.575</ele>
        <time>2026-03-13T09:02:26Z</time>
      </trkpt>
      <trkpt lat="45.92733" lon="6.49422">
        <ele>1493.562</ele>
        <time>2026-03-13T09:02:31Z</time>
      </trkpt>
      <trkpt lat="45.92733" lon="6.49422">
        <ele>1493.904</ele>
        <time>2026-03-13T09:02:36Z</time>
      </trkpt>
      <trkpt lat="45.92733" lon="6.49422">
        <ele>1493.898</ele>
        <time>2026-03-13T09:02:41Z</time>
      </trkpt>
      <trkpt lat="45.92733" lon="6.49422">
        <ele>1494.553</ele>
        <time>2026-03-13T09:02:46Z</time>
      </trkpt>
      <trkpt lat="45.92733" lon="6.49422">
        <ele>1494.82</ele>
        <time>2026-03-13T09:02:51Z</time>
      </trkpt>
      <trkpt lat="45.92733" lon="6.49422">
        <ele>1494.735</ele>
        <time>2026-03-13T09:02:56Z</time>
      </trkpt>
      <trkpt lat="45.92733" lon="6.49422">
        <ele>1494.701</ele>
        <time>2026-03-13T09:03:01Z</time>
      </trkpt>
      <trkpt lat="45.92733" lon="6.49422">
        <ele>1494.692</ele>
        <time>2026-03-13T09:03:06Z</time>
      </trkpt>
      <trkpt lat="45.92733" lon="6.49422">
        <ele>1494.726</ele>
        <time>2026-03-13T09:03:11Z</time>
      </trkpt>
      <trkpt lat="45.92733" lon="6.49422">
        <ele>1494.745</ele>
        <time>2026-03-13T09:03:16Z</time>
      </trkpt>
      <trkpt lat="45.92733" lon="6.49422">
        <ele>1494.789</ele>
        <time>2026-03-13T09:03:21Z</time>
      </trkpt>
      <trkpt lat="45.92733" lon="6.49422">
        <ele>1494.864</ele>
        <time>2026-03-13T09:03:26Z</time>
      </trkpt>
      <trkpt lat="45.92733" lon="6.49422">
        <ele>1494.863</ele>
        <time>2026-03-13T09:03:31Z</time>
      </trkpt>
      <trkpt lat="45.92733" lon="6.49422">
        <ele>1494.848</ele>
        <time>2026-03-13T09:03:36Z</time>
      </trkpt>
      <trkpt lat="45.92733" lon="6.49422">
        <ele>1494.816</ele>
        <time>2026-03-13T09:03:41Z</time>
      </trkpt>
      <trkpt lat="45.92733" lon="6.49422">
        <ele>1494.744</ele>
        <time>2026-03-13T09:03:46Z</time>
      </trkpt>
      <trkpt lat="45.92733" lon="6.49422">
        <ele>1494.684</ele>
        <time>2026-03-13T09:03:51Z</time>
      </trkpt>
      <trkpt lat="45.92733" lon="6.49422">
        <ele>1494.64</ele>
        <time>2026-03-13T09:03:56Z</time>
      </trkpt>
      <trkpt lat="45.92733" lon="6.49422">
        <ele>1494.614</ele>
        <time>2026-03-13T09:04:01Z</time>
      </trkpt>
      <trkpt lat="45.92733" lon="6.49422">
        <ele>1494.554</ele>
        <time>2026-03-13T09:04:06Z</time>
      </trkpt>
      <trkpt lat="45.92733" lon="6.49422">
        <ele>1494.551</ele>
        <time>2026-03-13T09:04:11Z</time>
      </trkpt>
      <trkpt lat="45.92733" lon="6.49422">
        <ele>1494.527</ele>
        <time>2026-03-13T09:04:16Z</time>
      </trkpt>
      <trkpt lat="45.92733" lon="6.49422">
        <ele>1494.538</ele>
        <time>2026-03-13T09:04:21Z</time>
      </trkpt>
      <trkpt lat="45.92733" lon="6.49422">
        <ele>1494.517</ele>
        <time>2026-03-13T09:04:26Z</time>
      </trkpt>
      <trkpt lat="45.92733" lon="6.49422">
        <ele>1494.469</ele>
        <time>2026-03-13T09:04:31Z</time>
      </trkpt>
      <trkpt lat="45.92733" lon="6.49422">
        <ele>1494.453</ele>
        <time>2026-03-13T09:04:36Z</time>
      </trkpt>
      <trkpt lat="45.92733" lon="6.49422">
        <ele>1494.369</ele>
        <time>2026-03-13T09:04:41Z</time>
      </trkpt>
      <trkpt lat="45.92735" lon="6.49427">
        <ele>1493.058</ele>
        <time>2026-03-13T09:04:46Z</time>
      </trkpt>
      <trkpt lat="45.92735" lon="6.49432">
        <ele>1493.193</ele>
        <time>2026-03-13T09:04:51Z</time>
      </trkpt>
      <trkpt lat="45.92735" lon="6.49437">
        <ele>1493.156</ele>
        <time>2026-03-13T09:04:56Z</time>
      </trkpt>
      <trkpt lat="45.92735" lon="6.49443">
        <ele>1492.833</ele>
        <time>2026-03-13T09:05:01Z</time>
      </trkpt>
      <trkpt lat="45.92734" lon="6.49449">
        <ele>1493.332</ele>
        <time>2026-03-13T09:05:06Z</time>
      </trkpt>
      <trkpt lat="45.92732" lon="6.49455">
        <ele>1494.067</ele>
        <time>2026-03-13T09:05:11Z</time>
      </trkpt>
      <trkpt lat="45.92731" lon="6.4946">
        <ele>1494.519</ele>
        <time>2026-03-13T09:05:16Z</time>
      </trkpt>
      <trkpt lat="45.92731" lon="6.4946">
        <ele>1494.53</ele>
        <time>2026-03-13T09:05:21Z</time>
      </trkpt>
      <trkpt lat="45.92731" lon="6.4946">
        <ele>1494.549</ele>
        <time>2026-03-13T09:05:26Z</time>
      </trkpt>
      <trkpt lat="45.92731" lon="6.4946">
        <ele>1494.538</ele>
        <time>2026-03-13T09:05:31Z</time>
      </trkpt>
      <trkpt lat="45.92731" lon="6.4946">
        <ele>1494.4</ele>
        <time>2026-03-13T09:05:36Z</time>
      </trkpt>
      <trkpt lat="45.92727" lon="6.49463">
        <ele>1495.006</ele>
        <time>2026-03-13T09:05:41Z</time>
      </trkpt>
      <trkpt lat="45.92723" lon="6.49467">
        <ele>1495.247</ele>
        <time>2026-03-13T09:05:46Z</time>
      </trkpt>
      <trkpt lat="45.92718" lon="6.49466">
        <ele>1494.894</ele>
        <time>2026-03-13T09:05:51Z</time>
      </trkpt>
      <trkpt lat="45.92713" lon="6.49466">
        <ele>1494.195</ele>
        <time>2026-03-13T09:05:56Z</time>
      </trkpt>
      <trkpt lat="45.92707" lon="6.49467">
        <ele>1494.337</ele>
        <time>2026-03-13T09:06:01Z</time>
      </trkpt>
      <trkpt lat="45.92702" lon="6.49465">
        <ele>1493.646</ele>
        <time>2026-03-13T09:06:06Z</time>
      </trkpt>
      <trkpt lat="45.92688" lon="6.49467">
        <ele>1491.717</ele>
        <time>2026-03-13T09:06:11Z</time>
      </trkpt>
      <trkpt lat="45.92684" lon="6.4947">
        <ele>1502.6</ele>
        <time>2026-03-13T09:06:16Z</time>
      </trkpt>
      <trkpt lat="45.92681" lon="6.49474">
        <ele>1501.91</ele>
        <time>2026-03-13T09:06:21Z</time>
      </trkpt>
      <trkpt lat="45.92678" lon="6.49477">
        <ele>1502.64</ele>
        <time>2026-03-13T09:06:26Z</time>
      </trkpt>
      <trkpt lat="45.92676" lon="6.49481">
        <ele>1502.202</ele>
        <time>2026-03-13T09:06:31Z</time>
      </trkpt>
      <trkpt lat="45.92675" lon="6.49481">
        <ele>1502.265</ele>
        <time>2026-03-13T09:06:36Z</time>
      </trkpt>
      <trkpt lat="45.92675" lon="6.49481">
        <ele>1502.401</ele>
        <time>2026-03-13T09:06:41Z</time>
      </trkpt>
      <trkpt lat="45.92673" lon="6.49485">
        <ele>1503.101</ele>
        <time>2026-03-13T09:06:46Z</time>
      </trkpt>
      <trkpt lat="45.9267" lon="6.49488">
        <ele>1504.594</ele>
        <time>2026-03-13T09:06:51Z</time>
      </trkpt>
      <trkpt lat="45.92668" lon="6.49492">
        <ele>1505.833</ele>
        <time>2026-03-13T09:06:56Z</time>
      </trkpt>
      <trkpt lat="45.92664" lon="6.49496">
        <ele>1504.625</ele>
        <time>2026-03-13T09:07:01Z</time>
      </trkpt>
      <trkpt lat="45.92661" lon="6.49499">
        <ele>1503.517</ele>
        <time>2026-03-13T09:07:06Z</time>
      </trkpt>
      <trkpt lat="45.92658" lon="6.49504">
        <ele>1502.724</ele>
        <time>2026-03-13T09:07:11Z</time>
      </trkpt>
      <trkpt lat="45.92656" lon="6.4951">
        <ele>1502.855</ele>
        <time>2026-03-13T09:07:16Z</time>
      </trkpt>
      <trkpt lat="45.92655" lon="6.49516">
        <ele>1503.558</ele>
        <time>2026-03-13T09:07:21Z</time>
      </trkpt>
      <trkpt lat="45.92654" lon="6.49523">
        <ele>1503.48</ele>
        <time>2026-03-13T09:07:26Z</time>
      </trkpt>
      <trkpt lat="45.92653" lon="6.49529">
        <ele>1503.591</ele>
        <time>2026-03-13T09:07:31Z</time>
      </trkpt>
      <trkpt lat="45.92652" lon="6.49535">
        <ele>1503.461</ele>
        <time>2026-03-13T09:07:36Z</time>
      </trkpt>
      <trkpt lat="45.9265" lon="6.49541">
        <ele>1500.575</ele>
        <time>2026-03-13T09:07:41Z</time>
      </trkpt>
      <trkpt lat="45.92648" lon="6.49546">
        <ele>1499.481</ele>
        <time>2026-03-13T09:07:46Z</time>
      </trkpt>
      <trkpt lat="45.92646" lon="6.49554">
        <ele>1498.746</ele>
        <time>2026-03-13T09:07:51Z</time>
      </trkpt>
      <trkpt lat="45.92646" lon="6.49564">
        <ele>1497.351</ele>
        <time>2026-03-13T09:07:56Z</time>
      </trkpt>
      <trkpt lat="45.92645" lon="6.49571">
        <ele>1497.77</ele>
        <time>2026-03-13T09:08:01Z</time>
      </trkpt>
      <trkpt lat="45.92646" lon="6.49578">
        <ele>1499.007</ele>
        <time>2026-03-13T09:08:06Z</time>
      </trkpt>
      <trkpt lat="45.92644" lon="6.49584">
        <ele>1498.792</ele>
        <time>2026-03-13T09:08:11Z</time>
      </trkpt>
      <trkpt lat="45.92643" lon="6.4959">
        <ele>1499.21</ele>
        <time>2026-03-13T09:08:16Z</time>
      </trkpt>
      <trkpt lat="45.92643" lon="6.49596">
        <ele>1499.965</ele>
        <time>2026-03-13T09:08:21Z</time>
      </trkpt>
      <trkpt lat="45.92642" lon="6.49601">
        <ele>1501.287</ele>
        <time>2026-03-13T09:08:26Z</time>
      </trkpt>
      <trkpt lat="45.92642" lon="6.49606">
        <ele>1502.489</ele>
        <time>2026-03-13T09:08:31Z</time>
      </trkpt>
      <trkpt lat="45.92642" lon="6.49612">
        <ele>1502.634</ele>
        <time>2026-03-13T09:08:36Z</time>
      </trkpt>
      <trkpt lat="45.92642" lon="6.49619">
        <ele>1503.44</ele>
        <time>2026-03-13T09:08:41Z</time>
      </trkpt>
      <trkpt lat="45.92641" lon="6.49625">
        <ele>1504.615</ele>
        <time>2026-03-13T09:08:46Z</time>
      </trkpt>
      <trkpt lat="45.92638" lon="6.4963">
        <ele>1507.34</ele>
        <time>2026-03-13T09:08:51Z</time>
      </trkpt>
      <trkpt lat="45.92636" lon="6.49633">
        <ele>1509.537</ele>
        <time>2026-03-13T09:08:56Z</time>
      </trkpt>
      <trkpt lat="45.92633" lon="6.4964">
        <ele>1510.85</ele>
        <time>2026-03-13T09:09:01Z</time>
      </trkpt>
      <trkpt lat="45.92633" lon="6.49648">
        <ele>1510.164</ele>
        <time>2026-03-13T09:09:06Z</time>
      </trkpt>
      <trkpt lat="45.92632" lon="6.49655">
        <ele>1508.652</ele>
        <time>2026-03-13T09:09:11Z</time>
      </trkpt>
      <trkpt lat="45.92631" lon="6.4966">
        <ele>1509.738</ele>
        <time>2026-03-13T09:09:16Z</time>
      </trkpt>
      <trkpt lat="45.9263" lon="6.49667">
        <ele>1510.207</ele>
        <time>2026-03-13T09:09:21Z</time>
      </trkpt>
      <trkpt lat="45.92631" lon="6.49671">
        <ele>1512.328</ele>
        <time>2026-03-13T09:09:26Z</time>
      </trkpt>
      <trkpt lat="45.92631" lon="6.49677">
        <ele>1511.392</ele>
        <time>2026-03-13T09:09:31Z</time>
      </trkpt>
      <trkpt lat="45.92632" lon="6.49683">
        <ele>1512.388</ele>
        <time>2026-03-13T09:09:36Z</time>
      </trkpt>
      <trkpt lat="45.92633" lon="6.49689">
        <ele>1512.592</ele>
        <time>2026-03-13T09:09:41Z</time>
      </trkpt>
      <trkpt lat="45.92632" lon="6.49697">
        <ele>1514.061</ele>
        <time>2026-03-13T09:09:46Z</time>
      </trkpt>
      <trkpt lat="45.92634" lon="6.49702">
        <ele>1516.199</ele>
        <time>2026-03-13T09:09:51Z</time>
      </trkpt>
      <trkpt lat="45.92635" lon="6.49709">
        <ele>1514.396</ele>
        <time>2026-03-13T09:09:56Z</time>
      </trkpt>
      <trkpt lat="45.92635" lon="6.49716">
        <ele>1513.431</ele>
        <time>2026-03-13T09:10:01Z</time>
      </trkpt>
      <trkpt lat="45.92636" lon="6.4972">
        <ele>1512.53</ele>
        <time>2026-03-13T09:10:06Z</time>
      </trkpt>
      <trkpt lat="45.92638" lon="6.49725">
        <ele>1515.438</ele>
        <time>2026-03-13T09:10:11Z</time>
      </trkpt>
      <trkpt lat="45.92642" lon="6.4973">
        <ele>1518.261</ele>
        <time>2026-03-13T09:10:16Z</time>
      </trkpt>
      <trkpt lat="45.92646" lon="6.49735">
        <ele>1518.215</ele>
        <time>2026-03-13T09:10:21Z</time>
      </trkpt>
      <trkpt lat="45.92649" lon="6.49739">
        <ele>1518.831</ele>
        <time>2026-03-13T09:10:26Z</time>
      </trkpt>
      <trkpt lat="45.92652" lon="6.49744">
        <ele>1520.924</ele>
        <time>2026-03-13T09:10:31Z</time>
      </trkpt>
      <trkpt lat="45.92653" lon="6.49749">
        <ele>1517.5</ele>
        <time>2026-03-13T09:10:36Z</time>
      </trkpt>
      <trkpt lat="45.92655" lon="6.49753">
        <ele>1517.276</ele>
        <time>2026-03-13T09:10:41Z</time>
      </trkpt>
      <trkpt lat="45.92656" lon="6.49757">
        <ele>1518.261</ele>
        <time>2026-03-13T09:10:46Z</time>
      </trkpt>
      <trkpt lat="45.92658" lon="6.49762">
        <ele>1518.439</ele>
        <time>2026-03-13T09:10:51Z</time>
      </trkpt>
      <trkpt lat="45.92657" lon="6.49767">
        <ele>1518.08</ele>
        <time>2026-03-13T09:10:56Z</time>
      </trkpt>
      <trkpt lat="45.92659" lon="6.49771">
        <ele>1519.822</ele>
        <time>2026-03-13T09:11:01Z</time>
      </trkpt>
      <trkpt lat="45.92659" lon="6.49775">
        <ele>1520.902</ele>
        <time>2026-03-13T09:11:06Z</time>
      </trkpt>
      <trkpt lat="45.92659" lon="6.4978">
        <ele>1521.812</ele>
        <time>2026-03-13T09:11:11Z</time>
      </trkpt>
      <trkpt lat="45.9266" lon="6.49784">
        <ele>1522.501</ele>
        <time>2026-03-13T09:11:16Z</time>
      </trkpt>
      <trkpt lat="45.92663" lon="6.49791">
        <ele>1523.694</ele>
        <time>2026-03-13T09:11:21Z</time>
      </trkpt>
      <trkpt lat="45.92664" lon="6.49797">
        <ele>1523.958</ele>
        <time>2026-03-13T09:11:26Z</time>
      </trkpt>
      <trkpt lat="45.92667" lon="6.498">
        <ele>1526.955</ele>
        <time>2026-03-13T09:11:31Z</time>
      </trkpt>
      <trkpt lat="45.92668" lon="6.49806">
        <ele>1527.34</ele>
        <time>2026-03-13T09:11:36Z</time>
      </trkpt>
      <trkpt lat="45.92668" lon="6.49811">
        <ele>1525.941</ele>
        <time>2026-03-13T09:11:41Z</time>
      </trkpt>
      <trkpt lat="45.92668" lon="6.49817">
        <ele>1525.678</ele>
        <time>2026-03-13T09:11:46Z</time>
      </trkpt>
      <trkpt lat="45.92669" lon="6.49823">
        <ele>1525.387</ele>
        <time>2026-03-13T09:11:51Z</time>
      </trkpt>
      <trkpt lat="45.92669" lon="6.49826">
        <ele>1525.969</ele>
        <time>2026-03-13T09:11:56Z</time>
      </trkpt>
      <trkpt lat="45.92669" lon="6.49829">
        <ele>1526.003</ele>
        <time>2026-03-13T09:12:01Z</time>
      </trkpt>
      <trkpt lat="45.92671" lon="6.49832">
        <ele>1526.9</ele>
        <time>2026-03-13T09:12:06Z</time>
      </trkpt>
      <trkpt lat="45.92672" lon="6.49837">
        <ele>1527.188</ele>
        <time>2026-03-13T09:12:11Z</time>
      </trkpt>
      <trkpt lat="45.92673" lon="6.49842">
        <ele>1527.795</ele>
        <time>2026-03-13T09:12:16Z</time>
      </trkpt>
      <trkpt lat="45.92674" lon="6.49846">
        <ele>1527.77</ele>
        <time>2026-03-13T09:12:21Z</time>
      </trkpt>
      <trkpt lat="45.92673" lon="6.49849">
        <ele>1529.314</ele>
        <time>2026-03-13T09:12:26Z</time>
      </trkpt>
      <trkpt lat="45.92674" lon="6.49855">
        <ele>1528.955</ele>
        <time>2026-03-13T09:12:31Z</time>
      </trkpt>
      <trkpt lat="45.92673" lon="6.4986">
        <ele>1528.479</ele>
        <time>2026-03-13T09:12:36Z</time>
      </trkpt>
      <trkpt lat="45.92673" lon="6.49863">
        <ele>1529.81</ele>
        <time>2026-03-13T09:12:41Z</time>
      </trkpt>
      <trkpt lat="45.92671" lon="6.49867">
        <ele>1530.557</ele>
        <time>2026-03-13T09:12:46Z</time>
      </trkpt>
      <trkpt lat="45.92669" lon="6.49872">
        <ele>1530.984</ele>
        <time>2026-03-13T09:12:51Z</time>
      </trkpt>
      <trkpt lat="45.92669" lon="6.49876">
        <ele>1532.202</ele>
        <time>2026-03-13T09:12:56Z</time>
      </trkpt>
      <trkpt lat="45.92669" lon="6.49881">
        <ele>1532.827</ele>
        <time>2026-03-13T09:13:01Z</time>
      </trkpt>
      <trkpt lat="45.9267" lon="6.49887">
        <ele>1532.451</ele>
        <time>2026-03-13T09:13:06Z</time>
      </trkpt>
      <trkpt lat="45.92669" lon="6.4989">
        <ele>1532.668</ele>
        <time>2026-03-13T09:13:11Z</time>
      </trkpt>
      <trkpt lat="45.92669" lon="6.4989">
        <ele>1532.668</ele>
        <time>2026-03-13T09:13:16Z</time>
      </trkpt>
      <trkpt lat="45.92669" lon="6.4989">
        <ele>1532.655</ele>
        <time>2026-03-13T09:13:21Z</time>
      </trkpt>
      <trkpt lat="45.92669" lon="6.4989">
        <ele>1532.483</ele>
        <time>2026-03-13T09:13:26Z</time>
      </trkpt>
      <trkpt lat="45.9267" lon="6.49895">
        <ele>1532.932</ele>
        <time>2026-03-13T09:13:31Z</time>
      </trkpt>
      <trkpt lat="45.9267" lon="6.49899">
        <ele>1533.602</ele>
        <time>2026-03-13T09:13:36Z</time>
      </trkpt>
      <trkpt lat="45.9267" lon="6.49904">
        <ele>1534.397</ele>
        <time>2026-03-13T09:13:41Z</time>
      </trkpt>
      <trkpt lat="45.9267" lon="6.4991">
        <ele>1535.32</ele>
        <time>2026-03-13T09:13:46Z</time>
      </trkpt>
      <trkpt lat="45.9267" lon="6.49914">
        <ele>1536.113</ele>
        <time>2026-03-13T09:13:51Z</time>
      </trkpt>
      <trkpt lat="45.9267" lon="6.49919">
        <ele>1535.777</ele>
        <time>2026-03-13T09:13:56Z</time>
      </trkpt>
      <trkpt lat="45.9267" lon="6.49924">
        <ele>1535.636</ele>
        <time>2026-03-13T09:14:01Z</time>
      </trkpt>
      <trkpt lat="45.9267" lon="6.49927">
        <ele>1536.286</ele>
        <time>2026-03-13T09:14:06Z</time>
      </trkpt>
      <trkpt lat="45.9267" lon="6.49932">
        <ele>1536.577</ele>
        <time>2026-03-13T09:14:11Z</time>
      </trkpt>
      <trkpt lat="45.92671" lon="6.49936">
        <ele>1537.68</ele>
        <time>2026-03-13T09:14:16Z</time>
      </trkpt>
      <trkpt lat="45.92672" lon="6.4994">
        <ele>1538.483</ele>
        <time>2026-03-13T09:14:21Z</time>
      </trkpt>
      <trkpt lat="45.92672" lon="6.49944">
        <ele>1538.947</ele>
        <time>2026-03-13T09:14:26Z</time>
      </trkpt>
      <trkpt lat="45.92673" lon="6.49948">
        <ele>1541.873</ele>
        <time>2026-03-13T09:14:31Z</time>
      </trkpt>
      <trkpt lat="45.92674" lon="6.49953">
        <ele>1541.551</ele>
        <time>2026-03-13T09:14:36Z</time>
      </trkpt>
      <trkpt lat="45.92674" lon="6.49957">
        <ele>1541.28</ele>
        <time>2026-03-13T09:14:41Z</time>
      </trkpt>
      <trkpt lat="45.92674" lon="6.49962">
        <ele>1542.508</ele>
        <time>2026-03-13T09:14:46Z</time>
      </trkpt>
      <trkpt lat="45.92674" lon="6.49966">
        <ele>1543.265</ele>
        <time>2026-03-13T09:14:51Z</time>
      </trkpt>
      <trkpt lat="45.92674" lon="6.49968">
        <ele>1543.596</ele>
        <time>2026-03-13T09:14:56Z</time>
      </trkpt>
      <trkpt lat="45.92674" lon="6.49968">
        <ele>1543.598</ele>
        <time>2026-03-13T09:15:01Z</time>
      </trkpt>
      <trkpt lat="45.92674" lon="6.49969">
        <ele>1543.942</ele>
        <time>2026-03-13T09:15:06Z</time>
      </trkpt>
      <trkpt lat="45.92675" lon="6.49972">
        <ele>1544.633</ele>
        <time>2026-03-13T09:15:11Z</time>
      </trkpt>
      <trkpt lat="45.92675" lon="6.49973">
        <ele>1544.847</ele>
        <time>2026-03-13T09:15:16Z</time>
      </trkpt>
      <trkpt lat="45.92675" lon="6.49973">
        <ele>1544.832</ele>
        <time>2026-03-13T09:15:21Z</time>
      </trkpt>
      <trkpt lat="45.92675" lon="6.49973">
        <ele>1544.826</ele>
        <time>2026-03-13T09:15:26Z</time>
      </trkpt>
      <trkpt lat="45.92675" lon="6.49973">
        <ele>1545.122</ele>
        <time>2026-03-13T09:15:31Z</time>
      </trkpt>
      <trkpt lat="45.92676" lon="6.49975">
        <ele>1545.133</ele>
        <time>2026-03-13T09:15:36Z</time>
      </trkpt>
      <trkpt lat="45.92676" lon="6.49978">
        <ele>1544.982</ele>
        <time>2026-03-13T09:15:41Z</time>
      </trkpt>
      <trkpt lat="45.92676" lon="6.49981">
        <ele>1545.726</ele>
        <time>2026-03-13T09:15:46Z</time>
      </trkpt>
      <trkpt lat="45.92676" lon="6.49985">
        <ele>1547.515</ele>
        <time>2026-03-13T09:15:51Z</time>
      </trkpt>
      <trkpt lat="45.92677" lon="6.49988">
        <ele>1547.223</ele>
        <time>2026-03-13T09:15:56Z</time>
      </trkpt>
      <trkpt lat="45.92678" lon="6.49992">
        <ele>1547.425</ele>
        <time>2026-03-13T09:16:01Z</time>
      </trkpt>
      <trkpt lat="45.92679" lon="6.49994">
        <ele>1547.532</ele>
        <time>2026-03-13T09:16:06Z</time>
      </trkpt>
      <trkpt lat="45.92679" lon="6.49994">
        <ele>1548.247</ele>
        <time>2026-03-13T09:16:11Z</time>
      </trkpt>
      <trkpt lat="45.92679" lon="6.49994">
        <ele>1548.254</ele>
        <time>2026-03-13T09:16:16Z</time>
      </trkpt>
      <trkpt lat="45.92679" lon="6.49994">
        <ele>1548.276</ele>
        <time>2026-03-13T09:16:21Z</time>
      </trkpt>
      <trkpt lat="45.92677" lon="6.49995">
        <ele>1550.149</ele>
        <time>2026-03-13T09:16:26Z</time>
      </trkpt>
      <trkpt lat="45.92676" lon="6.49999">
        <ele>1550.219</ele>
        <time>2026-03-13T09:16:31Z</time>
      </trkpt>
      <trkpt lat="45.92677" lon="6.50002">
        <ele>1549.717</ele>
        <time>2026-03-13T09:16:36Z</time>
      </trkpt>
      <trkpt lat="45.92677" lon="6.50007">
        <ele>1550.064</ele>
        <time>2026-03-13T09:16:41Z</time>
      </trkpt>
      <trkpt lat="45.92677" lon="6.50013">
        <ele>1551.251</ele>
        <time>2026-03-13T09:16:46Z</time>
      </trkpt>
      <trkpt lat="45.92676" lon="6.50016">
        <ele>1552.778</ele>
        <time>2026-03-13T09:16:51Z</time>
      </trkpt>
      <trkpt lat="45.92675" lon="6.50021">
        <ele>1553.104</ele>
        <time>2026-03-13T09:16:56Z</time>
      </trkpt>
      <trkpt lat="45.92675" lon="6.50024">
        <ele>1554.693</ele>
        <time>2026-03-13T09:17:01Z</time>
      </trkpt>
      <trkpt lat="45.92675" lon="6.50029">
        <ele>1555.179</ele>
        <time>2026-03-13T09:17:06Z</time>
      </trkpt>
      <trkpt lat="45.92676" lon="6.50034">
        <ele>1555.494</ele>
        <time>2026-03-13T09:17:11Z</time>
      </trkpt>
      <trkpt lat="45.92678" lon="6.50038">
        <ele>1556.407</ele>
        <time>2026-03-13T09:17:16Z</time>
      </trkpt>
      <trkpt lat="45.92679" lon="6.50042">
        <ele>1556.815</ele>
        <time>2026-03-13T09:17:21Z</time>
      </trkpt>
      <trkpt lat="45.9268" lon="6.50045">
        <ele>1556.711</ele>
        <time>2026-03-13T09:17:26Z</time>
      </trkpt>
      <trkpt lat="45.92682" lon="6.50048">
        <ele>1556.006</ele>
        <time>2026-03-13T09:17:31Z</time>
      </trkpt>
      <trkpt lat="45.92684" lon="6.50052">
        <ele>1557.137</ele>
        <time>2026-03-13T09:17:36Z</time>
      </trkpt>
      <trkpt lat="45.92685" lon="6.50056">
        <ele>1558.247</ele>
        <time>2026-03-13T09:17:41Z</time>
      </trkpt>
      <trkpt lat="45.92688" lon="6.50058">
        <ele>1559.114</ele>
        <time>2026-03-13T09:17:46Z</time>
      </trkpt>
      <trkpt lat="45.9269" lon="6.50059">
        <ele>1558.52</ele>
        <time>2026-03-13T09:17:51Z</time>
      </trkpt>
      <trkpt lat="45.92691" lon="6.50063">
        <ele>1557.909</ele>
        <time>2026-03-13T09:17:56Z</time>
      </trkpt>
      <trkpt lat="45.92692" lon="6.50066">
        <ele>1559.025</ele>
        <time>2026-03-13T09:18:01Z</time>
      </trkpt>
      <trkpt lat="45.92692" lon="6.50068">
        <ele>1560.21</ele>
        <time>2026-03-13T09:18:06Z</time>
      </trkpt>
      <trkpt lat="45.92692" lon="6.50071">
        <ele>1562.065</ele>
        <time>2026-03-13T09:18:11Z</time>
      </trkpt>
      <trkpt lat="45.9269" lon="6.50072">
        <ele>1564.663</ele>
        <time>2026-03-13T09:18:16Z</time>
      </trkpt>
      <trkpt lat="45.92691" lon="6.50076">
        <ele>1564.688</ele>
        <time>2026-03-13T09:18:21Z</time>
      </trkpt>
      <trkpt lat="45.92692" lon="6.50079">
        <ele>1564.953</ele>
        <time>2026-03-13T09:18:26Z</time>
      </trkpt>
      <trkpt lat="45.92693" lon="6.50083">
        <ele>1566.634</ele>
        <time>2026-03-13T09:18:31Z</time>
      </trkpt>
      <trkpt lat="45.92693" lon="6.50087">
        <ele>1567.277</ele>
        <time>2026-03-13T09:18:36Z</time>
      </trkpt>
      <trkpt lat="45.92693" lon="6.50089">
        <ele>1566.836</ele>
        <time>2026-03-13T09:18:41Z</time>
      </trkpt>
      <trkpt lat="45.92694" lon="6.50093">
        <ele>1566.57</ele>
        <time>2026-03-13T09:18:46Z</time>
      </trkpt>
      <trkpt lat="45.92695" lon="6.50097">
        <ele>1568.541</ele>
        <time>2026-03-13T09:18:51Z</time>
      </trkpt>
      <trkpt lat="45.92697" lon="6.50102">
        <ele>1569.21</ele>
        <time>2026-03-13T09:18:56Z</time>
      </trkpt>
      <trkpt lat="45.92701" lon="6.50105">
        <ele>1569.924</ele>
        <time>2026-03-13T09:19:01Z</time>
      </trkpt>
      <trkpt lat="45.92705" lon="6.50105">
        <ele>1571.294</ele>
        <time>2026-03-13T09:19:06Z</time>
      </trkpt>
      <trkpt lat="45.92708" lon="6.50104">
        <ele>1571.412</ele>
        <time>2026-03-13T09:19:11Z</time>
      </trkpt>
      <trkpt lat="45.92712" lon="6.50102">
        <ele>1573.675</ele>
        <time>2026-03-13T09:19:16Z</time>
      </trkpt>
      <trkpt lat="45.92715" lon="6.50101">
        <ele>1573.836</ele>
        <time>2026-03-13T09:19:21Z</time>
      </trkpt>
      <trkpt lat="45.92718" lon="6.50102">
        <ele>1574.016</ele>
        <time>2026-03-13T09:19:26Z</time>
      </trkpt>
      <trkpt lat="45.9272" lon="6.50103">
        <ele>1573.775</ele>
        <time>2026-03-13T09:19:31Z</time>
      </trkpt>
      <trkpt lat="45.92723" lon="6.50104">
        <ele>1573.667</ele>
        <time>2026-03-13T09:19:36Z</time>
      </trkpt>
      <trkpt lat="45.92725" lon="6.50106">
        <ele>1573.298</ele>
        <time>2026-03-13T09:19:41Z</time>
      </trkpt>
      <trkpt lat="45.92727" lon="6.5011">
        <ele>1573.373</ele>
        <time>2026-03-13T09:19:46Z</time>
      </trkpt>
      <trkpt lat="45.9273" lon="6.50113">
        <ele>1574.401</ele>
        <time>2026-03-13T09:19:51Z</time>
      </trkpt>
      <trkpt lat="45.92732" lon="6.50117">
        <ele>1574.959</ele>
        <time>2026-03-13T09:19:56Z</time>
      </trkpt>
      <trkpt lat="45.92734" lon="6.50122">
        <ele>1574.718</ele>
        <time>2026-03-13T09:20:01Z</time>
      </trkpt>
      <trkpt lat="45.92735" lon="6.50126">
        <ele>1574.827</ele>
        <time>2026-03-13T09:20:06Z</time>
      </trkpt>
      <trkpt lat="45.92737" lon="6.5013">
        <ele>1574.333</ele>
        <time>2026-03-13T09:20:11Z</time>
      </trkpt>
      <trkpt lat="45.92739" lon="6.50135">
        <ele>1574.496</ele>
        <time>2026-03-13T09:20:16Z</time>
      </trkpt>
      <trkpt lat="45.9274" lon="6.50136">
        <ele>1574.33</ele>
        <time>2026-03-13T09:20:21Z</time>
      </trkpt>
      <trkpt lat="45.9274" lon="6.50136">
        <ele>1574.336</ele>
        <time>2026-03-13T09:20:26Z</time>
      </trkpt>
      <trkpt lat="45.9274" lon="6.50136">
        <ele>1574.367</ele>
        <time>2026-03-13T09:20:31Z</time>
      </trkpt>
      <trkpt lat="45.9274" lon="6.50136">
        <ele>1574.363</ele>
        <time>2026-03-13T09:20:36Z</time>
      </trkpt>
      <trkpt lat="45.9274" lon="6.50136">
        <ele>1574.371</ele>
        <time>2026-03-13T09:20:41Z</time>
      </trkpt>
      <trkpt lat="45.9274" lon="6.50136">
        <ele>1574.37</ele>
        <time>2026-03-13T09:20:46Z</time>
      </trkpt>
      <trkpt lat="45.9274" lon="6.50136">
        <ele>1574.372</ele>
        <time>2026-03-13T09:20:51Z</time>
      </trkpt>
      <trkpt lat="45.9274" lon="6.50136">
        <ele>1574.378</ele>
        <time>2026-03-13T09:20:56Z</time>
      </trkpt>
      <trkpt lat="45.9274" lon="6.50136">
        <ele>1574.375</ele>
        <time>2026-03-13T09:21:01Z</time>
      </trkpt>
      <trkpt lat="45.9274" lon="6.50136">
        <ele>1574.378</ele>
        <time>2026-03-13T09:21:06Z</time>
      </trkpt>
      <trkpt lat="45.9274" lon="6.50136">
        <ele>1574.379</ele>
        <time>2026-03-13T09:21:11Z</time>
      </trkpt>
      <trkpt lat="45.9274" lon="6.50136">
        <ele>1574.37</ele>
        <time>2026-03-13T09:21:16Z</time>
      </trkpt>
      <trkpt lat="45.9274" lon="6.50136">
        <ele>1574.368</ele>
        <time>2026-03-13T09:21:21Z</time>
      </trkpt>
      <trkpt lat="45.9274" lon="6.50136">
        <ele>1574.362</ele>
        <time>2026-03-13T09:21:26Z</time>
      </trkpt>
      <trkpt lat="45.9274" lon="6.50136">
        <ele>1575.106</ele>
        <time>2026-03-13T09:21:31Z</time>
      </trkpt>
      <trkpt lat="45.9274" lon="6.50136">
        <ele>1575.142</ele>
        <time>2026-03-13T09:21:36Z</time>
      </trkpt>
      <trkpt lat="45.9274" lon="6.50136">
        <ele>1575.161</ele>
        <time>2026-03-13T09:21:41Z</time>
      </trkpt>
      <trkpt lat="45.9274" lon="6.50136">
        <ele>1575.194</ele>
        <time>2026-03-13T09:21:46Z</time>
      </trkpt>
      <trkpt lat="45.9274" lon="6.50136">
        <ele>1575.201</ele>
        <time>2026-03-13T09:21:51Z</time>
      </trkpt>
      <trkpt lat="45.9274" lon="6.50136">
        <ele>1575.223</ele>
        <time>2026-03-13T09:21:56Z</time>
      </trkpt>
      <trkpt lat="45.9274" lon="6.50136">
        <ele>1575.234</ele>
        <time>2026-03-13T09:22:01Z</time>
      </trkpt>
      <trkpt lat="45.9274" lon="6.50136">
        <ele>1575.239</ele>
        <time>2026-03-13T09:22:06Z</time>
      </trkpt>
      <trkpt lat="45.9274" lon="6.50136">
        <ele>1575.244</ele>
        <time>2026-03-13T09:22:11Z</time>
      </trkpt>
      <trkpt lat="45.9274" lon="6.50136">
        <ele>1575.267</ele>
        <time>2026-03-13T09:22:16Z</time>
      </trkpt>
      <trkpt lat="45.9274" lon="6.50136">
        <ele>1575.287</ele>
        <time>2026-03-13T09:22:21Z</time>
      </trkpt>
      <trkpt lat="45.9274" lon="6.50136">
        <ele>1575.299</ele>
        <time>2026-03-13T09:22:26Z</time>
      </trkpt>
      <trkpt lat="45.9274" lon="6.50136">
        <ele>1575.313</ele>
        <time>2026-03-13T09:22:31Z</time>
      </trkpt>
      <trkpt lat="45.9274" lon="6.50136">
        <ele>1575.334</ele>
        <time>2026-03-13T09:22:36Z</time>
      </trkpt>
      <trkpt lat="45.9274" lon="6.50136">
        <ele>1575.364</ele>
        <time>2026-03-13T09:22:41Z</time>
      </trkpt>
      <trkpt lat="45.92741" lon="6.50138">
        <ele>1576.105</ele>
        <time>2026-03-13T09:22:46Z</time>
      </trkpt>
      <trkpt lat="45.92744" lon="6.50143">
        <ele>1577.13</ele>
        <time>2026-03-13T09:22:51Z</time>
      </trkpt>
      <trkpt lat="45.92748" lon="6.50147">
        <ele>1577.901</ele>
        <time>2026-03-13T09:22:56Z</time>
      </trkpt>
      <trkpt lat="45.92752" lon="6.50151">
        <ele>1579.275</ele>
        <time>2026-03-13T09:23:01Z</time>
      </trkpt>
      <trkpt lat="45.92754" lon="6.50154">
        <ele>1578.253</ele>
        <time>2026-03-13T09:23:06Z</time>
      </trkpt>
      <trkpt lat="45.92754" lon="6.50154">
        <ele>1578.188</ele>
        <time>2026-03-13T09:23:11Z</time>
      </trkpt>
      <trkpt lat="45.92754" lon="6.50154">
        <ele>1578.665</ele>
        <time>2026-03-13T09:23:16Z</time>
      </trkpt>
      <trkpt lat="45.92754" lon="6.50154">
        <ele>1578.332</ele>
        <time>2026-03-13T09:23:21Z</time>
      </trkpt>
      <trkpt lat="45.92754" lon="6.50154">
        <ele>1579.205</ele>
        <time>2026-03-13T09:23:26Z</time>
      </trkpt>
      <trkpt lat="45.92754" lon="6.50154">
        <ele>1580.286</ele>
        <time>2026-03-13T09:23:31Z</time>
      </trkpt>
      <trkpt lat="45.92754" lon="6.50154">
        <ele>1580.142</ele>
        <time>2026-03-13T09:23:36Z</time>
      </trkpt>
      <trkpt lat="45.92758" lon="6.50157">
        <ele>1580.121</ele>
        <time>2026-03-13T09:23:41Z</time>
      </trkpt>
      <trkpt lat="45.92758" lon="6.50161">
        <ele>1581.008</ele>
        <time>2026-03-13T09:23:46Z</time>
      </trkpt>
      <trkpt lat="45.9276" lon="6.50166">
        <ele>1583.121</ele>
        <time>2026-03-13T09:23:51Z</time>
      </trkpt>
      <trkpt lat="45.92763" lon="6.5017">
        <ele>1583.216</ele>
        <time>2026-03-13T09:23:56Z</time>
      </trkpt>
      <trkpt lat="45.92765" lon="6.50175">
        <ele>1583.686</ele>
        <time>2026-03-13T09:24:01Z</time>
      </trkpt>
      <trkpt lat="45.92767" lon="6.50178">
        <ele>1583.595</ele>
        <time>2026-03-13T09:24:06Z</time>
      </trkpt>
      <trkpt lat="45.92768" lon="6.50181">
        <ele>1583.841</ele>
        <time>2026-03-13T09:24:11Z</time>
      </trkpt>
      <trkpt lat="45.9277" lon="6.50185">
        <ele>1585.675</ele>
        <time>2026-03-13T09:24:16Z</time>
      </trkpt>
      <trkpt lat="45.92774" lon="6.50188">
        <ele>1584.465</ele>
        <time>2026-03-13T09:24:21Z</time>
      </trkpt>
      <trkpt lat="45.92776" lon="6.50191">
        <ele>1585.31</ele>
        <time>2026-03-13T09:24:26Z</time>
      </trkpt>
      <trkpt lat="45.92778" lon="6.50195">
        <ele>1586.219</ele>
        <time>2026-03-13T09:24:31Z</time>
      </trkpt>
      <trkpt lat="45.9278" lon="6.50199">
        <ele>1586.63</ele>
        <time>2026-03-13T09:24:36Z</time>
      </trkpt>
      <trkpt lat="45.92781" lon="6.50202">
        <ele>1587.016</ele>
        <time>2026-03-13T09:24:41Z</time>
      </trkpt>
      <trkpt lat="45.92783" lon="6.50205">
        <ele>1589.125</ele>
        <time>2026-03-13T09:24:46Z</time>
      </trkpt>
      <trkpt lat="45.92785" lon="6.50208">
        <ele>1589.647</ele>
        <time>2026-03-13T09:24:51Z</time>
      </trkpt>
      <trkpt lat="45.92787" lon="6.50212">
        <ele>1590.804</ele>
        <time>2026-03-13T09:24:56Z</time>
      </trkpt>
      <trkpt lat="45.92789" lon="6.50216">
        <ele>1591.263</ele>
        <time>2026-03-13T09:25:01Z</time>
      </trkpt>
      <trkpt lat="45.92791" lon="6.50219">
        <ele>1592.361</ele>
        <time>2026-03-13T09:25:06Z</time>
      </trkpt>
      <trkpt lat="45.92793" lon="6.50223">
        <ele>1593.257</ele>
        <time>2026-03-13T09:25:11Z</time>
      </trkpt>
      <trkpt lat="45.92795" lon="6.50228">
        <ele>1593.455</ele>
        <time>2026-03-13T09:25:16Z</time>
      </trkpt>
      <trkpt lat="45.92798" lon="6.50232">
        <ele>1594.026</ele>
        <time>2026-03-13T09:25:21Z</time>
      </trkpt>
      <trkpt lat="45.928" lon="6.50236">
        <ele>1594.113</ele>
        <time>2026-03-13T09:25:26Z</time>
      </trkpt>
      <trkpt lat="45.92801" lon="6.5024">
        <ele>1594.082</ele>
        <time>2026-03-13T09:25:31Z</time>
      </trkpt>
      <trkpt lat="45.92803" lon="6.50244">
        <ele>1595.634</ele>
        <time>2026-03-13T09:25:36Z</time>
      </trkpt>
      <trkpt lat="45.92805" lon="6.50248">
        <ele>1595.225</ele>
        <time>2026-03-13T09:25:41Z</time>
      </trkpt>
      <trkpt lat="45.92807" lon="6.50251">
        <ele>1595.813</ele>
        <time>2026-03-13T09:25:46Z</time>
      </trkpt>
      <trkpt lat="45.92809" lon="6.50255">
        <ele>1596.103</ele>
        <time>2026-03-13T09:25:51Z</time>
      </trkpt>
      <trkpt lat="45.9281" lon="6.50259">
        <ele>1597.166</ele>
        <time>2026-03-13T09:25:56Z</time>
      </trkpt>
      <trkpt lat="45.92812" lon="6.50263">
        <ele>1598.107</ele>
        <time>2026-03-13T09:26:01Z</time>
      </trkpt>
      <trkpt lat="45.92813" lon="6.50266">
        <ele>1598.666</ele>
        <time>2026-03-13T09:26:06Z</time>
      </trkpt>
      <trkpt lat="45.92815" lon="6.50269">
        <ele>1598.923</ele>
        <time>2026-03-13T09:26:11Z</time>
      </trkpt>
      <trkpt lat="45.92816" lon="6.50271">
        <ele>1599.859</ele>
        <time>2026-03-13T09:26:16Z</time>
      </trkpt>
      <trkpt lat="45.92818" lon="6.50274">
        <ele>1601.049</ele>
        <time>2026-03-13T09:26:21Z</time>
      </trkpt>
      <trkpt lat="45.92819" lon="6.50278">
        <ele>1602.201</ele>
        <time>2026-03-13T09:26:26Z</time>
      </trkpt>
      <trkpt lat="45.92821" lon="6.5028">
        <ele>1602.856</ele>
        <time>2026-03-13T09:26:31Z</time>
      </trkpt>
      <trkpt lat="45.92822" lon="6.50282">
        <ele>1603.782</ele>
        <time>2026-03-13T09:26:36Z</time>
      </trkpt>
      <trkpt lat="45.92824" lon="6.50285">
        <ele>1604.083</ele>
        <time>2026-03-13T09:26:41Z</time>
      </trkpt>
      <trkpt lat="45.92826" lon="6.50288">
        <ele>1604.839</ele>
        <time>2026-03-13T09:26:46Z</time>
      </trkpt>
      <trkpt lat="45.92827" lon="6.50291">
        <ele>1607.057</ele>
        <time>2026-03-13T09:26:51Z</time>
      </trkpt>
      <trkpt lat="45.92829" lon="6.50293">
        <ele>1607.714</ele>
        <time>2026-03-13T09:26:56Z</time>
      </trkpt>
      <trkpt lat="45.92833" lon="6.50293">
        <ele>1610.264</ele>
        <time>2026-03-13T09:27:01Z</time>
      </trkpt>
      <trkpt lat="45.92837" lon="6.50292">
        <ele>1612.107</ele>
        <time>2026-03-13T09:27:06Z</time>
      </trkpt>
      <trkpt lat="45.9284" lon="6.50291">
        <ele>1612.738</ele>
        <time>2026-03-13T09:27:11Z</time>
      </trkpt>
      <trkpt lat="45.92842" lon="6.50294">
        <ele>1612.976</ele>
        <time>2026-03-13T09:27:16Z</time>
      </trkpt>
      <trkpt lat="45.92844" lon="6.50297">
        <ele>1612.93</ele>
        <time>2026-03-13T09:27:21Z</time>
      </trkpt>
      <trkpt lat="45.92845" lon="6.503">
        <ele>1613.641</ele>
        <time>2026-03-13T09:27:26Z</time>
      </trkpt>
      <trkpt lat="45.92846" lon="6.50303">
        <ele>1613.671</ele>
        <time>2026-03-13T09:27:31Z</time>
      </trkpt>
      <trkpt lat="45.92847" lon="6.50307">
        <ele>1614.412</ele>
        <time>2026-03-13T09:27:36Z</time>
      </trkpt>
      <trkpt lat="45.92847" lon="6.50311">
        <ele>1615.128</ele>
        <time>2026-03-13T09:27:41Z</time>
      </trkpt>
      <trkpt lat="45.92848" lon="6.50314">
        <ele>1617.769</ele>
        <time>2026-03-13T09:27:46Z</time>
      </trkpt>
      <trkpt lat="45.92851" lon="6.50315">
        <ele>1618.972</ele>
        <time>2026-03-13T09:27:51Z</time>
      </trkpt>
      <trkpt lat="45.92854" lon="6.50316">
        <ele>1620.632</ele>
        <time>2026-03-13T09:27:56Z</time>
      </trkpt>
      <trkpt lat="45.92855" lon="6.50319">
        <ele>1619.992</ele>
        <time>2026-03-13T09:28:01Z</time>
      </trkpt>
      <trkpt lat="45.92855" lon="6.50322">
        <ele>1620.72</ele>
        <time>2026-03-13T09:28:06Z</time>
      </trkpt>
      <trkpt lat="45.92855" lon="6.50326">
        <ele>1621.437</ele>
        <time>2026-03-13T09:28:11Z</time>
      </trkpt>
      <trkpt lat="45.92858" lon="6.50329">
        <ele>1622.244</ele>
        <time>2026-03-13T09:28:16Z</time>
      </trkpt>
      <trkpt lat="45.9286" lon="6.50331">
        <ele>1623.688</ele>
        <time>2026-03-13T09:28:21Z</time>
      </trkpt>
      <trkpt lat="45.92861" lon="6.50334">
        <ele>1623.777</ele>
        <time>2026-03-13T09:28:26Z</time>
      </trkpt>
      <trkpt lat="45.92862" lon="6.50336">
        <ele>1625.417</ele>
        <time>2026-03-13T09:28:31Z</time>
      </trkpt>
      <trkpt lat="45.92864" lon="6.5034">
        <ele>1625.42</ele>
        <time>2026-03-13T09:28:36Z</time>
      </trkpt>
      <trkpt lat="45.92866" lon="6.50344">
        <ele>1626.511</ele>
        <time>2026-03-13T09:28:41Z</time>
      </trkpt>
      <trkpt lat="45.92867" lon="6.50349">
        <ele>1626.072</ele>
        <time>2026-03-13T09:28:46Z</time>
      </trkpt>
      <trkpt lat="45.92868" lon="6.50355">
        <ele>1625.308</ele>
        <time>2026-03-13T09:28:51Z</time>
      </trkpt>
      <trkpt lat="45.9287" lon="6.5036">
        <ele>1625.372</ele>
        <time>2026-03-13T09:28:56Z</time>
      </trkpt>
      <trkpt lat="45.92872" lon="6.50364">
        <ele>1626.131</ele>
        <time>2026-03-13T09:29:01Z</time>
      </trkpt>
      <trkpt lat="45.92875" lon="6.50367">
        <ele>1625.514</ele>
        <time>2026-03-13T09:29:06Z</time>
      </trkpt>
      <trkpt lat="45.92877" lon="6.5037">
        <ele>1627.26</ele>
        <time>2026-03-13T09:29:11Z</time>
      </trkpt>
      <trkpt lat="45.92879" lon="6.50373">
        <ele>1628.256</ele>
        <time>2026-03-13T09:29:16Z</time>
      </trkpt>
      <trkpt lat="45.9288" lon="6.50376">
        <ele>1629.524</ele>
        <time>2026-03-13T09:29:21Z</time>
      </trkpt>
      <trkpt lat="45.92882" lon="6.50379">
        <ele>1629.832</ele>
        <time>2026-03-13T09:29:26Z</time>
      </trkpt>
      <trkpt lat="45.92882" lon="6.50381">
        <ele>1631.547</ele>
        <time>2026-03-13T09:29:31Z</time>
      </trkpt>
      <trkpt lat="45.92885" lon="6.50384">
        <ele>1632.004</ele>
        <time>2026-03-13T09:29:36Z</time>
      </trkpt>
      <trkpt lat="45.92886" lon="6.50387">
        <ele>1632.252</ele>
        <time>2026-03-13T09:29:41Z</time>
      </trkpt>
      <trkpt lat="45.92887" lon="6.5039">
        <ele>1633.811</ele>
        <time>2026-03-13T09:29:46Z</time>
      </trkpt>
      <trkpt lat="45.9289" lon="6.50391">
        <ele>1635.4</ele>
        <time>2026-03-13T09:29:51Z</time>
      </trkpt>
      <trkpt lat="45.92893" lon="6.50392">
        <ele>1635.741</ele>
        <time>2026-03-13T09:29:56Z</time>
      </trkpt>
      <trkpt lat="45.92895" lon="6.50393">
        <ele>1635.538</ele>
        <time>2026-03-13T09:30:01Z</time>
      </trkpt>
      <trkpt lat="45.92896" lon="6.50395">
        <ele>1635.268</ele>
        <time>2026-03-13T09:30:06Z</time>
      </trkpt>
      <trkpt lat="45.92898" lon="6.50396">
        <ele>1635.832</ele>
        <time>2026-03-13T09:30:11Z</time>
      </trkpt>
      <trkpt lat="45.92899" lon="6.50398">
        <ele>1637.43</ele>
        <time>2026-03-13T09:30:16Z</time>
      </trkpt>
      <trkpt lat="45.92901" lon="6.50399">
        <ele>1638.583</ele>
        <time>2026-03-13T09:30:21Z</time>
      </trkpt>
      <trkpt lat="45.92902" lon="6.50402">
        <ele>1639.188</ele>
        <time>2026-03-13T09:30:26Z</time>
      </trkpt>
      <trkpt lat="45.92905" lon="6.50404">
        <ele>1640.334</ele>
        <time>2026-03-13T09:30:31Z</time>
      </trkpt>
      <trkpt lat="45.92906" lon="6.50406">
        <ele>1640.543</ele>
        <time>2026-03-13T09:30:36Z</time>
      </trkpt>
      <trkpt lat="45.92908" lon="6.50409">
        <ele>1640.89</ele>
        <time>2026-03-13T09:30:41Z</time>
      </trkpt>
      <trkpt lat="45.92909" lon="6.50412">
        <ele>1641.367</ele>
        <time>2026-03-13T09:30:46Z</time>
      </trkpt>
      <trkpt lat="45.92911" lon="6.50414">
        <ele>1642.915</ele>
        <time>2026-03-13T09:30:51Z</time>
      </trkpt>
      <trkpt lat="45.92914" lon="6.50418">
        <ele>1642.545</ele>
        <time>2026-03-13T09:30:56Z</time>
      </trkpt>
      <trkpt lat="45.92915" lon="6.50421">
        <ele>1643.351</ele>
        <time>2026-03-13T09:31:01Z</time>
      </trkpt>
      <trkpt lat="45.92915" lon="6.50422">
        <ele>1644.151</ele>
        <time>2026-03-13T09:31:06Z</time>
      </trkpt>
      <trkpt lat="45.92913" lon="6.50422">
        <ele>1645.454</ele>
        <time>2026-03-13T09:31:11Z</time>
      </trkpt>
      <trkpt lat="45.92911" lon="6.50422">
        <ele>1646.019</ele>
        <time>2026-03-13T09:31:16Z</time>
      </trkpt>
      <trkpt lat="45.9291" lon="6.50424">
        <ele>1647.28</ele>
        <time>2026-03-13T09:31:21Z</time>
      </trkpt>
      <trkpt lat="45.92911" lon="6.50429">
        <ele>1648.112</ele>
        <time>2026-03-13T09:31:26Z</time>
      </trkpt>
      <trkpt lat="45.92912" lon="6.50431">
        <ele>1647.933</ele>
        <time>2026-03-13T09:31:31Z</time>
      </trkpt>
      <trkpt lat="45.92912" lon="6.50433">
        <ele>1647.98</ele>
        <time>2026-03-13T09:31:36Z</time>
      </trkpt>
      <trkpt lat="45.92911" lon="6.50435">
        <ele>1648.589</ele>
        <time>2026-03-13T09:31:41Z</time>
      </trkpt>
      <trkpt lat="45.92911" lon="6.50435">
        <ele>1648.835</ele>
        <time>2026-03-13T09:31:46Z</time>
      </trkpt>
      <trkpt lat="45.92909" lon="6.50434">
        <ele>1650.999</ele>
        <time>2026-03-13T09:31:51Z</time>
      </trkpt>
      <trkpt lat="45.92907" lon="6.50431">
        <ele>1652.764</ele>
        <time>2026-03-13T09:31:56Z</time>
      </trkpt>
      <trkpt lat="45.92906" lon="6.5043">
        <ele>1654.08</ele>
        <time>2026-03-13T09:32:01Z</time>
      </trkpt>
      <trkpt lat="45.92904" lon="6.50429">
        <ele>1655.093</ele>
        <time>2026-03-13T09:32:06Z</time>
      </trkpt>
      <trkpt lat="45.92903" lon="6.50428">
        <ele>1656.822</ele>
        <time>2026-03-13T09:32:11Z</time>
      </trkpt>
      <trkpt lat="45.929" lon="6.50428">
        <ele>1658.152</ele>
        <time>2026-03-13T09:32:16Z</time>
      </trkpt>
      <trkpt lat="45.92898" lon="6.50429">
        <ele>1658.164</ele>
        <time>2026-03-13T09:32:21Z</time>
      </trkpt>
      <trkpt lat="45.92896" lon="6.50431">
        <ele>1657.574</ele>
        <time>2026-03-13T09:32:26Z</time>
      </trkpt>
      <trkpt lat="45.92895" lon="6.50434">
        <ele>1656.578</ele>
        <time>2026-03-13T09:32:31Z</time>
      </trkpt>
      <trkpt lat="45.92894" lon="6.50438">
        <ele>1656.341</ele>
        <time>2026-03-13T09:32:36Z</time>
      </trkpt>
      <trkpt lat="45.92892" lon="6.50441">
        <ele>1656.578</ele>
        <time>2026-03-13T09:32:41Z</time>
      </trkpt>
      <trkpt lat="45.92891" lon="6.50444">
        <ele>1657.006</ele>
        <time>2026-03-13T09:32:46Z</time>
      </trkpt>
      <trkpt lat="45.92889" lon="6.50448">
        <ele>1656.885</ele>
        <time>2026-03-13T09:32:51Z</time>
      </trkpt>
      <trkpt lat="45.92889" lon="6.5045">
        <ele>1657.961</ele>
        <time>2026-03-13T09:32:56Z</time>
      </trkpt>
      <trkpt lat="45.92888" lon="6.50451">
        <ele>1658.134</ele>
        <time>2026-03-13T09:33:01Z</time>
      </trkpt>
      <trkpt lat="45.92887" lon="6.50454">
        <ele>1658.492</ele>
        <time>2026-03-13T09:33:06Z</time>
      </trkpt>
      <trkpt lat="45.92886" lon="6.50457">
        <ele>1658.54</ele>
        <time>2026-03-13T09:33:11Z</time>
      </trkpt>
      <trkpt lat="45.92884" lon="6.50461">
        <ele>1658.932</ele>
        <time>2026-03-13T09:33:16Z</time>
      </trkpt>
      <trkpt lat="45.92884" lon="6.50461">
        <ele>1658.673</ele>
        <time>2026-03-13T09:33:21Z</time>
      </trkpt>
      <trkpt lat="45.92884" lon="6.50461">
        <ele>1658.681</ele>
        <time>2026-03-13T09:33:26Z</time>
      </trkpt>
      <trkpt lat="45.92884" lon="6.50461">
        <ele>1658.684</ele>
        <time>2026-03-13T09:33:31Z</time>
      </trkpt>
      <trkpt lat="45.92883" lon="6.50463">
        <ele>1659.051</ele>
        <time>2026-03-13T09:33:36Z</time>
      </trkpt>
      <trkpt lat="45.92883" lon="6.50463">
        <ele>1659.064</ele>
        <time>2026-03-13T09:33:41Z</time>
      </trkpt>
      <trkpt lat="45.92883" lon="6.50463">
        <ele>1659.065</ele>
        <time>2026-03-13T09:33:46Z</time>
      </trkpt>
      <trkpt lat="45.92883" lon="6.50463">
        <ele>1659.068</ele>
        <time>2026-03-13T09:33:51Z</time>
      </trkpt>
      <trkpt lat="45.92883" lon="6.50464">
        <ele>1659.352</ele>
        <time>2026-03-13T09:33:56Z</time>
      </trkpt>
      <trkpt lat="45.92881" lon="6.50468">
        <ele>1660.265</ele>
        <time>2026-03-13T09:34:01Z</time>
      </trkpt>
      <trkpt lat="45.9288" lon="6.50471">
        <ele>1660.468</ele>
        <time>2026-03-13T09:34:06Z</time>
      </trkpt>
      <trkpt lat="45.92879" lon="6.50474">
        <ele>1661.316</ele>
        <time>2026-03-13T09:34:11Z</time>
      </trkpt>
      <trkpt lat="45.92878" lon="6.50477">
        <ele>1662.793</ele>
        <time>2026-03-13T09:34:16Z</time>
      </trkpt>
      <trkpt lat="45.92876" lon="6.50479">
        <ele>1663.883</ele>
        <time>2026-03-13T09:34:21Z</time>
      </trkpt>
      <trkpt lat="45.92875" lon="6.5048">
        <ele>1663.928</ele>
        <time>2026-03-13T09:34:26Z</time>
      </trkpt>
      <trkpt lat="45.92875" lon="6.5048">
        <ele>1663.934</ele>
        <time>2026-03-13T09:34:31Z</time>
      </trkpt>
      <trkpt lat="45.92875" lon="6.5048">
        <ele>1663.932</ele>
        <time>2026-03-13T09:34:36Z</time>
      </trkpt>
      <trkpt lat="45.92875" lon="6.5048">
        <ele>1663.94</ele>
        <time>2026-03-13T09:34:41Z</time>
      </trkpt>
      <trkpt lat="45.92875" lon="6.5048">
        <ele>1663.946</ele>
        <time>2026-03-13T09:34:46Z</time>
      </trkpt>
      <trkpt lat="45.92875" lon="6.5048">
        <ele>1663.954</ele>
        <time>2026-03-13T09:34:51Z</time>
      </trkpt>
      <trkpt lat="45.92875" lon="6.5048">
        <ele>1664.526</ele>
        <time>2026-03-13T09:34:56Z</time>
      </trkpt>
      <trkpt lat="45.92875" lon="6.5048">
        <ele>1664.197</ele>
        <time>2026-03-13T09:35:01Z</time>
      </trkpt>
      <trkpt lat="45.92875" lon="6.5048">
        <ele>1664.871</ele>
        <time>2026-03-13T09:35:06Z</time>
      </trkpt>
      <trkpt lat="45.92875" lon="6.5048">
        <ele>1666.359</ele>
        <time>2026-03-13T09:35:11Z</time>
      </trkpt>
      <trkpt lat="45.92875" lon="6.5048">
        <ele>1668.515</ele>
        <time>2026-03-13T09:35:16Z</time>
      </trkpt>
      <trkpt lat="45.92875" lon="6.5048">
        <ele>1670.305</ele>
        <time>2026-03-13T09:35:21Z</time>
      </trkpt>
      <trkpt lat="45.92875" lon="6.5048">
        <ele>1670.026</ele>
        <time>2026-03-13T09:35:26Z</time>
      </trkpt>
      <trkpt lat="45.92875" lon="6.5048">
        <ele>1668.728</ele>
        <time>2026-03-13T09:35:31Z</time>
      </trkpt>
      <trkpt lat="45.92887" lon="6.50487">
        <ele>1668.739</ele>
        <time>2026-03-13T09:35:36Z</time>
      </trkpt>
      <trkpt lat="45.92887" lon="6.50487">
        <ele>1668.949</ele>
        <time>2026-03-13T09:35:41Z</time>
      </trkpt>
      <trkpt lat="45.92889" lon="6.50488">
        <ele>1669.992</ele>
        <time>2026-03-13T09:35:46Z</time>
      </trkpt>
      <trkpt lat="45.92892" lon="6.5049">
        <ele>1669.632</ele>
        <time>2026-03-13T09:35:51Z</time>
      </trkpt>
      <trkpt lat="45.92895" lon="6.50492">
        <ele>1670.359</ele>
        <time>2026-03-13T09:35:56Z</time>
      </trkpt>
      <trkpt lat="45.92898" lon="6.50496">
        <ele>1671.094</ele>
        <time>2026-03-13T09:36:01Z</time>
      </trkpt>
      <trkpt lat="45.92901" lon="6.505">
        <ele>1670.663</ele>
        <time>2026-03-13T09:36:06Z</time>
      </trkpt>
      <trkpt lat="45.92903" lon="6.50504">
        <ele>1672.152</ele>
        <time>2026-03-13T09:36:11Z</time>
      </trkpt>
      <trkpt lat="45.92905" lon="6.50507">
        <ele>1672.397</ele>
        <time>2026-03-13T09:36:16Z</time>
      </trkpt>
      <trkpt lat="45.92906" lon="6.50511">
        <ele>1672.279</ele>
        <time>2026-03-13T09:36:21Z</time>
      </trkpt>
      <trkpt lat="45.92907" lon="6.50513">
        <ele>1672.306</ele>
        <time>2026-03-13T09:36:26Z</time>
      </trkpt>
      <trkpt lat="45.92909" lon="6.50517">
        <ele>1673.129</ele>
        <time>2026-03-13T09:36:31Z</time>
      </trkpt>
      <trkpt lat="45.92912" lon="6.50521">
        <ele>1673.476</ele>
        <time>2026-03-13T09:36:36Z</time>
      </trkpt>
      <trkpt lat="45.92915" lon="6.50525">
        <ele>1673.138</ele>
        <time>2026-03-13T09:36:41Z</time>
      </trkpt>
      <trkpt lat="45.92918" lon="6.50529">
        <ele>1673.362</ele>
        <time>2026-03-13T09:36:46Z</time>
      </trkpt>
      <trkpt lat="45.92921" lon="6.50533">
        <ele>1672.656</ele>
        <time>2026-03-13T09:36:51Z</time>
      </trkpt>
      <trkpt lat="45.92925" lon="6.50538">
        <ele>1670.837</ele>
        <time>2026-03-13T09:36:56Z</time>
      </trkpt>
      <trkpt lat="45.92928" lon="6.50542">
        <ele>1671.45</ele>
        <time>2026-03-13T09:37:01Z</time>
      </trkpt>
      <trkpt lat="45.92929" lon="6.50547">
        <ele>1672.206</ele>
        <time>2026-03-13T09:37:06Z</time>
      </trkpt>
      <trkpt lat="45.92929" lon="6.50552">
        <ele>1672.049</ele>
        <time>2026-03-13T09:37:11Z</time>
      </trkpt>
      <trkpt lat="45.92929" lon="6.50556">
        <ele>1673.635</ele>
        <time>2026-03-13T09:37:16Z</time>
      </trkpt>
      <trkpt lat="45.9293" lon="6.5056">
        <ele>1674.052</ele>
        <time>2026-03-13T09:37:21Z</time>
      </trkpt>
      <trkpt lat="45.9293" lon="6.50563">
        <ele>1675.351</ele>
        <time>2026-03-13T09:37:26Z</time>
      </trkpt>
      <trkpt lat="45.9293" lon="6.50567">
        <ele>1674.211</ele>
        <time>2026-03-13T09:37:31Z</time>
      </trkpt>
      <trkpt lat="45.9293" lon="6.5057">
        <ele>1674.34</ele>
        <time>2026-03-13T09:37:36Z</time>
      </trkpt>
      <trkpt lat="45.9293" lon="6.50576">
        <ele>1675.107</ele>
        <time>2026-03-13T09:37:41Z</time>
      </trkpt>
      <trkpt lat="45.92931" lon="6.50581">
        <ele>1675.158</ele>
        <time>2026-03-13T09:37:46Z</time>
      </trkpt>
      <trkpt lat="45.92932" lon="6.50586">
        <ele>1674.301</ele>
        <time>2026-03-13T09:37:51Z</time>
      </trkpt>
      <trkpt lat="45.92933" lon="6.5059">
        <ele>1675.587</ele>
        <time>2026-03-13T09:37:56Z</time>
      </trkpt>
      <trkpt lat="45.92933" lon="6.5059">
        <ele>1675.835</ele>
        <time>2026-03-13T09:38:01Z</time>
      </trkpt>
      <trkpt lat="45.92933" lon="6.5059">
        <ele>1675.599</ele>
        <time>2026-03-13T09:38:06Z</time>
      </trkpt>
      <trkpt lat="45.92933" lon="6.5059">
        <ele>1675.572</ele>
        <time>2026-03-13T09:38:11Z</time>
      </trkpt>
      <trkpt lat="45.92933" lon="6.5059">
        <ele>1675.574</ele>
        <time>2026-03-13T09:38:16Z</time>
      </trkpt>
      <trkpt lat="45.92933" lon="6.5059">
        <ele>1675.575</ele>
        <time>2026-03-13T09:38:21Z</time>
      </trkpt>
      <trkpt lat="45.92934" lon="6.50595">
        <ele>1675.835</ele>
        <time>2026-03-13T09:38:26Z</time>
      </trkpt>
      <trkpt lat="45.92935" lon="6.50602">
        <ele>1676.01</ele>
        <time>2026-03-13T09:38:31Z</time>
      </trkpt>
      <trkpt lat="45.92935" lon="6.50608">
        <ele>1677.908</ele>
        <time>2026-03-13T09:38:36Z</time>
      </trkpt>
      <trkpt lat="45.92937" lon="6.50612">
        <ele>1678.916</ele>
        <time>2026-03-13T09:38:41Z</time>
      </trkpt>
      <trkpt lat="45.92939" lon="6.50616">
        <ele>1678.873</ele>
        <time>2026-03-13T09:38:46Z</time>
      </trkpt>
      <trkpt lat="45.92945" lon="6.50617">
        <ele>1685.468</ele>
        <time>2026-03-13T09:38:50Z</time>
      </trkpt>
      <trkpt lat="45.92947" lon="6.50619">
        <ele>1686.488</ele>
        <time>2026-03-13T09:38:56Z</time>
      </trkpt>
      <trkpt lat="45.92948" lon="6.50622">
        <ele>1687.121</ele>
        <time>2026-03-13T09:39:00Z</time>
      </trkpt>
      <trkpt lat="45.92949" lon="6.50625">
        <ele>1687.141</ele>
        <time>2026-03-13T09:39:06Z</time>
      </trkpt>
      <trkpt lat="45.92949" lon="6.50628">
        <ele>1687.717</ele>
        <time>2026-03-13T09:39:11Z</time>
      </trkpt>
      <trkpt lat="45.9295" lon="6.50633">
        <ele>1686.123</ele>
        <time>2026-03-13T09:39:16Z</time>
      </trkpt>
      <trkpt lat="45.9295" lon="6.50638">
        <ele>1683.064</ele>
        <time>2026-03-13T09:39:21Z</time>
      </trkpt>
      <trkpt lat="45.9295" lon="6.50643">
        <ele>1681.561</ele>
        <time>2026-03-13T09:39:26Z</time>
      </trkpt>
      <trkpt lat="45.92951" lon="6.50647">
        <ele>1681.731</ele>
        <time>2026-03-13T09:39:31Z</time>
      </trkpt>
      <trkpt lat="45.92952" lon="6.50651">
        <ele>1681.773</ele>
        <time>2026-03-13T09:39:36Z</time>
      </trkpt>
      <trkpt lat="45.92955" lon="6.50654">
        <ele>1681.658</ele>
        <time>2026-03-13T09:39:41Z</time>
      </trkpt>
      <trkpt lat="45.92957" lon="6.50658">
        <ele>1682.366</ele>
        <time>2026-03-13T09:39:46Z</time>
      </trkpt>
      <trkpt lat="45.92958" lon="6.50661">
        <ele>1682.567</ele>
        <time>2026-03-13T09:39:51Z</time>
      </trkpt>
      <trkpt lat="45.9296" lon="6.50664">
        <ele>1683.256</ele>
        <time>2026-03-13T09:39:56Z</time>
      </trkpt>
      <trkpt lat="45.92963" lon="6.50667">
        <ele>1683.693</ele>
        <time>2026-03-13T09:40:01Z</time>
      </trkpt>
      <trkpt lat="45.92966" lon="6.50669">
        <ele>1684.27</ele>
        <time>2026-03-13T09:40:06Z</time>
      </trkpt>
      <trkpt lat="45.92968" lon="6.50672">
        <ele>1685.581</ele>
        <time>2026-03-13T09:40:11Z</time>
      </trkpt>
      <trkpt lat="45.9297" lon="6.50675">
        <ele>1686.504</ele>
        <time>2026-03-13T09:40:16Z</time>
      </trkpt>
      <trkpt lat="45.92973" lon="6.50678">
        <ele>1686.399</ele>
        <time>2026-03-13T09:40:21Z</time>
      </trkpt>
      <trkpt lat="45.92976" lon="6.50681">
        <ele>1686.29</ele>
        <time>2026-03-13T09:40:26Z</time>
      </trkpt>
      <trkpt lat="45.92979" lon="6.50684">
        <ele>1687.5</ele>
        <time>2026-03-13T09:40:31Z</time>
      </trkpt>
      <trkpt lat="45.92982" lon="6.50687">
        <ele>1688.601</ele>
        <time>2026-03-13T09:40:36Z</time>
      </trkpt>
      <trkpt lat="45.92986" lon="6.50691">
        <ele>1688.6</ele>
        <time>2026-03-13T09:40:41Z</time>
      </trkpt>
      <trkpt lat="45.92989" lon="6.50694">
        <ele>1689.017</ele>
        <time>2026-03-13T09:40:46Z</time>
      </trkpt>
      <trkpt lat="45.92992" lon="6.50698">
        <ele>1688.92</ele>
        <time>2026-03-13T09:40:51Z</time>
      </trkpt>
      <trkpt lat="45.92996" lon="6.50702">
        <ele>1688.986</ele>
        <time>2026-03-13T09:40:56Z</time>
      </trkpt>
      <trkpt lat="45.92999" lon="6.50706">
        <ele>1689.204</ele>
        <time>2026-03-13T09:41:01Z</time>
      </trkpt>
      <trkpt lat="45.93001" lon="6.50709">
        <ele>1689.741</ele>
        <time>2026-03-13T09:41:06Z</time>
      </trkpt>
      <trkpt lat="45.93004" lon="6.50713">
        <ele>1689.808</ele>
        <time>2026-03-13T09:41:11Z</time>
      </trkpt>
      <trkpt lat="45.93007" lon="6.50718">
        <ele>1689.993</ele>
        <time>2026-03-13T09:41:16Z</time>
      </trkpt>
      <trkpt lat="45.9301" lon="6.50722">
        <ele>1690.306</ele>
        <time>2026-03-13T09:41:21Z</time>
      </trkpt>
      <trkpt lat="45.93013" lon="6.50727">
        <ele>1689.566</ele>
        <time>2026-03-13T09:41:26Z</time>
      </trkpt>
      <trkpt lat="45.93015" lon="6.50732">
        <ele>1690.199</ele>
        <time>2026-03-13T09:41:31Z</time>
      </trkpt>
      <trkpt lat="45.93017" lon="6.50735">
        <ele>1690.365</ele>
        <time>2026-03-13T09:41:36Z</time>
      </trkpt>
      <trkpt lat="45.93018" lon="6.50739">
        <ele>1691.623</ele>
        <time>2026-03-13T09:41:41Z</time>
      </trkpt>
      <trkpt lat="45.9302" lon="6.50742">
        <ele>1692</ele>
        <time>2026-03-13T09:41:46Z</time>
      </trkpt>
      <trkpt lat="45.93023" lon="6.50746">
        <ele>1691.741</ele>
        <time>2026-03-13T09:41:51Z</time>
      </trkpt>
      <trkpt lat="45.93025" lon="6.5075">
        <ele>1693.289</ele>
        <time>2026-03-13T09:41:56Z</time>
      </trkpt>
      <trkpt lat="45.93028" lon="6.50754">
        <ele>1692.578</ele>
        <time>2026-03-13T09:42:01Z</time>
      </trkpt>
      <trkpt lat="45.9303" lon="6.50759">
        <ele>1692.741</ele>
        <time>2026-03-13T09:42:06Z</time>
      </trkpt>
      <trkpt lat="45.93032" lon="6.50762">
        <ele>1692.976</ele>
        <time>2026-03-13T09:42:11Z</time>
      </trkpt>
      <trkpt lat="45.93035" lon="6.50767">
        <ele>1693.409</ele>
        <time>2026-03-13T09:42:16Z</time>
      </trkpt>
      <trkpt lat="45.93038" lon="6.50771">
        <ele>1693.795</ele>
        <time>2026-03-13T09:42:21Z</time>
      </trkpt>
      <trkpt lat="45.9304" lon="6.50774">
        <ele>1694.384</ele>
        <time>2026-03-13T09:42:26Z</time>
      </trkpt>
      <trkpt lat="45.93042" lon="6.50778">
        <ele>1694.934</ele>
        <time>2026-03-13T09:42:31Z</time>
      </trkpt>
      <trkpt lat="45.93045" lon="6.5078">
        <ele>1696.671</ele>
        <time>2026-03-13T09:42:36Z</time>
      </trkpt>
      <trkpt lat="45.93047" lon="6.50783">
        <ele>1697.657</ele>
        <time>2026-03-13T09:42:41Z</time>
      </trkpt>
      <trkpt lat="45.93049" lon="6.50789">
        <ele>1696.553</ele>
        <time>2026-03-13T09:42:46Z</time>
      </trkpt>
      <trkpt lat="45.93051" lon="6.50792">
        <ele>1697.074</ele>
        <time>2026-03-13T09:42:51Z</time>
      </trkpt>
      <trkpt lat="45.93054" lon="6.50795">
        <ele>1697.784</ele>
        <time>2026-03-13T09:42:56Z</time>
      </trkpt>
      <trkpt lat="45.93056" lon="6.50799">
        <ele>1698.168</ele>
        <time>2026-03-13T09:43:01Z</time>
      </trkpt>
      <trkpt lat="45.93058" lon="6.50802">
        <ele>1698.872</ele>
        <time>2026-03-13T09:43:06Z</time>
      </trkpt>
      <trkpt lat="45.9306" lon="6.50806">
        <ele>1699.918</ele>
        <time>2026-03-13T09:43:11Z</time>
      </trkpt>
      <trkpt lat="45.93061" lon="6.5081">
        <ele>1700.676</ele>
        <time>2026-03-13T09:43:16Z</time>
      </trkpt>
      <trkpt lat="45.93063" lon="6.50813">
        <ele>1701.14</ele>
        <time>2026-03-13T09:43:21Z</time>
      </trkpt>
      <trkpt lat="45.93065" lon="6.50817">
        <ele>1701.116</ele>
        <time>2026-03-13T09:43:26Z</time>
      </trkpt>
      <trkpt lat="45.93067" lon="6.5082">
        <ele>1701.642</ele>
        <time>2026-03-13T09:43:31Z</time>
      </trkpt>
      <trkpt lat="45.93068" lon="6.50824">
        <ele>1702.262</ele>
        <time>2026-03-13T09:43:36Z</time>
      </trkpt>
      <trkpt lat="45.9307" lon="6.50829">
        <ele>1702.365</ele>
        <time>2026-03-13T09:43:41Z</time>
      </trkpt>
      <trkpt lat="45.93071" lon="6.50833">
        <ele>1703.145</ele>
        <time>2026-03-13T09:43:46Z</time>
      </trkpt>
      <trkpt lat="45.93073" lon="6.50837">
        <ele>1703.737</ele>
        <time>2026-03-13T09:43:51Z</time>
      </trkpt>
      <trkpt lat="45.93074" lon="6.5084">
        <ele>1703.915</ele>
        <time>2026-03-13T09:43:56Z</time>
      </trkpt>
      <trkpt lat="45.93076" lon="6.50843">
        <ele>1704.97</ele>
        <time>2026-03-13T09:44:01Z</time>
      </trkpt>
      <trkpt lat="45.93077" lon="6.50846">
        <ele>1705.324</ele>
        <time>2026-03-13T09:44:06Z</time>
      </trkpt>
      <trkpt lat="45.93078" lon="6.50849">
        <ele>1705.926</ele>
        <time>2026-03-13T09:44:11Z</time>
      </trkpt>
      <trkpt lat="45.9308" lon="6.50853">
        <ele>1707.035</ele>
        <time>2026-03-13T09:44:16Z</time>
      </trkpt>
      <trkpt lat="45.93082" lon="6.50856">
        <ele>1708.518</ele>
        <time>2026-03-13T09:44:21Z</time>
      </trkpt>
      <trkpt lat="45.93084" lon="6.5086">
        <ele>1708.645</ele>
        <time>2026-03-13T09:44:26Z</time>
      </trkpt>
      <trkpt lat="45.93085" lon="6.50863">
        <ele>1709.406</ele>
        <time>2026-03-13T09:44:31Z</time>
      </trkpt>
      <trkpt lat="45.93087" lon="6.50866">
        <ele>1710.527</ele>
        <time>2026-03-13T09:44:36Z</time>
      </trkpt>
      <trkpt lat="45.93089" lon="6.5087">
        <ele>1711.02</ele>
        <time>2026-03-13T09:44:41Z</time>
      </trkpt>
      <trkpt lat="45.9309" lon="6.50874">
        <ele>1710.943</ele>
        <time>2026-03-13T09:44:46Z</time>
      </trkpt>
      <trkpt lat="45.93092" lon="6.50878">
        <ele>1711.586</ele>
        <time>2026-03-13T09:44:51Z</time>
      </trkpt>
      <trkpt lat="45.93094" lon="6.50881">
        <ele>1712.217</ele>
        <time>2026-03-13T09:44:56Z</time>
      </trkpt>
      <trkpt lat="45.93095" lon="6.50884">
        <ele>1712.757</ele>
        <time>2026-03-13T09:45:01Z</time>
      </trkpt>
      <trkpt lat="45.93097" lon="6.50887">
        <ele>1713.677</ele>
        <time>2026-03-13T09:45:06Z</time>
      </trkpt>
      <trkpt lat="45.93098" lon="6.5089">
        <ele>1715.127</ele>
        <time>2026-03-13T09:45:11Z</time>
      </trkpt>
      <trkpt lat="45.931" lon="6.50894">
        <ele>1715.516</ele>
        <time>2026-03-13T09:45:16Z</time>
      </trkpt>
      <trkpt lat="45.93101" lon="6.50899">
        <ele>1715.917</ele>
        <time>2026-03-13T09:45:21Z</time>
      </trkpt>
      <trkpt lat="45.93102" lon="6.50902">
        <ele>1716.894</ele>
        <time>2026-03-13T09:45:26Z</time>
      </trkpt>
      <trkpt lat="45.93103" lon="6.50905">
        <ele>1716.907</ele>
        <time>2026-03-13T09:45:31Z</time>
      </trkpt>
      <trkpt lat="45.93105" lon="6.50909">
        <ele>1717.192</ele>
        <time>2026-03-13T09:45:36Z</time>
      </trkpt>
      <trkpt lat="45.93106" lon="6.50913">
        <ele>1718.685</ele>
        <time>2026-03-13T09:45:41Z</time>
      </trkpt>
      <trkpt lat="45.93108" lon="6.50916">
        <ele>1720.195</ele>
        <time>2026-03-13T09:45:46Z</time>
      </trkpt>
      <trkpt lat="45.9311" lon="6.50919">
        <ele>1721.352</ele>
        <time>2026-03-13T09:45:51Z</time>
      </trkpt>
      <trkpt lat="45.93112" lon="6.50922">
        <ele>1720.797</ele>
        <time>2026-03-13T09:45:56Z</time>
      </trkpt>
      <trkpt lat="45.93114" lon="6.50925">
        <ele>1721.761</ele>
        <time>2026-03-13T09:46:01Z</time>
      </trkpt>
      <trkpt lat="45.93115" lon="6.50928">
        <ele>1722.444</ele>
        <time>2026-03-13T09:46:06Z</time>
      </trkpt>
      <trkpt lat="45.93117" lon="6.50931">
        <ele>1723.043</ele>
        <time>2026-03-13T09:46:11Z</time>
      </trkpt>
      <trkpt lat="45.93119" lon="6.50934">
        <ele>1723.559</ele>
        <time>2026-03-13T09:46:16Z</time>
      </trkpt>
      <trkpt lat="45.93121" lon="6.50937">
        <ele>1724.42</ele>
        <time>2026-03-13T09:46:21Z</time>
      </trkpt>
      <trkpt lat="45.93122" lon="6.5094">
        <ele>1725.367</ele>
        <time>2026-03-13T09:46:26Z</time>
      </trkpt>
      <trkpt lat="45.93124" lon="6.50943">
        <ele>1725.733</ele>
        <time>2026-03-13T09:46:31Z</time>
      </trkpt>
      <trkpt lat="45.93125" lon="6.50946">
        <ele>1726.546</ele>
        <time>2026-03-13T09:46:36Z</time>
      </trkpt>
      <trkpt lat="45.93126" lon="6.50949">
        <ele>1726.361</ele>
        <time>2026-03-13T09:46:41Z</time>
      </trkpt>
      <trkpt lat="45.93128" lon="6.50952">
        <ele>1727.298</ele>
        <time>2026-03-13T09:46:46Z</time>
      </trkpt>
      <trkpt lat="45.9313" lon="6.50955">
        <ele>1728.485</ele>
        <time>2026-03-13T09:46:51Z</time>
      </trkpt>
      <trkpt lat="45.93131" lon="6.50958">
        <ele>1729.402</ele>
        <time>2026-03-13T09:46:56Z</time>
      </trkpt>
      <trkpt lat="45.93132" lon="6.50961">
        <ele>1729.744</ele>
        <time>2026-03-13T09:47:01Z</time>
      </trkpt>
      <trkpt lat="45.93133" lon="6.50964">
        <ele>1730.086</ele>
        <time>2026-03-13T09:47:06Z</time>
      </trkpt>
      <trkpt lat="45.93133" lon="6.50964">
        <ele>1730.099</ele>
        <time>2026-03-13T09:47:11Z</time>
      </trkpt>
      <trkpt lat="45.93133" lon="6.50964">
        <ele>1730.103</ele>
        <time>2026-03-13T09:47:16Z</time>
      </trkpt>
      <trkpt lat="45.93133" lon="6.50964">
        <ele>1730.694</ele>
        <time>2026-03-13T09:47:21Z</time>
      </trkpt>
      <trkpt lat="45.93133" lon="6.50964">
        <ele>1730.925</ele>
        <time>2026-03-13T09:47:26Z</time>
      </trkpt>
      <trkpt lat="45.93133" lon="6.50964">
        <ele>1731.429</ele>
        <time>2026-03-13T09:47:31Z</time>
      </trkpt>
      <trkpt lat="45.93133" lon="6.50964">
        <ele>1732.451</ele>
        <time>2026-03-13T09:47:36Z</time>
      </trkpt>
      <trkpt lat="45.93133" lon="6.50964">
        <ele>1733.532</ele>
        <time>2026-03-13T09:47:41Z</time>
      </trkpt>
      <trkpt lat="45.93133" lon="6.50964">
        <ele>1733.936</ele>
        <time>2026-03-13T09:47:46Z</time>
      </trkpt>
      <trkpt lat="45.93133" lon="6.50964">
        <ele>1735.294</ele>
        <time>2026-03-13T09:47:51Z</time>
      </trkpt>
      <trkpt lat="45.93133" lon="6.50964">
        <ele>1735.438</ele>
        <time>2026-03-13T09:47:56Z</time>
      </trkpt>
      <trkpt lat="45.93133" lon="6.50964">
        <ele>1735.485</ele>
        <time>2026-03-13T09:48:01Z</time>
      </trkpt>
      <trkpt lat="45.93133" lon="6.50964">
        <ele>1735.83</ele>
        <time>2026-03-13T09:48:06Z</time>
      </trkpt>
      <trkpt lat="45.93127" lon="6.50973">
        <ele>1736.621</ele>
        <time>2026-03-13T09:48:11Z</time>
      </trkpt>
      <trkpt lat="45.93125" lon="6.50972">
        <ele>1738.228</ele>
        <time>2026-03-13T09:48:16Z</time>
      </trkpt>
      <trkpt lat="45.93123" lon="6.5097">
        <ele>1739.306</ele>
        <time>2026-03-13T09:48:21Z</time>
      </trkpt>
      <trkpt lat="45.93121" lon="6.5097">
        <ele>1740.638</ele>
        <time>2026-03-13T09:48:26Z</time>
      </trkpt>
      <trkpt lat="45.93118" lon="6.50968">
        <ele>1741.765</ele>
        <time>2026-03-13T09:48:31Z</time>
      </trkpt>
      <trkpt lat="45.93116" lon="6.50967">
        <ele>1742.636</ele>
        <time>2026-03-13T09:48:36Z</time>
      </trkpt>
      <trkpt lat="45.93114" lon="6.50966">
        <ele>1743.596</ele>
        <time>2026-03-13T09:48:41Z</time>
      </trkpt>
      <trkpt lat="45.93111" lon="6.50966">
        <ele>1744.21</ele>
        <time>2026-03-13T09:48:46Z</time>
      </trkpt>
      <trkpt lat="45.9311" lon="6.50966">
        <ele>1744.92</ele>
        <time>2026-03-13T09:48:51Z</time>
      </trkpt>
      <trkpt lat="45.93107" lon="6.50967">
        <ele>1745.458</ele>
        <time>2026-03-13T09:48:56Z</time>
      </trkpt>
      <trkpt lat="45.93105" lon="6.50968">
        <ele>1746.165</ele>
        <time>2026-03-13T09:49:01Z</time>
      </trkpt>
      <trkpt lat="45.93103" lon="6.50969">
        <ele>1746.458</ele>
        <time>2026-03-13T09:49:06Z</time>
      </trkpt>
      <trkpt lat="45.93101" lon="6.5097">
        <ele>1747.447</ele>
        <time>2026-03-13T09:49:11Z</time>
      </trkpt>
      <trkpt lat="45.93098" lon="6.50971">
        <ele>1747.926</ele>
        <time>2026-03-13T09:49:16Z</time>
      </trkpt>
      <trkpt lat="45.93095" lon="6.50972">
        <ele>1748.042</ele>
        <time>2026-03-13T09:49:21Z</time>
      </trkpt>
      <trkpt lat="45.93093" lon="6.50973">
        <ele>1748.611</ele>
        <time>2026-03-13T09:49:26Z</time>
      </trkpt>
      <trkpt lat="45.93091" lon="6.50974">
        <ele>1749.098</ele>
        <time>2026-03-13T09:49:31Z</time>
      </trkpt>
      <trkpt lat="45.93088" lon="6.50974">
        <ele>1750.434</ele>
        <time>2026-03-13T09:49:36Z</time>
      </trkpt>
      <trkpt lat="45.93086" lon="6.50974">
        <ele>1750.776</ele>
        <time>2026-03-13T09:49:41Z</time>
      </trkpt>
      <trkpt lat="45.93084" lon="6.50975">
        <ele>1751.764</ele>
        <time>2026-03-13T09:49:46Z</time>
      </trkpt>
      <trkpt lat="45.93082" lon="6.50976">
        <ele>1751.713</ele>
        <time>2026-03-13T09:49:51Z</time>
      </trkpt>
      <trkpt lat="45.93079" lon="6.50975">
        <ele>1752.351</ele>
        <time>2026-03-13T09:49:56Z</time>
      </trkpt>
      <trkpt lat="45.93077" lon="6.50974">
        <ele>1753.179</ele>
        <time>2026-03-13T09:50:01Z</time>
      </trkpt>
      <trkpt lat="45.93074" lon="6.50975">
        <ele>1753.598</ele>
        <time>2026-03-13T09:50:06Z</time>
      </trkpt>
      <trkpt lat="45.93072" lon="6.50975">
        <ele>1754.395</ele>
        <time>2026-03-13T09:50:11Z</time>
      </trkpt>
      <trkpt lat="45.93071" lon="6.50975">
        <ele>1754.969</ele>
        <time>2026-03-13T09:50:16Z</time>
      </trkpt>
      <trkpt lat="45.9307" lon="6.50975">
        <ele>1755.417</ele>
        <time>2026-03-13T09:50:21Z</time>
      </trkpt>
      <trkpt lat="45.9307" lon="6.5098">
        <ele>1755.162</ele>
        <time>2026-03-13T09:50:26Z</time>
      </trkpt>
      <trkpt lat="45.93071" lon="6.50984">
        <ele>1755.591</ele>
        <time>2026-03-13T09:50:31Z</time>
      </trkpt>
      <trkpt lat="45.93072" lon="6.50987">
        <ele>1756.099</ele>
        <time>2026-03-13T09:50:36Z</time>
      </trkpt>
      <trkpt lat="45.93074" lon="6.5099">
        <ele>1756.984</ele>
        <time>2026-03-13T09:50:41Z</time>
      </trkpt>
      <trkpt lat="45.93075" lon="6.50993">
        <ele>1757.66</ele>
        <time>2026-03-13T09:50:46Z</time>
      </trkpt>
      <trkpt lat="45.93077" lon="6.50996">
        <ele>1759.287</ele>
        <time>2026-03-13T09:50:51Z</time>
      </trkpt>
      <trkpt lat="45.93079" lon="6.50998">
        <ele>1760.195</ele>
        <time>2026-03-13T09:50:56Z</time>
      </trkpt>
      <trkpt lat="45.93081" lon="6.51001">
        <ele>1759.771</ele>
        <time>2026-03-13T09:51:01Z</time>
      </trkpt>
      <trkpt lat="45.93083" lon="6.51003">
        <ele>1759.835</ele>
        <time>2026-03-13T09:51:06Z</time>
      </trkpt>
      <trkpt lat="45.93085" lon="6.51005">
        <ele>1759.884</ele>
        <time>2026-03-13T09:51:11Z</time>
      </trkpt>
      <trkpt lat="45.93087" lon="6.51008">
        <ele>1760.969</ele>
        <time>2026-03-13T09:51:16Z</time>
      </trkpt>
      <trkpt lat="45.93088" lon="6.51011">
        <ele>1761.773</ele>
        <time>2026-03-13T09:51:21Z</time>
      </trkpt>
      <trkpt lat="45.93089" lon="6.51014">
        <ele>1762.664</ele>
        <time>2026-03-13T09:51:26Z</time>
      </trkpt>
      <trkpt lat="45.9309" lon="6.51017">
        <ele>1764.298</ele>
        <time>2026-03-13T09:51:31Z</time>
      </trkpt>
      <trkpt lat="45.9309" lon="6.51019">
        <ele>1764.69</ele>
        <time>2026-03-13T09:51:36Z</time>
      </trkpt>
      <trkpt lat="45.93091" lon="6.51022">
        <ele>1765.288</ele>
        <time>2026-03-13T09:51:41Z</time>
      </trkpt>
      <trkpt lat="45.93091" lon="6.51025">
        <ele>1766.97</ele>
        <time>2026-03-13T09:51:46Z</time>
      </trkpt>
      <trkpt lat="45.93092" lon="6.51027">
        <ele>1767.834</ele>
        <time>2026-03-13T09:51:51Z</time>
      </trkpt>
      <trkpt lat="45.93092" lon="6.51029">
        <ele>1768.058</ele>
        <time>2026-03-13T09:51:56Z</time>
      </trkpt>
      <trkpt lat="45.93092" lon="6.51029">
        <ele>1768.074</ele>
        <time>2026-03-13T09:52:01Z</time>
      </trkpt>
      <trkpt lat="45.93092" lon="6.5103">
        <ele>1768.428</ele>
        <time>2026-03-13T09:52:06Z</time>
      </trkpt>
      <trkpt lat="45.9309" lon="6.51033">
        <ele>1769.163</ele>
        <time>2026-03-13T09:52:11Z</time>
      </trkpt>
      <trkpt lat="45.93089" lon="6.51035">
        <ele>1769.663</ele>
        <time>2026-03-13T09:52:16Z</time>
      </trkpt>
      <trkpt lat="45.93087" lon="6.51035">
        <ele>1771.145</ele>
        <time>2026-03-13T09:52:21Z</time>
      </trkpt>
      <trkpt lat="45.93085" lon="6.51035">
        <ele>1772.249</ele>
        <time>2026-03-13T09:52:26Z</time>
      </trkpt>
      <trkpt lat="45.93082" lon="6.51034">
        <ele>1772.909</ele>
        <time>2026-03-13T09:52:31Z</time>
      </trkpt>
      <trkpt lat="45.93079" lon="6.51034">
        <ele>1773.621</ele>
        <time>2026-03-13T09:52:36Z</time>
      </trkpt>
      <trkpt lat="45.93077" lon="6.51034">
        <ele>1774.51</ele>
        <time>2026-03-13T09:52:41Z</time>
      </trkpt>
      <trkpt lat="45.93075" lon="6.51034">
        <ele>1774.909</ele>
        <time>2026-03-13T09:52:46Z</time>
      </trkpt>
      <trkpt lat="45.93072" lon="6.51036">
        <ele>1775.134</ele>
        <time>2026-03-13T09:52:51Z</time>
      </trkpt>
      <trkpt lat="45.93069" lon="6.51038">
        <ele>1775.22</ele>
        <time>2026-03-13T09:52:56Z</time>
      </trkpt>
      <trkpt lat="45.93067" lon="6.5104">
        <ele>1775.693</ele>
        <time>2026-03-13T09:53:01Z</time>
      </trkpt>
      <trkpt lat="45.93065" lon="6.51042">
        <ele>1776.354</ele>
        <time>2026-03-13T09:53:06Z</time>
      </trkpt>
      <trkpt lat="45.93063" lon="6.51045">
        <ele>1777.328</ele>
        <time>2026-03-13T09:53:11Z</time>
      </trkpt>
      <trkpt lat="45.93061" lon="6.51047">
        <ele>1778.328</ele>
        <time>2026-03-13T09:53:16Z</time>
      </trkpt>
      <trkpt lat="45.93059" lon="6.51049">
        <ele>1778.981</ele>
        <time>2026-03-13T09:53:21Z</time>
      </trkpt>
      <trkpt lat="45.93059" lon="6.51049">
        <ele>1779.006</ele>
        <time>2026-03-13T09:53:26Z</time>
      </trkpt>
      <trkpt lat="45.93059" lon="6.51049">
        <ele>1779.371</ele>
        <time>2026-03-13T09:53:31Z</time>
      </trkpt>
      <trkpt lat="45.93059" lon="6.51049">
        <ele>1780.12</ele>
        <time>2026-03-13T09:53:36Z</time>
      </trkpt>
      <trkpt lat="45.93059" lon="6.51049">
        <ele>1780.17</ele>
        <time>2026-03-13T09:53:41Z</time>
      </trkpt>
      <trkpt lat="45.93059" lon="6.51049">
        <ele>1780.171</ele>
        <time>2026-03-13T09:53:46Z</time>
      </trkpt>
      <trkpt lat="45.93059" lon="6.51049">
        <ele>1780.172</ele>
        <time>2026-03-13T09:53:51Z</time>
      </trkpt>
      <trkpt lat="45.93059" lon="6.51049">
        <ele>1780.171</ele>
        <time>2026-03-13T09:53:56Z</time>
      </trkpt>
      <trkpt lat="45.93059" lon="6.51049">
        <ele>1780.17</ele>
        <time>2026-03-13T09:54:01Z</time>
      </trkpt>
      <trkpt lat="45.93059" lon="6.51049">
        <ele>1780.171</ele>
        <time>2026-03-13T09:54:06Z</time>
      </trkpt>
      <trkpt lat="45.93059" lon="6.51049">
        <ele>1780.174</ele>
        <time>2026-03-13T09:54:11Z</time>
      </trkpt>
      <trkpt lat="45.93059" lon="6.51049">
        <ele>1780.176</ele>
        <time>2026-03-13T09:54:16Z</time>
      </trkpt>
      <trkpt lat="45.93059" lon="6.51049">
        <ele>1780.181</ele>
        <time>2026-03-13T09:54:21Z</time>
      </trkpt>
      <trkpt lat="45.93059" lon="6.51049">
        <ele>1780.283</ele>
        <time>2026-03-13T09:54:26Z</time>
      </trkpt>
      <trkpt lat="45.93059" lon="6.51049">
        <ele>1780.289</ele>
        <time>2026-03-13T09:54:31Z</time>
      </trkpt>
      <trkpt lat="45.93059" lon="6.51049">
        <ele>1780.29</ele>
        <time>2026-03-13T09:54:36Z</time>
      </trkpt>
      <trkpt lat="45.93059" lon="6.51049">
        <ele>1780.291</ele>
        <time>2026-03-13T09:54:41Z</time>
      </trkpt>
      <trkpt lat="45.93059" lon="6.51049">
        <ele>1780.29</ele>
        <time>2026-03-13T09:54:46Z</time>
      </trkpt>
      <trkpt lat="45.93059" lon="6.51049">
        <ele>1780.287</ele>
        <time>2026-03-13T09:54:51Z</time>
      </trkpt>
      <trkpt lat="45.93059" lon="6.51049">
        <ele>1780.287</ele>
        <time>2026-03-13T09:54:56Z</time>
      </trkpt>
      <trkpt lat="45.93059" lon="6.51049">
        <ele>1780.282</ele>
        <time>2026-03-13T09:55:01Z</time>
      </trkpt>
      <trkpt lat="45.93059" lon="6.51049">
        <ele>1780.277</ele>
        <time>2026-03-13T09:55:06Z</time>
      </trkpt>
      <trkpt lat="45.93059" lon="6.51049">
        <ele>1780.272</ele>
        <time>2026-03-13T09:55:11Z</time>
      </trkpt>
      <trkpt lat="45.93059" lon="6.51049">
        <ele>1780.268</ele>
        <time>2026-03-13T09:55:16Z</time>
      </trkpt>
      <trkpt lat="45.93059" lon="6.51049">
        <ele>1780.264</ele>
        <time>2026-03-13T09:55:21Z</time>
      </trkpt>
      <trkpt lat="45.93059" lon="6.51049">
        <ele>1780.259</ele>
        <time>2026-03-13T09:55:26Z</time>
      </trkpt>
      <trkpt lat="45.93059" lon="6.51049">
        <ele>1780.051</ele>
        <time>2026-03-13T09:55:31Z</time>
      </trkpt>
      <trkpt lat="45.93059" lon="6.51049">
        <ele>1780.021</ele>
        <time>2026-03-13T09:55:36Z</time>
      </trkpt>
      <trkpt lat="45.93059" lon="6.51049">
        <ele>1780.014</ele>
        <time>2026-03-13T09:55:41Z</time>
      </trkpt>
      <trkpt lat="45.93059" lon="6.51049">
        <ele>1780.004</ele>
        <time>2026-03-13T09:55:46Z</time>
      </trkpt>
      <trkpt lat="45.93059" lon="6.51049">
        <ele>1779.996</ele>
        <time>2026-03-13T09:55:51Z</time>
      </trkpt>
      <trkpt lat="45.93059" lon="6.51049">
        <ele>1779.992</ele>
        <time>2026-03-13T09:55:56Z</time>
      </trkpt>
      <trkpt lat="45.93059" lon="6.51049">
        <ele>1779.988</ele>
        <time>2026-03-13T09:56:01Z</time>
      </trkpt>
      <trkpt lat="45.93059" lon="6.51049">
        <ele>1779.988</ele>
        <time>2026-03-13T09:56:06Z</time>
      </trkpt>
      <trkpt lat="45.93059" lon="6.51049">
        <ele>1779.989</ele>
        <time>2026-03-13T09:56:11Z</time>
      </trkpt>
      <trkpt lat="45.93059" lon="6.51049">
        <ele>1779.991</ele>
        <time>2026-03-13T09:56:16Z</time>
      </trkpt>
      <trkpt lat="45.93059" lon="6.51049">
        <ele>1779.994</ele>
        <time>2026-03-13T09:56:21Z</time>
      </trkpt>
      <trkpt lat="45.93059" lon="6.51049">
        <ele>1779.994</ele>
        <time>2026-03-13T09:56:26Z</time>
      </trkpt>
      <trkpt lat="45.93059" lon="6.51049">
        <ele>1779.994</ele>
        <time>2026-03-13T09:56:31Z</time>
      </trkpt>
      <trkpt lat="45.93059" lon="6.51049">
        <ele>1779.996</ele>
        <time>2026-03-13T09:56:36Z</time>
      </trkpt>
      <trkpt lat="45.93059" lon="6.51049">
        <ele>1779.996</ele>
        <time>2026-03-13T09:56:41Z</time>
      </trkpt>
      <trkpt lat="45.93059" lon="6.51049">
        <ele>1779.996</ele>
        <time>2026-03-13T09:56:46Z</time>
      </trkpt>
      <trkpt lat="45.93059" lon="6.51049">
        <ele>1780</ele>
        <time>2026-03-13T09:56:51Z</time>
      </trkpt>
      <trkpt lat="45.93059" lon="6.51049">
        <ele>1780.002</ele>
        <time>2026-03-13T09:56:56Z</time>
      </trkpt>
      <trkpt lat="45.93059" lon="6.51049">
        <ele>1780.003</ele>
        <time>2026-03-13T09:57:01Z</time>
      </trkpt>
      <trkpt lat="45.93059" lon="6.51049">
        <ele>1780.006</ele>
        <time>2026-03-13T09:57:06Z</time>
      </trkpt>
      <trkpt lat="45.93059" lon="6.51049">
        <ele>1780.012</ele>
        <time>2026-03-13T09:57:11Z</time>
      </trkpt>
      <trkpt lat="45.93059" lon="6.51049">
        <ele>1780.014</ele>
        <time>2026-03-13T09:57:16Z</time>
      </trkpt>
      <trkpt lat="45.93059" lon="6.51049">
        <ele>1780.013</ele>
        <time>2026-03-13T09:57:21Z</time>
      </trkpt>
      <trkpt lat="45.93059" lon="6.51049">
        <ele>1780.014</ele>
        <time>2026-03-13T09:57:26Z</time>
      </trkpt>
      <trkpt lat="45.93059" lon="6.51049">
        <ele>1780.011</ele>
        <time>2026-03-13T09:57:31Z</time>
      </trkpt>
      <trkpt lat="45.93059" lon="6.51049">
        <ele>1780.009</ele>
        <time>2026-03-13T09:57:36Z</time>
      </trkpt>
      <trkpt lat="45.93059" lon="6.51049">
        <ele>1780.01</ele>
        <time>2026-03-13T09:57:41Z</time>
      </trkpt>
      <trkpt lat="45.93059" lon="6.51049">
        <ele>1780.004</ele>
        <time>2026-03-13T09:57:46Z</time>
      </trkpt>
      <trkpt lat="45.93059" lon="6.51049">
        <ele>1780.001</ele>
        <time>2026-03-13T09:57:51Z</time>
      </trkpt>
      <trkpt lat="45.93059" lon="6.51049">
        <ele>1779.996</ele>
        <time>2026-03-13T09:57:56Z</time>
      </trkpt>
      <trkpt lat="45.93059" lon="6.51049">
        <ele>1779.995</ele>
        <time>2026-03-13T09:58:01Z</time>
      </trkpt>
      <trkpt lat="45.93059" lon="6.51049">
        <ele>1780.057</ele>
        <time>2026-03-13T09:58:06Z</time>
      </trkpt>
      <trkpt lat="45.93059" lon="6.51049">
        <ele>1780.13</ele>
        <time>2026-03-13T09:58:11Z</time>
      </trkpt>
      <trkpt lat="45.93059" lon="6.51049">
        <ele>1780.134</ele>
        <time>2026-03-13T09:58:16Z</time>
      </trkpt>
      <trkpt lat="45.93059" lon="6.51049">
        <ele>1780.139</ele>
        <time>2026-03-13T09:58:21Z</time>
      </trkpt>
      <trkpt lat="45.93059" lon="6.51049">
        <ele>1780.178</ele>
        <time>2026-03-13T09:58:26Z</time>
      </trkpt>
      <trkpt lat="45.93059" lon="6.51049">
        <ele>1780.192</ele>
        <time>2026-03-13T09:58:31Z</time>
      </trkpt>
      <trkpt lat="45.93059" lon="6.51049">
        <ele>1780.199</ele>
        <time>2026-03-13T09:58:36Z</time>
      </trkpt>
      <trkpt lat="45.93059" lon="6.51049">
        <ele>1780.205</ele>
        <time>2026-03-13T09:58:41Z</time>
      </trkpt>
      <trkpt lat="45.93059" lon="6.51049">
        <ele>1780.21</ele>
        <time>2026-03-13T09:58:46Z</time>
      </trkpt>
      <trkpt lat="45.93059" lon="6.51049">
        <ele>1780.215</ele>
        <time>2026-03-13T09:58:51Z</time>
      </trkpt>
      <trkpt lat="45.93059" lon="6.51049">
        <ele>1780.218</ele>
        <time>2026-03-13T09:58:56Z</time>
      </trkpt>
      <trkpt lat="45.93059" lon="6.51049">
        <ele>1780.42</ele>
        <time>2026-03-13T09:59:01Z</time>
      </trkpt>
      <trkpt lat="45.93059" lon="6.51049">
        <ele>1780.341</ele>
        <time>2026-03-13T09:59:06Z</time>
      </trkpt>
      <trkpt lat="45.93059" lon="6.51049">
        <ele>1780.341</ele>
        <time>2026-03-13T09:59:11Z</time>
      </trkpt>
      <trkpt lat="45.93059" lon="6.51049">
        <ele>1780.344</ele>
        <time>2026-03-13T09:59:16Z</time>
      </trkpt>
      <trkpt lat="45.93059" lon="6.51049">
        <ele>1780.342</ele>
        <time>2026-03-13T09:59:21Z</time>
      </trkpt>
      <trkpt lat="45.93059" lon="6.51049">
        <ele>1780.342</ele>
        <time>2026-03-13T09:59:26Z</time>
      </trkpt>
      <trkpt lat="45.93059" lon="6.51049">
        <ele>1780.342</ele>
        <time>2026-03-13T09:59:31Z</time>
      </trkpt>
      <trkpt lat="45.93059" lon="6.51049">
        <ele>1780.339</ele>
        <time>2026-03-13T09:59:36Z</time>
      </trkpt>
      <trkpt lat="45.93059" lon="6.51049">
        <ele>1780.34</ele>
        <time>2026-03-13T09:59:41Z</time>
      </trkpt>
      <trkpt lat="45.93059" lon="6.51049">
        <ele>1780.337</ele>
        <time>2026-03-13T09:59:46Z</time>
      </trkpt>
      <trkpt lat="45.93059" lon="6.51049">
        <ele>1780.336</ele>
        <time>2026-03-13T09:59:51Z</time>
      </trkpt>
      <trkpt lat="45.93059" lon="6.51049">
        <ele>1780.335</ele>
        <time>2026-03-13T09:59:56Z</time>
      </trkpt>
      <trkpt lat="45.93059" lon="6.51049">
        <ele>1780.334</ele>
        <time>2026-03-13T10:00:01Z</time>
      </trkpt>
      <trkpt lat="45.93059" lon="6.51049">
        <ele>1780.334</ele>
        <time>2026-03-13T10:00:06Z</time>
      </trkpt>
      <trkpt lat="45.93059" lon="6.51049">
        <ele>1780.334</ele>
        <time>2026-03-13T10:00:11Z</time>
      </trkpt>
      <trkpt lat="45.93059" lon="6.51049">
        <ele>1780.334</ele>
        <time>2026-03-13T10:00:16Z</time>
      </trkpt>
      <trkpt lat="45.93059" lon="6.51049">
        <ele>1780.337</ele>
        <time>2026-03-13T10:00:21Z</time>
      </trkpt>
      <trkpt lat="45.93059" lon="6.51049">
        <ele>1780.337</ele>
        <time>2026-03-13T10:00:26Z</time>
      </trkpt>
      <trkpt lat="45.93059" lon="6.51049">
        <ele>1780.341</ele>
        <time>2026-03-13T10:00:31Z</time>
      </trkpt>
      <trkpt lat="45.93059" lon="6.51049">
        <ele>1778.476</ele>
        <time>2026-03-13T10:00:36Z</time>
      </trkpt>
      <trkpt lat="45.93059" lon="6.51049">
        <ele>1779.276</ele>
        <time>2026-03-13T10:00:41Z</time>
      </trkpt>
      <trkpt lat="45.93059" lon="6.51049">
        <ele>1779.726</ele>
        <time>2026-03-13T10:00:46Z</time>
      </trkpt>
      <trkpt lat="45.93059" lon="6.51049">
        <ele>1778.6</ele>
        <time>2026-03-13T10:00:51Z</time>
      </trkpt>
      <trkpt lat="45.93059" lon="6.51049">
        <ele>1777.825</ele>
        <time>2026-03-13T10:00:56Z</time>
      </trkpt>
      <trkpt lat="45.93059" lon="6.51049">
        <ele>1777.799</ele>
        <time>2026-03-13T10:01:01Z</time>
      </trkpt>
      <trkpt lat="45.93059" lon="6.51049">
        <ele>1777.728</ele>
        <time>2026-03-13T10:01:06Z</time>
      </trkpt>
      <trkpt lat="45.93059" lon="6.51049">
        <ele>1777.737</ele>
        <time>2026-03-13T10:01:11Z</time>
      </trkpt>
      <trkpt lat="45.93059" lon="6.51049">
        <ele>1777.802</ele>
        <time>2026-03-13T10:01:16Z</time>
      </trkpt>
      <trkpt lat="45.93059" lon="6.51049">
        <ele>1777.864</ele>
        <time>2026-03-13T10:01:21Z</time>
      </trkpt>
      <trkpt lat="45.93059" lon="6.51049">
        <ele>1777.936</ele>
        <time>2026-03-13T10:01:26Z</time>
      </trkpt>
      <trkpt lat="45.93059" lon="6.51049">
        <ele>1777.947</ele>
        <time>2026-03-13T10:01:31Z</time>
      </trkpt>
      <trkpt lat="45.93059" lon="6.51049">
        <ele>1777.979</ele>
        <time>2026-03-13T10:01:36Z</time>
      </trkpt>
      <trkpt lat="45.93059" lon="6.51049">
        <ele>1778.005</ele>
        <time>2026-03-13T10:01:41Z</time>
      </trkpt>
      <trkpt lat="45.93059" lon="6.51049">
        <ele>1778.024</ele>
        <time>2026-03-13T10:01:46Z</time>
      </trkpt>
      <trkpt lat="45.93059" lon="6.51049">
        <ele>1778.054</ele>
        <time>2026-03-13T10:01:51Z</time>
      </trkpt>
      <trkpt lat="45.93059" lon="6.51049">
        <ele>1778.092</ele>
        <time>2026-03-13T10:01:56Z</time>
      </trkpt>
      <trkpt lat="45.93059" lon="6.51049">
        <ele>1778.101</ele>
        <time>2026-03-13T10:02:01Z</time>
      </trkpt>
      <trkpt lat="45.93059" lon="6.51049">
        <ele>1778.115</ele>
        <time>2026-03-13T10:02:06Z</time>
      </trkpt>
      <trkpt lat="45.93059" lon="6.51049">
        <ele>1778.143</ele>
        <time>2026-03-13T10:02:11Z</time>
      </trkpt>
      <trkpt lat="45.93059" lon="6.51049">
        <ele>1778.152</ele>
        <time>2026-03-13T10:02:16Z</time>
      </trkpt>
      <trkpt lat="45.93059" lon="6.51049">
        <ele>1778.158</ele>
        <time>2026-03-13T10:02:21Z</time>
      </trkpt>
      <trkpt lat="45.93059" lon="6.51049">
        <ele>1778.155</ele>
        <time>2026-03-13T10:02:26Z</time>
      </trkpt>
      <trkpt lat="45.93059" lon="6.51049">
        <ele>1778.383</ele>
        <time>2026-03-13T10:02:31Z</time>
      </trkpt>
      <trkpt lat="45.93059" lon="6.51049">
        <ele>1778.412</ele>
        <time>2026-03-13T10:02:36Z</time>
      </trkpt>
      <trkpt lat="45.93059" lon="6.51049">
        <ele>1778.37</ele>
        <time>2026-03-13T10:02:41Z</time>
      </trkpt>
      <trkpt lat="45.93059" lon="6.51049">
        <ele>1778.32</ele>
        <time>2026-03-13T10:02:46Z</time>
      </trkpt>
      <trkpt lat="45.93059" lon="6.51049">
        <ele>1778.302</ele>
        <time>2026-03-13T10:02:51Z</time>
      </trkpt>
      <trkpt lat="45.93059" lon="6.51049">
        <ele>1778.301</ele>
        <time>2026-03-13T10:02:56Z</time>
      </trkpt>
      <trkpt lat="45.93059" lon="6.51049">
        <ele>1778.26</ele>
        <time>2026-03-13T10:03:01Z</time>
      </trkpt>
      <trkpt lat="45.93059" lon="6.51049">
        <ele>1778.262</ele>
        <time>2026-03-13T10:03:06Z</time>
      </trkpt>
      <trkpt lat="45.93059" lon="6.51049">
        <ele>1778.269</ele>
        <time>2026-03-13T10:03:11Z</time>
      </trkpt>
      <trkpt lat="45.93059" lon="6.51049">
        <ele>1778.279</ele>
        <time>2026-03-13T10:03:16Z</time>
      </trkpt>
      <trkpt lat="45.93059" lon="6.51049">
        <ele>1778.285</ele>
        <time>2026-03-13T10:03:21Z</time>
      </trkpt>
      <trkpt lat="45.93059" lon="6.51049">
        <ele>1778.301</ele>
        <time>2026-03-13T10:03:26Z</time>
      </trkpt>
      <trkpt lat="45.93059" lon="6.51049">
        <ele>1778.313</ele>
        <time>2026-03-13T10:03:31Z</time>
      </trkpt>
      <trkpt lat="45.93059" lon="6.51049">
        <ele>1778.185</ele>
        <time>2026-03-13T10:03:36Z</time>
      </trkpt>
      <trkpt lat="45.93059" lon="6.51049">
        <ele>1777.679</ele>
        <time>2026-03-13T10:03:41Z</time>
      </trkpt>
      <trkpt lat="45.93059" lon="6.51049">
        <ele>1777.432</ele>
        <time>2026-03-13T10:03:46Z</time>
      </trkpt>
      <trkpt lat="45.93059" lon="6.51049">
        <ele>1777.367</ele>
        <time>2026-03-13T10:03:51Z</time>
      </trkpt>
      <trkpt lat="45.93059" lon="6.51049">
        <ele>1777.37</ele>
        <time>2026-03-13T10:03:56Z</time>
      </trkpt>
      <trkpt lat="45.93059" lon="6.51049">
        <ele>1777.387</ele>
        <time>2026-03-13T10:04:01Z</time>
      </trkpt>
      <trkpt lat="45.93059" lon="6.51049">
        <ele>1777.386</ele>
        <time>2026-03-13T10:04:06Z</time>
      </trkpt>
      <trkpt lat="45.93059" lon="6.51049">
        <ele>1777.391</ele>
        <time>2026-03-13T10:04:11Z</time>
      </trkpt>
      <trkpt lat="45.93059" lon="6.51049">
        <ele>1777.396</ele>
        <time>2026-03-13T10:04:16Z</time>
      </trkpt>
      <trkpt lat="45.93059" lon="6.51049">
        <ele>1777.391</ele>
        <time>2026-03-13T10:04:21Z</time>
      </trkpt>
      <trkpt lat="45.93059" lon="6.51049">
        <ele>1777.392</ele>
        <time>2026-03-13T10:04:26Z</time>
      </trkpt>
      <trkpt lat="45.93059" lon="6.51049">
        <ele>1777.398</ele>
        <time>2026-03-13T10:04:31Z</time>
      </trkpt>
      <trkpt lat="45.93059" lon="6.51049">
        <ele>1777.4</ele>
        <time>2026-03-13T10:04:36Z</time>
      </trkpt>
      <trkpt lat="45.93059" lon="6.51049">
        <ele>1777.403</ele>
        <time>2026-03-13T10:04:41Z</time>
      </trkpt>
      <trkpt lat="45.93059" lon="6.51049">
        <ele>1777.404</ele>
        <time>2026-03-13T10:04:46Z</time>
      </trkpt>
      <trkpt lat="45.93059" lon="6.51049">
        <ele>1777.394</ele>
        <time>2026-03-13T10:04:51Z</time>
      </trkpt>
      <trkpt lat="45.93059" lon="6.51049">
        <ele>1777.389</ele>
        <time>2026-03-13T10:04:56Z</time>
      </trkpt>
      <trkpt lat="45.93059" lon="6.51049">
        <ele>1777.461</ele>
        <time>2026-03-13T10:05:01Z</time>
      </trkpt>
      <trkpt lat="45.93059" lon="6.51049">
        <ele>1778.609</ele>
        <time>2026-03-13T10:05:06Z</time>
      </trkpt>
      <trkpt lat="45.93059" lon="6.51049">
        <ele>1778.919</ele>
        <time>2026-03-13T10:05:11Z</time>
      </trkpt>
      <trkpt lat="45.93059" lon="6.51049">
        <ele>1778.933</ele>
        <time>2026-03-13T10:05:16Z</time>
      </trkpt>
      <trkpt lat="45.93059" lon="6.51049">
        <ele>1778.943</ele>
        <time>2026-03-13T10:05:21Z</time>
      </trkpt>
      <trkpt lat="45.93059" lon="6.51049">
        <ele>1778.947</ele>
        <time>2026-03-13T10:05:26Z</time>
      </trkpt>
      <trkpt lat="45.93059" lon="6.51049">
        <ele>1778.966</ele>
        <time>2026-03-13T10:05:31Z</time>
      </trkpt>
      <trkpt lat="45.93059" lon="6.51049">
        <ele>1778.965</ele>
        <time>2026-03-13T10:05:36Z</time>
      </trkpt>
      <trkpt lat="45.93059" lon="6.51049">
        <ele>1778.968</ele>
        <time>2026-03-13T10:05:41Z</time>
      </trkpt>
      <trkpt lat="45.93059" lon="6.51049">
        <ele>1778.977</ele>
        <time>2026-03-13T10:05:46Z</time>
      </trkpt>
      <trkpt lat="45.93059" lon="6.51049">
        <ele>1778.983</ele>
        <time>2026-03-13T10:05:51Z</time>
      </trkpt>
      <trkpt lat="45.93059" lon="6.51049">
        <ele>1778.329</ele>
        <time>2026-03-13T10:05:56Z</time>
      </trkpt>
      <trkpt lat="45.93059" lon="6.51049">
        <ele>1778.05</ele>
        <time>2026-03-13T10:06:01Z</time>
      </trkpt>
      <trkpt lat="45.93059" lon="6.51049">
        <ele>1778.065</ele>
        <time>2026-03-13T10:06:06Z</time>
      </trkpt>
      <trkpt lat="45.93059" lon="6.51049">
        <ele>1778.09</ele>
        <time>2026-03-13T10:06:11Z</time>
      </trkpt>
      <trkpt lat="45.93059" lon="6.51049">
        <ele>1778.164</ele>
        <time>2026-03-13T10:06:16Z</time>
      </trkpt>
      <trkpt lat="45.93059" lon="6.51049">
        <ele>1778.158</ele>
        <time>2026-03-13T10:06:21Z</time>
      </trkpt>
      <trkpt lat="45.93059" lon="6.51049">
        <ele>1778.169</ele>
        <time>2026-03-13T10:06:26Z</time>
      </trkpt>
      <trkpt lat="45.93059" lon="6.51049">
        <ele>1778.166</ele>
        <time>2026-03-13T10:06:31Z</time>
      </trkpt>
      <trkpt lat="45.93059" lon="6.51049">
        <ele>1778.186</ele>
        <time>2026-03-13T10:06:36Z</time>
      </trkpt>
      <trkpt lat="45.93059" lon="6.51049">
        <ele>1778.188</ele>
        <time>2026-03-13T10:06:41Z</time>
      </trkpt>
      <trkpt lat="45.93059" lon="6.51049">
        <ele>1778.215</ele>
        <time>2026-03-13T10:06:46Z</time>
      </trkpt>
      <trkpt lat="45.93059" lon="6.51049">
        <ele>1778.235</ele>
        <time>2026-03-13T10:06:51Z</time>
      </trkpt>
      <trkpt lat="45.93059" lon="6.51049">
        <ele>1778.251</ele>
        <time>2026-03-13T10:06:56Z</time>
      </trkpt>
      <trkpt lat="45.93059" lon="6.51049">
        <ele>1778.247</ele>
        <time>2026-03-13T10:07:01Z</time>
      </trkpt>
      <trkpt lat="45.93059" lon="6.51049">
        <ele>1778.241</ele>
        <time>2026-03-13T10:07:06Z</time>
      </trkpt>
      <trkpt lat="45.93059" lon="6.51049">
        <ele>1778.235</ele>
        <time>2026-03-13T10:07:11Z</time>
      </trkpt>
      <trkpt lat="45.93059" lon="6.51049">
        <ele>1778.233</ele>
        <time>2026-03-13T10:07:16Z</time>
      </trkpt>
      <trkpt lat="45.93059" lon="6.51049">
        <ele>1778.238</ele>
        <time>2026-03-13T10:07:21Z</time>
      </trkpt>
      <trkpt lat="45.93059" lon="6.51049">
        <ele>1778.234</ele>
        <time>2026-03-13T10:07:26Z</time>
      </trkpt>
      <trkpt lat="45.93059" lon="6.51049">
        <ele>1778.234</ele>
        <time>2026-03-13T10:07:31Z</time>
      </trkpt>
      <trkpt lat="45.93059" lon="6.51049">
        <ele>1778.237</ele>
        <time>2026-03-13T10:07:36Z</time>
      </trkpt>
      <trkpt lat="45.93059" lon="6.51049">
        <ele>1778.256</ele>
        <time>2026-03-13T10:07:41Z</time>
      </trkpt>
      <trkpt lat="45.93059" lon="6.51049">
        <ele>1778.251</ele>
        <time>2026-03-13T10:07:46Z</time>
      </trkpt>
      <trkpt lat="45.93059" lon="6.51049">
        <ele>1778.254</ele>
        <time>2026-03-13T10:07:51Z</time>
      </trkpt>
      <trkpt lat="45.93059" lon="6.51049">
        <ele>1779.165</ele>
        <time>2026-03-13T10:07:56Z</time>
      </trkpt>
      <trkpt lat="45.93059" lon="6.51049">
        <ele>1779.152</ele>
        <time>2026-03-13T10:08:01Z</time>
      </trkpt>
      <trkpt lat="45.93053" lon="6.51054">
        <ele>1779.439</ele>
        <time>2026-03-13T10:08:06Z</time>
      </trkpt>
      <trkpt lat="45.93052" lon="6.51057">
        <ele>1780.757</ele>
        <time>2026-03-13T10:08:11Z</time>
      </trkpt>
      <trkpt lat="45.9305" lon="6.51059">
        <ele>1782.111</ele>
        <time>2026-03-13T10:08:16Z</time>
      </trkpt>
      <trkpt lat="45.93049" lon="6.51062">
        <ele>1782.991</ele>
        <time>2026-03-13T10:08:21Z</time>
      </trkpt>
      <trkpt lat="45.93047" lon="6.51065">
        <ele>1783.579</ele>
        <time>2026-03-13T10:08:26Z</time>
      </trkpt>
      <trkpt lat="45.93046" lon="6.51067">
        <ele>1783.732</ele>
        <time>2026-03-13T10:08:31Z</time>
      </trkpt>
      <trkpt lat="45.93045" lon="6.51069">
        <ele>1785.023</ele>
        <time>2026-03-13T10:08:36Z</time>
      </trkpt>
      <trkpt lat="45.93043" lon="6.51071">
        <ele>1785.797</ele>
        <time>2026-03-13T10:08:41Z</time>
      </trkpt>
      <trkpt lat="45.93041" lon="6.51075">
        <ele>1785.875</ele>
        <time>2026-03-13T10:08:46Z</time>
      </trkpt>
      <trkpt lat="45.9304" lon="6.51078">
        <ele>1785.516</ele>
        <time>2026-03-13T10:08:51Z</time>
      </trkpt>
      <trkpt lat="45.93038" lon="6.51081">
        <ele>1786.126</ele>
        <time>2026-03-13T10:08:56Z</time>
      </trkpt>
      <trkpt lat="45.93036" lon="6.51084">
        <ele>1786.903</ele>
        <time>2026-03-13T10:09:01Z</time>
      </trkpt>
      <trkpt lat="45.93035" lon="6.51088">
        <ele>1787.793</ele>
        <time>2026-03-13T10:09:06Z</time>
      </trkpt>
      <trkpt lat="45.93034" lon="6.51092">
        <ele>1788.93</ele>
        <time>2026-03-13T10:09:11Z</time>
      </trkpt>
      <trkpt lat="45.93032" lon="6.51095">
        <ele>1789.94</ele>
        <time>2026-03-13T10:09:16Z</time>
      </trkpt>
      <trkpt lat="45.9303" lon="6.51099">
        <ele>1790.397</ele>
        <time>2026-03-13T10:09:21Z</time>
      </trkpt>
      <trkpt lat="45.93029" lon="6.51103">
        <ele>1790.944</ele>
        <time>2026-03-13T10:09:26Z</time>
      </trkpt>
      <trkpt lat="45.93027" lon="6.51106">
        <ele>1791.607</ele>
        <time>2026-03-13T10:09:31Z</time>
      </trkpt>
      <trkpt lat="45.93026" lon="6.51109">
        <ele>1792.333</ele>
        <time>2026-03-13T10:09:36Z</time>
      </trkpt>
      <trkpt lat="45.93024" lon="6.51112">
        <ele>1792.949</ele>
        <time>2026-03-13T10:09:41Z</time>
      </trkpt>
      <trkpt lat="45.93023" lon="6.51115">
        <ele>1794.098</ele>
        <time>2026-03-13T10:09:46Z</time>
      </trkpt>
      <trkpt lat="45.93021" lon="6.51117">
        <ele>1794.914</ele>
        <time>2026-03-13T10:09:51Z</time>
      </trkpt>
      <trkpt lat="45.93018" lon="6.51119">
        <ele>1795.207</ele>
        <time>2026-03-13T10:09:56Z</time>
      </trkpt>
      <trkpt lat="45.93016" lon="6.51122">
        <ele>1795.84</ele>
        <time>2026-03-13T10:10:01Z</time>
      </trkpt>
      <trkpt lat="45.93014" lon="6.51124">
        <ele>1796.786</ele>
        <time>2026-03-13T10:10:06Z</time>
      </trkpt>
      <trkpt lat="45.93012" lon="6.51126">
        <ele>1797.493</ele>
        <time>2026-03-13T10:10:11Z</time>
      </trkpt>
      <trkpt lat="45.9301" lon="6.51128">
        <ele>1798.256</ele>
        <time>2026-03-13T10:10:16Z</time>
      </trkpt>
      <trkpt lat="45.93007" lon="6.51129">
        <ele>1798.883</ele>
        <time>2026-03-13T10:10:21Z</time>
      </trkpt>
      <trkpt lat="45.93005" lon="6.5113">
        <ele>1799.575</ele>
        <time>2026-03-13T10:10:26Z</time>
      </trkpt>
      <trkpt lat="45.93004" lon="6.5113">
        <ele>1800.321</ele>
        <time>2026-03-13T10:10:31Z</time>
      </trkpt>
      <trkpt lat="45.93001" lon="6.5113">
        <ele>1801.154</ele>
        <time>2026-03-13T10:10:36Z</time>
      </trkpt>
      <trkpt lat="45.92999" lon="6.5113">
        <ele>1801.66</ele>
        <time>2026-03-13T10:10:41Z</time>
      </trkpt>
      <trkpt lat="45.92996" lon="6.51129">
        <ele>1802.032</ele>
        <time>2026-03-13T10:10:46Z</time>
      </trkpt>
      <trkpt lat="45.92993" lon="6.51129">
        <ele>1802.973</ele>
        <time>2026-03-13T10:10:51Z</time>
      </trkpt>
      <trkpt lat="45.92991" lon="6.51127">
        <ele>1804.148</ele>
        <time>2026-03-13T10:10:56Z</time>
      </trkpt>
      <trkpt lat="45.92988" lon="6.51126">
        <ele>1804.604</ele>
        <time>2026-03-13T10:11:01Z</time>
      </trkpt>
      <trkpt lat="45.92986" lon="6.51126">
        <ele>1804.823</ele>
        <time>2026-03-13T10:11:06Z</time>
      </trkpt>
      <trkpt lat="45.92985" lon="6.5113">
        <ele>1805.309</ele>
        <time>2026-03-13T10:11:11Z</time>
      </trkpt>
      <trkpt lat="45.92985" lon="6.51134">
        <ele>1805.434</ele>
        <time>2026-03-13T10:11:16Z</time>
      </trkpt>
      <trkpt lat="45.92985" lon="6.51138">
        <ele>1805.959</ele>
        <time>2026-03-13T10:11:21Z</time>
      </trkpt>
      <trkpt lat="45.92985" lon="6.51141">
        <ele>1806.882</ele>
        <time>2026-03-13T10:11:26Z</time>
      </trkpt>
      <trkpt lat="45.92985" lon="6.51145">
        <ele>1807.56</ele>
        <time>2026-03-13T10:11:31Z</time>
      </trkpt>
      <trkpt lat="45.92985" lon="6.51149">
        <ele>1808.2</ele>
        <time>2026-03-13T10:11:36Z</time>
      </trkpt>
      <trkpt lat="45.92985" lon="6.51152">
        <ele>1808.684</ele>
        <time>2026-03-13T10:11:41Z</time>
      </trkpt>
      <trkpt lat="45.92985" lon="6.51156">
        <ele>1809.69</ele>
        <time>2026-03-13T10:11:46Z</time>
      </trkpt>
      <trkpt lat="45.92985" lon="6.51159">
        <ele>1810.496</ele>
        <time>2026-03-13T10:11:51Z</time>
      </trkpt>
      <trkpt lat="45.92985" lon="6.51163">
        <ele>1810.662</ele>
        <time>2026-03-13T10:11:56Z</time>
      </trkpt>
      <trkpt lat="45.92985" lon="6.51168">
        <ele>1811.679</ele>
        <time>2026-03-13T10:12:01Z</time>
      </trkpt>
      <trkpt lat="45.92986" lon="6.51171">
        <ele>1812.267</ele>
        <time>2026-03-13T10:12:06Z</time>
      </trkpt>
      <trkpt lat="45.92987" lon="6.51175">
        <ele>1813.237</ele>
        <time>2026-03-13T10:12:11Z</time>
      </trkpt>
      <trkpt lat="45.92988" lon="6.51177">
        <ele>1814</ele>
        <time>2026-03-13T10:12:16Z</time>
      </trkpt>
      <trkpt lat="45.9299" lon="6.5118">
        <ele>1814.409</ele>
        <time>2026-03-13T10:12:21Z</time>
      </trkpt>
      <trkpt lat="45.92991" lon="6.51183">
        <ele>1816.005</ele>
        <time>2026-03-13T10:12:26Z</time>
      </trkpt>
      <trkpt lat="45.92991" lon="6.51186">
        <ele>1816.981</ele>
        <time>2026-03-13T10:12:31Z</time>
      </trkpt>
      <trkpt lat="45.92991" lon="6.51189">
        <ele>1817.609</ele>
        <time>2026-03-13T10:12:36Z</time>
      </trkpt>
      <trkpt lat="45.92991" lon="6.51193">
        <ele>1818.24</ele>
        <time>2026-03-13T10:12:41Z</time>
      </trkpt>
      <trkpt lat="45.9299" lon="6.51195">
        <ele>1819.881</ele>
        <time>2026-03-13T10:12:46Z</time>
      </trkpt>
      <trkpt lat="45.92989" lon="6.51197">
        <ele>1820.992</ele>
        <time>2026-03-13T10:12:51Z</time>
      </trkpt>
      <trkpt lat="45.92987" lon="6.512">
        <ele>1821.367</ele>
        <time>2026-03-13T10:12:56Z</time>
      </trkpt>
      <trkpt lat="45.92985" lon="6.51201">
        <ele>1822.262</ele>
        <time>2026-03-13T10:13:01Z</time>
      </trkpt>
      <trkpt lat="45.92983" lon="6.51201">
        <ele>1822.357</ele>
        <time>2026-03-13T10:13:06Z</time>
      </trkpt>
      <trkpt lat="45.92981" lon="6.51201">
        <ele>1823.222</ele>
        <time>2026-03-13T10:13:11Z</time>
      </trkpt>
      <trkpt lat="45.92979" lon="6.51202">
        <ele>1825.256</ele>
        <time>2026-03-13T10:13:16Z</time>
      </trkpt>
      <trkpt lat="45.92976" lon="6.51201">
        <ele>1826.288</ele>
        <time>2026-03-13T10:13:21Z</time>
      </trkpt>
      <trkpt lat="45.92973" lon="6.51202">
        <ele>1826.683</ele>
        <time>2026-03-13T10:13:26Z</time>
      </trkpt>
      <trkpt lat="45.9297" lon="6.51204">
        <ele>1827.162</ele>
        <time>2026-03-13T10:13:31Z</time>
      </trkpt>
      <trkpt lat="45.9297" lon="6.51208">
        <ele>1827.428</ele>
        <time>2026-03-13T10:13:36Z</time>
      </trkpt>
      <trkpt lat="45.9297" lon="6.51213">
        <ele>1827.908</ele>
        <time>2026-03-13T10:13:41Z</time>
      </trkpt>
      <trkpt lat="45.9297" lon="6.51214">
        <ele>1828.097</ele>
        <time>2026-03-13T10:13:46Z</time>
      </trkpt>
      <trkpt lat="45.92969" lon="6.51218">
        <ele>1829.635</ele>
        <time>2026-03-13T10:13:51Z</time>
      </trkpt>
      <trkpt lat="45.92969" lon="6.51222">
        <ele>1829.518</ele>
        <time>2026-03-13T10:13:56Z</time>
      </trkpt>
      <trkpt lat="45.92969" lon="6.51226">
        <ele>1829.784</ele>
        <time>2026-03-13T10:14:01Z</time>
      </trkpt>
      <trkpt lat="45.92969" lon="6.51231">
        <ele>1829.677</ele>
        <time>2026-03-13T10:14:06Z</time>
      </trkpt>
      <trkpt lat="45.92969" lon="6.51235">
        <ele>1829.238</ele>
        <time>2026-03-13T10:14:11Z</time>
      </trkpt>
      <trkpt lat="45.92969" lon="6.51239">
        <ele>1830.907</ele>
        <time>2026-03-13T10:14:16Z</time>
      </trkpt>
      <trkpt lat="45.92969" lon="6.51243">
        <ele>1831.502</ele>
        <time>2026-03-13T10:14:21Z</time>
      </trkpt>
      <trkpt lat="45.9297" lon="6.51247">
        <ele>1832.434</ele>
        <time>2026-03-13T10:14:26Z</time>
      </trkpt>
      <trkpt lat="45.92969" lon="6.5125">
        <ele>1832.491</ele>
        <time>2026-03-13T10:14:31Z</time>
      </trkpt>
      <trkpt lat="45.92968" lon="6.51254">
        <ele>1834.218</ele>
        <time>2026-03-13T10:14:36Z</time>
      </trkpt>
      <trkpt lat="45.92967" lon="6.51258">
        <ele>1834.863</ele>
        <time>2026-03-13T10:14:41Z</time>
      </trkpt>
      <trkpt lat="45.92966" lon="6.51261">
        <ele>1835.861</ele>
        <time>2026-03-13T10:14:46Z</time>
      </trkpt>
      <trkpt lat="45.92965" lon="6.51263">
        <ele>1836.379</ele>
        <time>2026-03-13T10:14:51Z</time>
      </trkpt>
      <trkpt lat="45.92964" lon="6.51267">
        <ele>1837.793</ele>
        <time>2026-03-13T10:14:56Z</time>
      </trkpt>
      <trkpt lat="45.92963" lon="6.5127">
        <ele>1838.63</ele>
        <time>2026-03-13T10:15:01Z</time>
      </trkpt>
      <trkpt lat="45.92963" lon="6.51274">
        <ele>1839.012</ele>
        <time>2026-03-13T10:15:06Z</time>
      </trkpt>
      <trkpt lat="45.92961" lon="6.51277">
        <ele>1840.75</ele>
        <time>2026-03-13T10:15:11Z</time>
      </trkpt>
      <trkpt lat="45.9296" lon="6.5128">
        <ele>1841.569</ele>
        <time>2026-03-13T10:15:16Z</time>
      </trkpt>
      <trkpt lat="45.92959" lon="6.51283">
        <ele>1841.891</ele>
        <time>2026-03-13T10:15:21Z</time>
      </trkpt>
      <trkpt lat="45.92958" lon="6.51286">
        <ele>1842.767</ele>
        <time>2026-03-13T10:15:26Z</time>
      </trkpt>
      <trkpt lat="45.92958" lon="6.51289">
        <ele>1844.014</ele>
        <time>2026-03-13T10:15:31Z</time>
      </trkpt>
      <trkpt lat="45.92957" lon="6.51292">
        <ele>1844.866</ele>
        <time>2026-03-13T10:15:36Z</time>
      </trkpt>
      <trkpt lat="45.92956" lon="6.51296">
        <ele>1846.536</ele>
        <time>2026-03-13T10:15:41Z</time>
      </trkpt>
      <trkpt lat="45.92956" lon="6.51299">
        <ele>1846.466</ele>
        <time>2026-03-13T10:15:46Z</time>
      </trkpt>
      <trkpt lat="45.92957" lon="6.51303">
        <ele>1846.484</ele>
        <time>2026-03-13T10:15:51Z</time>
      </trkpt>
      <trkpt lat="45.92956" lon="6.51307">
        <ele>1846.505</ele>
        <time>2026-03-13T10:15:56Z</time>
      </trkpt>
      <trkpt lat="45.92955" lon="6.51311">
        <ele>1847.838</ele>
        <time>2026-03-13T10:16:01Z</time>
      </trkpt>
      <trkpt lat="45.92955" lon="6.51314">
        <ele>1848.85</ele>
        <time>2026-03-13T10:16:06Z</time>
      </trkpt>
      <trkpt lat="45.92955" lon="6.51318">
        <ele>1849.698</ele>
        <time>2026-03-13T10:16:11Z</time>
      </trkpt>
      <trkpt lat="45.92955" lon="6.51321">
        <ele>1850.554</ele>
        <time>2026-03-13T10:16:16Z</time>
      </trkpt>
      <trkpt lat="45.92955" lon="6.51325">
        <ele>1850.738</ele>
        <time>2026-03-13T10:16:21Z</time>
      </trkpt>
      <trkpt lat="45.92955" lon="6.51329">
        <ele>1851.76</ele>
        <time>2026-03-13T10:16:26Z</time>
      </trkpt>
      <trkpt lat="45.92954" lon="6.51333">
        <ele>1852.325</ele>
        <time>2026-03-13T10:16:31Z</time>
      </trkpt>
      <trkpt lat="45.92954" lon="6.51336">
        <ele>1853.704</ele>
        <time>2026-03-13T10:16:36Z</time>
      </trkpt>
      <trkpt lat="45.92954" lon="6.5134">
        <ele>1853.58</ele>
        <time>2026-03-13T10:16:41Z</time>
      </trkpt>
      <trkpt lat="45.92953" lon="6.51343">
        <ele>1854.357</ele>
        <time>2026-03-13T10:16:46Z</time>
      </trkpt>
      <trkpt lat="45.92953" lon="6.51347">
        <ele>1854.273</ele>
        <time>2026-03-13T10:16:51Z</time>
      </trkpt>
      <trkpt lat="45.92951" lon="6.5135">
        <ele>1855.763</ele>
        <time>2026-03-13T10:16:56Z</time>
      </trkpt>
      <trkpt lat="45.9295" lon="6.51353">
        <ele>1857.389</ele>
        <time>2026-03-13T10:17:01Z</time>
      </trkpt>
      <trkpt lat="45.92948" lon="6.51355">
        <ele>1857.772</ele>
        <time>2026-03-13T10:17:06Z</time>
      </trkpt>
      <trkpt lat="45.92946" lon="6.51357">
        <ele>1858.705</ele>
        <time>2026-03-13T10:17:11Z</time>
      </trkpt>
      <trkpt lat="45.92944" lon="6.5136">
        <ele>1859.336</ele>
        <time>2026-03-13T10:17:16Z</time>
      </trkpt>
      <trkpt lat="45.92942" lon="6.51362">
        <ele>1860.162</ele>
        <time>2026-03-13T10:17:21Z</time>
      </trkpt>
      <trkpt lat="45.9294" lon="6.51365">
        <ele>1860.716</ele>
        <time>2026-03-13T10:17:26Z</time>
      </trkpt>
      <trkpt lat="45.92939" lon="6.51368">
        <ele>1860.298</ele>
        <time>2026-03-13T10:17:31Z</time>
      </trkpt>
      <trkpt lat="45.92937" lon="6.51372">
        <ele>1861.722</ele>
        <time>2026-03-13T10:17:36Z</time>
      </trkpt>
      <trkpt lat="45.92936" lon="6.51375">
        <ele>1862.236</ele>
        <time>2026-03-13T10:17:41Z</time>
      </trkpt>
      <trkpt lat="45.92934" lon="6.51377">
        <ele>1863.487</ele>
        <time>2026-03-13T10:17:46Z</time>
      </trkpt>
      <trkpt lat="45.92931" lon="6.5138">
        <ele>1864.432</ele>
        <time>2026-03-13T10:17:51Z</time>
      </trkpt>
      <trkpt lat="45.9293" lon="6.51383">
        <ele>1865.213</ele>
        <time>2026-03-13T10:17:56Z</time>
      </trkpt>
      <trkpt lat="45.92928" lon="6.51385">
        <ele>1866.139</ele>
        <time>2026-03-13T10:18:01Z</time>
      </trkpt>
      <trkpt lat="45.92926" lon="6.51386">
        <ele>1867.509</ele>
        <time>2026-03-13T10:18:06Z</time>
      </trkpt>
      <trkpt lat="45.92925" lon="6.51387">
        <ele>1868.129</ele>
        <time>2026-03-13T10:18:11Z</time>
      </trkpt>
      <trkpt lat="45.92925" lon="6.51387">
        <ele>1868.141</ele>
        <time>2026-03-13T10:18:16Z</time>
      </trkpt>
      <trkpt lat="45.92925" lon="6.51387">
        <ele>1868.149</ele>
        <time>2026-03-13T10:18:21Z</time>
      </trkpt>
      <trkpt lat="45.92924" lon="6.51387">
        <ele>1868.146</ele>
        <time>2026-03-13T10:18:26Z</time>
      </trkpt>
      <trkpt lat="45.92924" lon="6.51387">
        <ele>1868.151</ele>
        <time>2026-03-13T10:18:31Z</time>
      </trkpt>
      <trkpt lat="45.92922" lon="6.51389">
        <ele>1869.209</ele>
        <time>2026-03-13T10:18:36Z</time>
      </trkpt>
      <trkpt lat="45.9292" lon="6.51391">
        <ele>1868.746</ele>
        <time>2026-03-13T10:18:41Z</time>
      </trkpt>
      <trkpt lat="45.92917" lon="6.51392">
        <ele>1869.542</ele>
        <time>2026-03-13T10:18:46Z</time>
      </trkpt>
      <trkpt lat="45.92914" lon="6.51393">
        <ele>1869.454</ele>
        <time>2026-03-13T10:18:51Z</time>
      </trkpt>
      <trkpt lat="45.92912" lon="6.51393">
        <ele>1870.62</ele>
        <time>2026-03-13T10:18:56Z</time>
      </trkpt>
      <trkpt lat="45.9291" lon="6.51394">
        <ele>1871.761</ele>
        <time>2026-03-13T10:19:01Z</time>
      </trkpt>
      <trkpt lat="45.92908" lon="6.51395">
        <ele>1872.674</ele>
        <time>2026-03-13T10:19:06Z</time>
      </trkpt>
      <trkpt lat="45.92906" lon="6.51395">
        <ele>1873.681</ele>
        <time>2026-03-13T10:19:11Z</time>
      </trkpt>
      <trkpt lat="45.92904" lon="6.51395">
        <ele>1874.388</ele>
        <time>2026-03-13T10:19:16Z</time>
      </trkpt>
      <trkpt lat="45.92902" lon="6.51395">
        <ele>1874.816</ele>
        <time>2026-03-13T10:19:21Z</time>
      </trkpt>
      <trkpt lat="45.929" lon="6.51395">
        <ele>1876.108</ele>
        <time>2026-03-13T10:19:26Z</time>
      </trkpt>
      <trkpt lat="45.92898" lon="6.51395">
        <ele>1877.488</ele>
        <time>2026-03-13T10:19:31Z</time>
      </trkpt>
      <trkpt lat="45.92896" lon="6.51396">
        <ele>1877.364</ele>
        <time>2026-03-13T10:19:36Z</time>
      </trkpt>
      <trkpt lat="45.92894" lon="6.51397">
        <ele>1878.684</ele>
        <time>2026-03-13T10:19:41Z</time>
      </trkpt>
      <trkpt lat="45.92892" lon="6.51397">
        <ele>1879.575</ele>
        <time>2026-03-13T10:19:46Z</time>
      </trkpt>
      <trkpt lat="45.92891" lon="6.51397">
        <ele>1880.629</ele>
        <time>2026-03-13T10:19:51Z</time>
      </trkpt>
      <trkpt lat="45.92888" lon="6.51399">
        <ele>1881.681</ele>
        <time>2026-03-13T10:19:56Z</time>
      </trkpt>
      <trkpt lat="45.92886" lon="6.514">
        <ele>1881.249</ele>
        <time>2026-03-13T10:20:01Z</time>
      </trkpt>
      <trkpt lat="45.92884" lon="6.51401">
        <ele>1881.744</ele>
        <time>2026-03-13T10:20:06Z</time>
      </trkpt>
      <trkpt lat="45.92884" lon="6.51401">
        <ele>1881.933</ele>
        <time>2026-03-13T10:20:11Z</time>
      </trkpt>
      <trkpt lat="45.92881" lon="6.51403">
        <ele>1883.153</ele>
        <time>2026-03-13T10:20:16Z</time>
      </trkpt>
      <trkpt lat="45.92879" lon="6.51404">
        <ele>1883.135</ele>
        <time>2026-03-13T10:20:21Z</time>
      </trkpt>
      <trkpt lat="45.92878" lon="6.51406">
        <ele>1883.789</ele>
        <time>2026-03-13T10:20:26Z</time>
      </trkpt>
      <trkpt lat="45.92876" lon="6.51407">
        <ele>1884.304</ele>
        <time>2026-03-13T10:20:31Z</time>
      </trkpt>
      <trkpt lat="45.92873" lon="6.51407">
        <ele>1885.184</ele>
        <time>2026-03-13T10:20:36Z</time>
      </trkpt>
      <trkpt lat="45.92871" lon="6.51408">
        <ele>1886.241</ele>
        <time>2026-03-13T10:20:41Z</time>
      </trkpt>
      <trkpt lat="45.92869" lon="6.51408">
        <ele>1887.048</ele>
        <time>2026-03-13T10:20:46Z</time>
      </trkpt>
      <trkpt lat="45.92866" lon="6.5141">
        <ele>1887.271</ele>
        <time>2026-03-13T10:20:51Z</time>
      </trkpt>
      <trkpt lat="45.92863" lon="6.51411">
        <ele>1888.216</ele>
        <time>2026-03-13T10:20:56Z</time>
      </trkpt>
      <trkpt lat="45.92861" lon="6.51413">
        <ele>1889.611</ele>
        <time>2026-03-13T10:21:01Z</time>
      </trkpt>
      <trkpt lat="45.92861" lon="6.51417">
        <ele>1890.411</ele>
        <time>2026-03-13T10:21:06Z</time>
      </trkpt>
      <trkpt lat="45.92861" lon="6.5142">
        <ele>1890.651</ele>
        <time>2026-03-13T10:21:11Z</time>
      </trkpt>
      <trkpt lat="45.92862" lon="6.51424">
        <ele>1890.417</ele>
        <time>2026-03-13T10:21:16Z</time>
      </trkpt>
      <trkpt lat="45.92862" lon="6.51427">
        <ele>1890.567</ele>
        <time>2026-03-13T10:21:21Z</time>
      </trkpt>
      <trkpt lat="45.92862" lon="6.5143">
        <ele>1890.899</ele>
        <time>2026-03-13T10:21:26Z</time>
      </trkpt>
      <trkpt lat="45.92862" lon="6.51433">
        <ele>1889.228</ele>
        <time>2026-03-13T10:21:31Z</time>
      </trkpt>
      <trkpt lat="45.92863" lon="6.51437">
        <ele>1889.904</ele>
        <time>2026-03-13T10:21:36Z</time>
      </trkpt>
      <trkpt lat="45.92865" lon="6.51441">
        <ele>1889.562</ele>
        <time>2026-03-13T10:21:41Z</time>
      </trkpt>
      <trkpt lat="45.92867" lon="6.51444">
        <ele>1889.227</ele>
        <time>2026-03-13T10:21:46Z</time>
      </trkpt>
      <trkpt lat="45.92868" lon="6.51445">
        <ele>1889.754</ele>
        <time>2026-03-13T10:21:51Z</time>
      </trkpt>
      <trkpt lat="45.92866" lon="6.51445">
        <ele>1891.799</ele>
        <time>2026-03-13T10:21:56Z</time>
      </trkpt>
      <trkpt lat="45.92864" lon="6.51446">
        <ele>1893.142</ele>
        <time>2026-03-13T10:22:01Z</time>
      </trkpt>
      <trkpt lat="45.92862" lon="6.51446">
        <ele>1894.668</ele>
        <time>2026-03-13T10:22:06Z</time>
      </trkpt>
      <trkpt lat="45.9286" lon="6.51447">
        <ele>1895.375</ele>
        <time>2026-03-13T10:22:11Z</time>
      </trkpt>
      <trkpt lat="45.92857" lon="6.51448">
        <ele>1896.131</ele>
        <time>2026-03-13T10:22:16Z</time>
      </trkpt>
      <trkpt lat="45.92855" lon="6.51449">
        <ele>1897.018</ele>
        <time>2026-03-13T10:22:21Z</time>
      </trkpt>
      <trkpt lat="45.92854" lon="6.5145">
        <ele>1898.555</ele>
        <time>2026-03-13T10:22:26Z</time>
      </trkpt>
      <trkpt lat="45.92852" lon="6.51452">
        <ele>1899.54</ele>
        <time>2026-03-13T10:22:31Z</time>
      </trkpt>
      <trkpt lat="45.9285" lon="6.51453">
        <ele>1899.981</ele>
        <time>2026-03-13T10:22:36Z</time>
      </trkpt>
      <trkpt lat="45.92849" lon="6.51454">
        <ele>1900.776</ele>
        <time>2026-03-13T10:22:41Z</time>
      </trkpt>
      <trkpt lat="45.92846" lon="6.51455">
        <ele>1901.435</ele>
        <time>2026-03-13T10:22:46Z</time>
      </trkpt>
      <trkpt lat="45.92844" lon="6.51456">
        <ele>1902.994</ele>
        <time>2026-03-13T10:22:51Z</time>
      </trkpt>
      <trkpt lat="45.92843" lon="6.51458">
        <ele>1903.84</ele>
        <time>2026-03-13T10:22:56Z</time>
      </trkpt>
      <trkpt lat="45.92841" lon="6.51458">
        <ele>1904.324</ele>
        <time>2026-03-13T10:23:01Z</time>
      </trkpt>
      <trkpt lat="45.92839" lon="6.51459">
        <ele>1905.055</ele>
        <time>2026-03-13T10:23:06Z</time>
      </trkpt>
      <trkpt lat="45.92837" lon="6.5146">
        <ele>1905.39</ele>
        <time>2026-03-13T10:23:11Z</time>
      </trkpt>
      <trkpt lat="45.92835" lon="6.51461">
        <ele>1906.266</ele>
        <time>2026-03-13T10:23:16Z</time>
      </trkpt>
      <trkpt lat="45.92833" lon="6.51462">
        <ele>1908.008</ele>
        <time>2026-03-13T10:23:21Z</time>
      </trkpt>
      <trkpt lat="45.92831" lon="6.51463">
        <ele>1908.746</ele>
        <time>2026-03-13T10:23:26Z</time>
      </trkpt>
      <trkpt lat="45.92831" lon="6.51463">
        <ele>1908.642</ele>
        <time>2026-03-13T10:23:31Z</time>
      </trkpt>
      <trkpt lat="45.92831" lon="6.51463">
        <ele>1908.66</ele>
        <time>2026-03-13T10:23:36Z</time>
      </trkpt>
      <trkpt lat="45.92831" lon="6.51463">
        <ele>1908.678</ele>
        <time>2026-03-13T10:23:41Z</time>
      </trkpt>
      <trkpt lat="45.92831" lon="6.51463">
        <ele>1908.694</ele>
        <time>2026-03-13T10:23:46Z</time>
      </trkpt>
      <trkpt lat="45.92831" lon="6.51463">
        <ele>1908.701</ele>
        <time>2026-03-13T10:23:51Z</time>
      </trkpt>
      <trkpt lat="45.92831" lon="6.51463">
        <ele>1908.709</ele>
        <time>2026-03-13T10:23:56Z</time>
      </trkpt>
      <trkpt lat="45.92831" lon="6.51463">
        <ele>1908.684</ele>
        <time>2026-03-13T10:24:01Z</time>
      </trkpt>
      <trkpt lat="45.92831" lon="6.51463">
        <ele>1908.686</ele>
        <time>2026-03-13T10:24:06Z</time>
      </trkpt>
      <trkpt lat="45.92831" lon="6.51463">
        <ele>1908.683</ele>
        <time>2026-03-13T10:24:11Z</time>
      </trkpt>
      <trkpt lat="45.92831" lon="6.51463">
        <ele>1908.681</ele>
        <time>2026-03-13T10:24:16Z</time>
      </trkpt>
      <trkpt lat="45.92831" lon="6.51463">
        <ele>1908.685</ele>
        <time>2026-03-13T10:24:21Z</time>
      </trkpt>
      <trkpt lat="45.92831" lon="6.51463">
        <ele>1908.687</ele>
        <time>2026-03-13T10:24:26Z</time>
      </trkpt>
      <trkpt lat="45.92831" lon="6.51463">
        <ele>1908.692</ele>
        <time>2026-03-13T10:24:31Z</time>
      </trkpt>
      <trkpt lat="45.92831" lon="6.51463">
        <ele>1908.698</ele>
        <time>2026-03-13T10:24:36Z</time>
      </trkpt>
      <trkpt lat="45.92831" lon="6.51463">
        <ele>1908.703</ele>
        <time>2026-03-13T10:24:41Z</time>
      </trkpt>
      <trkpt lat="45.92831" lon="6.51463">
        <ele>1908.71</ele>
        <time>2026-03-13T10:24:46Z</time>
      </trkpt>
      <trkpt lat="45.92831" lon="6.51463">
        <ele>1908.723</ele>
        <time>2026-03-13T10:24:51Z</time>
      </trkpt>
      <trkpt lat="45.92831" lon="6.51463">
        <ele>1908.731</ele>
        <time>2026-03-13T10:24:56Z</time>
      </trkpt>
      <trkpt lat="45.92831" lon="6.51463">
        <ele>1908.738</ele>
        <time>2026-03-13T10:25:01Z</time>
      </trkpt>
      <trkpt lat="45.92831" lon="6.51463">
        <ele>1908.74</ele>
        <time>2026-03-13T10:25:06Z</time>
      </trkpt>
      <trkpt lat="45.9283" lon="6.51463">
        <ele>1908.946</ele>
        <time>2026-03-13T10:25:11Z</time>
      </trkpt>
      <trkpt lat="45.9283" lon="6.51466">
        <ele>1909.027</ele>
        <time>2026-03-13T10:25:16Z</time>
      </trkpt>
      <trkpt lat="45.92832" lon="6.51471">
        <ele>1908.635</ele>
        <time>2026-03-13T10:25:21Z</time>
      </trkpt>
      <trkpt lat="45.92834" lon="6.51474">
        <ele>1909.298</ele>
        <time>2026-03-13T10:25:26Z</time>
      </trkpt>
      <trkpt lat="45.92835" lon="6.51478">
        <ele>1909.731</ele>
        <time>2026-03-13T10:25:31Z</time>
      </trkpt>
      <trkpt lat="45.92837" lon="6.5148">
        <ele>1909.335</ele>
        <time>2026-03-13T10:25:36Z</time>
      </trkpt>
      <trkpt lat="45.92838" lon="6.5148">
        <ele>1909.149</ele>
        <time>2026-03-13T10:25:41Z</time>
      </trkpt>
      <trkpt lat="45.92838" lon="6.51482">
        <ele>1909.08</ele>
        <time>2026-03-13T10:25:46Z</time>
      </trkpt>
      <trkpt lat="45.92838" lon="6.51483">
        <ele>1909.076</ele>
        <time>2026-03-13T10:25:51Z</time>
      </trkpt>
      <trkpt lat="45.92838" lon="6.51483">
        <ele>1909.069</ele>
        <time>2026-03-13T10:25:56Z</time>
      </trkpt>
      <trkpt lat="45.9284" lon="6.51484">
        <ele>1909.525</ele>
        <time>2026-03-13T10:26:01Z</time>
      </trkpt>
      <trkpt lat="45.92842" lon="6.51489">
        <ele>1909.954</ele>
        <time>2026-03-13T10:26:06Z</time>
      </trkpt>
      <trkpt lat="45.92844" lon="6.51491">
        <ele>1912.579</ele>
        <time>2026-03-13T10:26:11Z</time>
      </trkpt>
      <trkpt lat="45.92846" lon="6.51494">
        <ele>1912.936</ele>
        <time>2026-03-13T10:26:16Z</time>
      </trkpt>
      <trkpt lat="45.92849" lon="6.51497">
        <ele>1913.558</ele>
        <time>2026-03-13T10:26:21Z</time>
      </trkpt>
      <trkpt lat="45.92851" lon="6.51499">
        <ele>1915.178</ele>
        <time>2026-03-13T10:26:26Z</time>
      </trkpt>
      <trkpt lat="45.92852" lon="6.515">
        <ele>1917.073</ele>
        <time>2026-03-13T10:26:31Z</time>
      </trkpt>
      <trkpt lat="45.92853" lon="6.51502">
        <ele>1917.531</ele>
        <time>2026-03-13T10:26:36Z</time>
      </trkpt>
      <trkpt lat="45.92854" lon="6.51504">
        <ele>1918.206</ele>
        <time>2026-03-13T10:26:41Z</time>
      </trkpt>
      <trkpt lat="45.92855" lon="6.51506">
        <ele>1918.572</ele>
        <time>2026-03-13T10:26:46Z</time>
      </trkpt>
      <trkpt lat="45.92855" lon="6.51507">
        <ele>1920.813</ele>
        <time>2026-03-13T10:26:51Z</time>
      </trkpt>
      <trkpt lat="45.92856" lon="6.5151">
        <ele>1921.517</ele>
        <time>2026-03-13T10:26:56Z</time>
      </trkpt>
      <trkpt lat="45.92857" lon="6.51514">
        <ele>1921.281</ele>
        <time>2026-03-13T10:27:01Z</time>
      </trkpt>
      <trkpt lat="45.92856" lon="6.51518">
        <ele>1922.203</ele>
        <time>2026-03-13T10:27:06Z</time>
      </trkpt>
      <trkpt lat="45.92857" lon="6.51521">
        <ele>1924.166</ele>
        <time>2026-03-13T10:27:11Z</time>
      </trkpt>
      <trkpt lat="45.92858" lon="6.51524">
        <ele>1925.387</ele>
        <time>2026-03-13T10:27:16Z</time>
      </trkpt>
      <trkpt lat="45.9286" lon="6.51527">
        <ele>1926.036</ele>
        <time>2026-03-13T10:27:21Z</time>
      </trkpt>
      <trkpt lat="45.92861" lon="6.51529">
        <ele>1925.189</ele>
        <time>2026-03-13T10:27:26Z</time>
      </trkpt>
      <trkpt lat="45.92862" lon="6.51532">
        <ele>1925.429</ele>
        <time>2026-03-13T10:27:31Z</time>
      </trkpt>
      <trkpt lat="45.92863" lon="6.51534">
        <ele>1926.257</ele>
        <time>2026-03-13T10:27:36Z</time>
      </trkpt>
      <trkpt lat="45.92864" lon="6.51537">
        <ele>1926.617</ele>
        <time>2026-03-13T10:27:41Z</time>
      </trkpt>
      <trkpt lat="45.92865" lon="6.5154">
        <ele>1927.924</ele>
        <time>2026-03-13T10:27:46Z</time>
      </trkpt>
      <trkpt lat="45.92865" lon="6.51542">
        <ele>1929.854</ele>
        <time>2026-03-13T10:27:51Z</time>
      </trkpt>
      <trkpt lat="45.92865" lon="6.51545">
        <ele>1930.111</ele>
        <time>2026-03-13T10:27:56Z</time>
      </trkpt>
      <trkpt lat="45.92866" lon="6.51548">
        <ele>1930.999</ele>
        <time>2026-03-13T10:28:01Z</time>
      </trkpt>
      <trkpt lat="45.92867" lon="6.51551">
        <ele>1931.446</ele>
        <time>2026-03-13T10:28:06Z</time>
      </trkpt>
      <trkpt lat="45.92868" lon="6.51555">
        <ele>1933.101</ele>
        <time>2026-03-13T10:28:11Z</time>
      </trkpt>
      <trkpt lat="45.92868" lon="6.51558">
        <ele>1933.749</ele>
        <time>2026-03-13T10:28:16Z</time>
      </trkpt>
      <trkpt lat="45.92869" lon="6.51561">
        <ele>1933.916</ele>
        <time>2026-03-13T10:28:21Z</time>
      </trkpt>
      <trkpt lat="45.92869" lon="6.51564">
        <ele>1933.847</ele>
        <time>2026-03-13T10:28:26Z</time>
      </trkpt>
      <trkpt lat="45.9287" lon="6.51566">
        <ele>1932.985</ele>
        <time>2026-03-13T10:28:31Z</time>
      </trkpt>
      <trkpt lat="45.92871" lon="6.51569">
        <ele>1934.734</ele>
        <time>2026-03-13T10:28:36Z</time>
      </trkpt>
      <trkpt lat="45.92873" lon="6.51573">
        <ele>1934.317</ele>
        <time>2026-03-13T10:28:41Z</time>
      </trkpt>
      <trkpt lat="45.92874" lon="6.51575">
        <ele>1935.663</ele>
        <time>2026-03-13T10:28:46Z</time>
      </trkpt>
      <trkpt lat="45.92876" lon="6.51578">
        <ele>1935.481</ele>
        <time>2026-03-13T10:28:51Z</time>
      </trkpt>
      <trkpt lat="45.92877" lon="6.5158">
        <ele>1936.282</ele>
        <time>2026-03-13T10:28:56Z</time>
      </trkpt>
      <trkpt lat="45.92879" lon="6.51583">
        <ele>1936.947</ele>
        <time>2026-03-13T10:29:01Z</time>
      </trkpt>
      <trkpt lat="45.9288" lon="6.51585">
        <ele>1937.517</ele>
        <time>2026-03-13T10:29:06Z</time>
      </trkpt>
      <trkpt lat="45.92881" lon="6.51588">
        <ele>1938.116</ele>
        <time>2026-03-13T10:29:11Z</time>
      </trkpt>
      <trkpt lat="45.92881" lon="6.51591">
        <ele>1939.552</ele>
        <time>2026-03-13T10:29:16Z</time>
      </trkpt>
      <trkpt lat="45.92882" lon="6.51594">
        <ele>1939.971</ele>
        <time>2026-03-13T10:29:21Z</time>
      </trkpt>
      <trkpt lat="45.92883" lon="6.51596">
        <ele>1939.503</ele>
        <time>2026-03-13T10:29:26Z</time>
      </trkpt>
      <trkpt lat="45.92883" lon="6.51599">
        <ele>1941.378</ele>
        <time>2026-03-13T10:29:31Z</time>
      </trkpt>
      <trkpt lat="45.92884" lon="6.51601">
        <ele>1943.298</ele>
        <time>2026-03-13T10:29:36Z</time>
      </trkpt>
      <trkpt lat="45.92885" lon="6.51604">
        <ele>1943.538</ele>
        <time>2026-03-13T10:29:41Z</time>
      </trkpt>
      <trkpt lat="45.92886" lon="6.51607">
        <ele>1945.085</ele>
        <time>2026-03-13T10:29:46Z</time>
      </trkpt>
      <trkpt lat="45.92887" lon="6.5161">
        <ele>1946.924</ele>
        <time>2026-03-13T10:29:51Z</time>
      </trkpt>
      <trkpt lat="45.92888" lon="6.51613">
        <ele>1948.277</ele>
        <time>2026-03-13T10:29:56Z</time>
      </trkpt>
      <trkpt lat="45.92888" lon="6.51615">
        <ele>1948.099</ele>
        <time>2026-03-13T10:30:01Z</time>
      </trkpt>
      <trkpt lat="45.92889" lon="6.51618">
        <ele>1947.918</ele>
        <time>2026-03-13T10:30:06Z</time>
      </trkpt>
      <trkpt lat="45.92889" lon="6.51621">
        <ele>1948.608</ele>
        <time>2026-03-13T10:30:11Z</time>
      </trkpt>
      <trkpt lat="45.9289" lon="6.51623">
        <ele>1949.395</ele>
        <time>2026-03-13T10:30:16Z</time>
      </trkpt>
      <trkpt lat="45.9289" lon="6.51626">
        <ele>1950.32</ele>
        <time>2026-03-13T10:30:21Z</time>
      </trkpt>
      <trkpt lat="45.92891" lon="6.51629">
        <ele>1952.173</ele>
        <time>2026-03-13T10:30:26Z</time>
      </trkpt>
      <trkpt lat="45.92891" lon="6.51629">
        <ele>1952.238</ele>
        <time>2026-03-13T10:30:31Z</time>
      </trkpt>
      <trkpt lat="45.92891" lon="6.51629">
        <ele>1951.812</ele>
        <time>2026-03-13T10:30:36Z</time>
      </trkpt>
      <trkpt lat="45.9289" lon="6.51629">
        <ele>1951.945</ele>
        <time>2026-03-13T10:30:41Z</time>
      </trkpt>
      <trkpt lat="45.92888" lon="6.51628">
        <ele>1953.55</ele>
        <time>2026-03-13T10:30:46Z</time>
      </trkpt>
      <trkpt lat="45.92885" lon="6.51626">
        <ele>1953.744</ele>
        <time>2026-03-13T10:30:51Z</time>
      </trkpt>
      <trkpt lat="45.92883" lon="6.51625">
        <ele>1954.097</ele>
        <time>2026-03-13T10:30:56Z</time>
      </trkpt>
      <trkpt lat="45.9288" lon="6.51625">
        <ele>1955.351</ele>
        <time>2026-03-13T10:31:01Z</time>
      </trkpt>
      <trkpt lat="45.92878" lon="6.51624">
        <ele>1956.222</ele>
        <time>2026-03-13T10:31:06Z</time>
      </trkpt>
      <trkpt lat="45.92876" lon="6.51624">
        <ele>1956.411</ele>
        <time>2026-03-13T10:31:11Z</time>
      </trkpt>
      <trkpt lat="45.92873" lon="6.51624">
        <ele>1957.282</ele>
        <time>2026-03-13T10:31:16Z</time>
      </trkpt>
      <trkpt lat="45.92872" lon="6.51624">
        <ele>1958.382</ele>
        <time>2026-03-13T10:31:21Z</time>
      </trkpt>
      <trkpt lat="45.92873" lon="6.51627">
        <ele>1959.931</ele>
        <time>2026-03-13T10:31:26Z</time>
      </trkpt>
      <trkpt lat="45.92874" lon="6.5163">
        <ele>1960.228</ele>
        <time>2026-03-13T10:31:31Z</time>
      </trkpt>
      <trkpt lat="45.92874" lon="6.51633">
        <ele>1960.635</ele>
        <time>2026-03-13T10:31:36Z</time>
      </trkpt>
      <trkpt lat="45.92875" lon="6.51637">
        <ele>1961.129</ele>
        <time>2026-03-13T10:31:41Z</time>
      </trkpt>
      <trkpt lat="45.92875" lon="6.5164">
        <ele>1960.463</ele>
        <time>2026-03-13T10:31:46Z</time>
      </trkpt>
      <trkpt lat="45.92876" lon="6.51644">
        <ele>1960.967</ele>
        <time>2026-03-13T10:31:51Z</time>
      </trkpt>
      <trkpt lat="45.92876" lon="6.51646">
        <ele>1961.805</ele>
        <time>2026-03-13T10:31:56Z</time>
      </trkpt>
      <trkpt lat="45.92876" lon="6.51649">
        <ele>1963.318</ele>
        <time>2026-03-13T10:32:01Z</time>
      </trkpt>
      <trkpt lat="45.92878" lon="6.51651">
        <ele>1962.253</ele>
        <time>2026-03-13T10:32:06Z</time>
      </trkpt>
      <trkpt lat="45.92879" lon="6.51654">
        <ele>1962.808</ele>
        <time>2026-03-13T10:32:11Z</time>
      </trkpt>
      <trkpt lat="45.92879" lon="6.51656">
        <ele>1964.125</ele>
        <time>2026-03-13T10:32:16Z</time>
      </trkpt>
      <trkpt lat="45.92878" lon="6.51655">
        <ele>1965.382</ele>
        <time>2026-03-13T10:32:21Z</time>
      </trkpt>
      <trkpt lat="45.92875" lon="6.51655">
        <ele>1967.048</ele>
        <time>2026-03-13T10:32:26Z</time>
      </trkpt>
      <trkpt lat="45.92874" lon="6.51654">
        <ele>1967.132</ele>
        <time>2026-03-13T10:32:31Z</time>
      </trkpt>
      <trkpt lat="45.92872" lon="6.51654">
        <ele>1967.244</ele>
        <time>2026-03-13T10:32:36Z</time>
      </trkpt>
      <trkpt lat="45.9287" lon="6.51654">
        <ele>1968.181</ele>
        <time>2026-03-13T10:32:41Z</time>
      </trkpt>
      <trkpt lat="45.92868" lon="6.51653">
        <ele>1968.938</ele>
        <time>2026-03-13T10:32:46Z</time>
      </trkpt>
      <trkpt lat="45.92866" lon="6.51653">
        <ele>1969.349</ele>
        <time>2026-03-13T10:32:51Z</time>
      </trkpt>
      <trkpt lat="45.92866" lon="6.51653">
        <ele>1969.333</ele>
        <time>2026-03-13T10:32:56Z</time>
      </trkpt>
      <trkpt lat="45.92864" lon="6.51653">
        <ele>1969.226</ele>
        <time>2026-03-13T10:33:01Z</time>
      </trkpt>
      <trkpt lat="45.92863" lon="6.51656">
        <ele>1970.624</ele>
        <time>2026-03-13T10:33:06Z</time>
      </trkpt>
      <trkpt lat="45.92864" lon="6.5166">
        <ele>1969.23</ele>
        <time>2026-03-13T10:33:11Z</time>
      </trkpt>
      <trkpt lat="45.92865" lon="6.51663">
        <ele>1969.715</ele>
        <time>2026-03-13T10:33:16Z</time>
      </trkpt>
      <trkpt lat="45.92866" lon="6.51666">
        <ele>1969.212</ele>
        <time>2026-03-13T10:33:21Z</time>
      </trkpt>
      <trkpt lat="45.92866" lon="6.51669">
        <ele>1969.696</ele>
        <time>2026-03-13T10:33:26Z</time>
      </trkpt>
      <trkpt lat="45.92867" lon="6.51671">
        <ele>1970.235</ele>
        <time>2026-03-13T10:33:31Z</time>
      </trkpt>
      <trkpt lat="45.92867" lon="6.51671">
        <ele>1971.211</ele>
        <time>2026-03-13T10:33:36Z</time>
      </trkpt>
      <trkpt lat="45.92865" lon="6.5167">
        <ele>1972.579</ele>
        <time>2026-03-13T10:33:41Z</time>
      </trkpt>
      <trkpt lat="45.92863" lon="6.51668">
        <ele>1975.09</ele>
        <time>2026-03-13T10:33:46Z</time>
      </trkpt>
      <trkpt lat="45.9286" lon="6.51667">
        <ele>1975.92</ele>
        <time>2026-03-13T10:33:51Z</time>
      </trkpt>
      <trkpt lat="45.92858" lon="6.51666">
        <ele>1976.429</ele>
        <time>2026-03-13T10:33:56Z</time>
      </trkpt>
      <trkpt lat="45.92855" lon="6.51664">
        <ele>1976.417</ele>
        <time>2026-03-13T10:34:01Z</time>
      </trkpt>
      <trkpt lat="45.92853" lon="6.51662">
        <ele>1976.99</ele>
        <time>2026-03-13T10:34:06Z</time>
      </trkpt>
      <trkpt lat="45.92852" lon="6.51661">
        <ele>1977.44</ele>
        <time>2026-03-13T10:34:11Z</time>
      </trkpt>
      <trkpt lat="45.92852" lon="6.51661">
        <ele>1978.577</ele>
        <time>2026-03-13T10:34:16Z</time>
      </trkpt>
      <trkpt lat="45.92852" lon="6.51664">
        <ele>1978.394</ele>
        <time>2026-03-13T10:34:21Z</time>
      </trkpt>
      <trkpt lat="45.92851" lon="6.51667">
        <ele>1978.176</ele>
        <time>2026-03-13T10:34:26Z</time>
      </trkpt>
      <trkpt lat="45.92851" lon="6.5167">
        <ele>1979.074</ele>
        <time>2026-03-13T10:34:31Z</time>
      </trkpt>
      <trkpt lat="45.92851" lon="6.51673">
        <ele>1978.591</ele>
        <time>2026-03-13T10:34:36Z</time>
      </trkpt>
      <trkpt lat="45.92852" lon="6.51676">
        <ele>1979.304</ele>
        <time>2026-03-13T10:34:41Z</time>
      </trkpt>
      <trkpt lat="45.92852" lon="6.51679">
        <ele>1980.021</ele>
        <time>2026-03-13T10:34:46Z</time>
      </trkpt>
      <trkpt lat="45.92853" lon="6.51681">
        <ele>1979.582</ele>
        <time>2026-03-13T10:34:51Z</time>
      </trkpt>
      <trkpt lat="45.92854" lon="6.51684">
        <ele>1980.02</ele>
        <time>2026-03-13T10:34:56Z</time>
      </trkpt>
      <trkpt lat="45.92854" lon="6.51686">
        <ele>1980.2</ele>
        <time>2026-03-13T10:35:01Z</time>
      </trkpt>
      <trkpt lat="45.92854" lon="6.51688">
        <ele>1980.93</ele>
        <time>2026-03-13T10:35:06Z</time>
      </trkpt>
      <trkpt lat="45.92853" lon="6.51688">
        <ele>1982.454</ele>
        <time>2026-03-13T10:35:11Z</time>
      </trkpt>
      <trkpt lat="45.9285" lon="6.51687">
        <ele>1983.946</ele>
        <time>2026-03-13T10:35:16Z</time>
      </trkpt>
      <trkpt lat="45.92848" lon="6.51686">
        <ele>1985.093</ele>
        <time>2026-03-13T10:35:21Z</time>
      </trkpt>
      <trkpt lat="45.92846" lon="6.51686">
        <ele>1986.48</ele>
        <time>2026-03-13T10:35:26Z</time>
      </trkpt>
      <trkpt lat="45.92844" lon="6.51685">
        <ele>1986.963</ele>
        <time>2026-03-13T10:35:31Z</time>
      </trkpt>
      <trkpt lat="45.92842" lon="6.51685">
        <ele>1987.495</ele>
        <time>2026-03-13T10:35:36Z</time>
      </trkpt>
      <trkpt lat="45.92841" lon="6.51685">
        <ele>1988.439</ele>
        <time>2026-03-13T10:35:41Z</time>
      </trkpt>
      <trkpt lat="45.92839" lon="6.51684">
        <ele>1989.036</ele>
        <time>2026-03-13T10:35:46Z</time>
      </trkpt>
      <trkpt lat="45.92836" lon="6.51683">
        <ele>1989.205</ele>
        <time>2026-03-13T10:35:51Z</time>
      </trkpt>
      <trkpt lat="45.92834" lon="6.51683">
        <ele>1990.052</ele>
        <time>2026-03-13T10:35:56Z</time>
      </trkpt>
      <trkpt lat="45.92835" lon="6.51687">
        <ele>1990.024</ele>
        <time>2026-03-13T10:36:01Z</time>
      </trkpt>
      <trkpt lat="45.92836" lon="6.5169">
        <ele>1989.379</ele>
        <time>2026-03-13T10:36:06Z</time>
      </trkpt>
      <trkpt lat="45.92836" lon="6.51692">
        <ele>1989.818</ele>
        <time>2026-03-13T10:36:11Z</time>
      </trkpt>
      <trkpt lat="45.92836" lon="6.51695">
        <ele>1990.337</ele>
        <time>2026-03-13T10:36:16Z</time>
      </trkpt>
      <trkpt lat="45.92836" lon="6.51698">
        <ele>1990.214</ele>
        <time>2026-03-13T10:36:21Z</time>
      </trkpt>
      <trkpt lat="45.92836" lon="6.51701">
        <ele>1990.531</ele>
        <time>2026-03-13T10:36:26Z</time>
      </trkpt>
      <trkpt lat="45.92836" lon="6.51704">
        <ele>1991.177</ele>
        <time>2026-03-13T10:36:31Z</time>
      </trkpt>
      <trkpt lat="45.92837" lon="6.51706">
        <ele>1991.506</ele>
        <time>2026-03-13T10:36:36Z</time>
      </trkpt>
      <trkpt lat="45.92836" lon="6.51705">
        <ele>1992.697</ele>
        <time>2026-03-13T10:36:41Z</time>
      </trkpt>
      <trkpt lat="45.92833" lon="6.51705">
        <ele>1993.612</ele>
        <time>2026-03-13T10:36:46Z</time>
      </trkpt>
      <trkpt lat="45.92831" lon="6.51704">
        <ele>1994.97</ele>
        <time>2026-03-13T10:36:51Z</time>
      </trkpt>
      <trkpt lat="45.92829" lon="6.51704">
        <ele>1995.728</ele>
        <time>2026-03-13T10:36:56Z</time>
      </trkpt>
      <trkpt lat="45.92826" lon="6.51703">
        <ele>1996.121</ele>
        <time>2026-03-13T10:37:01Z</time>
      </trkpt>
      <trkpt lat="45.92825" lon="6.51703">
        <ele>1997.516</ele>
        <time>2026-03-13T10:37:06Z</time>
      </trkpt>
      <trkpt lat="45.92822" lon="6.51702">
        <ele>1998.797</ele>
        <time>2026-03-13T10:37:11Z</time>
      </trkpt>
      <trkpt lat="45.9282" lon="6.51701">
        <ele>1999.482</ele>
        <time>2026-03-13T10:37:16Z</time>
      </trkpt>
      <trkpt lat="45.92818" lon="6.517">
        <ele>2000.474</ele>
        <time>2026-03-13T10:37:21Z</time>
      </trkpt>
      <trkpt lat="45.92816" lon="6.517">
        <ele>2001.158</ele>
        <time>2026-03-13T10:37:26Z</time>
      </trkpt>
      <trkpt lat="45.92814" lon="6.517">
        <ele>2001.738</ele>
        <time>2026-03-13T10:37:31Z</time>
      </trkpt>
      <trkpt lat="45.92814" lon="6.51703">
        <ele>2001.686</ele>
        <time>2026-03-13T10:37:36Z</time>
      </trkpt>
      <trkpt lat="45.92814" lon="6.51706">
        <ele>2001.607</ele>
        <time>2026-03-13T10:37:41Z</time>
      </trkpt>
      <trkpt lat="45.92814" lon="6.5171">
        <ele>2001.749</ele>
        <time>2026-03-13T10:37:46Z</time>
      </trkpt>
      <trkpt lat="45.92813" lon="6.51714">
        <ele>2001.878</ele>
        <time>2026-03-13T10:37:51Z</time>
      </trkpt>
      <trkpt lat="45.92813" lon="6.51717">
        <ele>2002.655</ele>
        <time>2026-03-13T10:37:56Z</time>
      </trkpt>
      <trkpt lat="45.92813" lon="6.5172">
        <ele>2002.311</ele>
        <time>2026-03-13T10:38:01Z</time>
      </trkpt>
      <trkpt lat="45.92813" lon="6.51723">
        <ele>2003.842</ele>
        <time>2026-03-13T10:38:06Z</time>
      </trkpt>
      <trkpt lat="45.92813" lon="6.51724">
        <ele>2004.113</ele>
        <time>2026-03-13T10:38:11Z</time>
      </trkpt>
      <trkpt lat="45.92813" lon="6.51726">
        <ele>2004.257</ele>
        <time>2026-03-13T10:38:16Z</time>
      </trkpt>
      <trkpt lat="45.92813" lon="6.51726">
        <ele>2004.267</ele>
        <time>2026-03-13T10:38:21Z</time>
      </trkpt>
      <trkpt lat="45.92813" lon="6.51726">
        <ele>2004.261</ele>
        <time>2026-03-13T10:38:26Z</time>
      </trkpt>
      <trkpt lat="45.92813" lon="6.51726">
        <ele>2004.26</ele>
        <time>2026-03-13T10:38:31Z</time>
      </trkpt>
      <trkpt lat="45.92813" lon="6.51726">
        <ele>2004.266</ele>
        <time>2026-03-13T10:38:36Z</time>
      </trkpt>
      <trkpt lat="45.92813" lon="6.51726">
        <ele>2004.265</ele>
        <time>2026-03-13T10:38:41Z</time>
      </trkpt>
      <trkpt lat="45.92813" lon="6.51726">
        <ele>2004.272</ele>
        <time>2026-03-13T10:38:46Z</time>
      </trkpt>
      <trkpt lat="45.92813" lon="6.51726">
        <ele>2004.264</ele>
        <time>2026-03-13T10:38:51Z</time>
      </trkpt>
      <trkpt lat="45.92813" lon="6.51726">
        <ele>2004.256</ele>
        <time>2026-03-13T10:38:56Z</time>
      </trkpt>
      <trkpt lat="45.92813" lon="6.51726">
        <ele>2004.26</ele>
        <time>2026-03-13T10:39:01Z</time>
      </trkpt>
      <trkpt lat="45.92813" lon="6.51726">
        <ele>2004.266</ele>
        <time>2026-03-13T10:39:06Z</time>
      </trkpt>
      <trkpt lat="45.92813" lon="6.51726">
        <ele>2004.265</ele>
        <time>2026-03-13T10:39:11Z</time>
      </trkpt>
      <trkpt lat="45.92813" lon="6.51726">
        <ele>2005.15</ele>
        <time>2026-03-13T10:39:16Z</time>
      </trkpt>
      <trkpt lat="45.92813" lon="6.51726">
        <ele>2005.159</ele>
        <time>2026-03-13T10:39:21Z</time>
      </trkpt>
      <trkpt lat="45.92813" lon="6.51726">
        <ele>2005.157</ele>
        <time>2026-03-13T10:39:26Z</time>
      </trkpt>
      <trkpt lat="45.92813" lon="6.51726">
        <ele>2005.299</ele>
        <time>2026-03-13T10:39:31Z</time>
      </trkpt>
      <trkpt lat="45.92813" lon="6.51726">
        <ele>2005.312</ele>
        <time>2026-03-13T10:39:36Z</time>
      </trkpt>
      <trkpt lat="45.92813" lon="6.51726">
        <ele>2005.322</ele>
        <time>2026-03-13T10:39:41Z</time>
      </trkpt>
      <trkpt lat="45.92813" lon="6.51726">
        <ele>2005.327</ele>
        <time>2026-03-13T10:39:46Z</time>
      </trkpt>
      <trkpt lat="45.92813" lon="6.51726">
        <ele>2005.341</ele>
        <time>2026-03-13T10:39:51Z</time>
      </trkpt>
      <trkpt lat="45.92813" lon="6.51726">
        <ele>2005.353</ele>
        <time>2026-03-13T10:39:56Z</time>
      </trkpt>
      <trkpt lat="45.92813" lon="6.51726">
        <ele>2005.366</ele>
        <time>2026-03-13T10:40:01Z</time>
      </trkpt>
      <trkpt lat="45.92813" lon="6.51726">
        <ele>2005.377</ele>
        <time>2026-03-13T10:40:06Z</time>
      </trkpt>
      <trkpt lat="45.92813" lon="6.51726">
        <ele>2005.384</ele>
        <time>2026-03-13T10:40:11Z</time>
      </trkpt>
      <trkpt lat="45.92813" lon="6.51726">
        <ele>2005.389</ele>
        <time>2026-03-13T10:40:16Z</time>
      </trkpt>
      <trkpt lat="45.92813" lon="6.51726">
        <ele>2005.393</ele>
        <time>2026-03-13T10:40:21Z</time>
      </trkpt>
      <trkpt lat="45.92813" lon="6.51726">
        <ele>2005.411</ele>
        <time>2026-03-13T10:40:26Z</time>
      </trkpt>
      <trkpt lat="45.92813" lon="6.51726">
        <ele>2005.406</ele>
        <time>2026-03-13T10:40:31Z</time>
      </trkpt>
      <trkpt lat="45.92813" lon="6.51726">
        <ele>2005.413</ele>
        <time>2026-03-13T10:40:36Z</time>
      </trkpt>
      <trkpt lat="45.92813" lon="6.51726">
        <ele>2005.417</ele>
        <time>2026-03-13T10:40:41Z</time>
      </trkpt>
      <trkpt lat="45.92813" lon="6.51726">
        <ele>2005.421</ele>
        <time>2026-03-13T10:40:46Z</time>
      </trkpt>
      <trkpt lat="45.92813" lon="6.51726">
        <ele>2005.541</ele>
        <time>2026-03-13T10:40:51Z</time>
      </trkpt>
      <trkpt lat="45.92813" lon="6.51726">
        <ele>2005.556</ele>
        <time>2026-03-13T10:40:56Z</time>
      </trkpt>
      <trkpt lat="45.92813" lon="6.51726">
        <ele>2005.558</ele>
        <time>2026-03-13T10:41:01Z</time>
      </trkpt>
      <trkpt lat="45.92813" lon="6.51726">
        <ele>2005.56</ele>
        <time>2026-03-13T10:41:06Z</time>
      </trkpt>
      <trkpt lat="45.92813" lon="6.51726">
        <ele>2005.56</ele>
        <time>2026-03-13T10:41:11Z</time>
      </trkpt>
      <trkpt lat="45.92813" lon="6.51726">
        <ele>2005.555</ele>
        <time>2026-03-13T10:41:16Z</time>
      </trkpt>
      <trkpt lat="45.92813" lon="6.51726">
        <ele>2005.559</ele>
        <time>2026-03-13T10:41:21Z</time>
      </trkpt>
      <trkpt lat="45.92813" lon="6.51726">
        <ele>2005.557</ele>
        <time>2026-03-13T10:41:26Z</time>
      </trkpt>
      <trkpt lat="45.92813" lon="6.51726">
        <ele>2005.559</ele>
        <time>2026-03-13T10:41:31Z</time>
      </trkpt>
      <trkpt lat="45.92813" lon="6.51726">
        <ele>2005.563</ele>
        <time>2026-03-13T10:41:36Z</time>
      </trkpt>
      <trkpt lat="45.92813" lon="6.51726">
        <ele>2005.568</ele>
        <time>2026-03-13T10:41:41Z</time>
      </trkpt>
      <trkpt lat="45.92813" lon="6.51726">
        <ele>2005.571</ele>
        <time>2026-03-13T10:41:46Z</time>
      </trkpt>
      <trkpt lat="45.92813" lon="6.51726">
        <ele>2005.577</ele>
        <time>2026-03-13T10:41:51Z</time>
      </trkpt>
      <trkpt lat="45.92813" lon="6.51726">
        <ele>2005.578</ele>
        <time>2026-03-13T10:41:56Z</time>
      </trkpt>
      <trkpt lat="45.92813" lon="6.51726">
        <ele>2005.584</ele>
        <time>2026-03-13T10:42:01Z</time>
      </trkpt>
      <trkpt lat="45.92813" lon="6.51726">
        <ele>2005.592</ele>
        <time>2026-03-13T10:42:06Z</time>
      </trkpt>
      <trkpt lat="45.92813" lon="6.51726">
        <ele>2005.602</ele>
        <time>2026-03-13T10:42:11Z</time>
      </trkpt>
      <trkpt lat="45.92813" lon="6.51726">
        <ele>2005.61</ele>
        <time>2026-03-13T10:42:16Z</time>
      </trkpt>
      <trkpt lat="45.92813" lon="6.51726">
        <ele>2005.614</ele>
        <time>2026-03-13T10:42:21Z</time>
      </trkpt>
      <trkpt lat="45.92813" lon="6.51726">
        <ele>2005.621</ele>
        <time>2026-03-13T10:42:26Z</time>
      </trkpt>
      <trkpt lat="45.92813" lon="6.51726">
        <ele>2005.622</ele>
        <time>2026-03-13T10:42:31Z</time>
      </trkpt>
      <trkpt lat="45.92813" lon="6.51726">
        <ele>2005.626</ele>
        <time>2026-03-13T10:42:36Z</time>
      </trkpt>
      <trkpt lat="45.92813" lon="6.51726">
        <ele>2005.637</ele>
        <time>2026-03-13T10:42:41Z</time>
      </trkpt>
      <trkpt lat="45.92813" lon="6.51726">
        <ele>2005.64</ele>
        <time>2026-03-13T10:42:46Z</time>
      </trkpt>
      <trkpt lat="45.92813" lon="6.51726">
        <ele>2005.651</ele>
        <time>2026-03-13T10:42:51Z</time>
      </trkpt>
      <trkpt lat="45.92813" lon="6.51726">
        <ele>2005.652</ele>
        <time>2026-03-13T10:42:56Z</time>
      </trkpt>
      <trkpt lat="45.92813" lon="6.51726">
        <ele>2005.666</ele>
        <time>2026-03-13T10:43:01Z</time>
      </trkpt>
      <trkpt lat="45.92813" lon="6.51726">
        <ele>2005.673</ele>
        <time>2026-03-13T10:43:06Z</time>
      </trkpt>
      <trkpt lat="45.92813" lon="6.51726">
        <ele>2005.678</ele>
        <time>2026-03-13T10:43:11Z</time>
      </trkpt>
      <trkpt lat="45.92813" lon="6.51726">
        <ele>2005.688</ele>
        <time>2026-03-13T10:43:16Z</time>
      </trkpt>
      <trkpt lat="45.92813" lon="6.51726">
        <ele>2005.697</ele>
        <time>2026-03-13T10:43:21Z</time>
      </trkpt>
      <trkpt lat="45.92813" lon="6.51726">
        <ele>2005.701</ele>
        <time>2026-03-13T10:43:26Z</time>
      </trkpt>
      <trkpt lat="45.92813" lon="6.51726">
        <ele>2005.711</ele>
        <time>2026-03-13T10:43:31Z</time>
      </trkpt>
      <trkpt lat="45.92813" lon="6.51726">
        <ele>2005.72</ele>
        <time>2026-03-13T10:43:36Z</time>
      </trkpt>
      <trkpt lat="45.92813" lon="6.51726">
        <ele>2005.734</ele>
        <time>2026-03-13T10:43:41Z</time>
      </trkpt>
      <trkpt lat="45.92813" lon="6.51726">
        <ele>2005.745</ele>
        <time>2026-03-13T10:43:46Z</time>
      </trkpt>
      <trkpt lat="45.92813" lon="6.51726">
        <ele>2005.752</ele>
        <time>2026-03-13T10:43:51Z</time>
      </trkpt>
      <trkpt lat="45.92813" lon="6.51725">
        <ele>2006.319</ele>
        <time>2026-03-13T10:43:56Z</time>
      </trkpt>
      <trkpt lat="45.92813" lon="6.51725">
        <ele>2006.332</ele>
        <time>2026-03-13T10:44:01Z</time>
      </trkpt>
      <trkpt lat="45.92813" lon="6.51725">
        <ele>2006.34</ele>
        <time>2026-03-13T10:44:06Z</time>
      </trkpt>
      <trkpt lat="45.92813" lon="6.51725">
        <ele>2006.351</ele>
        <time>2026-03-13T10:44:11Z</time>
      </trkpt>
      <trkpt lat="45.92813" lon="6.51725">
        <ele>2006.353</ele>
        <time>2026-03-13T10:44:16Z</time>
      </trkpt>
      <trkpt lat="45.92812" lon="6.51726">
        <ele>2007.518</ele>
        <time>2026-03-13T10:44:21Z</time>
      </trkpt>
      <trkpt lat="45.9281" lon="6.51727">
        <ele>2008.158</ele>
        <time>2026-03-13T10:44:26Z</time>
      </trkpt>
      <trkpt lat="45.92809" lon="6.51728">
        <ele>2009.452</ele>
        <time>2026-03-13T10:44:31Z</time>
      </trkpt>
      <trkpt lat="45.92806" lon="6.51729">
        <ele>2010.229</ele>
        <time>2026-03-13T10:44:36Z</time>
      </trkpt>
      <trkpt lat="45.92804" lon="6.5173">
        <ele>2011.433</ele>
        <time>2026-03-13T10:44:41Z</time>
      </trkpt>
      <trkpt lat="45.92802" lon="6.51731">
        <ele>2012.198</ele>
        <time>2026-03-13T10:44:46Z</time>
      </trkpt>
      <trkpt lat="45.928" lon="6.51732">
        <ele>2013.134</ele>
        <time>2026-03-13T10:44:51Z</time>
      </trkpt>
      <trkpt lat="45.92798" lon="6.51733">
        <ele>2013.835</ele>
        <time>2026-03-13T10:44:56Z</time>
      </trkpt>
      <trkpt lat="45.92796" lon="6.51734">
        <ele>2014.714</ele>
        <time>2026-03-13T10:45:01Z</time>
      </trkpt>
      <trkpt lat="45.92794" lon="6.51735">
        <ele>2016.05</ele>
        <time>2026-03-13T10:45:06Z</time>
      </trkpt>
      <trkpt lat="45.92792" lon="6.51736">
        <ele>2016.631</ele>
        <time>2026-03-13T10:45:11Z</time>
      </trkpt>
      <trkpt lat="45.9279" lon="6.51738">
        <ele>2017.022</ele>
        <time>2026-03-13T10:45:16Z</time>
      </trkpt>
      <trkpt lat="45.92788" lon="6.51738">
        <ele>2018.278</ele>
        <time>2026-03-13T10:45:21Z</time>
      </trkpt>
      <trkpt lat="45.92785" lon="6.5174">
        <ele>2019.118</ele>
        <time>2026-03-13T10:45:26Z</time>
      </trkpt>
      <trkpt lat="45.92784" lon="6.51741">
        <ele>2019.748</ele>
        <time>2026-03-13T10:45:31Z</time>
      </trkpt>
      <trkpt lat="45.92782" lon="6.51742">
        <ele>2020.819</ele>
        <time>2026-03-13T10:45:36Z</time>
      </trkpt>
      <trkpt lat="45.9278" lon="6.51743">
        <ele>2021.363</ele>
        <time>2026-03-13T10:45:41Z</time>
      </trkpt>
      <trkpt lat="45.92778" lon="6.51745">
        <ele>2022.155</ele>
        <time>2026-03-13T10:45:46Z</time>
      </trkpt>
      <trkpt lat="45.92776" lon="6.51746">
        <ele>2022.958</ele>
        <time>2026-03-13T10:45:51Z</time>
      </trkpt>
      <trkpt lat="45.92774" lon="6.51747">
        <ele>2023.657</ele>
        <time>2026-03-13T10:45:56Z</time>
      </trkpt>
      <trkpt lat="45.92772" lon="6.51749">
        <ele>2024.46</ele>
        <time>2026-03-13T10:46:01Z</time>
      </trkpt>
      <trkpt lat="45.9277" lon="6.5175">
        <ele>2025.576</ele>
        <time>2026-03-13T10:46:06Z</time>
      </trkpt>
      <trkpt lat="45.92768" lon="6.51751">
        <ele>2026.856</ele>
        <time>2026-03-13T10:46:11Z</time>
      </trkpt>
      <trkpt lat="45.92766" lon="6.51752">
        <ele>2027.768</ele>
        <time>2026-03-13T10:46:16Z</time>
      </trkpt>
      <trkpt lat="45.92764" lon="6.51754">
        <ele>2027.903</ele>
        <time>2026-03-13T10:46:21Z</time>
      </trkpt>
      <trkpt lat="45.92762" lon="6.51756">
        <ele>2028.313</ele>
        <time>2026-03-13T10:46:26Z</time>
      </trkpt>
      <trkpt lat="45.92761" lon="6.51756">
        <ele>2028.909</ele>
        <time>2026-03-13T10:46:31Z</time>
      </trkpt>
      <trkpt lat="45.9276" lon="6.51757">
        <ele>2028.933</ele>
        <time>2026-03-13T10:46:36Z</time>
      </trkpt>
      <trkpt lat="45.92758" lon="6.51758">
        <ele>2029.564</ele>
        <time>2026-03-13T10:46:41Z</time>
      </trkpt>
      <trkpt lat="45.92759" lon="6.51761">
        <ele>2029.41</ele>
        <time>2026-03-13T10:46:46Z</time>
      </trkpt>
      <trkpt lat="45.92759" lon="6.51762">
        <ele>2029.295</ele>
        <time>2026-03-13T10:46:51Z</time>
      </trkpt>
      <trkpt lat="45.92759" lon="6.51762">
        <ele>2029.282</ele>
        <time>2026-03-13T10:46:56Z</time>
      </trkpt>
      <trkpt lat="45.92759" lon="6.51762">
        <ele>2029.269</ele>
        <time>2026-03-13T10:47:01Z</time>
      </trkpt>
      <trkpt lat="45.9276" lon="6.51763">
        <ele>2028.984</ele>
        <time>2026-03-13T10:47:06Z</time>
      </trkpt>
      <trkpt lat="45.92762" lon="6.51765">
        <ele>2029.351</ele>
        <time>2026-03-13T10:47:11Z</time>
      </trkpt>
      <trkpt lat="45.92762" lon="6.51766">
        <ele>2029.796</ele>
        <time>2026-03-13T10:47:16Z</time>
      </trkpt>
      <trkpt lat="45.92762" lon="6.51766">
        <ele>2029.511</ele>
        <time>2026-03-13T10:47:21Z</time>
      </trkpt>
      <trkpt lat="45.92762" lon="6.51767">
        <ele>2029.731</ele>
        <time>2026-03-13T10:47:26Z</time>
      </trkpt>
      <trkpt lat="45.92763" lon="6.5177">
        <ele>2030.216</ele>
        <time>2026-03-13T10:47:31Z</time>
      </trkpt>
      <trkpt lat="45.92765" lon="6.51772">
        <ele>2029.978</ele>
        <time>2026-03-13T10:47:36Z</time>
      </trkpt>
      <trkpt lat="45.92766" lon="6.51775">
        <ele>2031.178</ele>
        <time>2026-03-13T10:47:41Z</time>
      </trkpt>
      <trkpt lat="45.92768" lon="6.51778">
        <ele>2031.967</ele>
        <time>2026-03-13T10:47:46Z</time>
      </trkpt>
      <trkpt lat="45.92768" lon="6.51778">
        <ele>2032.984</ele>
        <time>2026-03-13T10:47:51Z</time>
      </trkpt>
      <trkpt lat="45.92768" lon="6.51778">
        <ele>2035.042</ele>
        <time>2026-03-13T10:47:56Z</time>
      </trkpt>
      <trkpt lat="45.92768" lon="6.51778">
        <ele>2036.967</ele>
        <time>2026-03-13T10:48:01Z</time>
      </trkpt>
      <trkpt lat="45.92763" lon="6.51779">
        <ele>2037.021</ele>
        <time>2026-03-13T10:48:06Z</time>
      </trkpt>
      <trkpt lat="45.92761" lon="6.51781">
        <ele>2037.854</ele>
        <time>2026-03-13T10:48:11Z</time>
      </trkpt>
      <trkpt lat="45.92761" lon="6.51781">
        <ele>2038.514</ele>
        <time>2026-03-13T10:48:16Z</time>
      </trkpt>
      <trkpt lat="45.92762" lon="6.51784">
        <ele>2038.158</ele>
        <time>2026-03-13T10:48:21Z</time>
      </trkpt>
      <trkpt lat="45.92764" lon="6.51787">
        <ele>2037.873</ele>
        <time>2026-03-13T10:48:26Z</time>
      </trkpt>
      <trkpt lat="45.92765" lon="6.51789">
        <ele>2038.818</ele>
        <time>2026-03-13T10:48:31Z</time>
      </trkpt>
      <trkpt lat="45.92767" lon="6.51791">
        <ele>2039.489</ele>
        <time>2026-03-13T10:48:36Z</time>
      </trkpt>
      <trkpt lat="45.92767" lon="6.51794">
        <ele>2039.601</ele>
        <time>2026-03-13T10:48:41Z</time>
      </trkpt>
      <trkpt lat="45.92769" lon="6.51796">
        <ele>2040.571</ele>
        <time>2026-03-13T10:48:46Z</time>
      </trkpt>
      <trkpt lat="45.9277" lon="6.51798">
        <ele>2041.169</ele>
        <time>2026-03-13T10:48:51Z</time>
      </trkpt>
      <trkpt lat="45.92772" lon="6.51802">
        <ele>2042.262</ele>
        <time>2026-03-13T10:48:56Z</time>
      </trkpt>
      <trkpt lat="45.92773" lon="6.51804">
        <ele>2042.993</ele>
        <time>2026-03-13T10:49:01Z</time>
      </trkpt>
      <trkpt lat="45.92774" lon="6.51806">
        <ele>2044.376</ele>
        <time>2026-03-13T10:49:06Z</time>
      </trkpt>
      <trkpt lat="45.92775" lon="6.51809">
        <ele>2045.641</ele>
        <time>2026-03-13T10:49:11Z</time>
      </trkpt>
      <trkpt lat="45.92776" lon="6.51811">
        <ele>2046.769</ele>
        <time>2026-03-13T10:49:16Z</time>
      </trkpt>
      <trkpt lat="45.92777" lon="6.51813">
        <ele>2047.068</ele>
        <time>2026-03-13T10:49:21Z</time>
      </trkpt>
      <trkpt lat="45.92777" lon="6.51814">
        <ele>2047.274</ele>
        <time>2026-03-13T10:49:26Z</time>
      </trkpt>
      <trkpt lat="45.92778" lon="6.51814">
        <ele>2048.268</ele>
        <time>2026-03-13T10:49:31Z</time>
      </trkpt>
      <trkpt lat="45.92777" lon="6.51815">
        <ele>2048.867</ele>
        <time>2026-03-13T10:49:36Z</time>
      </trkpt>
      <trkpt lat="45.92775" lon="6.51815">
        <ele>2050.915</ele>
        <time>2026-03-13T10:49:41Z</time>
      </trkpt>
      <trkpt lat="45.92773" lon="6.51814">
        <ele>2051.102</ele>
        <time>2026-03-13T10:49:46Z</time>
      </trkpt>
      <trkpt lat="45.9277" lon="6.51813">
        <ele>2052.782</ele>
        <time>2026-03-13T10:49:51Z</time>
      </trkpt>
      <trkpt lat="45.92768" lon="6.51814">
        <ele>2053.214</ele>
        <time>2026-03-13T10:49:56Z</time>
      </trkpt>
      <trkpt lat="45.92766" lon="6.51815">
        <ele>2053.518</ele>
        <time>2026-03-13T10:50:01Z</time>
      </trkpt>
      <trkpt lat="45.92765" lon="6.51817">
        <ele>2053.542</ele>
        <time>2026-03-13T10:50:06Z</time>
      </trkpt>
      <trkpt lat="45.92763" lon="6.51818">
        <ele>2054.419</ele>
        <time>2026-03-13T10:50:11Z</time>
      </trkpt>
      <trkpt lat="45.92761" lon="6.5182">
        <ele>2054.761</ele>
        <time>2026-03-13T10:50:16Z</time>
      </trkpt>
      <trkpt lat="45.92759" lon="6.51821">
        <ele>2055.693</ele>
        <time>2026-03-13T10:50:21Z</time>
      </trkpt>
      <trkpt lat="45.92756" lon="6.51822">
        <ele>2056.132</ele>
        <time>2026-03-13T10:50:26Z</time>
      </trkpt>
      <trkpt lat="45.92755" lon="6.51823">
        <ele>2056.899</ele>
        <time>2026-03-13T10:50:31Z</time>
      </trkpt>
      <trkpt lat="45.92752" lon="6.51823">
        <ele>2058.064</ele>
        <time>2026-03-13T10:50:36Z</time>
      </trkpt>
      <trkpt lat="45.9275" lon="6.51824">
        <ele>2058.425</ele>
        <time>2026-03-13T10:50:41Z</time>
      </trkpt>
      <trkpt lat="45.92748" lon="6.51824">
        <ele>2058.917</ele>
        <time>2026-03-13T10:50:46Z</time>
      </trkpt>
      <trkpt lat="45.92746" lon="6.51824">
        <ele>2060.062</ele>
        <time>2026-03-13T10:50:51Z</time>
      </trkpt>
      <trkpt lat="45.92744" lon="6.51824">
        <ele>2060.65</ele>
        <time>2026-03-13T10:50:56Z</time>
      </trkpt>
      <trkpt lat="45.92742" lon="6.51824">
        <ele>2061.123</ele>
        <time>2026-03-13T10:51:01Z</time>
      </trkpt>
      <trkpt lat="45.92741" lon="6.51824">
        <ele>2061.092</ele>
        <time>2026-03-13T10:51:06Z</time>
      </trkpt>
      <trkpt lat="45.92739" lon="6.51824">
        <ele>2061.484</ele>
        <time>2026-03-13T10:51:11Z</time>
      </trkpt>
      <trkpt lat="45.92737" lon="6.51824">
        <ele>2062.31</ele>
        <time>2026-03-13T10:51:16Z</time>
      </trkpt>
      <trkpt lat="45.92736" lon="6.51824">
        <ele>2062.545</ele>
        <time>2026-03-13T10:51:21Z</time>
      </trkpt>
      <trkpt lat="45.92735" lon="6.51824">
        <ele>2062.637</ele>
        <time>2026-03-13T10:51:26Z</time>
      </trkpt>
      <trkpt lat="45.92734" lon="6.51822">
        <ele>2063.584</ele>
        <time>2026-03-13T10:51:31Z</time>
      </trkpt>
      <trkpt lat="45.92733" lon="6.51822">
        <ele>2063.115</ele>
        <time>2026-03-13T10:51:36Z</time>
      </trkpt>
      <trkpt lat="45.92733" lon="6.51824">
        <ele>2062.745</ele>
        <time>2026-03-13T10:51:41Z</time>
      </trkpt>
      <trkpt lat="45.92734" lon="6.51827">
        <ele>2062.621</ele>
        <time>2026-03-13T10:51:46Z</time>
      </trkpt>
      <trkpt lat="45.92734" lon="6.51829">
        <ele>2063.025</ele>
        <time>2026-03-13T10:51:51Z</time>
      </trkpt>
      <trkpt lat="45.92735" lon="6.51831">
        <ele>2062.946</ele>
        <time>2026-03-13T10:51:56Z</time>
      </trkpt>
      <trkpt lat="45.92735" lon="6.51833">
        <ele>2063.781</ele>
        <time>2026-03-13T10:52:01Z</time>
      </trkpt>
      <trkpt lat="45.92736" lon="6.51835">
        <ele>2063.628</ele>
        <time>2026-03-13T10:52:06Z</time>
      </trkpt>
      <trkpt lat="45.92737" lon="6.51838">
        <ele>2063.777</ele>
        <time>2026-03-13T10:52:11Z</time>
      </trkpt>
      <trkpt lat="45.92738" lon="6.51841">
        <ele>2066.581</ele>
        <time>2026-03-13T10:52:16Z</time>
      </trkpt>
      <trkpt lat="45.92738" lon="6.51843">
        <ele>2066.295</ele>
        <time>2026-03-13T10:52:21Z</time>
      </trkpt>
      <trkpt lat="45.92739" lon="6.51845">
        <ele>2066.923</ele>
        <time>2026-03-13T10:52:26Z</time>
      </trkpt>
      <trkpt lat="45.9274" lon="6.51847">
        <ele>2067.485</ele>
        <time>2026-03-13T10:52:31Z</time>
      </trkpt>
      <trkpt lat="45.92741" lon="6.51849">
        <ele>2068.2</ele>
        <time>2026-03-13T10:52:36Z</time>
      </trkpt>
      <trkpt lat="45.92742" lon="6.51851">
        <ele>2068.303</ele>
        <time>2026-03-13T10:52:41Z</time>
      </trkpt>
      <trkpt lat="45.92743" lon="6.51853">
        <ele>2068.384</ele>
        <time>2026-03-13T10:52:46Z</time>
      </trkpt>
      <trkpt lat="45.92744" lon="6.51855">
        <ele>2069.885</ele>
        <time>2026-03-13T10:52:51Z</time>
      </trkpt>
      <trkpt lat="45.92745" lon="6.51858">
        <ele>2070.732</ele>
        <time>2026-03-13T10:52:56Z</time>
      </trkpt>
      <trkpt lat="45.92746" lon="6.51859">
        <ele>2071.4</ele>
        <time>2026-03-13T10:53:01Z</time>
      </trkpt>
      <trkpt lat="45.92748" lon="6.51862">
        <ele>2072.792</ele>
        <time>2026-03-13T10:53:06Z</time>
      </trkpt>
      <trkpt lat="45.92749" lon="6.51864">
        <ele>2073.879</ele>
        <time>2026-03-13T10:53:11Z</time>
      </trkpt>
      <trkpt lat="45.92751" lon="6.51865">
        <ele>2074.402</ele>
        <time>2026-03-13T10:53:16Z</time>
      </trkpt>
      <trkpt lat="45.92751" lon="6.51865">
        <ele>2074.533</ele>
        <time>2026-03-13T10:53:21Z</time>
      </trkpt>
      <trkpt lat="45.92751" lon="6.51865">
        <ele>2074.537</ele>
        <time>2026-03-13T10:53:26Z</time>
      </trkpt>
      <trkpt lat="45.92751" lon="6.51865">
        <ele>2075.178</ele>
        <time>2026-03-13T10:53:31Z</time>
      </trkpt>
      <trkpt lat="45.92751" lon="6.51865">
        <ele>2075.688</ele>
        <time>2026-03-13T10:53:36Z</time>
      </trkpt>
      <trkpt lat="45.92751" lon="6.51865">
        <ele>2077.179</ele>
        <time>2026-03-13T10:53:41Z</time>
      </trkpt>
      <trkpt lat="45.92751" lon="6.51865">
        <ele>2077.27</ele>
        <time>2026-03-13T10:53:46Z</time>
      </trkpt>
      <trkpt lat="45.92751" lon="6.51865">
        <ele>2077.386</ele>
        <time>2026-03-13T10:53:51Z</time>
      </trkpt>
      <trkpt lat="45.92751" lon="6.51865">
        <ele>2077.381</ele>
        <time>2026-03-13T10:53:56Z</time>
      </trkpt>
      <trkpt lat="45.92751" lon="6.51865">
        <ele>2077.379</ele>
        <time>2026-03-13T10:54:01Z</time>
      </trkpt>
      <trkpt lat="45.92751" lon="6.51865">
        <ele>2077.379</ele>
        <time>2026-03-13T10:54:06Z</time>
      </trkpt>
      <trkpt lat="45.92751" lon="6.51865">
        <ele>2077.379</ele>
        <time>2026-03-13T10:54:11Z</time>
      </trkpt>
      <trkpt lat="45.92751" lon="6.51865">
        <ele>2077.379</ele>
        <time>2026-03-13T10:54:16Z</time>
      </trkpt>
      <trkpt lat="45.92751" lon="6.51865">
        <ele>2077.381</ele>
        <time>2026-03-13T10:54:21Z</time>
      </trkpt>
      <trkpt lat="45.92751" lon="6.51865">
        <ele>2077.38</ele>
        <time>2026-03-13T10:54:26Z</time>
      </trkpt>
      <trkpt lat="45.92751" lon="6.51865">
        <ele>2077.383</ele>
        <time>2026-03-13T10:54:31Z</time>
      </trkpt>
      <trkpt lat="45.92751" lon="6.51865">
        <ele>2077.384</ele>
        <time>2026-03-13T10:54:36Z</time>
      </trkpt>
      <trkpt lat="45.92751" lon="6.51865">
        <ele>2077.383</ele>
        <time>2026-03-13T10:54:41Z</time>
      </trkpt>
      <trkpt lat="45.92751" lon="6.51865">
        <ele>2077.393</ele>
        <time>2026-03-13T10:54:46Z</time>
      </trkpt>
      <trkpt lat="45.92751" lon="6.51865">
        <ele>2077.398</ele>
        <time>2026-03-13T10:54:51Z</time>
      </trkpt>
      <trkpt lat="45.92751" lon="6.51865">
        <ele>2078.124</ele>
        <time>2026-03-13T10:54:56Z</time>
      </trkpt>
      <trkpt lat="45.92751" lon="6.51865">
        <ele>2079.041</ele>
        <time>2026-03-13T10:55:01Z</time>
      </trkpt>
      <trkpt lat="45.92751" lon="6.51865">
        <ele>2079.156</ele>
        <time>2026-03-13T10:55:06Z</time>
      </trkpt>
      <trkpt lat="45.92751" lon="6.51865">
        <ele>2080.309</ele>
        <time>2026-03-13T10:55:11Z</time>
      </trkpt>
      <trkpt lat="45.92751" lon="6.51865">
        <ele>2081.51</ele>
        <time>2026-03-13T10:55:16Z</time>
      </trkpt>
      <trkpt lat="45.92751" lon="6.51865">
        <ele>2081.538</ele>
        <time>2026-03-13T10:55:21Z</time>
      </trkpt>
      <trkpt lat="45.9274" lon="6.51863">
        <ele>2081.549</ele>
        <time>2026-03-13T10:55:26Z</time>
      </trkpt>
      <trkpt lat="45.9274" lon="6.51862">
        <ele>2081.681</ele>
        <time>2026-03-13T10:55:31Z</time>
      </trkpt>
      <trkpt lat="45.92737" lon="6.51861">
        <ele>2082.492</ele>
        <time>2026-03-13T10:55:36Z</time>
      </trkpt>
      <trkpt lat="45.92734" lon="6.5186">
        <ele>2083.117</ele>
        <time>2026-03-13T10:55:41Z</time>
      </trkpt>
      <trkpt lat="45.92731" lon="6.5186">
        <ele>2084.114</ele>
        <time>2026-03-13T10:55:46Z</time>
      </trkpt>
      <trkpt lat="45.92729" lon="6.51858">
        <ele>2085.276</ele>
        <time>2026-03-13T10:55:51Z</time>
      </trkpt>
      <trkpt lat="45.92726" lon="6.51858">
        <ele>2085.907</ele>
        <time>2026-03-13T10:55:56Z</time>
      </trkpt>
      <trkpt lat="45.92724" lon="6.51857">
        <ele>2086.385</ele>
        <time>2026-03-13T10:56:01Z</time>
      </trkpt>
      <trkpt lat="45.92722" lon="6.51856">
        <ele>2086.486</ele>
        <time>2026-03-13T10:56:06Z</time>
      </trkpt>
      <trkpt lat="45.9272" lon="6.51856">
        <ele>2086.873</ele>
        <time>2026-03-13T10:56:11Z</time>
      </trkpt>
      <trkpt lat="45.92718" lon="6.51855">
        <ele>2087.808</ele>
        <time>2026-03-13T10:56:16Z</time>
      </trkpt>
      <trkpt lat="45.92716" lon="6.51854">
        <ele>2087.944</ele>
        <time>2026-03-13T10:56:21Z</time>
      </trkpt>
      <trkpt lat="45.92713" lon="6.51854">
        <ele>2087.801</ele>
        <time>2026-03-13T10:56:26Z</time>
      </trkpt>
      <trkpt lat="45.92711" lon="6.51853">
        <ele>2089.081</ele>
        <time>2026-03-13T10:56:31Z</time>
      </trkpt>
      <trkpt lat="45.92709" lon="6.51852">
        <ele>2089.621</ele>
        <time>2026-03-13T10:56:36Z</time>
      </trkpt>
      <trkpt lat="45.92706" lon="6.51852">
        <ele>2090.956</ele>
        <time>2026-03-13T10:56:41Z</time>
      </trkpt>
      <trkpt lat="45.92704" lon="6.51851">
        <ele>2091.057</ele>
        <time>2026-03-13T10:56:46Z</time>
      </trkpt>
      <trkpt lat="45.92701" lon="6.5185">
        <ele>2092.262</ele>
        <time>2026-03-13T10:56:51Z</time>
      </trkpt>
      <trkpt lat="45.92699" lon="6.5185">
        <ele>2092.229</ele>
        <time>2026-03-13T10:56:56Z</time>
      </trkpt>
      <trkpt lat="45.92696" lon="6.5185">
        <ele>2092.837</ele>
        <time>2026-03-13T10:57:01Z</time>
      </trkpt>
      <trkpt lat="45.92692" lon="6.5185">
        <ele>2092.52</ele>
        <time>2026-03-13T10:57:06Z</time>
      </trkpt>
      <trkpt lat="45.92689" lon="6.5185">
        <ele>2093.517</ele>
        <time>2026-03-13T10:57:11Z</time>
      </trkpt>
      <trkpt lat="45.92687" lon="6.51851">
        <ele>2094.344</ele>
        <time>2026-03-13T10:57:16Z</time>
      </trkpt>
      <trkpt lat="45.92683" lon="6.51851">
        <ele>2094.624</ele>
        <time>2026-03-13T10:57:21Z</time>
      </trkpt>
      <trkpt lat="45.92681" lon="6.51851">
        <ele>2094.528</ele>
        <time>2026-03-13T10:57:26Z</time>
      </trkpt>
      <trkpt lat="45.92678" lon="6.5185">
        <ele>2095.081</ele>
        <time>2026-03-13T10:57:31Z</time>
      </trkpt>
      <trkpt lat="45.92675" lon="6.51849">
        <ele>2096.304</ele>
        <time>2026-03-13T10:57:36Z</time>
      </trkpt>
      <trkpt lat="45.92673" lon="6.51848">
        <ele>2096.672</ele>
        <time>2026-03-13T10:57:41Z</time>
      </trkpt>
      <trkpt lat="45.9267" lon="6.51847">
        <ele>2097.769</ele>
        <time>2026-03-13T10:57:46Z</time>
      </trkpt>
      <trkpt lat="45.92667" lon="6.51847">
        <ele>2097.64</ele>
        <time>2026-03-13T10:57:51Z</time>
      </trkpt>
      <trkpt lat="45.92664" lon="6.51847">
        <ele>2098.59</ele>
        <time>2026-03-13T10:57:56Z</time>
      </trkpt>
      <trkpt lat="45.92661" lon="6.51847">
        <ele>2098.676</ele>
        <time>2026-03-13T10:58:01Z</time>
      </trkpt>
      <trkpt lat="45.92658" lon="6.51847">
        <ele>2099.385</ele>
        <time>2026-03-13T10:58:06Z</time>
      </trkpt>
      <trkpt lat="45.92655" lon="6.51847">
        <ele>2099.456</ele>
        <time>2026-03-13T10:58:11Z</time>
      </trkpt>
      <trkpt lat="45.92651" lon="6.51847">
        <ele>2099.927</ele>
        <time>2026-03-13T10:58:16Z</time>
      </trkpt>
      <trkpt lat="45.92648" lon="6.51847">
        <ele>2100.633</ele>
        <time>2026-03-13T10:58:21Z</time>
      </trkpt>
      <trkpt lat="45.92646" lon="6.51846">
        <ele>2100.532</ele>
        <time>2026-03-13T10:58:26Z</time>
      </trkpt>
      <trkpt lat="45.92643" lon="6.51846">
        <ele>2101.276</ele>
        <time>2026-03-13T10:58:31Z</time>
      </trkpt>
      <trkpt lat="45.9264" lon="6.51845">
        <ele>2101.982</ele>
        <time>2026-03-13T10:58:36Z</time>
      </trkpt>
      <trkpt lat="45.92638" lon="6.51845">
        <ele>2102.566</ele>
        <time>2026-03-13T10:58:41Z</time>
      </trkpt>
      <trkpt lat="45.92633" lon="6.51845">
        <ele>2102.372</ele>
        <time>2026-03-13T10:58:46Z</time>
      </trkpt>
      <trkpt lat="45.9263" lon="6.51844">
        <ele>2102.71</ele>
        <time>2026-03-13T10:58:51Z</time>
      </trkpt>
      <trkpt lat="45.92628" lon="6.51843">
        <ele>2102.488</ele>
        <time>2026-03-13T10:58:56Z</time>
      </trkpt>
      <trkpt lat="45.92628" lon="6.51843">
        <ele>2102.492</ele>
        <time>2026-03-13T10:59:01Z</time>
      </trkpt>
      <trkpt lat="45.92626" lon="6.51843">
        <ele>2103.318</ele>
        <time>2026-03-13T10:59:06Z</time>
      </trkpt>
      <trkpt lat="45.92623" lon="6.51841">
        <ele>2104.882</ele>
        <time>2026-03-13T10:59:11Z</time>
      </trkpt>
      <trkpt lat="45.9262" lon="6.5184">
        <ele>2105.157</ele>
        <time>2026-03-13T10:59:16Z</time>
      </trkpt>
      <trkpt lat="45.92618" lon="6.51837">
        <ele>2105.515</ele>
        <time>2026-03-13T10:59:21Z</time>
      </trkpt>
      <trkpt lat="45.92615" lon="6.51835">
        <ele>2105.696</ele>
        <time>2026-03-13T10:59:26Z</time>
      </trkpt>
      <trkpt lat="45.92613" lon="6.51833">
        <ele>2105.795</ele>
        <time>2026-03-13T10:59:31Z</time>
      </trkpt>
      <trkpt lat="45.92612" lon="6.51831">
        <ele>2106.438</ele>
        <time>2026-03-13T10:59:36Z</time>
      </trkpt>
      <trkpt lat="45.92611" lon="6.51829">
        <ele>2106.878</ele>
        <time>2026-03-13T10:59:41Z</time>
      </trkpt>
      <trkpt lat="45.9261" lon="6.51827">
        <ele>2107.115</ele>
        <time>2026-03-13T10:59:46Z</time>
      </trkpt>
      <trkpt lat="45.92609" lon="6.51825">
        <ele>2107.816</ele>
        <time>2026-03-13T10:59:51Z</time>
      </trkpt>
      <trkpt lat="45.92608" lon="6.51822">
        <ele>2109.2</ele>
        <time>2026-03-13T10:59:56Z</time>
      </trkpt>
      <trkpt lat="45.92606" lon="6.51819">
        <ele>2109.516</ele>
        <time>2026-03-13T11:00:01Z</time>
      </trkpt>
      <trkpt lat="45.92603" lon="6.51815">
        <ele>2110.065</ele>
        <time>2026-03-13T11:00:06Z</time>
      </trkpt>
      <trkpt lat="45.92601" lon="6.51812">
        <ele>2111.121</ele>
        <time>2026-03-13T11:00:11Z</time>
      </trkpt>
      <trkpt lat="45.926" lon="6.51809">
        <ele>2111.143</ele>
        <time>2026-03-13T11:00:16Z</time>
      </trkpt>
      <trkpt lat="45.92598" lon="6.51806">
        <ele>2110.862</ele>
        <time>2026-03-13T11:00:21Z</time>
      </trkpt>
      <trkpt lat="45.92597" lon="6.51803">
        <ele>2111.145</ele>
        <time>2026-03-13T11:00:26Z</time>
      </trkpt>
      <trkpt lat="45.92596" lon="6.518">
        <ele>2112.045</ele>
        <time>2026-03-13T11:00:31Z</time>
      </trkpt>
      <trkpt lat="45.92596" lon="6.51798">
        <ele>2113.383</ele>
        <time>2026-03-13T11:00:36Z</time>
      </trkpt>
      <trkpt lat="45.92595" lon="6.51796">
        <ele>2113.169</ele>
        <time>2026-03-13T11:00:41Z</time>
      </trkpt>
      <trkpt lat="45.92593" lon="6.51793">
        <ele>2114.166</ele>
        <time>2026-03-13T11:00:46Z</time>
      </trkpt>
      <trkpt lat="45.92593" lon="6.51791">
        <ele>2114.054</ele>
        <time>2026-03-13T11:00:51Z</time>
      </trkpt>
      <trkpt lat="45.92592" lon="6.51789">
        <ele>2114.874</ele>
        <time>2026-03-13T11:00:56Z</time>
      </trkpt>
      <trkpt lat="45.9259" lon="6.51787">
        <ele>2115.229</ele>
        <time>2026-03-13T11:01:01Z</time>
      </trkpt>
      <trkpt lat="45.92589" lon="6.51785">
        <ele>2115.894</ele>
        <time>2026-03-13T11:01:06Z</time>
      </trkpt>
      <trkpt lat="45.92587" lon="6.51783">
        <ele>2116.894</ele>
        <time>2026-03-13T11:01:11Z</time>
      </trkpt>
      <trkpt lat="45.92585" lon="6.51782">
        <ele>2117.799</ele>
        <time>2026-03-13T11:01:16Z</time>
      </trkpt>
      <trkpt lat="45.92583" lon="6.51781">
        <ele>2118.223</ele>
        <time>2026-03-13T11:01:21Z</time>
      </trkpt>
      <trkpt lat="45.92581" lon="6.5178">
        <ele>2119.074</ele>
        <time>2026-03-13T11:01:26Z</time>
      </trkpt>
      <trkpt lat="45.92579" lon="6.51779">
        <ele>2119.642</ele>
        <time>2026-03-13T11:01:31Z</time>
      </trkpt>
      <trkpt lat="45.92577" lon="6.51778">
        <ele>2120.79</ele>
        <time>2026-03-13T11:01:36Z</time>
      </trkpt>
      <trkpt lat="45.92574" lon="6.51776">
        <ele>2121.793</ele>
        <time>2026-03-13T11:01:41Z</time>
      </trkpt>
      <trkpt lat="45.92572" lon="6.51775">
        <ele>2122.237</ele>
        <time>2026-03-13T11:01:46Z</time>
      </trkpt>
      <trkpt lat="45.9257" lon="6.51774">
        <ele>2122.792</ele>
        <time>2026-03-13T11:01:51Z</time>
      </trkpt>
      <trkpt lat="45.92568" lon="6.51774">
        <ele>2123.679</ele>
        <time>2026-03-13T11:01:56Z</time>
      </trkpt>
      <trkpt lat="45.92565" lon="6.51775">
        <ele>2123.566</ele>
        <time>2026-03-13T11:02:01Z</time>
      </trkpt>
      <trkpt lat="45.92563" lon="6.51776">
        <ele>2123.959</ele>
        <time>2026-03-13T11:02:06Z</time>
      </trkpt>
      <trkpt lat="45.92561" lon="6.51776">
        <ele>2124.308</ele>
        <time>2026-03-13T11:02:11Z</time>
      </trkpt>
      <trkpt lat="45.92561" lon="6.51776">
        <ele>2124.294</ele>
        <time>2026-03-13T11:02:16Z</time>
      </trkpt>
      <trkpt lat="45.92561" lon="6.51776">
        <ele>2124.283</ele>
        <time>2026-03-13T11:02:21Z</time>
      </trkpt>
      <trkpt lat="45.9256" lon="6.51777">
        <ele>2124.281</ele>
        <time>2026-03-13T11:02:26Z</time>
      </trkpt>
      <trkpt lat="45.92557" lon="6.5178">
        <ele>2124.217</ele>
        <time>2026-03-13T11:02:31Z</time>
      </trkpt>
      <trkpt lat="45.92555" lon="6.51781">
        <ele>2125.407</ele>
        <time>2026-03-13T11:02:36Z</time>
      </trkpt>
      <trkpt lat="45.92553" lon="6.51782">
        <ele>2126.235</ele>
        <time>2026-03-13T11:02:41Z</time>
      </trkpt>
      <trkpt lat="45.92551" lon="6.51784">
        <ele>2126.767</ele>
        <time>2026-03-13T11:02:46Z</time>
      </trkpt>
      <trkpt lat="45.9255" lon="6.51786">
        <ele>2127.78</ele>
        <time>2026-03-13T11:02:51Z</time>
      </trkpt>
      <trkpt lat="45.92549" lon="6.51789">
        <ele>2126.818</ele>
        <time>2026-03-13T11:02:56Z</time>
      </trkpt>
      <trkpt lat="45.92549" lon="6.51793">
        <ele>2126.702</ele>
        <time>2026-03-13T11:03:01Z</time>
      </trkpt>
      <trkpt lat="45.9255" lon="6.51795">
        <ele>2125.995</ele>
        <time>2026-03-13T11:03:06Z</time>
      </trkpt>
      <trkpt lat="45.92549" lon="6.51799">
        <ele>2125.78</ele>
        <time>2026-03-13T11:03:11Z</time>
      </trkpt>
      <trkpt lat="45.92548" lon="6.51805">
        <ele>2126.061</ele>
        <time>2026-03-13T11:03:16Z</time>
      </trkpt>
      <trkpt lat="45.92548" lon="6.51808">
        <ele>2126.909</ele>
        <time>2026-03-13T11:03:21Z</time>
      </trkpt>
      <trkpt lat="45.92548" lon="6.51812">
        <ele>2128.619</ele>
        <time>2026-03-13T11:03:26Z</time>
      </trkpt>
      <trkpt lat="45.92547" lon="6.51815">
        <ele>2129.704</ele>
        <time>2026-03-13T11:03:31Z</time>
      </trkpt>
      <trkpt lat="45.92546" lon="6.51819">
        <ele>2131.455</ele>
        <time>2026-03-13T11:03:36Z</time>
      </trkpt>
      <trkpt lat="45.92545" lon="6.51821">
        <ele>2132.712</ele>
        <time>2026-03-13T11:03:41Z</time>
      </trkpt>
      <trkpt lat="45.92544" lon="6.51824">
        <ele>2132.917</ele>
        <time>2026-03-13T11:03:46Z</time>
      </trkpt>
      <trkpt lat="45.92544" lon="6.51827">
        <ele>2134.01</ele>
        <time>2026-03-13T11:03:51Z</time>
      </trkpt>
      <trkpt lat="45.92543" lon="6.5183">
        <ele>2135.46</ele>
        <time>2026-03-13T11:03:56Z</time>
      </trkpt>
      <trkpt lat="45.92543" lon="6.51833">
        <ele>2135.434</ele>
        <time>2026-03-13T11:04:01Z</time>
      </trkpt>
      <trkpt lat="45.92543" lon="6.51836">
        <ele>2136.766</ele>
        <time>2026-03-13T11:04:06Z</time>
      </trkpt>
      <trkpt lat="45.92543" lon="6.51838">
        <ele>2137.573</ele>
        <time>2026-03-13T11:04:11Z</time>
      </trkpt>
      <trkpt lat="45.92542" lon="6.51841">
        <ele>2137.531</ele>
        <time>2026-03-13T11:04:16Z</time>
      </trkpt>
      <trkpt lat="45.92542" lon="6.51844">
        <ele>2137.935</ele>
        <time>2026-03-13T11:04:21Z</time>
      </trkpt>
      <trkpt lat="45.92542" lon="6.51847">
        <ele>2138.855</ele>
        <time>2026-03-13T11:04:26Z</time>
      </trkpt>
      <trkpt lat="45.92542" lon="6.5185">
        <ele>2138.875</ele>
        <time>2026-03-13T11:04:31Z</time>
      </trkpt>
      <trkpt lat="45.92542" lon="6.51851">
        <ele>2139.621</ele>
        <time>2026-03-13T11:04:36Z</time>
      </trkpt>
      <trkpt lat="45.92542" lon="6.51852">
        <ele>2141.257</ele>
        <time>2026-03-13T11:04:41Z</time>
      </trkpt>
      <trkpt lat="45.9254" lon="6.51852">
        <ele>2143.034</ele>
        <time>2026-03-13T11:04:46Z</time>
      </trkpt>
      <trkpt lat="45.9254" lon="6.51852">
        <ele>2144.18</ele>
        <time>2026-03-13T11:04:51Z</time>
      </trkpt>
      <trkpt lat="45.92538" lon="6.51851">
        <ele>2145.137</ele>
        <time>2026-03-13T11:04:56Z</time>
      </trkpt>
      <trkpt lat="45.92535" lon="6.5185">
        <ele>2146.031</ele>
        <time>2026-03-13T11:05:01Z</time>
      </trkpt>
      <trkpt lat="45.92534" lon="6.51849">
        <ele>2146.311</ele>
        <time>2026-03-13T11:05:06Z</time>
      </trkpt>
      <trkpt lat="45.92533" lon="6.51848">
        <ele>2147.025</ele>
        <time>2026-03-13T11:05:11Z</time>
      </trkpt>
      <trkpt lat="45.92531" lon="6.51846">
        <ele>2148.369</ele>
        <time>2026-03-13T11:05:16Z</time>
      </trkpt>
      <trkpt lat="45.92529" lon="6.51846">
        <ele>2148.838</ele>
        <time>2026-03-13T11:05:21Z</time>
      </trkpt>
      <trkpt lat="45.92527" lon="6.51845">
        <ele>2150.014</ele>
        <time>2026-03-13T11:05:26Z</time>
      </trkpt>
      <trkpt lat="45.92525" lon="6.51844">
        <ele>2150.773</ele>
        <time>2026-03-13T11:05:31Z</time>
      </trkpt>
      <trkpt lat="45.92523" lon="6.51843">
        <ele>2151.223</ele>
        <time>2026-03-13T11:05:36Z</time>
      </trkpt>
      <trkpt lat="45.92521" lon="6.51843">
        <ele>2152.639</ele>
        <time>2026-03-13T11:05:41Z</time>
      </trkpt>
      <trkpt lat="45.92518" lon="6.51843">
        <ele>2153.118</ele>
        <time>2026-03-13T11:05:46Z</time>
      </trkpt>
      <trkpt lat="45.92516" lon="6.51843">
        <ele>2153.674</ele>
        <time>2026-03-13T11:05:51Z</time>
      </trkpt>
      <trkpt lat="45.92514" lon="6.51844">
        <ele>2154.306</ele>
        <time>2026-03-13T11:05:56Z</time>
      </trkpt>
      <trkpt lat="45.92512" lon="6.51845">
        <ele>2155.107</ele>
        <time>2026-03-13T11:06:01Z</time>
      </trkpt>
      <trkpt lat="45.9251" lon="6.51847">
        <ele>2155.364</ele>
        <time>2026-03-13T11:06:06Z</time>
      </trkpt>
      <trkpt lat="45.92509" lon="6.51848">
        <ele>2155.823</ele>
        <time>2026-03-13T11:06:11Z</time>
      </trkpt>
      <trkpt lat="45.92509" lon="6.51849">
        <ele>2155.852</ele>
        <time>2026-03-13T11:06:16Z</time>
      </trkpt>
      <trkpt lat="45.92508" lon="6.5185">
        <ele>2156.551</ele>
        <time>2026-03-13T11:06:21Z</time>
      </trkpt>
      <trkpt lat="45.92506" lon="6.51852">
        <ele>2157.059</ele>
        <time>2026-03-13T11:06:26Z</time>
      </trkpt>
      <trkpt lat="45.92505" lon="6.51854">
        <ele>2157.228</ele>
        <time>2026-03-13T11:06:31Z</time>
      </trkpt>
      <trkpt lat="45.92504" lon="6.51855">
        <ele>2158.101</ele>
        <time>2026-03-13T11:06:36Z</time>
      </trkpt>
      <trkpt lat="45.92503" lon="6.51859">
        <ele>2158.565</ele>
        <time>2026-03-13T11:06:41Z</time>
      </trkpt>
      <trkpt lat="45.92502" lon="6.51862">
        <ele>2159.692</ele>
        <time>2026-03-13T11:06:46Z</time>
      </trkpt>
      <trkpt lat="45.92501" lon="6.51866">
        <ele>2160.141</ele>
        <time>2026-03-13T11:06:51Z</time>
      </trkpt>
      <trkpt lat="45.92501" lon="6.51869">
        <ele>2160.364</ele>
        <time>2026-03-13T11:06:56Z</time>
      </trkpt>
      <trkpt lat="45.92499" lon="6.51872">
        <ele>2161.736</ele>
        <time>2026-03-13T11:07:01Z</time>
      </trkpt>
      <trkpt lat="45.92498" lon="6.51876">
        <ele>2161.747</ele>
        <time>2026-03-13T11:07:06Z</time>
      </trkpt>
      <trkpt lat="45.92498" lon="6.51878">
        <ele>2162.371</ele>
        <time>2026-03-13T11:07:11Z</time>
      </trkpt>
      <trkpt lat="45.92497" lon="6.51881">
        <ele>2162.901</ele>
        <time>2026-03-13T11:07:16Z</time>
      </trkpt>
      <trkpt lat="45.92497" lon="6.51884">
        <ele>2163.556</ele>
        <time>2026-03-13T11:07:21Z</time>
      </trkpt>
      <trkpt lat="45.92496" lon="6.51887">
        <ele>2164.05</ele>
        <time>2026-03-13T11:07:26Z</time>
      </trkpt>
      <trkpt lat="45.92495" lon="6.5189">
        <ele>2164.826</ele>
        <time>2026-03-13T11:07:31Z</time>
      </trkpt>
      <trkpt lat="45.92495" lon="6.51893">
        <ele>2164.85</ele>
        <time>2026-03-13T11:07:36Z</time>
      </trkpt>
      <trkpt lat="45.92494" lon="6.51897">
        <ele>2165.351</ele>
        <time>2026-03-13T11:07:41Z</time>
      </trkpt>
      <trkpt lat="45.92493" lon="6.519">
        <ele>2165.706</ele>
        <time>2026-03-13T11:07:46Z</time>
      </trkpt>
      <trkpt lat="45.92492" lon="6.51903">
        <ele>2165.686</ele>
        <time>2026-03-13T11:07:51Z</time>
      </trkpt>
      <trkpt lat="45.92491" lon="6.51907">
        <ele>2166.07</ele>
        <time>2026-03-13T11:07:56Z</time>
      </trkpt>
      <trkpt lat="45.92491" lon="6.51911">
        <ele>2167.03</ele>
        <time>2026-03-13T11:08:01Z</time>
      </trkpt>
      <trkpt lat="45.9249" lon="6.51914">
        <ele>2168.267</ele>
        <time>2026-03-13T11:08:06Z</time>
      </trkpt>
      <trkpt lat="45.92489" lon="6.51916">
        <ele>2168.624</ele>
        <time>2026-03-13T11:08:11Z</time>
      </trkpt>
      <trkpt lat="45.92489" lon="6.51919">
        <ele>2169.172</ele>
        <time>2026-03-13T11:08:16Z</time>
      </trkpt>
      <trkpt lat="45.92488" lon="6.51921">
        <ele>2170.386</ele>
        <time>2026-03-13T11:08:21Z</time>
      </trkpt>
      <trkpt lat="45.92488" lon="6.51924">
        <ele>2171.665</ele>
        <time>2026-03-13T11:08:26Z</time>
      </trkpt>
      <trkpt lat="45.92487" lon="6.51927">
        <ele>2172.471</ele>
        <time>2026-03-13T11:08:31Z</time>
      </trkpt>
      <trkpt lat="45.92486" lon="6.51929">
        <ele>2172.894</ele>
        <time>2026-03-13T11:08:36Z</time>
      </trkpt>
      <trkpt lat="45.92486" lon="6.51932">
        <ele>2173.796</ele>
        <time>2026-03-13T11:08:41Z</time>
      </trkpt>
      <trkpt lat="45.92485" lon="6.51935">
        <ele>2174.647</ele>
        <time>2026-03-13T11:08:46Z</time>
      </trkpt>
      <trkpt lat="45.92484" lon="6.51937">
        <ele>2175.27</ele>
        <time>2026-03-13T11:08:51Z</time>
      </trkpt>
      <trkpt lat="45.92483" lon="6.51939">
        <ele>2175.68</ele>
        <time>2026-03-13T11:08:56Z</time>
      </trkpt>
      <trkpt lat="45.92482" lon="6.51942">
        <ele>2176.547</ele>
        <time>2026-03-13T11:09:01Z</time>
      </trkpt>
      <trkpt lat="45.92481" lon="6.51944">
        <ele>2177.961</ele>
        <time>2026-03-13T11:09:06Z</time>
      </trkpt>
      <trkpt lat="45.92479" lon="6.51946">
        <ele>2178.865</ele>
        <time>2026-03-13T11:09:11Z</time>
      </trkpt>
      <trkpt lat="45.92477" lon="6.51947">
        <ele>2178.978</ele>
        <time>2026-03-13T11:09:16Z</time>
      </trkpt>
      <trkpt lat="45.92475" lon="6.51948">
        <ele>2179.78</ele>
        <time>2026-03-13T11:09:21Z</time>
      </trkpt>
      <trkpt lat="45.92473" lon="6.51948">
        <ele>2180.71</ele>
        <time>2026-03-13T11:09:26Z</time>
      </trkpt>
      <trkpt lat="45.92473" lon="6.51948">
        <ele>2181.207</ele>
        <time>2026-03-13T11:09:31Z</time>
      </trkpt>
      <trkpt lat="45.92474" lon="6.51951">
        <ele>2181.005</ele>
        <time>2026-03-13T11:09:36Z</time>
      </trkpt>
      <trkpt lat="45.92475" lon="6.51954">
        <ele>2180.918</ele>
        <time>2026-03-13T11:09:41Z</time>
      </trkpt>
      <trkpt lat="45.92476" lon="6.51956">
        <ele>2181.331</ele>
        <time>2026-03-13T11:09:46Z</time>
      </trkpt>
      <trkpt lat="45.92477" lon="6.51958">
        <ele>2180.15</ele>
        <time>2026-03-13T11:09:51Z</time>
      </trkpt>
      <trkpt lat="45.92479" lon="6.51961">
        <ele>2180.043</ele>
        <time>2026-03-13T11:09:56Z</time>
      </trkpt>
      <trkpt lat="45.92481" lon="6.51964">
        <ele>2180.312</ele>
        <time>2026-03-13T11:10:01Z</time>
      </trkpt>
      <trkpt lat="45.92483" lon="6.51966">
        <ele>2180.087</ele>
        <time>2026-03-13T11:10:06Z</time>
      </trkpt>
      <trkpt lat="45.92484" lon="6.51967">
        <ele>2180.017</ele>
        <time>2026-03-13T11:10:11Z</time>
      </trkpt>
      <trkpt lat="45.92483" lon="6.5197">
        <ele>2180.397</ele>
        <time>2026-03-13T11:10:16Z</time>
      </trkpt>
      <trkpt lat="45.92483" lon="6.51973">
        <ele>2180.897</ele>
        <time>2026-03-13T11:10:21Z</time>
      </trkpt>
      <trkpt lat="45.92483" lon="6.51974">
        <ele>2180.903</ele>
        <time>2026-03-13T11:10:26Z</time>
      </trkpt>
      <trkpt lat="45.92483" lon="6.51974">
        <ele>2180.902</ele>
        <time>2026-03-13T11:10:31Z</time>
      </trkpt>
      <trkpt lat="45.92483" lon="6.51974">
        <ele>2181.243</ele>
        <time>2026-03-13T11:10:36Z</time>
      </trkpt>
      <trkpt lat="45.92483" lon="6.51974">
        <ele>2181.246</ele>
        <time>2026-03-13T11:10:41Z</time>
      </trkpt>
      <trkpt lat="45.92483" lon="6.51974">
        <ele>2181.241</ele>
        <time>2026-03-13T11:10:46Z</time>
      </trkpt>
      <trkpt lat="45.92483" lon="6.51974">
        <ele>2181.187</ele>
        <time>2026-03-13T11:10:51Z</time>
      </trkpt>
      <trkpt lat="45.92483" lon="6.51974">
        <ele>2181.187</ele>
        <time>2026-03-13T11:10:56Z</time>
      </trkpt>
      <trkpt lat="45.92483" lon="6.51974">
        <ele>2181.188</ele>
        <time>2026-03-13T11:11:01Z</time>
      </trkpt>
      <trkpt lat="45.92483" lon="6.51974">
        <ele>2181.191</ele>
        <time>2026-03-13T11:11:06Z</time>
      </trkpt>
      <trkpt lat="45.92483" lon="6.51974">
        <ele>2181.756</ele>
        <time>2026-03-13T11:11:11Z</time>
      </trkpt>
      <trkpt lat="45.92483" lon="6.51974">
        <ele>2181.762</ele>
        <time>2026-03-13T11:11:16Z</time>
      </trkpt>
      <trkpt lat="45.92483" lon="6.51974">
        <ele>2181.767</ele>
        <time>2026-03-13T11:11:21Z</time>
      </trkpt>
      <trkpt lat="45.92483" lon="6.51974">
        <ele>2181.776</ele>
        <time>2026-03-13T11:11:26Z</time>
      </trkpt>
      <trkpt lat="45.92483" lon="6.51974">
        <ele>2181.78</ele>
        <time>2026-03-13T11:11:31Z</time>
      </trkpt>
      <trkpt lat="45.92483" lon="6.51974">
        <ele>2181.786</ele>
        <time>2026-03-13T11:11:36Z</time>
      </trkpt>
      <trkpt lat="45.92483" lon="6.51974">
        <ele>2181.791</ele>
        <time>2026-03-13T11:11:41Z</time>
      </trkpt>
      <trkpt lat="45.92483" lon="6.51974">
        <ele>2181.802</ele>
        <time>2026-03-13T11:11:46Z</time>
      </trkpt>
      <trkpt lat="45.92483" lon="6.51974">
        <ele>2181.803</ele>
        <time>2026-03-13T11:11:51Z</time>
      </trkpt>
      <trkpt lat="45.92483" lon="6.51974">
        <ele>2182.492</ele>
        <time>2026-03-13T11:11:56Z</time>
      </trkpt>
      <trkpt lat="45.92483" lon="6.51974">
        <ele>2183.453</ele>
        <time>2026-03-13T11:12:01Z</time>
      </trkpt>
      <trkpt lat="45.92483" lon="6.51974">
        <ele>2183.489</ele>
        <time>2026-03-13T11:12:06Z</time>
      </trkpt>
      <trkpt lat="45.92483" lon="6.51974">
        <ele>2183.501</ele>
        <time>2026-03-13T11:12:11Z</time>
      </trkpt>
      <trkpt lat="45.92483" lon="6.51974">
        <ele>2183.516</ele>
        <time>2026-03-13T11:12:16Z</time>
      </trkpt>
      <trkpt lat="45.92483" lon="6.51974">
        <ele>2183.525</ele>
        <time>2026-03-13T11:12:21Z</time>
      </trkpt>
      <trkpt lat="45.92483" lon="6.51974">
        <ele>2183.526</ele>
        <time>2026-03-13T11:12:26Z</time>
      </trkpt>
      <trkpt lat="45.92483" lon="6.51974">
        <ele>2183.534</ele>
        <time>2026-03-13T11:12:31Z</time>
      </trkpt>
      <trkpt lat="45.92483" lon="6.51974">
        <ele>2183.536</ele>
        <time>2026-03-13T11:12:36Z</time>
      </trkpt>
      <trkpt lat="45.92483" lon="6.51974">
        <ele>2183.536</ele>
        <time>2026-03-13T11:12:41Z</time>
      </trkpt>
      <trkpt lat="45.92483" lon="6.51974">
        <ele>2183.529</ele>
        <time>2026-03-13T11:12:46Z</time>
      </trkpt>
      <trkpt lat="45.92483" lon="6.51974">
        <ele>2183.52</ele>
        <time>2026-03-13T11:12:51Z</time>
      </trkpt>
      <trkpt lat="45.92483" lon="6.51974">
        <ele>2183.524</ele>
        <time>2026-03-13T11:12:56Z</time>
      </trkpt>
      <trkpt lat="45.92483" lon="6.51974">
        <ele>2183.525</ele>
        <time>2026-03-13T11:13:01Z</time>
      </trkpt>
      <trkpt lat="45.92483" lon="6.51974">
        <ele>2183.528</ele>
        <time>2026-03-13T11:13:06Z</time>
      </trkpt>
      <trkpt lat="45.92483" lon="6.51974">
        <ele>2183.529</ele>
        <time>2026-03-13T11:13:11Z</time>
      </trkpt>
      <trkpt lat="45.92483" lon="6.51974">
        <ele>2183.519</ele>
        <time>2026-03-13T11:13:16Z</time>
      </trkpt>
      <trkpt lat="45.92483" lon="6.51974">
        <ele>2183.512</ele>
        <time>2026-03-13T11:13:21Z</time>
      </trkpt>
      <trkpt lat="45.92483" lon="6.51974">
        <ele>2182.817</ele>
        <time>2026-03-13T11:13:26Z</time>
      </trkpt>
      <trkpt lat="45.92483" lon="6.51974">
        <ele>2182.134</ele>
        <time>2026-03-13T11:13:31Z</time>
      </trkpt>
      <trkpt lat="45.92483" lon="6.51974">
        <ele>2182.274</ele>
        <time>2026-03-13T11:13:36Z</time>
      </trkpt>
      <trkpt lat="45.92483" lon="6.51974">
        <ele>2182.278</ele>
        <time>2026-03-13T11:13:41Z</time>
      </trkpt>
      <trkpt lat="45.92483" lon="6.51974">
        <ele>2182.278</ele>
        <time>2026-03-13T11:13:46Z</time>
      </trkpt>
      <trkpt lat="45.92483" lon="6.51974">
        <ele>2182.249</ele>
        <time>2026-03-13T11:13:51Z</time>
      </trkpt>
      <trkpt lat="45.92483" lon="6.51974">
        <ele>2182.269</ele>
        <time>2026-03-13T11:13:56Z</time>
      </trkpt>
      <trkpt lat="45.92483" lon="6.51974">
        <ele>2182.274</ele>
        <time>2026-03-13T11:14:01Z</time>
      </trkpt>
      <trkpt lat="45.92483" lon="6.51974">
        <ele>2182.285</ele>
        <time>2026-03-13T11:14:06Z</time>
      </trkpt>
      <trkpt lat="45.92483" lon="6.51974">
        <ele>2182.293</ele>
        <time>2026-03-13T11:14:11Z</time>
      </trkpt>
      <trkpt lat="45.92483" lon="6.51974">
        <ele>2181.98</ele>
        <time>2026-03-13T11:14:16Z</time>
      </trkpt>
      <trkpt lat="45.92483" lon="6.51974">
        <ele>2181.96</ele>
        <time>2026-03-13T11:14:21Z</time>
      </trkpt>
      <trkpt lat="45.92483" lon="6.51974">
        <ele>2181.951</ele>
        <time>2026-03-13T11:14:26Z</time>
      </trkpt>
      <trkpt lat="45.92483" lon="6.51974">
        <ele>2181.963</ele>
        <time>2026-03-13T11:14:31Z</time>
      </trkpt>
      <trkpt lat="45.92483" lon="6.51974">
        <ele>2181.966</ele>
        <time>2026-03-13T11:14:36Z</time>
      </trkpt>
      <trkpt lat="45.92483" lon="6.51974">
        <ele>2181.971</ele>
        <time>2026-03-13T11:14:41Z</time>
      </trkpt>
      <trkpt lat="45.92483" lon="6.51974">
        <ele>2181.974</ele>
        <time>2026-03-13T11:14:46Z</time>
      </trkpt>
      <trkpt lat="45.92483" lon="6.51974">
        <ele>2181.985</ele>
        <time>2026-03-13T11:14:51Z</time>
      </trkpt>
      <trkpt lat="45.92483" lon="6.51974">
        <ele>2181.992</ele>
        <time>2026-03-13T11:14:56Z</time>
      </trkpt>
      <trkpt lat="45.92483" lon="6.51974">
        <ele>2181.993</ele>
        <time>2026-03-13T11:15:01Z</time>
      </trkpt>
      <trkpt lat="45.92483" lon="6.51974">
        <ele>2182.001</ele>
        <time>2026-03-13T11:15:06Z</time>
      </trkpt>
      <trkpt lat="45.92483" lon="6.51974">
        <ele>2182.009</ele>
        <time>2026-03-13T11:15:11Z</time>
      </trkpt>
      <trkpt lat="45.92483" lon="6.51974">
        <ele>2182.021</ele>
        <time>2026-03-13T11:15:16Z</time>
      </trkpt>
      <trkpt lat="45.92483" lon="6.51974">
        <ele>2182.106</ele>
        <time>2026-03-13T11:15:21Z</time>
      </trkpt>
      <trkpt lat="45.92483" lon="6.51974">
        <ele>2182.12</ele>
        <time>2026-03-13T11:15:26Z</time>
      </trkpt>
      <trkpt lat="45.92483" lon="6.51974">
        <ele>2182.137</ele>
        <time>2026-03-13T11:15:31Z</time>
      </trkpt>
      <trkpt lat="45.92483" lon="6.51974">
        <ele>2182.159</ele>
        <time>2026-03-13T11:15:36Z</time>
      </trkpt>
      <trkpt lat="45.92483" lon="6.51974">
        <ele>2182.179</ele>
        <time>2026-03-13T11:15:41Z</time>
      </trkpt>
      <trkpt lat="45.92483" lon="6.51974">
        <ele>2182.193</ele>
        <time>2026-03-13T11:15:46Z</time>
      </trkpt>
      <trkpt lat="45.92483" lon="6.51974">
        <ele>2182.21</ele>
        <time>2026-03-13T11:15:51Z</time>
      </trkpt>
      <trkpt lat="45.92483" lon="6.51974">
        <ele>2182.213</ele>
        <time>2026-03-13T11:15:56Z</time>
      </trkpt>
      <trkpt lat="45.92483" lon="6.51974">
        <ele>2182.224</ele>
        <time>2026-03-13T11:16:01Z</time>
      </trkpt>
      <trkpt lat="45.92483" lon="6.51974">
        <ele>2182.233</ele>
        <time>2026-03-13T11:16:06Z</time>
      </trkpt>
      <trkpt lat="45.92483" lon="6.51974">
        <ele>2182.241</ele>
        <time>2026-03-13T11:16:11Z</time>
      </trkpt>
      <trkpt lat="45.92483" lon="6.51974">
        <ele>2182.247</ele>
        <time>2026-03-13T11:16:16Z</time>
      </trkpt>
      <trkpt lat="45.92483" lon="6.51974">
        <ele>2182.25</ele>
        <time>2026-03-13T11:16:21Z</time>
      </trkpt>
      <trkpt lat="45.92483" lon="6.51974">
        <ele>2182.253</ele>
        <time>2026-03-13T11:16:26Z</time>
      </trkpt>
      <trkpt lat="45.92483" lon="6.51974">
        <ele>2182.262</ele>
        <time>2026-03-13T11:16:31Z</time>
      </trkpt>
      <trkpt lat="45.92483" lon="6.51974">
        <ele>2182.267</ele>
        <time>2026-03-13T11:16:36Z</time>
      </trkpt>
      <trkpt lat="45.92483" lon="6.51974">
        <ele>2182.278</ele>
        <time>2026-03-13T11:16:41Z</time>
      </trkpt>
      <trkpt lat="45.92483" lon="6.51974">
        <ele>2182.294</ele>
        <time>2026-03-13T11:16:46Z</time>
      </trkpt>
      <trkpt lat="45.92483" lon="6.51974">
        <ele>2182.309</ele>
        <time>2026-03-13T11:16:51Z</time>
      </trkpt>
      <trkpt lat="45.92483" lon="6.51974">
        <ele>2182.326</ele>
        <time>2026-03-13T11:16:56Z</time>
      </trkpt>
      <trkpt lat="45.92483" lon="6.51974">
        <ele>2182.334</ele>
        <time>2026-03-13T11:17:01Z</time>
      </trkpt>
      <trkpt lat="45.92483" lon="6.51974">
        <ele>2182.522</ele>
        <time>2026-03-13T11:17:06Z</time>
      </trkpt>
      <trkpt lat="45.92483" lon="6.51974">
        <ele>2182.54</ele>
        <time>2026-03-13T11:17:11Z</time>
      </trkpt>
      <trkpt lat="45.92483" lon="6.51974">
        <ele>2182.552</ele>
        <time>2026-03-13T11:17:16Z</time>
      </trkpt>
      <trkpt lat="45.92483" lon="6.51974">
        <ele>2182.565</ele>
        <time>2026-03-13T11:17:21Z</time>
      </trkpt>
      <trkpt lat="45.92483" lon="6.51974">
        <ele>2182.575</ele>
        <time>2026-03-13T11:17:26Z</time>
      </trkpt>
      <trkpt lat="45.92483" lon="6.51974">
        <ele>2182.586</ele>
        <time>2026-03-13T11:17:31Z</time>
      </trkpt>
      <trkpt lat="45.92483" lon="6.51974">
        <ele>2182.594</ele>
        <time>2026-03-13T11:17:36Z</time>
      </trkpt>
      <trkpt lat="45.92483" lon="6.51974">
        <ele>2182.606</ele>
        <time>2026-03-13T11:17:41Z</time>
      </trkpt>
      <trkpt lat="45.92483" lon="6.51974">
        <ele>2182.622</ele>
        <time>2026-03-13T11:17:46Z</time>
      </trkpt>
      <trkpt lat="45.92483" lon="6.51974">
        <ele>2182.627</ele>
        <time>2026-03-13T11:17:51Z</time>
      </trkpt>
      <trkpt lat="45.92483" lon="6.51974">
        <ele>2182.696</ele>
        <time>2026-03-13T11:17:56Z</time>
      </trkpt>
      <trkpt lat="45.92483" lon="6.51974">
        <ele>2182.705</ele>
        <time>2026-03-13T11:18:01Z</time>
      </trkpt>
      <trkpt lat="45.92483" lon="6.51974">
        <ele>2182.718</ele>
        <time>2026-03-13T11:18:06Z</time>
      </trkpt>
      <trkpt lat="45.92483" lon="6.51974">
        <ele>2182.728</ele>
        <time>2026-03-13T11:18:11Z</time>
      </trkpt>
      <trkpt lat="45.92483" lon="6.51974">
        <ele>2182.733</ele>
        <time>2026-03-13T11:18:16Z</time>
      </trkpt>
      <trkpt lat="45.92483" lon="6.51974">
        <ele>2182.74</ele>
        <time>2026-03-13T11:18:21Z</time>
      </trkpt>
      <trkpt lat="45.92483" lon="6.51974">
        <ele>2182.75</ele>
        <time>2026-03-13T11:18:26Z</time>
      </trkpt>
      <trkpt lat="45.92483" lon="6.51974">
        <ele>2182.765</ele>
        <time>2026-03-13T11:18:31Z</time>
      </trkpt>
      <trkpt lat="45.92483" lon="6.51974">
        <ele>2182.77</ele>
        <time>2026-03-13T11:18:36Z</time>
      </trkpt>
      <trkpt lat="45.92483" lon="6.51974">
        <ele>2182.774</ele>
        <time>2026-03-13T11:18:41Z</time>
      </trkpt>
      <trkpt lat="45.92483" lon="6.51974">
        <ele>2182.781</ele>
        <time>2026-03-13T11:18:46Z</time>
      </trkpt>
      <trkpt lat="45.92483" lon="6.51974">
        <ele>2182.858</ele>
        <time>2026-03-13T11:18:51Z</time>
      </trkpt>
      <trkpt lat="45.92483" lon="6.51974">
        <ele>2183.161</ele>
        <time>2026-03-13T11:18:56Z</time>
      </trkpt>
      <trkpt lat="45.92483" lon="6.51974">
        <ele>2183.169</ele>
        <time>2026-03-13T11:19:01Z</time>
      </trkpt>
      <trkpt lat="45.92483" lon="6.51974">
        <ele>2183.181</ele>
        <time>2026-03-13T11:19:06Z</time>
      </trkpt>
      <trkpt lat="45.92483" lon="6.51974">
        <ele>2183.199</ele>
        <time>2026-03-13T11:19:11Z</time>
      </trkpt>
      <trkpt lat="45.92483" lon="6.51974">
        <ele>2183.227</ele>
        <time>2026-03-13T11:19:16Z</time>
      </trkpt>
      <trkpt lat="45.92483" lon="6.51974">
        <ele>2183.249</ele>
        <time>2026-03-13T11:19:21Z</time>
      </trkpt>
      <trkpt lat="45.92483" lon="6.51974">
        <ele>2183.262</ele>
        <time>2026-03-13T11:19:26Z</time>
      </trkpt>
      <trkpt lat="45.92483" lon="6.51974">
        <ele>2184.284</ele>
        <time>2026-03-13T11:19:31Z</time>
      </trkpt>
      <trkpt lat="45.92483" lon="6.51974">
        <ele>2184.293</ele>
        <time>2026-03-13T11:19:36Z</time>
      </trkpt>
      <trkpt lat="45.92483" lon="6.51974">
        <ele>2184.299</ele>
        <time>2026-03-13T11:19:41Z</time>
      </trkpt>
      <trkpt lat="45.92483" lon="6.51974">
        <ele>2184.303</ele>
        <time>2026-03-13T11:19:46Z</time>
      </trkpt>
      <trkpt lat="45.92483" lon="6.51974">
        <ele>2184.311</ele>
        <time>2026-03-13T11:19:51Z</time>
      </trkpt>
      <trkpt lat="45.92483" lon="6.51974">
        <ele>2184.31</ele>
        <time>2026-03-13T11:19:56Z</time>
      </trkpt>
      <trkpt lat="45.92483" lon="6.51974">
        <ele>2184.31</ele>
        <time>2026-03-13T11:20:01Z</time>
      </trkpt>
      <trkpt lat="45.92483" lon="6.51974">
        <ele>2185.807</ele>
        <time>2026-03-13T11:20:06Z</time>
      </trkpt>
      <trkpt lat="45.92483" lon="6.51974">
        <ele>2185.654</ele>
        <time>2026-03-13T11:20:11Z</time>
      </trkpt>
      <trkpt lat="45.92483" lon="6.51974">
        <ele>2185.915</ele>
        <time>2026-03-13T11:20:16Z</time>
      </trkpt>
      <trkpt lat="45.92483" lon="6.51974">
        <ele>2184.976</ele>
        <time>2026-03-13T11:20:21Z</time>
      </trkpt>
      <trkpt lat="45.92483" lon="6.51974">
        <ele>2184.289</ele>
        <time>2026-03-13T11:20:26Z</time>
      </trkpt>
      <trkpt lat="45.92483" lon="6.51974">
        <ele>2184.173</ele>
        <time>2026-03-13T11:20:31Z</time>
      </trkpt>
      <trkpt lat="45.92483" lon="6.51974">
        <ele>2184.195</ele>
        <time>2026-03-13T11:20:36Z</time>
      </trkpt>
      <trkpt lat="45.92483" lon="6.51974">
        <ele>2184.215</ele>
        <time>2026-03-13T11:20:41Z</time>
      </trkpt>
      <trkpt lat="45.92483" lon="6.51974">
        <ele>2184.922</ele>
        <time>2026-03-13T11:20:46Z</time>
      </trkpt>
      <trkpt lat="45.92483" lon="6.51974">
        <ele>2185.801</ele>
        <time>2026-03-13T11:20:51Z</time>
      </trkpt>
      <trkpt lat="45.92483" lon="6.51974">
        <ele>2186.339</ele>
        <time>2026-03-13T11:20:56Z</time>
      </trkpt>
      <trkpt lat="45.92483" lon="6.51974">
        <ele>2186.376</ele>
        <time>2026-03-13T11:21:01Z</time>
      </trkpt>
      <trkpt lat="45.92483" lon="6.51974">
        <ele>2186.386</ele>
        <time>2026-03-13T11:21:06Z</time>
      </trkpt>
      <trkpt lat="45.92483" lon="6.51974">
        <ele>2186.394</ele>
        <time>2026-03-13T11:21:11Z</time>
      </trkpt>
      <trkpt lat="45.92483" lon="6.51974">
        <ele>2186.402</ele>
        <time>2026-03-13T11:21:16Z</time>
      </trkpt>
      <trkpt lat="45.92483" lon="6.51974">
        <ele>2186.409</ele>
        <time>2026-03-13T11:21:21Z</time>
      </trkpt>
      <trkpt lat="45.92483" lon="6.51974">
        <ele>2186.405</ele>
        <time>2026-03-13T11:21:26Z</time>
      </trkpt>
      <trkpt lat="45.92483" lon="6.51974">
        <ele>2186.402</ele>
        <time>2026-03-13T11:21:31Z</time>
      </trkpt>
      <trkpt lat="45.92483" lon="6.51974">
        <ele>2186.399</ele>
        <time>2026-03-13T11:21:36Z</time>
      </trkpt>
      <trkpt lat="45.92483" lon="6.51974">
        <ele>2186.395</ele>
        <time>2026-03-13T11:21:41Z</time>
      </trkpt>
      <trkpt lat="45.92483" lon="6.51974">
        <ele>2186.393</ele>
        <time>2026-03-13T11:21:46Z</time>
      </trkpt>
      <trkpt lat="45.92483" lon="6.51974">
        <ele>2186.384</ele>
        <time>2026-03-13T11:21:51Z</time>
      </trkpt>
      <trkpt lat="45.92483" lon="6.51974">
        <ele>2186.387</ele>
        <time>2026-03-13T11:21:56Z</time>
      </trkpt>
      <trkpt lat="45.92483" lon="6.51974">
        <ele>2186.375</ele>
        <time>2026-03-13T11:22:01Z</time>
      </trkpt>
      <trkpt lat="45.92483" lon="6.51974">
        <ele>2186.369</ele>
        <time>2026-03-13T11:22:06Z</time>
      </trkpt>
      <trkpt lat="45.92483" lon="6.51974">
        <ele>2186.359</ele>
        <time>2026-03-13T11:22:11Z</time>
      </trkpt>
      <trkpt lat="45.92483" lon="6.51974">
        <ele>2186.347</ele>
        <time>2026-03-13T11:22:16Z</time>
      </trkpt>
      <trkpt lat="45.92483" lon="6.51974">
        <ele>2186.35</ele>
        <time>2026-03-13T11:22:21Z</time>
      </trkpt>
      <trkpt lat="45.92483" lon="6.51974">
        <ele>2186.349</ele>
        <time>2026-03-13T11:22:26Z</time>
      </trkpt>
      <trkpt lat="45.92483" lon="6.51974">
        <ele>2186.351</ele>
        <time>2026-03-13T11:22:31Z</time>
      </trkpt>
      <trkpt lat="45.92483" lon="6.51974">
        <ele>2186.353</ele>
        <time>2026-03-13T11:22:36Z</time>
      </trkpt>
      <trkpt lat="45.92483" lon="6.51974">
        <ele>2186.359</ele>
        <time>2026-03-13T11:22:41Z</time>
      </trkpt>
      <trkpt lat="45.92483" lon="6.51974">
        <ele>2186.358</ele>
        <time>2026-03-13T11:22:46Z</time>
      </trkpt>
      <trkpt lat="45.92483" lon="6.51974">
        <ele>2186.37</ele>
        <time>2026-03-13T11:22:51Z</time>
      </trkpt>
      <trkpt lat="45.92483" lon="6.51974">
        <ele>2186.371</ele>
        <time>2026-03-13T11:22:56Z</time>
      </trkpt>
      <trkpt lat="45.92483" lon="6.51974">
        <ele>2186.382</ele>
        <time>2026-03-13T11:23:01Z</time>
      </trkpt>
      <trkpt lat="45.92483" lon="6.51974">
        <ele>2186.391</ele>
        <time>2026-03-13T11:23:06Z</time>
      </trkpt>
      <trkpt lat="45.92483" lon="6.51974">
        <ele>2186.397</ele>
        <time>2026-03-13T11:23:11Z</time>
      </trkpt>
      <trkpt lat="45.92483" lon="6.51974">
        <ele>2186.402</ele>
        <time>2026-03-13T11:23:16Z</time>
      </trkpt>
      <trkpt lat="45.92483" lon="6.51974">
        <ele>2186.404</ele>
        <time>2026-03-13T11:23:21Z</time>
      </trkpt>
      <trkpt lat="45.92483" lon="6.51974">
        <ele>2186.405</ele>
        <time>2026-03-13T11:23:26Z</time>
      </trkpt>
      <trkpt lat="45.92483" lon="6.51974">
        <ele>2186.415</ele>
        <time>2026-03-13T11:23:31Z</time>
      </trkpt>
      <trkpt lat="45.92483" lon="6.51974">
        <ele>2186.416</ele>
        <time>2026-03-13T11:23:36Z</time>
      </trkpt>
      <trkpt lat="45.92483" lon="6.51974">
        <ele>2186.462</ele>
        <time>2026-03-13T11:23:41Z</time>
      </trkpt>
      <trkpt lat="45.92483" lon="6.51974">
        <ele>2186.459</ele>
        <time>2026-03-13T11:23:46Z</time>
      </trkpt>
      <trkpt lat="45.92483" lon="6.51974">
        <ele>2186.507</ele>
        <time>2026-03-13T11:23:51Z</time>
      </trkpt>
      <trkpt lat="45.92483" lon="6.51974">
        <ele>2186.586</ele>
        <time>2026-03-13T11:23:56Z</time>
      </trkpt>
      <trkpt lat="45.92483" lon="6.51974">
        <ele>2186.583</ele>
        <time>2026-03-13T11:24:01Z</time>
      </trkpt>
      <trkpt lat="45.92483" lon="6.51974">
        <ele>2186.579</ele>
        <time>2026-03-13T11:24:06Z</time>
      </trkpt>
      <trkpt lat="45.92483" lon="6.51974">
        <ele>2186.57</ele>
        <time>2026-03-13T11:24:11Z</time>
      </trkpt>
      <trkpt lat="45.92483" lon="6.51974">
        <ele>2186.56</ele>
        <time>2026-03-13T11:24:16Z</time>
      </trkpt>
      <trkpt lat="45.92483" lon="6.51974">
        <ele>2186.55</ele>
        <time>2026-03-13T11:24:21Z</time>
      </trkpt>
      <trkpt lat="45.92483" lon="6.51974">
        <ele>2186.536</ele>
        <time>2026-03-13T11:24:26Z</time>
      </trkpt>
      <trkpt lat="45.92483" lon="6.51974">
        <ele>2186.53</ele>
        <time>2026-03-13T11:24:31Z</time>
      </trkpt>
      <trkpt lat="45.92483" lon="6.51974">
        <ele>2186.517</ele>
        <time>2026-03-13T11:24:36Z</time>
      </trkpt>
      <trkpt lat="45.92483" lon="6.51974">
        <ele>2186.509</ele>
        <time>2026-03-13T11:24:41Z</time>
      </trkpt>
      <trkpt lat="45.92483" lon="6.51974">
        <ele>2186.502</ele>
        <time>2026-03-13T11:24:46Z</time>
      </trkpt>
      <trkpt lat="45.92483" lon="6.51974">
        <ele>2186.495</ele>
        <time>2026-03-13T11:24:51Z</time>
      </trkpt>
      <trkpt lat="45.92483" lon="6.51974">
        <ele>2186.482</ele>
        <time>2026-03-13T11:24:56Z</time>
      </trkpt>
      <trkpt lat="45.92483" lon="6.51974">
        <ele>2186.836</ele>
        <time>2026-03-13T11:25:01Z</time>
      </trkpt>
      <trkpt lat="45.92484" lon="6.51978">
        <ele>2188.326</ele>
        <time>2026-03-13T11:25:06Z</time>
      </trkpt>
      <trkpt lat="45.92482" lon="6.51979">
        <ele>2190.082</ele>
        <time>2026-03-13T11:25:11Z</time>
      </trkpt>
      <trkpt lat="45.9248" lon="6.51982">
        <ele>2189.618</ele>
        <time>2026-03-13T11:25:16Z</time>
      </trkpt>
      <trkpt lat="45.92479" lon="6.51984">
        <ele>2190.068</ele>
        <time>2026-03-13T11:25:21Z</time>
      </trkpt>
      <trkpt lat="45.92477" lon="6.51985">
        <ele>2190.347</ele>
        <time>2026-03-13T11:25:26Z</time>
      </trkpt>
      <trkpt lat="45.92476" lon="6.51987">
        <ele>2190.913</ele>
        <time>2026-03-13T11:25:31Z</time>
      </trkpt>
      <trkpt lat="45.92475" lon="6.5199">
        <ele>2192.101</ele>
        <time>2026-03-13T11:25:36Z</time>
      </trkpt>
      <trkpt lat="45.92474" lon="6.51993">
        <ele>2193.598</ele>
        <time>2026-03-13T11:25:41Z</time>
      </trkpt>
      <trkpt lat="45.92473" lon="6.51995">
        <ele>2194.269</ele>
        <time>2026-03-13T11:25:46Z</time>
      </trkpt>
      <trkpt lat="45.92472" lon="6.51998">
        <ele>2195.233</ele>
        <time>2026-03-13T11:25:51Z</time>
      </trkpt>
      <trkpt lat="45.92472" lon="6.52003">
        <ele>2196.756</ele>
        <time>2026-03-13T11:25:56Z</time>
      </trkpt>
      <trkpt lat="45.92471" lon="6.52007">
        <ele>2197.602</ele>
        <time>2026-03-13T11:26:01Z</time>
      </trkpt>
      <trkpt lat="45.9247" lon="6.5201">
        <ele>2195.681</ele>
        <time>2026-03-13T11:26:06Z</time>
      </trkpt>
      <trkpt lat="45.92469" lon="6.52014">
        <ele>2196.426</ele>
        <time>2026-03-13T11:26:11Z</time>
      </trkpt>
      <trkpt lat="45.92468" lon="6.52017">
        <ele>2196.259</ele>
        <time>2026-03-13T11:26:16Z</time>
      </trkpt>
      <trkpt lat="45.92467" lon="6.52021">
        <ele>2197.71</ele>
        <time>2026-03-13T11:26:21Z</time>
      </trkpt>
      <trkpt lat="45.92466" lon="6.52025">
        <ele>2199.586</ele>
        <time>2026-03-13T11:26:26Z</time>
      </trkpt>
      <trkpt lat="45.92464" lon="6.52027">
        <ele>2199.397</ele>
        <time>2026-03-13T11:26:31Z</time>
      </trkpt>
      <trkpt lat="45.92463" lon="6.52031">
        <ele>2198.987</ele>
        <time>2026-03-13T11:26:36Z</time>
      </trkpt>
      <trkpt lat="45.92462" lon="6.52035">
        <ele>2200.145</ele>
        <time>2026-03-13T11:26:41Z</time>
      </trkpt>
      <trkpt lat="45.92461" lon="6.52039">
        <ele>2201.064</ele>
        <time>2026-03-13T11:26:46Z</time>
      </trkpt>
      <trkpt lat="45.92459" lon="6.52041">
        <ele>2202.254</ele>
        <time>2026-03-13T11:26:51Z</time>
      </trkpt>
      <trkpt lat="45.92458" lon="6.52044">
        <ele>2202.522</ele>
        <time>2026-03-13T11:26:56Z</time>
      </trkpt>
      <trkpt lat="45.92456" lon="6.52048">
        <ele>2202.857</ele>
        <time>2026-03-13T11:27:01Z</time>
      </trkpt>
      <trkpt lat="45.92455" lon="6.52052">
        <ele>2203.344</ele>
        <time>2026-03-13T11:27:06Z</time>
      </trkpt>
      <trkpt lat="45.92453" lon="6.52057">
        <ele>2203.032</ele>
        <time>2026-03-13T11:27:11Z</time>
      </trkpt>
      <trkpt lat="45.92452" lon="6.52062">
        <ele>2203.696</ele>
        <time>2026-03-13T11:27:16Z</time>
      </trkpt>
      <trkpt lat="45.92451" lon="6.52067">
        <ele>2203.847</ele>
        <time>2026-03-13T11:27:21Z</time>
      </trkpt>
      <trkpt lat="45.9245" lon="6.52072">
        <ele>2203.49</ele>
        <time>2026-03-13T11:27:26Z</time>
      </trkpt>
      <trkpt lat="45.9245" lon="6.52076">
        <ele>2202.249</ele>
        <time>2026-03-13T11:27:31Z</time>
      </trkpt>
      <trkpt lat="45.92449" lon="6.5208">
        <ele>2202.95</ele>
        <time>2026-03-13T11:27:36Z</time>
      </trkpt>
      <trkpt lat="45.92448" lon="6.52083">
        <ele>2203.887</ele>
        <time>2026-03-13T11:27:41Z</time>
      </trkpt>
      <trkpt lat="45.92447" lon="6.52087">
        <ele>2205.55</ele>
        <time>2026-03-13T11:27:46Z</time>
      </trkpt>
      <trkpt lat="45.92447" lon="6.52088">
        <ele>2205.769</ele>
        <time>2026-03-13T11:27:51Z</time>
      </trkpt>
      <trkpt lat="45.92446" lon="6.52091">
        <ele>2205.828</ele>
        <time>2026-03-13T11:27:56Z</time>
      </trkpt>
      <trkpt lat="45.92445" lon="6.52093">
        <ele>2206.426</ele>
        <time>2026-03-13T11:28:01Z</time>
      </trkpt>
      <trkpt lat="45.92445" lon="6.52097">
        <ele>2208.082</ele>
        <time>2026-03-13T11:28:06Z</time>
      </trkpt>
      <trkpt lat="45.92444" lon="6.52101">
        <ele>2209.2</ele>
        <time>2026-03-13T11:28:11Z</time>
      </trkpt>
      <trkpt lat="45.92443" lon="6.52105">
        <ele>2209.498</ele>
        <time>2026-03-13T11:28:16Z</time>
      </trkpt>
      <trkpt lat="45.92442" lon="6.52109">
        <ele>2209.672</ele>
        <time>2026-03-13T11:28:21Z</time>
      </trkpt>
      <trkpt lat="45.92441" lon="6.52113">
        <ele>2210.306</ele>
        <time>2026-03-13T11:28:26Z</time>
      </trkpt>
      <trkpt lat="45.9244" lon="6.52117">
        <ele>2210.896</ele>
        <time>2026-03-13T11:28:31Z</time>
      </trkpt>
      <trkpt lat="45.9244" lon="6.52121">
        <ele>2211.619</ele>
        <time>2026-03-13T11:28:36Z</time>
      </trkpt>
      <trkpt lat="45.92439" lon="6.52125">
        <ele>2212.039</ele>
        <time>2026-03-13T11:28:41Z</time>
      </trkpt>
      <trkpt lat="45.92438" lon="6.52129">
        <ele>2212.669</ele>
        <time>2026-03-13T11:28:46Z</time>
      </trkpt>
      <trkpt lat="45.92438" lon="6.52133">
        <ele>2213.995</ele>
        <time>2026-03-13T11:28:51Z</time>
      </trkpt>
      <trkpt lat="45.92437" lon="6.52137">
        <ele>2215.94</ele>
        <time>2026-03-13T11:28:56Z</time>
      </trkpt>
      <trkpt lat="45.92436" lon="6.5214">
        <ele>2216.223</ele>
        <time>2026-03-13T11:29:01Z</time>
      </trkpt>
      <trkpt lat="45.92434" lon="6.52144">
        <ele>2215.832</ele>
        <time>2026-03-13T11:29:06Z</time>
      </trkpt>
      <trkpt lat="45.92434" lon="6.5215">
        <ele>2216.009</ele>
        <time>2026-03-13T11:29:11Z</time>
      </trkpt>
      <trkpt lat="45.92432" lon="6.52155">
        <ele>2216.153</ele>
        <time>2026-03-13T11:29:16Z</time>
      </trkpt>
      <trkpt lat="45.92431" lon="6.52159">
        <ele>2216.64</ele>
        <time>2026-03-13T11:29:21Z</time>
      </trkpt>
      <trkpt lat="45.92431" lon="6.52163">
        <ele>2216.17</ele>
        <time>2026-03-13T11:29:26Z</time>
      </trkpt>
      <trkpt lat="45.9243" lon="6.52168">
        <ele>2215.76</ele>
        <time>2026-03-13T11:29:31Z</time>
      </trkpt>
      <trkpt lat="45.9243" lon="6.52173">
        <ele>2215.071</ele>
        <time>2026-03-13T11:29:36Z</time>
      </trkpt>
      <trkpt lat="45.92429" lon="6.52177">
        <ele>2215.355</ele>
        <time>2026-03-13T11:29:41Z</time>
      </trkpt>
      <trkpt lat="45.92429" lon="6.52182">
        <ele>2214.579</ele>
        <time>2026-03-13T11:29:46Z</time>
      </trkpt>
      <trkpt lat="45.9243" lon="6.52189">
        <ele>2214.76</ele>
        <time>2026-03-13T11:29:51Z</time>
      </trkpt>
      <trkpt lat="45.92428" lon="6.52193">
        <ele>2214.213</ele>
        <time>2026-03-13T11:29:56Z</time>
      </trkpt>
      <trkpt lat="45.92427" lon="6.52198">
        <ele>2214.924</ele>
        <time>2026-03-13T11:30:01Z</time>
      </trkpt>
      <trkpt lat="45.92427" lon="6.52203">
        <ele>2215.147</ele>
        <time>2026-03-13T11:30:06Z</time>
      </trkpt>
      <trkpt lat="45.92427" lon="6.52208">
        <ele>2215.798</ele>
        <time>2026-03-13T11:30:11Z</time>
      </trkpt>
      <trkpt lat="45.92426" lon="6.52214">
        <ele>2216.872</ele>
        <time>2026-03-13T11:30:16Z</time>
      </trkpt>
      <trkpt lat="45.92426" lon="6.52219">
        <ele>2216.639</ele>
        <time>2026-03-13T11:30:21Z</time>
      </trkpt>
      <trkpt lat="45.92426" lon="6.52226">
        <ele>2215.776</ele>
        <time>2026-03-13T11:30:26Z</time>
      </trkpt>
      <trkpt lat="45.92426" lon="6.52231">
        <ele>2216.238</ele>
        <time>2026-03-13T11:30:31Z</time>
      </trkpt>
      <trkpt lat="45.92425" lon="6.52237">
        <ele>2217.324</ele>
        <time>2026-03-13T11:30:36Z</time>
      </trkpt>
      <trkpt lat="45.92424" lon="6.52241">
        <ele>2217.575</ele>
        <time>2026-03-13T11:30:41Z</time>
      </trkpt>
      <trkpt lat="45.92423" lon="6.52244">
        <ele>2218.146</ele>
        <time>2026-03-13T11:30:46Z</time>
      </trkpt>
      <trkpt lat="45.92421" lon="6.52247">
        <ele>2218.344</ele>
        <time>2026-03-13T11:30:51Z</time>
      </trkpt>
      <trkpt lat="45.9242" lon="6.52252">
        <ele>2219.787</ele>
        <time>2026-03-13T11:30:56Z</time>
      </trkpt>
      <trkpt lat="45.92419" lon="6.52255">
        <ele>2221.533</ele>
        <time>2026-03-13T11:31:01Z</time>
      </trkpt>
      <trkpt lat="45.92417" lon="6.52258">
        <ele>2222.999</ele>
        <time>2026-03-13T11:31:06Z</time>
      </trkpt>
      <trkpt lat="45.92416" lon="6.5226">
        <ele>2224.399</ele>
        <time>2026-03-13T11:31:11Z</time>
      </trkpt>
      <trkpt lat="45.92414" lon="6.52262">
        <ele>2224.955</ele>
        <time>2026-03-13T11:31:16Z</time>
      </trkpt>
      <trkpt lat="45.92413" lon="6.52264">
        <ele>2225.563</ele>
        <time>2026-03-13T11:31:21Z</time>
      </trkpt>
      <trkpt lat="45.92412" lon="6.52268">
        <ele>2225.826</ele>
        <time>2026-03-13T11:31:26Z</time>
      </trkpt>
      <trkpt lat="45.92411" lon="6.52273">
        <ele>2226.33</ele>
        <time>2026-03-13T11:31:31Z</time>
      </trkpt>
      <trkpt lat="45.9241" lon="6.52277">
        <ele>2226.821</ele>
        <time>2026-03-13T11:31:36Z</time>
      </trkpt>
      <trkpt lat="45.92409" lon="6.52282">
        <ele>2227.097</ele>
        <time>2026-03-13T11:31:41Z</time>
      </trkpt>
      <trkpt lat="45.92409" lon="6.52286">
        <ele>2228.296</ele>
        <time>2026-03-13T11:31:46Z</time>
      </trkpt>
      <trkpt lat="45.92408" lon="6.5229">
        <ele>2229.249</ele>
        <time>2026-03-13T11:31:51Z</time>
      </trkpt>
      <trkpt lat="45.92409" lon="6.52293">
        <ele>2230.182</ele>
        <time>2026-03-13T11:31:56Z</time>
      </trkpt>
      <trkpt lat="45.9241" lon="6.52298">
        <ele>2230.34</ele>
        <time>2026-03-13T11:32:01Z</time>
      </trkpt>
      <trkpt lat="45.92411" lon="6.52304">
        <ele>2230.511</ele>
        <time>2026-03-13T11:32:06Z</time>
      </trkpt>
      <trkpt lat="45.92413" lon="6.5231">
        <ele>2229.321</ele>
        <time>2026-03-13T11:32:11Z</time>
      </trkpt>
      <trkpt lat="45.92413" lon="6.52315">
        <ele>2229.564</ele>
        <time>2026-03-13T11:32:16Z</time>
      </trkpt>
      <trkpt lat="45.92413" lon="6.52319">
        <ele>2229.787</ele>
        <time>2026-03-13T11:32:21Z</time>
      </trkpt>
      <trkpt lat="45.92413" lon="6.52324">
        <ele>2230.383</ele>
        <time>2026-03-13T11:32:26Z</time>
      </trkpt>
      <trkpt lat="45.92414" lon="6.52328">
        <ele>2230.663</ele>
        <time>2026-03-13T11:32:31Z</time>
      </trkpt>
      <trkpt lat="45.92415" lon="6.52332">
        <ele>2231.122</ele>
        <time>2026-03-13T11:32:36Z</time>
      </trkpt>
      <trkpt lat="45.92415" lon="6.52336">
        <ele>2231.535</ele>
        <time>2026-03-13T11:32:41Z</time>
      </trkpt>
      <trkpt lat="45.92415" lon="6.5234">
        <ele>2232.925</ele>
        <time>2026-03-13T11:32:46Z</time>
      </trkpt>
      <trkpt lat="45.92415" lon="6.52344">
        <ele>2233.241</ele>
        <time>2026-03-13T11:32:51Z</time>
      </trkpt>
      <trkpt lat="45.92415" lon="6.52349">
        <ele>2233.54</ele>
        <time>2026-03-13T11:32:56Z</time>
      </trkpt>
      <trkpt lat="45.92415" lon="6.52354">
        <ele>2233.797</ele>
        <time>2026-03-13T11:33:01Z</time>
      </trkpt>
      <trkpt lat="45.92415" lon="6.52357">
        <ele>2233.553</ele>
        <time>2026-03-13T11:33:06Z</time>
      </trkpt>
      <trkpt lat="45.92415" lon="6.52362">
        <ele>2233.768</ele>
        <time>2026-03-13T11:33:11Z</time>
      </trkpt>
      <trkpt lat="45.92415" lon="6.52366">
        <ele>2233.571</ele>
        <time>2026-03-13T11:33:16Z</time>
      </trkpt>
      <trkpt lat="45.92414" lon="6.52369">
        <ele>2234.737</ele>
        <time>2026-03-13T11:33:21Z</time>
      </trkpt>
      <trkpt lat="45.92414" lon="6.52373">
        <ele>2235.6</ele>
        <time>2026-03-13T11:33:26Z</time>
      </trkpt>
      <trkpt lat="45.92415" lon="6.52376">
        <ele>2236.644</ele>
        <time>2026-03-13T11:33:31Z</time>
      </trkpt>
      <trkpt lat="45.92415" lon="6.52379">
        <ele>2235.757</ele>
        <time>2026-03-13T11:33:36Z</time>
      </trkpt>
      <trkpt lat="45.92415" lon="6.52379">
        <ele>2235.751</ele>
        <time>2026-03-13T11:33:41Z</time>
      </trkpt>
      <trkpt lat="45.92415" lon="6.52379">
        <ele>2235.741</ele>
        <time>2026-03-13T11:33:46Z</time>
      </trkpt>
      <trkpt lat="45.92415" lon="6.52379">
        <ele>2235.73</ele>
        <time>2026-03-13T11:33:51Z</time>
      </trkpt>
      <trkpt lat="45.92415" lon="6.52379">
        <ele>2235.725</ele>
        <time>2026-03-13T11:33:56Z</time>
      </trkpt>
      <trkpt lat="45.92414" lon="6.52383">
        <ele>2236.265</ele>
        <time>2026-03-13T11:34:01Z</time>
      </trkpt>
      <trkpt lat="45.92414" lon="6.52388">
        <ele>2236.796</ele>
        <time>2026-03-13T11:34:06Z</time>
      </trkpt>
      <trkpt lat="45.92414" lon="6.52392">
        <ele>2236.079</ele>
        <time>2026-03-13T11:34:11Z</time>
      </trkpt>
      <trkpt lat="45.92414" lon="6.52396">
        <ele>2235.656</ele>
        <time>2026-03-13T11:34:16Z</time>
      </trkpt>
      <trkpt lat="45.92413" lon="6.524">
        <ele>2236.925</ele>
        <time>2026-03-13T11:34:21Z</time>
      </trkpt>
      <trkpt lat="45.92415" lon="6.52403">
        <ele>2237.121</ele>
        <time>2026-03-13T11:34:26Z</time>
      </trkpt>
      <trkpt lat="45.92415" lon="6.52407">
        <ele>2238.083</ele>
        <time>2026-03-13T11:34:31Z</time>
      </trkpt>
      <trkpt lat="45.92415" lon="6.52407">
        <ele>2238.226</ele>
        <time>2026-03-13T11:34:36Z</time>
      </trkpt>
      <trkpt lat="45.92415" lon="6.52407">
        <ele>2238.242</ele>
        <time>2026-03-13T11:34:41Z</time>
      </trkpt>
      <trkpt lat="45.92415" lon="6.52407">
        <ele>2238.25</ele>
        <time>2026-03-13T11:34:46Z</time>
      </trkpt>
      <trkpt lat="45.92415" lon="6.52407">
        <ele>2238.241</ele>
        <time>2026-03-13T11:34:51Z</time>
      </trkpt>
      <trkpt lat="45.92415" lon="6.52407">
        <ele>2238.242</ele>
        <time>2026-03-13T11:34:56Z</time>
      </trkpt>
      <trkpt lat="45.92415" lon="6.52407">
        <ele>2238.258</ele>
        <time>2026-03-13T11:35:01Z</time>
      </trkpt>
      <trkpt lat="45.92415" lon="6.52407">
        <ele>2238.278</ele>
        <time>2026-03-13T11:35:06Z</time>
      </trkpt>
      <trkpt lat="45.92415" lon="6.52407">
        <ele>2238.293</ele>
        <time>2026-03-13T11:35:11Z</time>
      </trkpt>
      <trkpt lat="45.92415" lon="6.52407">
        <ele>2238.296</ele>
        <time>2026-03-13T11:35:16Z</time>
      </trkpt>
      <trkpt lat="45.92415" lon="6.52407">
        <ele>2238.299</ele>
        <time>2026-03-13T11:35:21Z</time>
      </trkpt>
      <trkpt lat="45.92415" lon="6.52407">
        <ele>2238.302</ele>
        <time>2026-03-13T11:35:26Z</time>
      </trkpt>
      <trkpt lat="45.92415" lon="6.52407">
        <ele>2238.323</ele>
        <time>2026-03-13T11:35:31Z</time>
      </trkpt>
      <trkpt lat="45.92415" lon="6.52407">
        <ele>2238.335</ele>
        <time>2026-03-13T11:35:36Z</time>
      </trkpt>
      <trkpt lat="45.92415" lon="6.52407">
        <ele>2238.367</ele>
        <time>2026-03-13T11:35:41Z</time>
      </trkpt>
      <trkpt lat="45.92415" lon="6.52407">
        <ele>2238.372</ele>
        <time>2026-03-13T11:35:46Z</time>
      </trkpt>
      <trkpt lat="45.92415" lon="6.52407">
        <ele>2238.363</ele>
        <time>2026-03-13T11:35:51Z</time>
      </trkpt>
      <trkpt lat="45.92415" lon="6.52407">
        <ele>2238.355</ele>
        <time>2026-03-13T11:35:56Z</time>
      </trkpt>
      <trkpt lat="45.92415" lon="6.52407">
        <ele>2238.362</ele>
        <time>2026-03-13T11:36:01Z</time>
      </trkpt>
      <trkpt lat="45.92415" lon="6.52407">
        <ele>2238.361</ele>
        <time>2026-03-13T11:36:06Z</time>
      </trkpt>
      <trkpt lat="45.92415" lon="6.52407">
        <ele>2238.357</ele>
        <time>2026-03-13T11:36:11Z</time>
      </trkpt>
      <trkpt lat="45.92415" lon="6.52407">
        <ele>2238.352</ele>
        <time>2026-03-13T11:36:16Z</time>
      </trkpt>
      <trkpt lat="45.92415" lon="6.52407">
        <ele>2238.36</ele>
        <time>2026-03-13T11:36:21Z</time>
      </trkpt>
      <trkpt lat="45.92415" lon="6.52407">
        <ele>2238.56</ele>
        <time>2026-03-13T11:36:26Z</time>
      </trkpt>
      <trkpt lat="45.92415" lon="6.52407">
        <ele>2238.152</ele>
        <time>2026-03-13T11:36:31Z</time>
      </trkpt>
      <trkpt lat="45.92415" lon="6.52407">
        <ele>2237.961</ele>
        <time>2026-03-13T11:36:36Z</time>
      </trkpt>
      <trkpt lat="45.92415" lon="6.52407">
        <ele>2238.028</ele>
        <time>2026-03-13T11:36:41Z</time>
      </trkpt>
      <trkpt lat="45.92414" lon="6.52419">
        <ele>2238.576</ele>
        <time>2026-03-13T11:36:46Z</time>
      </trkpt>
      <trkpt lat="45.92414" lon="6.52424">
        <ele>2238.208</ele>
        <time>2026-03-13T11:36:51Z</time>
      </trkpt>
      <trkpt lat="45.92412" lon="6.52429">
        <ele>2237.695</ele>
        <time>2026-03-13T11:36:56Z</time>
      </trkpt>
      <trkpt lat="45.92412" lon="6.52434">
        <ele>2238.622</ele>
        <time>2026-03-13T11:37:01Z</time>
      </trkpt>
      <trkpt lat="45.92412" lon="6.52438">
        <ele>2238.593</ele>
        <time>2026-03-13T11:37:06Z</time>
      </trkpt>
      <trkpt lat="45.92411" lon="6.52444">
        <ele>2238.245</ele>
        <time>2026-03-13T11:37:11Z</time>
      </trkpt>
      <trkpt lat="45.92411" lon="6.52449">
        <ele>2238.701</ele>
        <time>2026-03-13T11:37:16Z</time>
      </trkpt>
      <trkpt lat="45.92411" lon="6.52454">
        <ele>2238.774</ele>
        <time>2026-03-13T11:37:21Z</time>
      </trkpt>
      <trkpt lat="45.92411" lon="6.52459">
        <ele>2239.446</ele>
        <time>2026-03-13T11:37:26Z</time>
      </trkpt>
      <trkpt lat="45.92412" lon="6.52463">
        <ele>2240.272</ele>
        <time>2026-03-13T11:37:31Z</time>
      </trkpt>
      <trkpt lat="45.92413" lon="6.52468">
        <ele>2241.179</ele>
        <time>2026-03-13T11:37:36Z</time>
      </trkpt>
      <trkpt lat="45.92414" lon="6.52473">
        <ele>2241.585</ele>
        <time>2026-03-13T11:37:41Z</time>
      </trkpt>
      <trkpt lat="45.92414" lon="6.52477">
        <ele>2241.785</ele>
        <time>2026-03-13T11:37:46Z</time>
      </trkpt>
      <trkpt lat="45.92413" lon="6.5248">
        <ele>2242.715</ele>
        <time>2026-03-13T11:37:51Z</time>
      </trkpt>
      <trkpt lat="45.92413" lon="6.52481">
        <ele>2244.203</ele>
        <time>2026-03-13T11:37:56Z</time>
      </trkpt>
      <trkpt lat="45.92413" lon="6.52484">
        <ele>2245.08</ele>
        <time>2026-03-13T11:38:01Z</time>
      </trkpt>
      <trkpt lat="45.92412" lon="6.52486">
        <ele>2248.268</ele>
        <time>2026-03-13T11:38:06Z</time>
      </trkpt>
      <trkpt lat="45.9241" lon="6.52488">
        <ele>2249.129</ele>
        <time>2026-03-13T11:38:11Z</time>
      </trkpt>
      <trkpt lat="45.92409" lon="6.5249">
        <ele>2251.742</ele>
        <time>2026-03-13T11:38:16Z</time>
      </trkpt>
      <trkpt lat="45.92408" lon="6.52491">
        <ele>2252.56</ele>
        <time>2026-03-13T11:38:21Z</time>
      </trkpt>
      <trkpt lat="45.92407" lon="6.52494">
        <ele>2253.14</ele>
        <time>2026-03-13T11:38:26Z</time>
      </trkpt>
      <trkpt lat="45.92406" lon="6.52496">
        <ele>2254.46</ele>
        <time>2026-03-13T11:38:31Z</time>
      </trkpt>
      <trkpt lat="45.92404" lon="6.525">
        <ele>2254.417</ele>
        <time>2026-03-13T11:38:36Z</time>
      </trkpt>
      <trkpt lat="45.92403" lon="6.52502">
        <ele>2255.957</ele>
        <time>2026-03-13T11:38:41Z</time>
      </trkpt>
      <trkpt lat="45.92401" lon="6.52505">
        <ele>2255.917</ele>
        <time>2026-03-13T11:38:46Z</time>
      </trkpt>
      <trkpt lat="45.924" lon="6.52508">
        <ele>2256.879</ele>
        <time>2026-03-13T11:38:51Z</time>
      </trkpt>
      <trkpt lat="45.92399" lon="6.5251">
        <ele>2257.871</ele>
        <time>2026-03-13T11:38:56Z</time>
      </trkpt>
      <trkpt lat="45.92398" lon="6.52514">
        <ele>2257.811</ele>
        <time>2026-03-13T11:39:01Z</time>
      </trkpt>
      <trkpt lat="45.92397" lon="6.52517">
        <ele>2258.389</ele>
        <time>2026-03-13T11:39:06Z</time>
      </trkpt>
      <trkpt lat="45.92395" lon="6.5252">
        <ele>2258.869</ele>
        <time>2026-03-13T11:39:11Z</time>
      </trkpt>
      <trkpt lat="45.92395" lon="6.52523">
        <ele>2257.905</ele>
        <time>2026-03-13T11:39:16Z</time>
      </trkpt>
      <trkpt lat="45.92394" lon="6.52527">
        <ele>2258.735</ele>
        <time>2026-03-13T11:39:21Z</time>
      </trkpt>
      <trkpt lat="45.92393" lon="6.52529">
        <ele>2258.73</ele>
        <time>2026-03-13T11:39:26Z</time>
      </trkpt>
      <trkpt lat="45.92393" lon="6.52532">
        <ele>2259.221</ele>
        <time>2026-03-13T11:39:31Z</time>
      </trkpt>
      <trkpt lat="45.92393" lon="6.52535">
        <ele>2260.369</ele>
        <time>2026-03-13T11:39:36Z</time>
      </trkpt>
      <trkpt lat="45.92393" lon="6.52538">
        <ele>2260.284</ele>
        <time>2026-03-13T11:39:41Z</time>
      </trkpt>
      <trkpt lat="45.92392" lon="6.52542">
        <ele>2259.376</ele>
        <time>2026-03-13T11:39:46Z</time>
      </trkpt>
      <trkpt lat="45.92393" lon="6.52545">
        <ele>2260.631</ele>
        <time>2026-03-13T11:39:51Z</time>
      </trkpt>
      <trkpt lat="45.92392" lon="6.52548">
        <ele>2261.64</ele>
        <time>2026-03-13T11:39:56Z</time>
      </trkpt>
      <trkpt lat="45.92392" lon="6.52551">
        <ele>2261.545</ele>
        <time>2026-03-13T11:40:01Z</time>
      </trkpt>
      <trkpt lat="45.92392" lon="6.52554">
        <ele>2262.66</ele>
        <time>2026-03-13T11:40:06Z</time>
      </trkpt>
      <trkpt lat="45.92392" lon="6.52556">
        <ele>2263.498</ele>
        <time>2026-03-13T11:40:11Z</time>
      </trkpt>
      <trkpt lat="45.92392" lon="6.5256">
        <ele>2264.522</ele>
        <time>2026-03-13T11:40:16Z</time>
      </trkpt>
      <trkpt lat="45.92393" lon="6.52564">
        <ele>2265.985</ele>
        <time>2026-03-13T11:40:21Z</time>
      </trkpt>
      <trkpt lat="45.92393" lon="6.52567">
        <ele>2267.048</ele>
        <time>2026-03-13T11:40:26Z</time>
      </trkpt>
      <trkpt lat="45.92394" lon="6.52571">
        <ele>2269.486</ele>
        <time>2026-03-13T11:40:31Z</time>
      </trkpt>
      <trkpt lat="45.92394" lon="6.52574">
        <ele>2270.857</ele>
        <time>2026-03-13T11:40:36Z</time>
      </trkpt>
      <trkpt lat="45.92394" lon="6.52577">
        <ele>2271.853</ele>
        <time>2026-03-13T11:40:41Z</time>
      </trkpt>
      <trkpt lat="45.92395" lon="6.5258">
        <ele>2272.834</ele>
        <time>2026-03-13T11:40:46Z</time>
      </trkpt>
      <trkpt lat="45.92395" lon="6.52583">
        <ele>2273.174</ele>
        <time>2026-03-13T11:40:51Z</time>
      </trkpt>
      <trkpt lat="45.92395" lon="6.52587">
        <ele>2273.111</ele>
        <time>2026-03-13T11:40:56Z</time>
      </trkpt>
      <trkpt lat="45.92396" lon="6.5259">
        <ele>2273.764</ele>
        <time>2026-03-13T11:41:01Z</time>
      </trkpt>
      <trkpt lat="45.92396" lon="6.52593">
        <ele>2273.396</ele>
        <time>2026-03-13T11:41:06Z</time>
      </trkpt>
      <trkpt lat="45.92396" lon="6.52596">
        <ele>2274.215</ele>
        <time>2026-03-13T11:41:11Z</time>
      </trkpt>
      <trkpt lat="45.92396" lon="6.52599">
        <ele>2275.528</ele>
        <time>2026-03-13T11:41:16Z</time>
      </trkpt>
      <trkpt lat="45.92397" lon="6.526">
        <ele>2277.081</ele>
        <time>2026-03-13T11:41:21Z</time>
      </trkpt>
      <trkpt lat="45.92397" lon="6.52602">
        <ele>2278.465</ele>
        <time>2026-03-13T11:41:26Z</time>
      </trkpt>
      <trkpt lat="45.92397" lon="6.52602">
        <ele>2278.526</ele>
        <time>2026-03-13T11:41:31Z</time>
      </trkpt>
      <trkpt lat="45.92397" lon="6.52603">
        <ele>2278.188</ele>
        <time>2026-03-13T11:41:36Z</time>
      </trkpt>
      <trkpt lat="45.92396" lon="6.52604">
        <ele>2280.112</ele>
        <time>2026-03-13T11:41:41Z</time>
      </trkpt>
      <trkpt lat="45.92395" lon="6.52606">
        <ele>2281.46</ele>
        <time>2026-03-13T11:41:46Z</time>
      </trkpt>
      <trkpt lat="45.92393" lon="6.52608">
        <ele>2282.592</ele>
        <time>2026-03-13T11:41:51Z</time>
      </trkpt>
      <trkpt lat="45.92392" lon="6.5261">
        <ele>2282.782</ele>
        <time>2026-03-13T11:41:56Z</time>
      </trkpt>
      <trkpt lat="45.92393" lon="6.52613">
        <ele>2282.36</ele>
        <time>2026-03-13T11:42:01Z</time>
      </trkpt>
      <trkpt lat="45.92395" lon="6.52616">
        <ele>2282.608</ele>
        <time>2026-03-13T11:42:06Z</time>
      </trkpt>
      <trkpt lat="45.92396" lon="6.52619">
        <ele>2283.268</ele>
        <time>2026-03-13T11:42:11Z</time>
      </trkpt>
      <trkpt lat="45.92397" lon="6.52621">
        <ele>2283.047</ele>
        <time>2026-03-13T11:42:16Z</time>
      </trkpt>
      <trkpt lat="45.92398" lon="6.52624">
        <ele>2283.058</ele>
        <time>2026-03-13T11:42:21Z</time>
      </trkpt>
      <trkpt lat="45.92398" lon="6.52624">
        <ele>2283.038</ele>
        <time>2026-03-13T11:42:26Z</time>
      </trkpt>
      <trkpt lat="45.92398" lon="6.52624">
        <ele>2283.018</ele>
        <time>2026-03-13T11:42:31Z</time>
      </trkpt>
      <trkpt lat="45.92398" lon="6.52625">
        <ele>2282.76</ele>
        <time>2026-03-13T11:42:36Z</time>
      </trkpt>
      <trkpt lat="45.92401" lon="6.52627">
        <ele>2285.279</ele>
        <time>2026-03-13T11:42:41Z</time>
      </trkpt>
      <trkpt lat="45.92404" lon="6.52628">
        <ele>2286.14</ele>
        <time>2026-03-13T11:42:46Z</time>
      </trkpt>
      <trkpt lat="45.92407" lon="6.52628">
        <ele>2287.185</ele>
        <time>2026-03-13T11:42:51Z</time>
      </trkpt>
      <trkpt lat="45.92409" lon="6.52629">
        <ele>2286.435</ele>
        <time>2026-03-13T11:42:56Z</time>
      </trkpt>
      <trkpt lat="45.92412" lon="6.5263">
        <ele>2286.034</ele>
        <time>2026-03-13T11:43:01Z</time>
      </trkpt>
      <trkpt lat="45.92413" lon="6.5263">
        <ele>2287.523</ele>
        <time>2026-03-13T11:43:06Z</time>
      </trkpt>
      <trkpt lat="45.92416" lon="6.52631">
        <ele>2288.951</ele>
        <time>2026-03-13T11:43:11Z</time>
      </trkpt>
      <trkpt lat="45.92418" lon="6.52631">
        <ele>2289.181</ele>
        <time>2026-03-13T11:43:16Z</time>
      </trkpt>
      <trkpt lat="45.92421" lon="6.52631">
        <ele>2290.946</ele>
        <time>2026-03-13T11:43:21Z</time>
      </trkpt>
      <trkpt lat="45.92423" lon="6.52631">
        <ele>2290.454</ele>
        <time>2026-03-13T11:43:26Z</time>
      </trkpt>
      <trkpt lat="45.92425" lon="6.52628">
        <ele>2291.534</ele>
        <time>2026-03-13T11:43:31Z</time>
      </trkpt>
      <trkpt lat="45.92427" lon="6.52626">
        <ele>2292.433</ele>
        <time>2026-03-13T11:43:36Z</time>
      </trkpt>
      <trkpt lat="45.92429" lon="6.52624">
        <ele>2293.801</ele>
        <time>2026-03-13T11:43:41Z</time>
      </trkpt>
      <trkpt lat="45.92431" lon="6.52622">
        <ele>2295.924</ele>
        <time>2026-03-13T11:43:46Z</time>
      </trkpt>
      <trkpt lat="45.92433" lon="6.5262">
        <ele>2296.748</ele>
        <time>2026-03-13T11:43:51Z</time>
      </trkpt>
      <trkpt lat="45.92432" lon="6.52623">
        <ele>2297.525</ele>
        <time>2026-03-13T11:43:56Z</time>
      </trkpt>
      <trkpt lat="45.92432" lon="6.52627">
        <ele>2297.506</ele>
        <time>2026-03-13T11:44:01Z</time>
      </trkpt>
      <trkpt lat="45.92431" lon="6.52629">
        <ele>2297.298</ele>
        <time>2026-03-13T11:44:06Z</time>
      </trkpt>
      <trkpt lat="45.92431" lon="6.52632">
        <ele>2298.11</ele>
        <time>2026-03-13T11:44:11Z</time>
      </trkpt>
      <trkpt lat="45.9243" lon="6.52634">
        <ele>2299.28</ele>
        <time>2026-03-13T11:44:16Z</time>
      </trkpt>
      <trkpt lat="45.9243" lon="6.52637">
        <ele>2300.401</ele>
        <time>2026-03-13T11:44:21Z</time>
      </trkpt>
      <trkpt lat="45.9243" lon="6.52641">
        <ele>2300.962</ele>
        <time>2026-03-13T11:44:26Z</time>
      </trkpt>
      <trkpt lat="45.92429" lon="6.52643">
        <ele>2302.101</ele>
        <time>2026-03-13T11:44:31Z</time>
      </trkpt>
      <trkpt lat="45.92428" lon="6.52645">
        <ele>2303.296</ele>
        <time>2026-03-13T11:44:36Z</time>
      </trkpt>
      <trkpt lat="45.92428" lon="6.52647">
        <ele>2303.964</ele>
        <time>2026-03-13T11:44:41Z</time>
      </trkpt>
      <trkpt lat="45.92427" lon="6.5265">
        <ele>2304.948</ele>
        <time>2026-03-13T11:44:46Z</time>
      </trkpt>
      <trkpt lat="45.92426" lon="6.52652">
        <ele>2305.888</ele>
        <time>2026-03-13T11:44:51Z</time>
      </trkpt>
      <trkpt lat="45.92424" lon="6.52654">
        <ele>2306.664</ele>
        <time>2026-03-13T11:44:56Z</time>
      </trkpt>
      <trkpt lat="45.92423" lon="6.52656">
        <ele>2306.996</ele>
        <time>2026-03-13T11:45:01Z</time>
      </trkpt>
      <trkpt lat="45.92422" lon="6.52659">
        <ele>2307.677</ele>
        <time>2026-03-13T11:45:06Z</time>
      </trkpt>
      <trkpt lat="45.9242" lon="6.52662">
        <ele>2308.627</ele>
        <time>2026-03-13T11:45:11Z</time>
      </trkpt>
      <trkpt lat="45.9242" lon="6.52662">
        <ele>2309.296</ele>
        <time>2026-03-13T11:45:16Z</time>
      </trkpt>
      <trkpt lat="45.9242" lon="6.52662">
        <ele>2308.863</ele>
        <time>2026-03-13T11:45:21Z</time>
      </trkpt>
      <trkpt lat="45.9242" lon="6.52662">
        <ele>2308.709</ele>
        <time>2026-03-13T11:45:26Z</time>
      </trkpt>
      <trkpt lat="45.9242" lon="6.52662">
        <ele>2309.588</ele>
        <time>2026-03-13T11:45:31Z</time>
      </trkpt>
      <trkpt lat="45.9242" lon="6.52662">
        <ele>2309.366</ele>
        <time>2026-03-13T11:45:36Z</time>
      </trkpt>
      <trkpt lat="45.9242" lon="6.52662">
        <ele>2310.036</ele>
        <time>2026-03-13T11:45:41Z</time>
      </trkpt>
      <trkpt lat="45.9242" lon="6.52662">
        <ele>2310.575</ele>
        <time>2026-03-13T11:45:46Z</time>
      </trkpt>
      <trkpt lat="45.9242" lon="6.52662">
        <ele>2310.349</ele>
        <time>2026-03-13T11:45:51Z</time>
      </trkpt>
      <trkpt lat="45.9242" lon="6.52662">
        <ele>2311.86</ele>
        <time>2026-03-13T11:45:56Z</time>
      </trkpt>
      <trkpt lat="45.9242" lon="6.52662">
        <ele>2312.078</ele>
        <time>2026-03-13T11:46:01Z</time>
      </trkpt>
      <trkpt lat="45.9242" lon="6.52662">
        <ele>2312.25</ele>
        <time>2026-03-13T11:46:06Z</time>
      </trkpt>
      <trkpt lat="45.9242" lon="6.52662">
        <ele>2312.744</ele>
        <time>2026-03-13T11:46:11Z</time>
      </trkpt>
      <trkpt lat="45.9242" lon="6.52662">
        <ele>2314.038</ele>
        <time>2026-03-13T11:46:16Z</time>
      </trkpt>
      <trkpt lat="45.9242" lon="6.52662">
        <ele>2314.863</ele>
        <time>2026-03-13T11:46:21Z</time>
      </trkpt>
      <trkpt lat="45.92427" lon="6.52674">
        <ele>2315.688</ele>
        <time>2026-03-13T11:46:26Z</time>
      </trkpt>
      <trkpt lat="45.92426" lon="6.52676">
        <ele>2316.142</ele>
        <time>2026-03-13T11:46:31Z</time>
      </trkpt>
      <trkpt lat="45.92425" lon="6.52677">
        <ele>2317.394</ele>
        <time>2026-03-13T11:46:36Z</time>
      </trkpt>
      <trkpt lat="45.92424" lon="6.52679">
        <ele>2318.356</ele>
        <time>2026-03-13T11:46:41Z</time>
      </trkpt>
      <trkpt lat="45.92422" lon="6.5268">
        <ele>2319.556</ele>
        <time>2026-03-13T11:46:46Z</time>
      </trkpt>
      <trkpt lat="45.92421" lon="6.52682">
        <ele>2320.399</ele>
        <time>2026-03-13T11:46:51Z</time>
      </trkpt>
      <trkpt lat="45.9242" lon="6.52682">
        <ele>2321.887</ele>
        <time>2026-03-13T11:46:56Z</time>
      </trkpt>
      <trkpt lat="45.92418" lon="6.52685">
        <ele>2322.863</ele>
        <time>2026-03-13T11:47:01Z</time>
      </trkpt>
      <trkpt lat="45.92417" lon="6.52688">
        <ele>2322.659</ele>
        <time>2026-03-13T11:47:06Z</time>
      </trkpt>
      <trkpt lat="45.92416" lon="6.5269">
        <ele>2322.945</ele>
        <time>2026-03-13T11:47:11Z</time>
      </trkpt>
      <trkpt lat="45.92415" lon="6.52692">
        <ele>2322.794</ele>
        <time>2026-03-13T11:47:16Z</time>
      </trkpt>
      <trkpt lat="45.92413" lon="6.52694">
        <ele>2323.201</ele>
        <time>2026-03-13T11:47:21Z</time>
      </trkpt>
      <trkpt lat="45.92413" lon="6.52695">
        <ele>2323.622</ele>
        <time>2026-03-13T11:47:26Z</time>
      </trkpt>
      <trkpt lat="45.92411" lon="6.52696">
        <ele>2324.43</ele>
        <time>2026-03-13T11:47:31Z</time>
      </trkpt>
      <trkpt lat="45.92411" lon="6.52696">
        <ele>2324.45</ele>
        <time>2026-03-13T11:47:36Z</time>
      </trkpt>
      <trkpt lat="45.9241" lon="6.52696">
        <ele>2324.733</ele>
        <time>2026-03-13T11:47:41Z</time>
      </trkpt>
      <trkpt lat="45.92408" lon="6.52697">
        <ele>2325.898</ele>
        <time>2026-03-13T11:47:46Z</time>
      </trkpt>
      <trkpt lat="45.92407" lon="6.52698">
        <ele>2326.15</ele>
        <time>2026-03-13T11:47:51Z</time>
      </trkpt>
      <trkpt lat="45.92405" lon="6.52697">
        <ele>2327.416</ele>
        <time>2026-03-13T11:47:56Z</time>
      </trkpt>
      <trkpt lat="45.92403" lon="6.52698">
        <ele>2328.456</ele>
        <time>2026-03-13T11:48:01Z</time>
      </trkpt>
      <trkpt lat="45.924" lon="6.52698">
        <ele>2328.844</ele>
        <time>2026-03-13T11:48:06Z</time>
      </trkpt>
      <trkpt lat="45.924" lon="6.52698">
        <ele>2329.171</ele>
        <time>2026-03-13T11:48:11Z</time>
      </trkpt>
      <trkpt lat="45.92402" lon="6.52699">
        <ele>2329.275</ele>
        <time>2026-03-13T11:48:16Z</time>
      </trkpt>
      <trkpt lat="45.92403" lon="6.52702">
        <ele>2328.87</ele>
        <time>2026-03-13T11:48:21Z</time>
      </trkpt>
      <trkpt lat="45.92404" lon="6.52705">
        <ele>2329.419</ele>
        <time>2026-03-13T11:48:26Z</time>
      </trkpt>
      <trkpt lat="45.92405" lon="6.52708">
        <ele>2329.83</ele>
        <time>2026-03-13T11:48:31Z</time>
      </trkpt>
      <trkpt lat="45.92406" lon="6.5271">
        <ele>2330.811</ele>
        <time>2026-03-13T11:48:36Z</time>
      </trkpt>
      <trkpt lat="45.92407" lon="6.52713">
        <ele>2330.925</ele>
        <time>2026-03-13T11:48:41Z</time>
      </trkpt>
      <trkpt lat="45.92408" lon="6.52715">
        <ele>2331.363</ele>
        <time>2026-03-13T11:48:46Z</time>
      </trkpt>
      <trkpt lat="45.92409" lon="6.52717">
        <ele>2332.366</ele>
        <time>2026-03-13T11:48:51Z</time>
      </trkpt>
      <trkpt lat="45.92409" lon="6.5272">
        <ele>2333.366</ele>
        <time>2026-03-13T11:48:56Z</time>
      </trkpt>
      <trkpt lat="45.9241" lon="6.52722">
        <ele>2334.34</ele>
        <time>2026-03-13T11:49:01Z</time>
      </trkpt>
      <trkpt lat="45.92412" lon="6.52724">
        <ele>2333.744</ele>
        <time>2026-03-13T11:49:06Z</time>
      </trkpt>
      <trkpt lat="45.92414" lon="6.52726">
        <ele>2333.163</ele>
        <time>2026-03-13T11:49:11Z</time>
      </trkpt>
      <trkpt lat="45.92415" lon="6.52728">
        <ele>2334.045</ele>
        <time>2026-03-13T11:49:16Z</time>
      </trkpt>
      <trkpt lat="45.92417" lon="6.5273">
        <ele>2335.97</ele>
        <time>2026-03-13T11:49:21Z</time>
      </trkpt>
      <trkpt lat="45.92419" lon="6.52731">
        <ele>2335.95</ele>
        <time>2026-03-13T11:49:26Z</time>
      </trkpt>
      <trkpt lat="45.9242" lon="6.52732">
        <ele>2337.002</ele>
        <time>2026-03-13T11:49:31Z</time>
      </trkpt>
      <trkpt lat="45.9242" lon="6.52734">
        <ele>2337.169</ele>
        <time>2026-03-13T11:49:36Z</time>
      </trkpt>
      <trkpt lat="45.92419" lon="6.52736">
        <ele>2337.602</ele>
        <time>2026-03-13T11:49:41Z</time>
      </trkpt>
      <trkpt lat="45.92418" lon="6.52738">
        <ele>2338.809</ele>
        <time>2026-03-13T11:49:46Z</time>
      </trkpt>
      <trkpt lat="45.92417" lon="6.5274">
        <ele>2340.025</ele>
        <time>2026-03-13T11:49:51Z</time>
      </trkpt>
      <trkpt lat="45.92415" lon="6.52742">
        <ele>2340.99</ele>
        <time>2026-03-13T11:49:56Z</time>
      </trkpt>
      <trkpt lat="45.92414" lon="6.52744">
        <ele>2341.219</ele>
        <time>2026-03-13T11:50:01Z</time>
      </trkpt>
      <trkpt lat="45.92412" lon="6.52746">
        <ele>2341.85</ele>
        <time>2026-03-13T11:50:06Z</time>
      </trkpt>
      <trkpt lat="45.9241" lon="6.52748">
        <ele>2341.95</ele>
        <time>2026-03-13T11:50:11Z</time>
      </trkpt>
      <trkpt lat="45.92408" lon="6.5275">
        <ele>2342.651</ele>
        <time>2026-03-13T11:50:16Z</time>
      </trkpt>
      <trkpt lat="45.92407" lon="6.52752">
        <ele>2344.105</ele>
        <time>2026-03-13T11:50:21Z</time>
      </trkpt>
      <trkpt lat="45.92406" lon="6.52754">
        <ele>2345.133</ele>
        <time>2026-03-13T11:50:26Z</time>
      </trkpt>
      <trkpt lat="45.92404" lon="6.52756">
        <ele>2345.953</ele>
        <time>2026-03-13T11:50:31Z</time>
      </trkpt>
      <trkpt lat="45.92403" lon="6.52758">
        <ele>2345.254</ele>
        <time>2026-03-13T11:50:36Z</time>
      </trkpt>
      <trkpt lat="45.92401" lon="6.5276">
        <ele>2345.941</ele>
        <time>2026-03-13T11:50:41Z</time>
      </trkpt>
      <trkpt lat="45.92399" lon="6.52761">
        <ele>2347.772</ele>
        <time>2026-03-13T11:50:46Z</time>
      </trkpt>
      <trkpt lat="45.92397" lon="6.52762">
        <ele>2349.202</ele>
        <time>2026-03-13T11:50:51Z</time>
      </trkpt>
      <trkpt lat="45.92395" lon="6.52762">
        <ele>2350.182</ele>
        <time>2026-03-13T11:50:56Z</time>
      </trkpt>
      <trkpt lat="45.92393" lon="6.52762">
        <ele>2351.324</ele>
        <time>2026-03-13T11:51:01Z</time>
      </trkpt>
      <trkpt lat="45.92392" lon="6.52762">
        <ele>2352.177</ele>
        <time>2026-03-13T11:51:06Z</time>
      </trkpt>
      <trkpt lat="45.92392" lon="6.52762">
        <ele>2352.178</ele>
        <time>2026-03-13T11:51:11Z</time>
      </trkpt>
      <trkpt lat="45.92392" lon="6.52762">
        <ele>2352.181</ele>
        <time>2026-03-13T11:51:16Z</time>
      </trkpt>
      <trkpt lat="45.92392" lon="6.52762">
        <ele>2352.198</ele>
        <time>2026-03-13T11:51:21Z</time>
      </trkpt>
      <trkpt lat="45.9239" lon="6.52763">
        <ele>2353.415</ele>
        <time>2026-03-13T11:51:26Z</time>
      </trkpt>
      <trkpt lat="45.92387" lon="6.52764">
        <ele>2354.105</ele>
        <time>2026-03-13T11:51:31Z</time>
      </trkpt>
      <trkpt lat="45.92385" lon="6.52767">
        <ele>2354.943</ele>
        <time>2026-03-13T11:51:36Z</time>
      </trkpt>
      <trkpt lat="45.92384" lon="6.52771">
        <ele>2354.869</ele>
        <time>2026-03-13T11:51:41Z</time>
      </trkpt>
      <trkpt lat="45.92385" lon="6.52776">
        <ele>2355.36</ele>
        <time>2026-03-13T11:51:46Z</time>
      </trkpt>
      <trkpt lat="45.92386" lon="6.52781">
        <ele>2355.145</ele>
        <time>2026-03-13T11:51:51Z</time>
      </trkpt>
      <trkpt lat="45.92387" lon="6.52787">
        <ele>2354.402</ele>
        <time>2026-03-13T11:51:56Z</time>
      </trkpt>
      <trkpt lat="45.92389" lon="6.52792">
        <ele>2355.057</ele>
        <time>2026-03-13T11:52:01Z</time>
      </trkpt>
      <trkpt lat="45.9239" lon="6.52796">
        <ele>2354.864</ele>
        <time>2026-03-13T11:52:06Z</time>
      </trkpt>
      <trkpt lat="45.92391" lon="6.528">
        <ele>2355.316</ele>
        <time>2026-03-13T11:52:11Z</time>
      </trkpt>
      <trkpt lat="45.92392" lon="6.52803">
        <ele>2356.362</ele>
        <time>2026-03-13T11:52:16Z</time>
      </trkpt>
      <trkpt lat="45.92393" lon="6.52806">
        <ele>2357.165</ele>
        <time>2026-03-13T11:52:21Z</time>
      </trkpt>
      <trkpt lat="45.92393" lon="6.52809">
        <ele>2358.071</ele>
        <time>2026-03-13T11:52:26Z</time>
      </trkpt>
      <trkpt lat="45.92394" lon="6.52812">
        <ele>2358.653</ele>
        <time>2026-03-13T11:52:31Z</time>
      </trkpt>
      <trkpt lat="45.92395" lon="6.52815">
        <ele>2359.206</ele>
        <time>2026-03-13T11:52:36Z</time>
      </trkpt>
      <trkpt lat="45.92397" lon="6.52818">
        <ele>2359.979</ele>
        <time>2026-03-13T11:52:41Z</time>
      </trkpt>
      <trkpt lat="45.92398" lon="6.52821">
        <ele>2360.864</ele>
        <time>2026-03-13T11:52:46Z</time>
      </trkpt>
      <trkpt lat="45.92398" lon="6.52824">
        <ele>2361.689</ele>
        <time>2026-03-13T11:52:51Z</time>
      </trkpt>
      <trkpt lat="45.92399" lon="6.52827">
        <ele>2361.988</ele>
        <time>2026-03-13T11:52:56Z</time>
      </trkpt>
      <trkpt lat="45.92399" lon="6.5283">
        <ele>2362.236</ele>
        <time>2026-03-13T11:53:01Z</time>
      </trkpt>
      <trkpt lat="45.924" lon="6.52833">
        <ele>2362.62</ele>
        <time>2026-03-13T11:53:06Z</time>
      </trkpt>
      <trkpt lat="45.924" lon="6.52836">
        <ele>2362.816</ele>
        <time>2026-03-13T11:53:11Z</time>
      </trkpt>
      <trkpt lat="45.92401" lon="6.5284">
        <ele>2363.336</ele>
        <time>2026-03-13T11:53:16Z</time>
      </trkpt>
      <trkpt lat="45.92402" lon="6.52842">
        <ele>2364.206</ele>
        <time>2026-03-13T11:53:21Z</time>
      </trkpt>
      <trkpt lat="45.92403" lon="6.52844">
        <ele>2364.691</ele>
        <time>2026-03-13T11:53:26Z</time>
      </trkpt>
      <trkpt lat="45.92404" lon="6.52847">
        <ele>2365.822</ele>
        <time>2026-03-13T11:53:31Z</time>
      </trkpt>
      <trkpt lat="45.92405" lon="6.52849">
        <ele>2366.66</ele>
        <time>2026-03-13T11:53:36Z</time>
      </trkpt>
      <trkpt lat="45.92407" lon="6.52852">
        <ele>2366.916</ele>
        <time>2026-03-13T11:53:41Z</time>
      </trkpt>
      <trkpt lat="45.92408" lon="6.52854">
        <ele>2366.593</ele>
        <time>2026-03-13T11:53:46Z</time>
      </trkpt>
      <trkpt lat="45.9241" lon="6.52856">
        <ele>2367.862</ele>
        <time>2026-03-13T11:53:51Z</time>
      </trkpt>
      <trkpt lat="45.92411" lon="6.52859">
        <ele>2368.699</ele>
        <time>2026-03-13T11:53:56Z</time>
      </trkpt>
      <trkpt lat="45.92412" lon="6.52862">
        <ele>2370.157</ele>
        <time>2026-03-13T11:54:01Z</time>
      </trkpt>
      <trkpt lat="45.92412" lon="6.52863">
        <ele>2370.66</ele>
        <time>2026-03-13T11:54:06Z</time>
      </trkpt>
      <trkpt lat="45.92412" lon="6.52863">
        <ele>2370.376</ele>
        <time>2026-03-13T11:54:11Z</time>
      </trkpt>
      <trkpt lat="45.92412" lon="6.52863">
        <ele>2371.498</ele>
        <time>2026-03-13T11:54:16Z</time>
      </trkpt>
      <trkpt lat="45.92412" lon="6.52863">
        <ele>2371.67</ele>
        <time>2026-03-13T11:54:21Z</time>
      </trkpt>
      <trkpt lat="45.92411" lon="6.52864">
        <ele>2371.675</ele>
        <time>2026-03-13T11:54:26Z</time>
      </trkpt>
      <trkpt lat="45.92409" lon="6.52866">
        <ele>2372.303</ele>
        <time>2026-03-13T11:54:31Z</time>
      </trkpt>
      <trkpt lat="45.92408" lon="6.52868">
        <ele>2372.742</ele>
        <time>2026-03-13T11:54:36Z</time>
      </trkpt>
      <trkpt lat="45.92405" lon="6.52869">
        <ele>2372.9</ele>
        <time>2026-03-13T11:54:41Z</time>
      </trkpt>
      <trkpt lat="45.92403" lon="6.5287">
        <ele>2374.221</ele>
        <time>2026-03-13T11:54:46Z</time>
      </trkpt>
      <trkpt lat="45.92401" lon="6.5287">
        <ele>2375.97</ele>
        <time>2026-03-13T11:54:51Z</time>
      </trkpt>
      <trkpt lat="45.924" lon="6.52871">
        <ele>2376.786</ele>
        <time>2026-03-13T11:54:56Z</time>
      </trkpt>
      <trkpt lat="45.92398" lon="6.52871">
        <ele>2378.084</ele>
        <time>2026-03-13T11:55:01Z</time>
      </trkpt>
      <trkpt lat="45.92395" lon="6.5287">
        <ele>2380.005</ele>
        <time>2026-03-13T11:55:06Z</time>
      </trkpt>
      <trkpt lat="45.92393" lon="6.52869">
        <ele>2381.124</ele>
        <time>2026-03-13T11:55:11Z</time>
      </trkpt>
      <trkpt lat="45.92391" lon="6.52869">
        <ele>2381.676</ele>
        <time>2026-03-13T11:55:16Z</time>
      </trkpt>
      <trkpt lat="45.92389" lon="6.52869">
        <ele>2382.808</ele>
        <time>2026-03-13T11:55:21Z</time>
      </trkpt>
      <trkpt lat="45.92387" lon="6.52868">
        <ele>2383.972</ele>
        <time>2026-03-13T11:55:26Z</time>
      </trkpt>
      <trkpt lat="45.92385" lon="6.52869">
        <ele>2384.135</ele>
        <time>2026-03-13T11:55:31Z</time>
      </trkpt>
      <trkpt lat="45.92383" lon="6.52869">
        <ele>2384.556</ele>
        <time>2026-03-13T11:55:36Z</time>
      </trkpt>
      <trkpt lat="45.92381" lon="6.52869">
        <ele>2386.138</ele>
        <time>2026-03-13T11:55:41Z</time>
      </trkpt>
      <trkpt lat="45.92379" lon="6.52869">
        <ele>2387.078</ele>
        <time>2026-03-13T11:55:46Z</time>
      </trkpt>
      <trkpt lat="45.92378" lon="6.52869">
        <ele>2387.905</ele>
        <time>2026-03-13T11:55:51Z</time>
      </trkpt>
      <trkpt lat="45.92378" lon="6.52869">
        <ele>2387.911</ele>
        <time>2026-03-13T11:55:56Z</time>
      </trkpt>
      <trkpt lat="45.92378" lon="6.52869">
        <ele>2387.907</ele>
        <time>2026-03-13T11:56:01Z</time>
      </trkpt>
      <trkpt lat="45.92378" lon="6.52869">
        <ele>2387.912</ele>
        <time>2026-03-13T11:56:06Z</time>
      </trkpt>
      <trkpt lat="45.92378" lon="6.52869">
        <ele>2388.746</ele>
        <time>2026-03-13T11:56:11Z</time>
      </trkpt>
      <trkpt lat="45.92378" lon="6.5287">
        <ele>2388.892</ele>
        <time>2026-03-13T11:56:16Z</time>
      </trkpt>
      <trkpt lat="45.92378" lon="6.52871">
        <ele>2388.927</ele>
        <time>2026-03-13T11:56:21Z</time>
      </trkpt>
      <trkpt lat="45.9238" lon="6.52875">
        <ele>2388.62</ele>
        <time>2026-03-13T11:56:26Z</time>
      </trkpt>
      <trkpt lat="45.92382" lon="6.52879">
        <ele>2389.076</ele>
        <time>2026-03-13T11:56:31Z</time>
      </trkpt>
      <trkpt lat="45.92384" lon="6.52883">
        <ele>2388.68</ele>
        <time>2026-03-13T11:56:36Z</time>
      </trkpt>
      <trkpt lat="45.92385" lon="6.52888">
        <ele>2388.223</ele>
        <time>2026-03-13T11:56:41Z</time>
      </trkpt>
      <trkpt lat="45.92386" lon="6.52891">
        <ele>2388.81</ele>
        <time>2026-03-13T11:56:46Z</time>
      </trkpt>
      <trkpt lat="45.92388" lon="6.52895">
        <ele>2389.954</ele>
        <time>2026-03-13T11:56:51Z</time>
      </trkpt>
      <trkpt lat="45.9239" lon="6.52898">
        <ele>2390.408</ele>
        <time>2026-03-13T11:56:56Z</time>
      </trkpt>
      <trkpt lat="45.92391" lon="6.529">
        <ele>2390.892</ele>
        <time>2026-03-13T11:57:01Z</time>
      </trkpt>
      <trkpt lat="45.92392" lon="6.52901">
        <ele>2391.155</ele>
        <time>2026-03-13T11:57:06Z</time>
      </trkpt>
      <trkpt lat="45.92392" lon="6.52901">
        <ele>2391.153</ele>
        <time>2026-03-13T11:57:11Z</time>
      </trkpt>
      <trkpt lat="45.92392" lon="6.52901">
        <ele>2391.322</ele>
        <time>2026-03-13T11:57:16Z</time>
      </trkpt>
      <trkpt lat="45.92394" lon="6.52904">
        <ele>2391.047</ele>
        <time>2026-03-13T11:57:21Z</time>
      </trkpt>
      <trkpt lat="45.92396" lon="6.52906">
        <ele>2392.008</ele>
        <time>2026-03-13T11:57:26Z</time>
      </trkpt>
      <trkpt lat="45.92397" lon="6.52908">
        <ele>2392.72</ele>
        <time>2026-03-13T11:57:31Z</time>
      </trkpt>
      <trkpt lat="45.92399" lon="6.52911">
        <ele>2392.056</ele>
        <time>2026-03-13T11:57:36Z</time>
      </trkpt>
      <trkpt lat="45.924" lon="6.52914">
        <ele>2394.423</ele>
        <time>2026-03-13T11:57:41Z</time>
      </trkpt>
      <trkpt lat="45.92401" lon="6.52916">
        <ele>2394.055</ele>
        <time>2026-03-13T11:57:46Z</time>
      </trkpt>
      <trkpt lat="45.92403" lon="6.52918">
        <ele>2394.381</ele>
        <time>2026-03-13T11:57:51Z</time>
      </trkpt>
      <trkpt lat="45.92405" lon="6.5292">
        <ele>2395.876</ele>
        <time>2026-03-13T11:57:56Z</time>
      </trkpt>
      <trkpt lat="45.92406" lon="6.52921">
        <ele>2396.587</ele>
        <time>2026-03-13T11:58:01Z</time>
      </trkpt>
      <trkpt lat="45.92408" lon="6.52923">
        <ele>2397.141</ele>
        <time>2026-03-13T11:58:06Z</time>
      </trkpt>
      <trkpt lat="45.9241" lon="6.52926">
        <ele>2397.801</ele>
        <time>2026-03-13T11:58:11Z</time>
      </trkpt>
      <trkpt lat="45.92411" lon="6.52928">
        <ele>2399.027</ele>
        <time>2026-03-13T11:58:16Z</time>
      </trkpt>
      <trkpt lat="45.92413" lon="6.5293">
        <ele>2399.55</ele>
        <time>2026-03-13T11:58:21Z</time>
      </trkpt>
      <trkpt lat="45.92414" lon="6.52932">
        <ele>2400.097</ele>
        <time>2026-03-13T11:58:26Z</time>
      </trkpt>
      <trkpt lat="45.92415" lon="6.52935">
        <ele>2400.665</ele>
        <time>2026-03-13T11:58:31Z</time>
      </trkpt>
      <trkpt lat="45.92417" lon="6.52938">
        <ele>2400.774</ele>
        <time>2026-03-13T11:58:36Z</time>
      </trkpt>
      <trkpt lat="45.92418" lon="6.5294">
        <ele>2401.5</ele>
        <time>2026-03-13T11:58:41Z</time>
      </trkpt>
      <trkpt lat="45.9242" lon="6.52943">
        <ele>2402.055</ele>
        <time>2026-03-13T11:58:46Z</time>
      </trkpt>
      <trkpt lat="45.92422" lon="6.52945">
        <ele>2403.449</ele>
        <time>2026-03-13T11:58:51Z</time>
      </trkpt>
      <trkpt lat="45.92423" lon="6.52948">
        <ele>2404.723</ele>
        <time>2026-03-13T11:58:56Z</time>
      </trkpt>
      <trkpt lat="45.92423" lon="6.52948">
        <ele>2404.773</ele>
        <time>2026-03-13T11:59:01Z</time>
      </trkpt>
      <trkpt lat="45.92423" lon="6.52948">
        <ele>2404.781</ele>
        <time>2026-03-13T11:59:06Z</time>
      </trkpt>
      <trkpt lat="45.92423" lon="6.52948">
        <ele>2404.789</ele>
        <time>2026-03-13T11:59:11Z</time>
      </trkpt>
      <trkpt lat="45.92423" lon="6.52948">
        <ele>2404.798</ele>
        <time>2026-03-13T11:59:16Z</time>
      </trkpt>
      <trkpt lat="45.92423" lon="6.52949">
        <ele>2405.019</ele>
        <time>2026-03-13T11:59:21Z</time>
      </trkpt>
      <trkpt lat="45.92425" lon="6.52952">
        <ele>2404.714</ele>
        <time>2026-03-13T11:59:26Z</time>
      </trkpt>
      <trkpt lat="45.92426" lon="6.52955">
        <ele>2405.656</ele>
        <time>2026-03-13T11:59:31Z</time>
      </trkpt>
      <trkpt lat="45.92428" lon="6.52957">
        <ele>2407.076</ele>
        <time>2026-03-13T11:59:36Z</time>
      </trkpt>
      <trkpt lat="45.92429" lon="6.5296">
        <ele>2407.036</ele>
        <time>2026-03-13T11:59:41Z</time>
      </trkpt>
      <trkpt lat="45.92431" lon="6.52963">
        <ele>2407.987</ele>
        <time>2026-03-13T11:59:46Z</time>
      </trkpt>
      <trkpt lat="45.92433" lon="6.52965">
        <ele>2407.101</ele>
        <time>2026-03-13T11:59:51Z</time>
      </trkpt>
      <trkpt lat="45.92435" lon="6.52968">
        <ele>2407.235</ele>
        <time>2026-03-13T11:59:56Z</time>
      </trkpt>
      <trkpt lat="45.92437" lon="6.5297">
        <ele>2407.905</ele>
        <time>2026-03-13T12:00:01Z</time>
      </trkpt>
      <trkpt lat="45.92438" lon="6.52972">
        <ele>2408.469</ele>
        <time>2026-03-13T12:00:06Z</time>
      </trkpt>
      <trkpt lat="45.9244" lon="6.52974">
        <ele>2408.26</ele>
        <time>2026-03-13T12:00:11Z</time>
      </trkpt>
      <trkpt lat="45.92442" lon="6.52976">
        <ele>2408.668</ele>
        <time>2026-03-13T12:00:16Z</time>
      </trkpt>
      <trkpt lat="45.92444" lon="6.52977">
        <ele>2410.347</ele>
        <time>2026-03-13T12:00:21Z</time>
      </trkpt>
      <trkpt lat="45.92446" lon="6.52978">
        <ele>2411.224</ele>
        <time>2026-03-13T12:00:26Z</time>
      </trkpt>
      <trkpt lat="45.92448" lon="6.52979">
        <ele>2411.306</ele>
        <time>2026-03-13T12:00:31Z</time>
      </trkpt>
      <trkpt lat="45.9245" lon="6.5298">
        <ele>2413.263</ele>
        <time>2026-03-13T12:00:36Z</time>
      </trkpt>
      <trkpt lat="45.9245" lon="6.52981">
        <ele>2414.466</ele>
        <time>2026-03-13T12:00:41Z</time>
      </trkpt>
      <trkpt lat="45.9245" lon="6.52981">
        <ele>2415.067</ele>
        <time>2026-03-13T12:00:46Z</time>
      </trkpt>
      <trkpt lat="45.9245" lon="6.52981">
        <ele>2415.071</ele>
        <time>2026-03-13T12:00:51Z</time>
      </trkpt>
      <trkpt lat="45.92451" lon="6.52983">
        <ele>2415.654</ele>
        <time>2026-03-13T12:00:56Z</time>
      </trkpt>
      <trkpt lat="45.9245" lon="6.52986">
        <ele>2416.531</ele>
        <time>2026-03-13T12:01:01Z</time>
      </trkpt>
      <trkpt lat="45.92449" lon="6.52988">
        <ele>2417.357</ele>
        <time>2026-03-13T12:01:06Z</time>
      </trkpt>
      <trkpt lat="45.92446" lon="6.52989">
        <ele>2418.217</ele>
        <time>2026-03-13T12:01:11Z</time>
      </trkpt>
      <trkpt lat="45.92444" lon="6.52991">
        <ele>2418.913</ele>
        <time>2026-03-13T12:01:16Z</time>
      </trkpt>
      <trkpt lat="45.92443" lon="6.52993">
        <ele>2419.562</ele>
        <time>2026-03-13T12:01:21Z</time>
      </trkpt>
      <trkpt lat="45.92441" lon="6.52995">
        <ele>2421.08</ele>
        <time>2026-03-13T12:01:26Z</time>
      </trkpt>
      <trkpt lat="45.92439" lon="6.52997">
        <ele>2421.44</ele>
        <time>2026-03-13T12:01:31Z</time>
      </trkpt>
      <trkpt lat="45.92437" lon="6.52999">
        <ele>2422.396</ele>
        <time>2026-03-13T12:01:36Z</time>
      </trkpt>
      <trkpt lat="45.92435" lon="6.53">
        <ele>2422.406</ele>
        <time>2026-03-13T12:01:41Z</time>
      </trkpt>
      <trkpt lat="45.92433" lon="6.53001">
        <ele>2423.407</ele>
        <time>2026-03-13T12:01:46Z</time>
      </trkpt>
      <trkpt lat="45.92431" lon="6.53002">
        <ele>2423.627</ele>
        <time>2026-03-13T12:01:51Z</time>
      </trkpt>
      <trkpt lat="45.92429" lon="6.53002">
        <ele>2424.237</ele>
        <time>2026-03-13T12:01:56Z</time>
      </trkpt>
      <trkpt lat="45.92427" lon="6.53002">
        <ele>2425.016</ele>
        <time>2026-03-13T12:02:01Z</time>
      </trkpt>
      <trkpt lat="45.92425" lon="6.53003">
        <ele>2425.135</ele>
        <time>2026-03-13T12:02:06Z</time>
      </trkpt>
      <trkpt lat="45.92423" lon="6.53003">
        <ele>2425.405</ele>
        <time>2026-03-13T12:02:11Z</time>
      </trkpt>
      <trkpt lat="45.92421" lon="6.53002">
        <ele>2426.836</ele>
        <time>2026-03-13T12:02:16Z</time>
      </trkpt>
      <trkpt lat="45.9242" lon="6.53002">
        <ele>2427.258</ele>
        <time>2026-03-13T12:02:21Z</time>
      </trkpt>
      <trkpt lat="45.92419" lon="6.53">
        <ele>2427.614</ele>
        <time>2026-03-13T12:02:26Z</time>
      </trkpt>
      <trkpt lat="45.92419" lon="6.53">
        <ele>2427.608</ele>
        <time>2026-03-13T12:02:31Z</time>
      </trkpt>
      <trkpt lat="45.92419" lon="6.53">
        <ele>2425.402</ele>
        <time>2026-03-13T12:02:36Z</time>
      </trkpt>
      <trkpt lat="45.92417" lon="6.53004">
        <ele>2425.382</ele>
        <time>2026-03-13T12:02:42Z</time>
      </trkpt>
      <trkpt lat="45.92416" lon="6.53008">
        <ele>2424.992</ele>
        <time>2026-03-13T12:02:47Z</time>
      </trkpt>
      <trkpt lat="45.92417" lon="6.53009">
        <ele>2428.804</ele>
        <time>2026-03-13T12:02:52Z</time>
      </trkpt>
      <trkpt lat="45.92419" lon="6.53012">
        <ele>2429.13</ele>
        <time>2026-03-13T12:02:57Z</time>
      </trkpt>
      <trkpt lat="45.9242" lon="6.53016">
        <ele>2429.603</ele>
        <time>2026-03-13T12:03:02Z</time>
      </trkpt>
      <trkpt lat="45.92422" lon="6.53019">
        <ele>2429.864</ele>
        <time>2026-03-13T12:03:07Z</time>
      </trkpt>
      <trkpt lat="45.92424" lon="6.53022">
        <ele>2430.356</ele>
        <time>2026-03-13T12:03:12Z</time>
      </trkpt>
      <trkpt lat="45.92424" lon="6.53025">
        <ele>2431.941</ele>
        <time>2026-03-13T12:03:17Z</time>
      </trkpt>
      <trkpt lat="45.92425" lon="6.53028">
        <ele>2433.095</ele>
        <time>2026-03-13T12:03:22Z</time>
      </trkpt>
      <trkpt lat="45.92426" lon="6.53031">
        <ele>2433.309</ele>
        <time>2026-03-13T12:03:27Z</time>
      </trkpt>
      <trkpt lat="45.92427" lon="6.53033">
        <ele>2434.487</ele>
        <time>2026-03-13T12:03:32Z</time>
      </trkpt>
      <trkpt lat="45.92428" lon="6.53035">
        <ele>2434.601</ele>
        <time>2026-03-13T12:03:37Z</time>
      </trkpt>
      <trkpt lat="45.92429" lon="6.53038">
        <ele>2435.082</ele>
        <time>2026-03-13T12:03:42Z</time>
      </trkpt>
      <trkpt lat="45.9243" lon="6.5304">
        <ele>2435.466</ele>
        <time>2026-03-13T12:03:47Z</time>
      </trkpt>
      <trkpt lat="45.92432" lon="6.53043">
        <ele>2436.039</ele>
        <time>2026-03-13T12:03:52Z</time>
      </trkpt>
      <trkpt lat="45.92434" lon="6.53044">
        <ele>2437.032</ele>
        <time>2026-03-13T12:03:57Z</time>
      </trkpt>
      <trkpt lat="45.92436" lon="6.53045">
        <ele>2438.408</ele>
        <time>2026-03-13T12:04:02Z</time>
      </trkpt>
      <trkpt lat="45.92437" lon="6.53047">
        <ele>2441.483</ele>
        <time>2026-03-13T12:04:07Z</time>
      </trkpt>
      <trkpt lat="45.92438" lon="6.53048">
        <ele>2442.257</ele>
        <time>2026-03-13T12:04:12Z</time>
      </trkpt>
      <trkpt lat="45.9244" lon="6.5305">
        <ele>2443.238</ele>
        <time>2026-03-13T12:04:17Z</time>
      </trkpt>
      <trkpt lat="45.92442" lon="6.53051">
        <ele>2443.342</ele>
        <time>2026-03-13T12:04:22Z</time>
      </trkpt>
      <trkpt lat="45.92444" lon="6.53052">
        <ele>2443.848</ele>
        <time>2026-03-13T12:04:27Z</time>
      </trkpt>
      <trkpt lat="45.92446" lon="6.53053">
        <ele>2444.647</ele>
        <time>2026-03-13T12:04:32Z</time>
      </trkpt>
      <trkpt lat="45.92448" lon="6.53054">
        <ele>2445.168</ele>
        <time>2026-03-13T12:04:37Z</time>
      </trkpt>
      <trkpt lat="45.92451" lon="6.53055">
        <ele>2446.439</ele>
        <time>2026-03-13T12:04:42Z</time>
      </trkpt>
      <trkpt lat="45.92453" lon="6.53056">
        <ele>2447.424</ele>
        <time>2026-03-13T12:04:47Z</time>
      </trkpt>
      <trkpt lat="45.92454" lon="6.53057">
        <ele>2448.579</ele>
        <time>2026-03-13T12:04:52Z</time>
      </trkpt>
      <trkpt lat="45.92456" lon="6.53057">
        <ele>2448.966</ele>
        <time>2026-03-13T12:04:57Z</time>
      </trkpt>
      <trkpt lat="45.92458" lon="6.53057">
        <ele>2449.44</ele>
        <time>2026-03-13T12:05:02Z</time>
      </trkpt>
      <trkpt lat="45.9246" lon="6.53057">
        <ele>2449.664</ele>
        <time>2026-03-13T12:05:07Z</time>
      </trkpt>
      <trkpt lat="45.92461" lon="6.53058">
        <ele>2450.086</ele>
        <time>2026-03-13T12:05:12Z</time>
      </trkpt>
      <trkpt lat="45.92464" lon="6.53058">
        <ele>2450.834</ele>
        <time>2026-03-13T12:05:17Z</time>
      </trkpt>
      <trkpt lat="45.92466" lon="6.53058">
        <ele>2452.097</ele>
        <time>2026-03-13T12:05:22Z</time>
      </trkpt>
      <trkpt lat="45.92468" lon="6.53057">
        <ele>2453.327</ele>
        <time>2026-03-13T12:05:27Z</time>
      </trkpt>
      <trkpt lat="45.92471" lon="6.53057">
        <ele>2452.721</ele>
        <time>2026-03-13T12:05:32Z</time>
      </trkpt>
      <trkpt lat="45.92473" lon="6.53055">
        <ele>2452.462</ele>
        <time>2026-03-13T12:05:37Z</time>
      </trkpt>
      <trkpt lat="45.92475" lon="6.53055">
        <ele>2452.668</ele>
        <time>2026-03-13T12:05:42Z</time>
      </trkpt>
      <trkpt lat="45.92477" lon="6.53055">
        <ele>2452.141</ele>
        <time>2026-03-13T12:05:47Z</time>
      </trkpt>
      <trkpt lat="45.92479" lon="6.53055">
        <ele>2452.289</ele>
        <time>2026-03-13T12:05:52Z</time>
      </trkpt>
      <trkpt lat="45.92481" lon="6.53054">
        <ele>2453.293</ele>
        <time>2026-03-13T12:05:57Z</time>
      </trkpt>
      <trkpt lat="45.92483" lon="6.53053">
        <ele>2453.618</ele>
        <time>2026-03-13T12:06:02Z</time>
      </trkpt>
      <trkpt lat="45.92485" lon="6.53052">
        <ele>2453.986</ele>
        <time>2026-03-13T12:06:07Z</time>
      </trkpt>
      <trkpt lat="45.92487" lon="6.53052">
        <ele>2454.747</ele>
        <time>2026-03-13T12:06:12Z</time>
      </trkpt>
      <trkpt lat="45.92489" lon="6.53051">
        <ele>2456.227</ele>
        <time>2026-03-13T12:06:17Z</time>
      </trkpt>
      <trkpt lat="45.92491" lon="6.5305">
        <ele>2457.049</ele>
        <time>2026-03-13T12:06:22Z</time>
      </trkpt>
      <trkpt lat="45.92493" lon="6.53048">
        <ele>2457.451</ele>
        <time>2026-03-13T12:06:27Z</time>
      </trkpt>
      <trkpt lat="45.92495" lon="6.53047">
        <ele>2457.773</ele>
        <time>2026-03-13T12:06:32Z</time>
      </trkpt>
      <trkpt lat="45.92497" lon="6.53045">
        <ele>2458.521</ele>
        <time>2026-03-13T12:06:37Z</time>
      </trkpt>
      <trkpt lat="45.92498" lon="6.53045">
        <ele>2458.967</ele>
        <time>2026-03-13T12:06:42Z</time>
      </trkpt>
      <trkpt lat="45.92498" lon="6.53045">
        <ele>2458.965</ele>
        <time>2026-03-13T12:06:47Z</time>
      </trkpt>
      <trkpt lat="45.92498" lon="6.53045">
        <ele>2458.975</ele>
        <time>2026-03-13T12:06:52Z</time>
      </trkpt>
      <trkpt lat="45.92498" lon="6.53045">
        <ele>2459.018</ele>
        <time>2026-03-13T12:06:57Z</time>
      </trkpt>
      <trkpt lat="45.92498" lon="6.53045">
        <ele>2459.045</ele>
        <time>2026-03-13T12:07:02Z</time>
      </trkpt>
      <trkpt lat="45.92498" lon="6.53045">
        <ele>2459.336</ele>
        <time>2026-03-13T12:07:07Z</time>
      </trkpt>
      <trkpt lat="45.92498" lon="6.53045">
        <ele>2460.557</ele>
        <time>2026-03-13T12:07:12Z</time>
      </trkpt>
      <trkpt lat="45.92498" lon="6.53045">
        <ele>2460.274</ele>
        <time>2026-03-13T12:07:17Z</time>
      </trkpt>
      <trkpt lat="45.92498" lon="6.53045">
        <ele>2460.301</ele>
        <time>2026-03-13T12:07:22Z</time>
      </trkpt>
      <trkpt lat="45.92498" lon="6.53045">
        <ele>2460.347</ele>
        <time>2026-03-13T12:07:27Z</time>
      </trkpt>
      <trkpt lat="45.92498" lon="6.53045">
        <ele>2460.276</ele>
        <time>2026-03-13T12:07:32Z</time>
      </trkpt>
      <trkpt lat="45.92498" lon="6.53045">
        <ele>2459.82</ele>
        <time>2026-03-13T12:07:37Z</time>
      </trkpt>
      <trkpt lat="45.92498" lon="6.53045">
        <ele>2460.055</ele>
        <time>2026-03-13T12:07:42Z</time>
      </trkpt>
      <trkpt lat="45.92498" lon="6.53045">
        <ele>2460.446</ele>
        <time>2026-03-13T12:07:47Z</time>
      </trkpt>
      <trkpt lat="45.92498" lon="6.53048">
        <ele>2461.432</ele>
        <time>2026-03-13T12:07:52Z</time>
      </trkpt>
      <trkpt lat="45.92496" lon="6.53052">
        <ele>2461.936</ele>
        <time>2026-03-13T12:07:57Z</time>
      </trkpt>
      <trkpt lat="45.92494" lon="6.53055">
        <ele>2462.008</ele>
        <time>2026-03-13T12:08:02Z</time>
      </trkpt>
      <trkpt lat="45.92491" lon="6.53059">
        <ele>2462.153</ele>
        <time>2026-03-13T12:08:07Z</time>
      </trkpt>
      <trkpt lat="45.9249" lon="6.53062">
        <ele>2462.698</ele>
        <time>2026-03-13T12:08:12Z</time>
      </trkpt>
      <trkpt lat="45.92488" lon="6.53064">
        <ele>2462.25</ele>
        <time>2026-03-13T12:08:17Z</time>
      </trkpt>
      <trkpt lat="45.92487" lon="6.53065">
        <ele>2462.467</ele>
        <time>2026-03-13T12:08:22Z</time>
      </trkpt>
      <trkpt lat="45.92487" lon="6.53065">
        <ele>2462.471</ele>
        <time>2026-03-13T12:08:27Z</time>
      </trkpt>
      <trkpt lat="45.92487" lon="6.53065">
        <ele>2462.47</ele>
        <time>2026-03-13T12:08:32Z</time>
      </trkpt>
      <trkpt lat="45.92487" lon="6.53065">
        <ele>2462.468</ele>
        <time>2026-03-13T12:08:37Z</time>
      </trkpt>
      <trkpt lat="45.92487" lon="6.53065">
        <ele>2462.478</ele>
        <time>2026-03-13T12:08:42Z</time>
      </trkpt>
      <trkpt lat="45.92487" lon="6.53065">
        <ele>2462.658</ele>
        <time>2026-03-13T12:08:47Z</time>
      </trkpt>
      <trkpt lat="45.92487" lon="6.53065">
        <ele>2462.128</ele>
        <time>2026-03-13T12:08:52Z</time>
      </trkpt>
      <trkpt lat="45.92487" lon="6.53065">
        <ele>2462.138</ele>
        <time>2026-03-13T12:08:57Z</time>
      </trkpt>
      <trkpt lat="45.92487" lon="6.53065">
        <ele>2462.144</ele>
        <time>2026-03-13T12:09:02Z</time>
      </trkpt>
      <trkpt lat="45.92487" lon="6.53065">
        <ele>2461.974</ele>
        <time>2026-03-13T12:09:07Z</time>
      </trkpt>
      <trkpt lat="45.92487" lon="6.53065">
        <ele>2461.979</ele>
        <time>2026-03-13T12:09:12Z</time>
      </trkpt>
      <trkpt lat="45.92487" lon="6.53065">
        <ele>2461.981</ele>
        <time>2026-03-13T12:09:17Z</time>
      </trkpt>
      <trkpt lat="45.92487" lon="6.53065">
        <ele>2462.099</ele>
        <time>2026-03-13T12:09:22Z</time>
      </trkpt>
      <trkpt lat="45.92487" lon="6.53065">
        <ele>2462.099</ele>
        <time>2026-03-13T12:09:27Z</time>
      </trkpt>
      <trkpt lat="45.92487" lon="6.53065">
        <ele>2462.128</ele>
        <time>2026-03-13T12:09:32Z</time>
      </trkpt>
      <trkpt lat="45.92487" lon="6.53065">
        <ele>2462.137</ele>
        <time>2026-03-13T12:09:37Z</time>
      </trkpt>
      <trkpt lat="45.92487" lon="6.53065">
        <ele>2462.113</ele>
        <time>2026-03-13T12:09:42Z</time>
      </trkpt>
      <trkpt lat="45.92487" lon="6.53065">
        <ele>2462.103</ele>
        <time>2026-03-13T12:09:47Z</time>
      </trkpt>
      <trkpt lat="45.92487" lon="6.53065">
        <ele>2462.097</ele>
        <time>2026-03-13T12:09:52Z</time>
      </trkpt>
      <trkpt lat="45.92487" lon="6.53065">
        <ele>2462.097</ele>
        <time>2026-03-13T12:09:57Z</time>
      </trkpt>
      <trkpt lat="45.92487" lon="6.53065">
        <ele>2462.099</ele>
        <time>2026-03-13T12:10:02Z</time>
      </trkpt>
      <trkpt lat="45.92487" lon="6.53065">
        <ele>2462.099</ele>
        <time>2026-03-13T12:10:07Z</time>
      </trkpt>
      <trkpt lat="45.92487" lon="6.53065">
        <ele>2462.098</ele>
        <time>2026-03-13T12:10:12Z</time>
      </trkpt>
      <trkpt lat="45.92487" lon="6.53065">
        <ele>2462.099</ele>
        <time>2026-03-13T12:10:17Z</time>
      </trkpt>
      <trkpt lat="45.92487" lon="6.53065">
        <ele>2462.099</ele>
        <time>2026-03-13T12:10:22Z</time>
      </trkpt>
      <trkpt lat="45.92487" lon="6.53065">
        <ele>2462.099</ele>
        <time>2026-03-13T12:10:27Z</time>
      </trkpt>
      <trkpt lat="45.92487" lon="6.53065">
        <ele>2462.098</ele>
        <time>2026-03-13T12:10:32Z</time>
      </trkpt>
      <trkpt lat="45.92487" lon="6.53065">
        <ele>2461.56</ele>
        <time>2026-03-13T12:10:37Z</time>
      </trkpt>
      <trkpt lat="45.92487" lon="6.53065">
        <ele>2460.974</ele>
        <time>2026-03-13T12:10:42Z</time>
      </trkpt>
      <trkpt lat="45.92487" lon="6.53065">
        <ele>2460.93</ele>
        <time>2026-03-13T12:10:47Z</time>
      </trkpt>
      <trkpt lat="45.92487" lon="6.53065">
        <ele>2460.928</ele>
        <time>2026-03-13T12:10:52Z</time>
      </trkpt>
      <trkpt lat="45.92487" lon="6.53065">
        <ele>2460.926</ele>
        <time>2026-03-13T12:10:57Z</time>
      </trkpt>
      <trkpt lat="45.92487" lon="6.53065">
        <ele>2460.926</ele>
        <time>2026-03-13T12:11:02Z</time>
      </trkpt>
      <trkpt lat="45.92487" lon="6.53065">
        <ele>2460.921</ele>
        <time>2026-03-13T12:11:07Z</time>
      </trkpt>
      <trkpt lat="45.92487" lon="6.53065">
        <ele>2460.916</ele>
        <time>2026-03-13T12:11:12Z</time>
      </trkpt>
      <trkpt lat="45.92487" lon="6.53065">
        <ele>2460.913</ele>
        <time>2026-03-13T12:11:17Z</time>
      </trkpt>
      <trkpt lat="45.92487" lon="6.53065">
        <ele>2460.911</ele>
        <time>2026-03-13T12:11:22Z</time>
      </trkpt>
      <trkpt lat="45.92487" lon="6.53065">
        <ele>2460.912</ele>
        <time>2026-03-13T12:11:27Z</time>
      </trkpt>
      <trkpt lat="45.92487" lon="6.53065">
        <ele>2460.907</ele>
        <time>2026-03-13T12:11:32Z</time>
      </trkpt>
      <trkpt lat="45.92487" lon="6.53065">
        <ele>2460.905</ele>
        <time>2026-03-13T12:11:37Z</time>
      </trkpt>
      <trkpt lat="45.92487" lon="6.53065">
        <ele>2460.901</ele>
        <time>2026-03-13T12:11:42Z</time>
      </trkpt>
      <trkpt lat="45.92487" lon="6.53065">
        <ele>2460.893</ele>
        <time>2026-03-13T12:11:47Z</time>
      </trkpt>
      <trkpt lat="45.92487" lon="6.53065">
        <ele>2460.893</ele>
        <time>2026-03-13T12:11:52Z</time>
      </trkpt>
      <trkpt lat="45.92487" lon="6.53065">
        <ele>2461.023</ele>
        <time>2026-03-13T12:11:57Z</time>
      </trkpt>
      <trkpt lat="45.92487" lon="6.53065">
        <ele>2461.075</ele>
        <time>2026-03-13T12:12:02Z</time>
      </trkpt>
      <trkpt lat="45.92487" lon="6.53065">
        <ele>2461.074</ele>
        <time>2026-03-13T12:12:07Z</time>
      </trkpt>
      <trkpt lat="45.92487" lon="6.53065">
        <ele>2461.076</ele>
        <time>2026-03-13T12:12:12Z</time>
      </trkpt>
      <trkpt lat="45.92487" lon="6.53065">
        <ele>2461.076</ele>
        <time>2026-03-13T12:12:17Z</time>
      </trkpt>
      <trkpt lat="45.92487" lon="6.53065">
        <ele>2461.076</ele>
        <time>2026-03-13T12:12:22Z</time>
      </trkpt>
      <trkpt lat="45.92487" lon="6.53065">
        <ele>2461.074</ele>
        <time>2026-03-13T12:12:27Z</time>
      </trkpt>
      <trkpt lat="45.92487" lon="6.53065">
        <ele>2461.072</ele>
        <time>2026-03-13T12:12:32Z</time>
      </trkpt>
      <trkpt lat="45.92487" lon="6.53065">
        <ele>2461.071</ele>
        <time>2026-03-13T12:12:37Z</time>
      </trkpt>
      <trkpt lat="45.92487" lon="6.53065">
        <ele>2461.071</ele>
        <time>2026-03-13T12:12:42Z</time>
      </trkpt>
      <trkpt lat="45.92487" lon="6.53065">
        <ele>2461.069</ele>
        <time>2026-03-13T12:12:47Z</time>
      </trkpt>
      <trkpt lat="45.92487" lon="6.53065">
        <ele>2461.073</ele>
        <time>2026-03-13T12:12:52Z</time>
      </trkpt>
      <trkpt lat="45.92487" lon="6.53065">
        <ele>2461.078</ele>
        <time>2026-03-13T12:12:57Z</time>
      </trkpt>
      <trkpt lat="45.92487" lon="6.53065">
        <ele>2461.08</ele>
        <time>2026-03-13T12:13:02Z</time>
      </trkpt>
      <trkpt lat="45.92487" lon="6.53065">
        <ele>2461.079</ele>
        <time>2026-03-13T12:13:07Z</time>
      </trkpt>
      <trkpt lat="45.92487" lon="6.53065">
        <ele>2461.079</ele>
        <time>2026-03-13T12:13:12Z</time>
      </trkpt>
      <trkpt lat="45.92487" lon="6.53065">
        <ele>2461.08</ele>
        <time>2026-03-13T12:13:17Z</time>
      </trkpt>
      <trkpt lat="45.92487" lon="6.53065">
        <ele>2461.081</ele>
        <time>2026-03-13T12:13:22Z</time>
      </trkpt>
      <trkpt lat="45.92487" lon="6.53065">
        <ele>2461.083</ele>
        <time>2026-03-13T12:13:27Z</time>
      </trkpt>
      <trkpt lat="45.92487" lon="6.53065">
        <ele>2461.165</ele>
        <time>2026-03-13T12:13:32Z</time>
      </trkpt>
      <trkpt lat="45.92487" lon="6.53065">
        <ele>2461.165</ele>
        <time>2026-03-13T12:13:37Z</time>
      </trkpt>
      <trkpt lat="45.92487" lon="6.53065">
        <ele>2461.167</ele>
        <time>2026-03-13T12:13:42Z</time>
      </trkpt>
      <trkpt lat="45.92487" lon="6.53065">
        <ele>2461.167</ele>
        <time>2026-03-13T12:13:47Z</time>
      </trkpt>
      <trkpt lat="45.92487" lon="6.53065">
        <ele>2461.173</ele>
        <time>2026-03-13T12:13:52Z</time>
      </trkpt>
      <trkpt lat="45.92487" lon="6.53065">
        <ele>2460.961</ele>
        <time>2026-03-13T12:13:57Z</time>
      </trkpt>
      <trkpt lat="45.92487" lon="6.53065">
        <ele>2460.947</ele>
        <time>2026-03-13T12:14:02Z</time>
      </trkpt>
      <trkpt lat="45.92487" lon="6.53065">
        <ele>2460.949</ele>
        <time>2026-03-13T12:14:07Z</time>
      </trkpt>
      <trkpt lat="45.92487" lon="6.53065">
        <ele>2460.947</ele>
        <time>2026-03-13T12:14:12Z</time>
      </trkpt>
      <trkpt lat="45.92487" lon="6.53065">
        <ele>2460.949</ele>
        <time>2026-03-13T12:14:17Z</time>
      </trkpt>
      <trkpt lat="45.92487" lon="6.53065">
        <ele>2460.949</ele>
        <time>2026-03-13T12:14:22Z</time>
      </trkpt>
      <trkpt lat="45.92487" lon="6.53065">
        <ele>2460.948</ele>
        <time>2026-03-13T12:14:27Z</time>
      </trkpt>
      <trkpt lat="45.92487" lon="6.53065">
        <ele>2460.946</ele>
        <time>2026-03-13T12:14:32Z</time>
      </trkpt>
      <trkpt lat="45.92487" lon="6.53065">
        <ele>2460.719</ele>
        <time>2026-03-13T12:14:37Z</time>
      </trkpt>
      <trkpt lat="45.92487" lon="6.53065">
        <ele>2460.726</ele>
        <time>2026-03-13T12:14:42Z</time>
      </trkpt>
      <trkpt lat="45.92487" lon="6.53065">
        <ele>2460.731</ele>
        <time>2026-03-13T12:14:47Z</time>
      </trkpt>
      <trkpt lat="45.92487" lon="6.53065">
        <ele>2460.734</ele>
        <time>2026-03-13T12:14:52Z</time>
      </trkpt>
      <trkpt lat="45.92487" lon="6.53065">
        <ele>2460.547</ele>
        <time>2026-03-13T12:14:57Z</time>
      </trkpt>
      <trkpt lat="45.92487" lon="6.53065">
        <ele>2460.545</ele>
        <time>2026-03-13T12:15:02Z</time>
      </trkpt>
      <trkpt lat="45.92487" lon="6.53065">
        <ele>2460.545</ele>
        <time>2026-03-13T12:15:07Z</time>
      </trkpt>
      <trkpt lat="45.92487" lon="6.53065">
        <ele>2460.549</ele>
        <time>2026-03-13T12:15:12Z</time>
      </trkpt>
      <trkpt lat="45.92487" lon="6.53065">
        <ele>2460.895</ele>
        <time>2026-03-13T12:15:17Z</time>
      </trkpt>
      <trkpt lat="45.92487" lon="6.53065">
        <ele>2461.123</ele>
        <time>2026-03-13T12:15:22Z</time>
      </trkpt>
      <trkpt lat="45.92487" lon="6.53066">
        <ele>2461.156</ele>
        <time>2026-03-13T12:15:27Z</time>
      </trkpt>
      <trkpt lat="45.92487" lon="6.53067">
        <ele>2462.682</ele>
        <time>2026-03-13T12:15:32Z</time>
      </trkpt>
      <trkpt lat="45.92486" lon="6.53068">
        <ele>2462.951</ele>
        <time>2026-03-13T12:15:37Z</time>
      </trkpt>
      <trkpt lat="45.92486" lon="6.53068">
        <ele>2462.944</ele>
        <time>2026-03-13T12:15:42Z</time>
      </trkpt>
      <trkpt lat="45.92486" lon="6.53068">
        <ele>2462.944</ele>
        <time>2026-03-13T12:15:47Z</time>
      </trkpt>
      <trkpt lat="45.92486" lon="6.53068">
        <ele>2462.948</ele>
        <time>2026-03-13T12:15:52Z</time>
      </trkpt>
      <trkpt lat="45.92486" lon="6.53068">
        <ele>2462.954</ele>
        <time>2026-03-13T12:15:57Z</time>
      </trkpt>
      <trkpt lat="45.92486" lon="6.53068">
        <ele>2462.952</ele>
        <time>2026-03-13T12:16:02Z</time>
      </trkpt>
      <trkpt lat="45.92486" lon="6.53068">
        <ele>2462.94</ele>
        <time>2026-03-13T12:16:07Z</time>
      </trkpt>
      <trkpt lat="45.92486" lon="6.53068">
        <ele>2462.931</ele>
        <time>2026-03-13T12:16:12Z</time>
      </trkpt>
      <trkpt lat="45.92486" lon="6.53068">
        <ele>2462.926</ele>
        <time>2026-03-13T12:16:17Z</time>
      </trkpt>
      <trkpt lat="45.92486" lon="6.53068">
        <ele>2462.913</ele>
        <time>2026-03-13T12:16:22Z</time>
      </trkpt>
      <trkpt lat="45.92486" lon="6.53068">
        <ele>2462.902</ele>
        <time>2026-03-13T12:16:27Z</time>
      </trkpt>
      <trkpt lat="45.92486" lon="6.53068">
        <ele>2462.892</ele>
        <time>2026-03-13T12:16:32Z</time>
      </trkpt>
      <trkpt lat="45.92486" lon="6.53068">
        <ele>2462.892</ele>
        <time>2026-03-13T12:16:37Z</time>
      </trkpt>
      <trkpt lat="45.92485" lon="6.53069">
        <ele>2463.074</ele>
        <time>2026-03-13T12:16:42Z</time>
      </trkpt>
      <trkpt lat="45.92483" lon="6.53072">
        <ele>2463.72</ele>
        <time>2026-03-13T12:16:47Z</time>
      </trkpt>
      <trkpt lat="45.92482" lon="6.53076">
        <ele>2463.954</ele>
        <time>2026-03-13T12:16:52Z</time>
      </trkpt>
      <trkpt lat="45.9248" lon="6.5308">
        <ele>2464.781</ele>
        <time>2026-03-13T12:16:57Z</time>
      </trkpt>
      <trkpt lat="45.92478" lon="6.53083">
        <ele>2465.017</ele>
        <time>2026-03-13T12:17:02Z</time>
      </trkpt>
      <trkpt lat="45.92476" lon="6.53085">
        <ele>2465.73</ele>
        <time>2026-03-13T12:17:07Z</time>
      </trkpt>
      <trkpt lat="45.92474" lon="6.53088">
        <ele>2466.109</ele>
        <time>2026-03-13T12:17:12Z</time>
      </trkpt>
      <trkpt lat="45.92472" lon="6.5309">
        <ele>2466.616</ele>
        <time>2026-03-13T12:17:17Z</time>
      </trkpt>
      <trkpt lat="45.9247" lon="6.53092">
        <ele>2467.698</ele>
        <time>2026-03-13T12:17:22Z</time>
      </trkpt>
      <trkpt lat="45.92469" lon="6.53095">
        <ele>2468.404</ele>
        <time>2026-03-13T12:17:27Z</time>
      </trkpt>
      <trkpt lat="45.92467" lon="6.53098">
        <ele>2468.974</ele>
        <time>2026-03-13T12:17:32Z</time>
      </trkpt>
      <trkpt lat="45.92465" lon="6.531">
        <ele>2469.172</ele>
        <time>2026-03-13T12:17:37Z</time>
      </trkpt>
      <trkpt lat="45.92464" lon="6.53101">
        <ele>2469.346</ele>
        <time>2026-03-13T12:17:42Z</time>
      </trkpt>
      <trkpt lat="45.92464" lon="6.53101">
        <ele>2469.34</ele>
        <time>2026-03-13T12:17:47Z</time>
      </trkpt>
      <trkpt lat="45.92464" lon="6.53102">
        <ele>2469.505</ele>
        <time>2026-03-13T12:17:52Z</time>
      </trkpt>
      <trkpt lat="45.92464" lon="6.53102">
        <ele>2469.825</ele>
        <time>2026-03-13T12:17:57Z</time>
      </trkpt>
      <trkpt lat="45.92464" lon="6.53102">
        <ele>2469.881</ele>
        <time>2026-03-13T12:18:02Z</time>
      </trkpt>
      <trkpt lat="45.92464" lon="6.53102">
        <ele>2469.914</ele>
        <time>2026-03-13T12:18:07Z</time>
      </trkpt>
      <trkpt lat="45.92464" lon="6.53102">
        <ele>2469.912</ele>
        <time>2026-03-13T12:18:12Z</time>
      </trkpt>
      <trkpt lat="45.92464" lon="6.53102">
        <ele>2470.104</ele>
        <time>2026-03-13T12:18:17Z</time>
      </trkpt>
      <trkpt lat="45.92464" lon="6.53102">
        <ele>2470.105</ele>
        <time>2026-03-13T12:18:22Z</time>
      </trkpt>
      <trkpt lat="45.92464" lon="6.53102">
        <ele>2470.323</ele>
        <time>2026-03-13T12:18:27Z</time>
      </trkpt>
      <trkpt lat="45.92464" lon="6.53102">
        <ele>2470.326</ele>
        <time>2026-03-13T12:18:32Z</time>
      </trkpt>
      <trkpt lat="45.92464" lon="6.53102">
        <ele>2470.324</ele>
        <time>2026-03-13T12:18:37Z</time>
      </trkpt>
      <trkpt lat="45.92464" lon="6.53102">
        <ele>2470.322</ele>
        <time>2026-03-13T12:18:42Z</time>
      </trkpt>
      <trkpt lat="45.92464" lon="6.53102">
        <ele>2470.319</ele>
        <time>2026-03-13T12:18:47Z</time>
      </trkpt>
      <trkpt lat="45.92464" lon="6.53102">
        <ele>2470.315</ele>
        <time>2026-03-13T12:18:52Z</time>
      </trkpt>
      <trkpt lat="45.92464" lon="6.53102">
        <ele>2470.31</ele>
        <time>2026-03-13T12:18:57Z</time>
      </trkpt>
      <trkpt lat="45.92464" lon="6.53102">
        <ele>2470.312</ele>
        <time>2026-03-13T12:19:02Z</time>
      </trkpt>
      <trkpt lat="45.92464" lon="6.53102">
        <ele>2470.063</ele>
        <time>2026-03-13T12:19:07Z</time>
      </trkpt>
      <trkpt lat="45.92464" lon="6.53102">
        <ele>2470.062</ele>
        <time>2026-03-13T12:19:12Z</time>
      </trkpt>
      <trkpt lat="45.92464" lon="6.53102">
        <ele>2470.059</ele>
        <time>2026-03-13T12:19:17Z</time>
      </trkpt>
      <trkpt lat="45.92464" lon="6.53102">
        <ele>2470.059</ele>
        <time>2026-03-13T12:19:22Z</time>
      </trkpt>
      <trkpt lat="45.92464" lon="6.53102">
        <ele>2470.139</ele>
        <time>2026-03-13T12:19:27Z</time>
      </trkpt>
      <trkpt lat="45.92464" lon="6.53102">
        <ele>2470.042</ele>
        <time>2026-03-13T12:19:32Z</time>
      </trkpt>
      <trkpt lat="45.92464" lon="6.53102">
        <ele>2470.041</ele>
        <time>2026-03-13T12:19:37Z</time>
      </trkpt>
      <trkpt lat="45.92464" lon="6.53102">
        <ele>2470.042</ele>
        <time>2026-03-13T12:19:42Z</time>
      </trkpt>
      <trkpt lat="45.92464" lon="6.53102">
        <ele>2470.04</ele>
        <time>2026-03-13T12:19:47Z</time>
      </trkpt>
      <trkpt lat="45.92464" lon="6.53102">
        <ele>2470.037</ele>
        <time>2026-03-13T12:19:52Z</time>
      </trkpt>
      <trkpt lat="45.92464" lon="6.53102">
        <ele>2470.033</ele>
        <time>2026-03-13T12:19:57Z</time>
      </trkpt>
      <trkpt lat="45.92464" lon="6.53102">
        <ele>2470.03</ele>
        <time>2026-03-13T12:20:02Z</time>
      </trkpt>
      <trkpt lat="45.92464" lon="6.53102">
        <ele>2470.027</ele>
        <time>2026-03-13T12:20:07Z</time>
      </trkpt>
      <trkpt lat="45.92464" lon="6.53102">
        <ele>2470.021</ele>
        <time>2026-03-13T12:20:12Z</time>
      </trkpt>
      <trkpt lat="45.92464" lon="6.53102">
        <ele>2470.017</ele>
        <time>2026-03-13T12:20:17Z</time>
      </trkpt>
      <trkpt lat="45.92464" lon="6.53102">
        <ele>2470.015</ele>
        <time>2026-03-13T12:20:22Z</time>
      </trkpt>
      <trkpt lat="45.92464" lon="6.53102">
        <ele>2470.011</ele>
        <time>2026-03-13T12:20:27Z</time>
      </trkpt>
      <trkpt lat="45.92464" lon="6.53102">
        <ele>2470.006</ele>
        <time>2026-03-13T12:20:32Z</time>
      </trkpt>
      <trkpt lat="45.92464" lon="6.53102">
        <ele>2470.003</ele>
        <time>2026-03-13T12:20:37Z</time>
      </trkpt>
      <trkpt lat="45.92464" lon="6.53102">
        <ele>2470</ele>
        <time>2026-03-13T12:20:42Z</time>
      </trkpt>
      <trkpt lat="45.92464" lon="6.53102">
        <ele>2470</ele>
        <time>2026-03-13T12:20:47Z</time>
      </trkpt>
      <trkpt lat="45.92464" lon="6.53102">
        <ele>2469.994</ele>
        <time>2026-03-13T12:20:52Z</time>
      </trkpt>
      <trkpt lat="45.92464" lon="6.53102">
        <ele>2469.994</ele>
        <time>2026-03-13T12:20:57Z</time>
      </trkpt>
      <trkpt lat="45.92464" lon="6.53102">
        <ele>2469.987</ele>
        <time>2026-03-13T12:21:02Z</time>
      </trkpt>
      <trkpt lat="45.92464" lon="6.53102">
        <ele>2469.985</ele>
        <time>2026-03-13T12:21:07Z</time>
      </trkpt>
      <trkpt lat="45.92464" lon="6.53102">
        <ele>2469.975</ele>
        <time>2026-03-13T12:21:12Z</time>
      </trkpt>
      <trkpt lat="45.92464" lon="6.53102">
        <ele>2469.155</ele>
        <time>2026-03-13T12:21:17Z</time>
      </trkpt>
      <trkpt lat="45.92464" lon="6.53102">
        <ele>2469.63</ele>
        <time>2026-03-13T12:21:22Z</time>
      </trkpt>
      <trkpt lat="45.92464" lon="6.53102">
        <ele>2469.669</ele>
        <time>2026-03-13T12:21:27Z</time>
      </trkpt>
      <trkpt lat="45.92464" lon="6.53102">
        <ele>2469.507</ele>
        <time>2026-03-13T12:21:32Z</time>
      </trkpt>
      <trkpt lat="45.92464" lon="6.53102">
        <ele>2469.422</ele>
        <time>2026-03-13T12:21:37Z</time>
      </trkpt>
      <trkpt lat="45.92464" lon="6.53102">
        <ele>2469.395</ele>
        <time>2026-03-13T12:21:42Z</time>
      </trkpt>
      <trkpt lat="45.92464" lon="6.53102">
        <ele>2469.386</ele>
        <time>2026-03-13T12:21:47Z</time>
      </trkpt>
      <trkpt lat="45.92464" lon="6.53102">
        <ele>2469.38</ele>
        <time>2026-03-13T12:21:52Z</time>
      </trkpt>
      <trkpt lat="45.92464" lon="6.53102">
        <ele>2469.363</ele>
        <time>2026-03-13T12:21:57Z</time>
      </trkpt>
      <trkpt lat="45.92464" lon="6.53102">
        <ele>2469.352</ele>
        <time>2026-03-13T12:22:02Z</time>
      </trkpt>
      <trkpt lat="45.92464" lon="6.53102">
        <ele>2469.333</ele>
        <time>2026-03-13T12:22:07Z</time>
      </trkpt>
      <trkpt lat="45.92464" lon="6.53102">
        <ele>2469.321</ele>
        <time>2026-03-13T12:22:12Z</time>
      </trkpt>
      <trkpt lat="45.92464" lon="6.53102">
        <ele>2469.307</ele>
        <time>2026-03-13T12:22:17Z</time>
      </trkpt>
      <trkpt lat="45.92464" lon="6.53102">
        <ele>2469.301</ele>
        <time>2026-03-13T12:22:22Z</time>
      </trkpt>
      <trkpt lat="45.92464" lon="6.53102">
        <ele>2469.292</ele>
        <time>2026-03-13T12:22:27Z</time>
      </trkpt>
      <trkpt lat="45.92464" lon="6.53102">
        <ele>2469.288</ele>
        <time>2026-03-13T12:22:32Z</time>
      </trkpt>
      <trkpt lat="45.92464" lon="6.53102">
        <ele>2469.286</ele>
        <time>2026-03-13T12:22:37Z</time>
      </trkpt>
      <trkpt lat="45.92464" lon="6.53102">
        <ele>2469.28</ele>
        <time>2026-03-13T12:22:42Z</time>
      </trkpt>
      <trkpt lat="45.92464" lon="6.53102">
        <ele>2469.271</ele>
        <time>2026-03-13T12:22:47Z</time>
      </trkpt>
      <trkpt lat="45.92464" lon="6.53102">
        <ele>2469.274</ele>
        <time>2026-03-13T12:22:52Z</time>
      </trkpt>
      <trkpt lat="45.92464" lon="6.53102">
        <ele>2469.273</ele>
        <time>2026-03-13T12:22:57Z</time>
      </trkpt>
      <trkpt lat="45.92464" lon="6.53102">
        <ele>2469.266</ele>
        <time>2026-03-13T12:23:02Z</time>
      </trkpt>
      <trkpt lat="45.92464" lon="6.53102">
        <ele>2469.248</ele>
        <time>2026-03-13T12:23:07Z</time>
      </trkpt>
      <trkpt lat="45.92464" lon="6.53102">
        <ele>2469.241</ele>
        <time>2026-03-13T12:23:12Z</time>
      </trkpt>
      <trkpt lat="45.92464" lon="6.53102">
        <ele>2469.243</ele>
        <time>2026-03-13T12:23:17Z</time>
      </trkpt>
      <trkpt lat="45.92464" lon="6.53102">
        <ele>2469.241</ele>
        <time>2026-03-13T12:23:22Z</time>
      </trkpt>
      <trkpt lat="45.92464" lon="6.53102">
        <ele>2469.237</ele>
        <time>2026-03-13T12:23:27Z</time>
      </trkpt>
      <trkpt lat="45.92464" lon="6.53102">
        <ele>2469.235</ele>
        <time>2026-03-13T12:23:32Z</time>
      </trkpt>
      <trkpt lat="45.92464" lon="6.53102">
        <ele>2469.233</ele>
        <time>2026-03-13T12:23:37Z</time>
      </trkpt>
      <trkpt lat="45.92464" lon="6.53102">
        <ele>2469.234</ele>
        <time>2026-03-13T12:23:42Z</time>
      </trkpt>
      <trkpt lat="45.92464" lon="6.53102">
        <ele>2469.231</ele>
        <time>2026-03-13T12:23:47Z</time>
      </trkpt>
      <trkpt lat="45.92464" lon="6.53102">
        <ele>2469.228</ele>
        <time>2026-03-13T12:23:52Z</time>
      </trkpt>
      <trkpt lat="45.92464" lon="6.53102">
        <ele>2469.229</ele>
        <time>2026-03-13T12:23:57Z</time>
      </trkpt>
      <trkpt lat="45.92464" lon="6.53102">
        <ele>2469.222</ele>
        <time>2026-03-13T12:24:02Z</time>
      </trkpt>
      <trkpt lat="45.92464" lon="6.53102">
        <ele>2469.218</ele>
        <time>2026-03-13T12:24:07Z</time>
      </trkpt>
      <trkpt lat="45.92464" lon="6.53102">
        <ele>2469.215</ele>
        <time>2026-03-13T12:24:12Z</time>
      </trkpt>
      <trkpt lat="45.92464" lon="6.53102">
        <ele>2469.214</ele>
        <time>2026-03-13T12:24:17Z</time>
      </trkpt>
      <trkpt lat="45.92464" lon="6.53102">
        <ele>2469.195</ele>
        <time>2026-03-13T12:24:22Z</time>
      </trkpt>
      <trkpt lat="45.92464" lon="6.53102">
        <ele>2469.19</ele>
        <time>2026-03-13T12:24:27Z</time>
      </trkpt>
      <trkpt lat="45.92464" lon="6.53102">
        <ele>2469.182</ele>
        <time>2026-03-13T12:24:32Z</time>
      </trkpt>
      <trkpt lat="45.92464" lon="6.53102">
        <ele>2469.18</ele>
        <time>2026-03-13T12:24:37Z</time>
      </trkpt>
      <trkpt lat="45.92464" lon="6.53102">
        <ele>2469.176</ele>
        <time>2026-03-13T12:24:42Z</time>
      </trkpt>
      <trkpt lat="45.92464" lon="6.53102">
        <ele>2469.169</ele>
        <time>2026-03-13T12:24:47Z</time>
      </trkpt>
      <trkpt lat="45.92464" lon="6.53102">
        <ele>2469.167</ele>
        <time>2026-03-13T12:24:52Z</time>
      </trkpt>
      <trkpt lat="45.92464" lon="6.53102">
        <ele>2469.17</ele>
        <time>2026-03-13T12:24:57Z</time>
      </trkpt>
      <trkpt lat="45.92464" lon="6.53102">
        <ele>2469.164</ele>
        <time>2026-03-13T12:25:02Z</time>
      </trkpt>
      <trkpt lat="45.92464" lon="6.53102">
        <ele>2469.157</ele>
        <time>2026-03-13T12:25:07Z</time>
      </trkpt>
      <trkpt lat="45.92464" lon="6.53102">
        <ele>2469.15</ele>
        <time>2026-03-13T12:25:12Z</time>
      </trkpt>
      <trkpt lat="45.92464" lon="6.53102">
        <ele>2469.145</ele>
        <time>2026-03-13T12:25:17Z</time>
      </trkpt>
      <trkpt lat="45.92464" lon="6.53102">
        <ele>2469.138</ele>
        <time>2026-03-13T12:25:22Z</time>
      </trkpt>
      <trkpt lat="45.92464" lon="6.53102">
        <ele>2469.131</ele>
        <time>2026-03-13T12:25:27Z</time>
      </trkpt>
      <trkpt lat="45.92464" lon="6.53102">
        <ele>2469.126</ele>
        <time>2026-03-13T12:25:32Z</time>
      </trkpt>
      <trkpt lat="45.92464" lon="6.53102">
        <ele>2469.122</ele>
        <time>2026-03-13T12:25:37Z</time>
      </trkpt>
      <trkpt lat="45.92464" lon="6.53102">
        <ele>2469.113</ele>
        <time>2026-03-13T12:25:42Z</time>
      </trkpt>
      <trkpt lat="45.92464" lon="6.53102">
        <ele>2469.107</ele>
        <time>2026-03-13T12:25:47Z</time>
      </trkpt>
      <trkpt lat="45.92464" lon="6.53102">
        <ele>2469.104</ele>
        <time>2026-03-13T12:25:52Z</time>
      </trkpt>
      <trkpt lat="45.92464" lon="6.53102">
        <ele>2469.096</ele>
        <time>2026-03-13T12:25:57Z</time>
      </trkpt>
      <trkpt lat="45.92464" lon="6.53102">
        <ele>2469.093</ele>
        <time>2026-03-13T12:26:02Z</time>
      </trkpt>
      <trkpt lat="45.92464" lon="6.53102">
        <ele>2469.093</ele>
        <time>2026-03-13T12:26:07Z</time>
      </trkpt>
      <trkpt lat="45.92464" lon="6.53102">
        <ele>2469.088</ele>
        <time>2026-03-13T12:26:12Z</time>
      </trkpt>
      <trkpt lat="45.92464" lon="6.53102">
        <ele>2469.085</ele>
        <time>2026-03-13T12:26:17Z</time>
      </trkpt>
      <trkpt lat="45.92464" lon="6.53102">
        <ele>2469.079</ele>
        <time>2026-03-13T12:26:22Z</time>
      </trkpt>
      <trkpt lat="45.92464" lon="6.53102">
        <ele>2469.08</ele>
        <time>2026-03-13T12:26:27Z</time>
      </trkpt>
      <trkpt lat="45.92464" lon="6.53102">
        <ele>2469.077</ele>
        <time>2026-03-13T12:26:32Z</time>
      </trkpt>
      <trkpt lat="45.92464" lon="6.53102">
        <ele>2469.07</ele>
        <time>2026-03-13T12:26:37Z</time>
      </trkpt>
      <trkpt lat="45.92464" lon="6.53102">
        <ele>2469.062</ele>
        <time>2026-03-13T12:26:42Z</time>
      </trkpt>
      <trkpt lat="45.92464" lon="6.53102">
        <ele>2469.059</ele>
        <time>2026-03-13T12:26:47Z</time>
      </trkpt>
      <trkpt lat="45.92464" lon="6.53102">
        <ele>2469.06</ele>
        <time>2026-03-13T12:26:52Z</time>
      </trkpt>
      <trkpt lat="45.92464" lon="6.53102">
        <ele>2469.06</ele>
        <time>2026-03-13T12:26:57Z</time>
      </trkpt>
      <trkpt lat="45.92464" lon="6.53102">
        <ele>2469.058</ele>
        <time>2026-03-13T12:27:02Z</time>
      </trkpt>
      <trkpt lat="45.92464" lon="6.53102">
        <ele>2469.051</ele>
        <time>2026-03-13T12:27:07Z</time>
      </trkpt>
      <trkpt lat="45.92464" lon="6.53102">
        <ele>2469.042</ele>
        <time>2026-03-13T12:27:12Z</time>
      </trkpt>
      <trkpt lat="45.92464" lon="6.53102">
        <ele>2469.042</ele>
        <time>2026-03-13T12:27:17Z</time>
      </trkpt>
      <trkpt lat="45.92464" lon="6.53102">
        <ele>2469.044</ele>
        <time>2026-03-13T12:27:22Z</time>
      </trkpt>
      <trkpt lat="45.92464" lon="6.53102">
        <ele>2469.044</ele>
        <time>2026-03-13T12:27:27Z</time>
      </trkpt>
      <trkpt lat="45.92464" lon="6.53102">
        <ele>2469.043</ele>
        <time>2026-03-13T12:27:32Z</time>
      </trkpt>
      <trkpt lat="45.92464" lon="6.53102">
        <ele>2469.048</ele>
        <time>2026-03-13T12:27:37Z</time>
      </trkpt>
      <trkpt lat="45.92464" lon="6.53102">
        <ele>2469.049</ele>
        <time>2026-03-13T12:27:42Z</time>
      </trkpt>
      <trkpt lat="45.92464" lon="6.53102">
        <ele>2469.048</ele>
        <time>2026-03-13T12:27:47Z</time>
      </trkpt>
      <trkpt lat="45.92464" lon="6.53102">
        <ele>2469.047</ele>
        <time>2026-03-13T12:27:52Z</time>
      </trkpt>
      <trkpt lat="45.92464" lon="6.53102">
        <ele>2469.041</ele>
        <time>2026-03-13T12:27:57Z</time>
      </trkpt>
      <trkpt lat="45.92464" lon="6.53102">
        <ele>2469.039</ele>
        <time>2026-03-13T12:28:02Z</time>
      </trkpt>
      <trkpt lat="45.92464" lon="6.53102">
        <ele>2469.038</ele>
        <time>2026-03-13T12:28:07Z</time>
      </trkpt>
      <trkpt lat="45.92464" lon="6.53102">
        <ele>2469.03</ele>
        <time>2026-03-13T12:28:12Z</time>
      </trkpt>
      <trkpt lat="45.92464" lon="6.53102">
        <ele>2469.027</ele>
        <time>2026-03-13T12:28:17Z</time>
      </trkpt>
      <trkpt lat="45.92464" lon="6.53102">
        <ele>2469.027</ele>
        <time>2026-03-13T12:28:22Z</time>
      </trkpt>
      <trkpt lat="45.92464" lon="6.53102">
        <ele>2469.026</ele>
        <time>2026-03-13T12:28:27Z</time>
      </trkpt>
      <trkpt lat="45.92464" lon="6.53102">
        <ele>2469.024</ele>
        <time>2026-03-13T12:28:32Z</time>
      </trkpt>
      <trkpt lat="45.92464" lon="6.53102">
        <ele>2469.017</ele>
        <time>2026-03-13T12:28:37Z</time>
      </trkpt>
      <trkpt lat="45.92464" lon="6.53102">
        <ele>2469.009</ele>
        <time>2026-03-13T12:28:42Z</time>
      </trkpt>
      <trkpt lat="45.92464" lon="6.53102">
        <ele>2469.008</ele>
        <time>2026-03-13T12:28:47Z</time>
      </trkpt>
      <trkpt lat="45.92464" lon="6.53102">
        <ele>2469.002</ele>
        <time>2026-03-13T12:28:52Z</time>
      </trkpt>
      <trkpt lat="45.92464" lon="6.53102">
        <ele>2468.999</ele>
        <time>2026-03-13T12:28:57Z</time>
      </trkpt>
      <trkpt lat="45.92464" lon="6.53102">
        <ele>2468.998</ele>
        <time>2026-03-13T12:29:02Z</time>
      </trkpt>
      <trkpt lat="45.92464" lon="6.53102">
        <ele>2468.997</ele>
        <time>2026-03-13T12:29:07Z</time>
      </trkpt>
      <trkpt lat="45.92464" lon="6.53102">
        <ele>2469.002</ele>
        <time>2026-03-13T12:29:12Z</time>
      </trkpt>
      <trkpt lat="45.92464" lon="6.53102">
        <ele>2469</ele>
        <time>2026-03-13T12:29:17Z</time>
      </trkpt>
      <trkpt lat="45.92464" lon="6.53102">
        <ele>2468.989</ele>
        <time>2026-03-13T12:29:22Z</time>
      </trkpt>
      <trkpt lat="45.92464" lon="6.53102">
        <ele>2468.986</ele>
        <time>2026-03-13T12:29:27Z</time>
      </trkpt>
      <trkpt lat="45.92464" lon="6.53102">
        <ele>2468.98</ele>
        <time>2026-03-13T12:29:32Z</time>
      </trkpt>
      <trkpt lat="45.92464" lon="6.53102">
        <ele>2468.978</ele>
        <time>2026-03-13T12:29:37Z</time>
      </trkpt>
      <trkpt lat="45.92464" lon="6.53102">
        <ele>2468.974</ele>
        <time>2026-03-13T12:29:42Z</time>
      </trkpt>
      <trkpt lat="45.92464" lon="6.53102">
        <ele>2468.975</ele>
        <time>2026-03-13T12:29:47Z</time>
      </trkpt>
      <trkpt lat="45.92464" lon="6.53102">
        <ele>2468.975</ele>
        <time>2026-03-13T12:29:52Z</time>
      </trkpt>
      <trkpt lat="45.92464" lon="6.53102">
        <ele>2468.972</ele>
        <time>2026-03-13T12:29:57Z</time>
      </trkpt>
      <trkpt lat="45.92464" lon="6.53102">
        <ele>2468.965</ele>
        <time>2026-03-13T12:30:02Z</time>
      </trkpt>
      <trkpt lat="45.92464" lon="6.53102">
        <ele>2468.961</ele>
        <time>2026-03-13T12:30:07Z</time>
      </trkpt>
      <trkpt lat="45.92464" lon="6.53102">
        <ele>2468.957</ele>
        <time>2026-03-13T12:30:12Z</time>
      </trkpt>
      <trkpt lat="45.92464" lon="6.53102">
        <ele>2468.956</ele>
        <time>2026-03-13T12:30:17Z</time>
      </trkpt>
      <trkpt lat="45.92464" lon="6.53102">
        <ele>2468.951</ele>
        <time>2026-03-13T12:30:22Z</time>
      </trkpt>
      <trkpt lat="45.92464" lon="6.53102">
        <ele>2468.943</ele>
        <time>2026-03-13T12:30:27Z</time>
      </trkpt>
      <trkpt lat="45.92464" lon="6.53102">
        <ele>2468.939</ele>
        <time>2026-03-13T12:30:32Z</time>
      </trkpt>
      <trkpt lat="45.92464" lon="6.53102">
        <ele>2468.935</ele>
        <time>2026-03-13T12:30:37Z</time>
      </trkpt>
      <trkpt lat="45.92464" lon="6.53102">
        <ele>2468.931</ele>
        <time>2026-03-13T12:30:42Z</time>
      </trkpt>
      <trkpt lat="45.92464" lon="6.53102">
        <ele>2468.928</ele>
        <time>2026-03-13T12:30:47Z</time>
      </trkpt>
      <trkpt lat="45.92464" lon="6.53102">
        <ele>2468.933</ele>
        <time>2026-03-13T12:30:52Z</time>
      </trkpt>
      <trkpt lat="45.92464" lon="6.53102">
        <ele>2468.93</ele>
        <time>2026-03-13T12:30:57Z</time>
      </trkpt>
      <trkpt lat="45.92464" lon="6.53102">
        <ele>2468.929</ele>
        <time>2026-03-13T12:31:02Z</time>
      </trkpt>
      <trkpt lat="45.92464" lon="6.53102">
        <ele>2468.931</ele>
        <time>2026-03-13T12:31:07Z</time>
      </trkpt>
      <trkpt lat="45.92464" lon="6.53102">
        <ele>2468.935</ele>
        <time>2026-03-13T12:31:12Z</time>
      </trkpt>
      <trkpt lat="45.92464" lon="6.53102">
        <ele>2468.938</ele>
        <time>2026-03-13T12:31:17Z</time>
      </trkpt>
      <trkpt lat="45.92464" lon="6.53102">
        <ele>2468.944</ele>
        <time>2026-03-13T12:31:22Z</time>
      </trkpt>
      <trkpt lat="45.92464" lon="6.53102">
        <ele>2468.944</ele>
        <time>2026-03-13T12:31:27Z</time>
      </trkpt>
      <trkpt lat="45.92464" lon="6.53102">
        <ele>2468.949</ele>
        <time>2026-03-13T12:31:32Z</time>
      </trkpt>
      <trkpt lat="45.92464" lon="6.53102">
        <ele>2468.953</ele>
        <time>2026-03-13T12:31:37Z</time>
      </trkpt>
      <trkpt lat="45.92464" lon="6.53102">
        <ele>2468.959</ele>
        <time>2026-03-13T12:31:42Z</time>
      </trkpt>
      <trkpt lat="45.92464" lon="6.53102">
        <ele>2468.967</ele>
        <time>2026-03-13T12:31:47Z</time>
      </trkpt>
      <trkpt lat="45.92464" lon="6.53102">
        <ele>2468.968</ele>
        <time>2026-03-13T12:31:52Z</time>
      </trkpt>
      <trkpt lat="45.92464" lon="6.53102">
        <ele>2468.973</ele>
        <time>2026-03-13T12:31:57Z</time>
      </trkpt>
      <trkpt lat="45.92464" lon="6.53102">
        <ele>2468.981</ele>
        <time>2026-03-13T12:32:02Z</time>
      </trkpt>
      <trkpt lat="45.92464" lon="6.53102">
        <ele>2468.975</ele>
        <time>2026-03-13T12:32:07Z</time>
      </trkpt>
      <trkpt lat="45.92464" lon="6.53102">
        <ele>2468.983</ele>
        <time>2026-03-13T12:32:12Z</time>
      </trkpt>
      <trkpt lat="45.92464" lon="6.53102">
        <ele>2468.995</ele>
        <time>2026-03-13T12:32:17Z</time>
      </trkpt>
      <trkpt lat="45.92464" lon="6.53102">
        <ele>2469.001</ele>
        <time>2026-03-13T12:32:22Z</time>
      </trkpt>
      <trkpt lat="45.92464" lon="6.53102">
        <ele>2469.005</ele>
        <time>2026-03-13T12:32:27Z</time>
      </trkpt>
      <trkpt lat="45.92464" lon="6.53102">
        <ele>2469.001</ele>
        <time>2026-03-13T12:32:32Z</time>
      </trkpt>
      <trkpt lat="45.92464" lon="6.53102">
        <ele>2469.002</ele>
        <time>2026-03-13T12:32:37Z</time>
      </trkpt>
      <trkpt lat="45.92464" lon="6.53102">
        <ele>2469.001</ele>
        <time>2026-03-13T12:32:42Z</time>
      </trkpt>
      <trkpt lat="45.92464" lon="6.53102">
        <ele>2469.001</ele>
        <time>2026-03-13T12:32:47Z</time>
      </trkpt>
      <trkpt lat="45.92464" lon="6.53102">
        <ele>2469.005</ele>
        <time>2026-03-13T12:32:52Z</time>
      </trkpt>
      <trkpt lat="45.92464" lon="6.53102">
        <ele>2469.002</ele>
        <time>2026-03-13T12:32:57Z</time>
      </trkpt>
      <trkpt lat="45.92464" lon="6.53102">
        <ele>2469</ele>
        <time>2026-03-13T12:33:02Z</time>
      </trkpt>
      <trkpt lat="45.92464" lon="6.53102">
        <ele>2468.996</ele>
        <time>2026-03-13T12:33:07Z</time>
      </trkpt>
      <trkpt lat="45.92464" lon="6.53102">
        <ele>2468.994</ele>
        <time>2026-03-13T12:33:12Z</time>
      </trkpt>
      <trkpt lat="45.92464" lon="6.53102">
        <ele>2468.99</ele>
        <time>2026-03-13T12:33:17Z</time>
      </trkpt>
      <trkpt lat="45.92464" lon="6.53102">
        <ele>2468.989</ele>
        <time>2026-03-13T12:33:22Z</time>
      </trkpt>
      <trkpt lat="45.92464" lon="6.53102">
        <ele>2468.984</ele>
        <time>2026-03-13T12:33:27Z</time>
      </trkpt>
      <trkpt lat="45.92464" lon="6.53102">
        <ele>2468.983</ele>
        <time>2026-03-13T12:33:32Z</time>
      </trkpt>
      <trkpt lat="45.92464" lon="6.53102">
        <ele>2468.98</ele>
        <time>2026-03-13T12:33:37Z</time>
      </trkpt>
      <trkpt lat="45.92464" lon="6.53102">
        <ele>2468.974</ele>
        <time>2026-03-13T12:33:42Z</time>
      </trkpt>
      <trkpt lat="45.92464" lon="6.53102">
        <ele>2468.97</ele>
        <time>2026-03-13T12:33:47Z</time>
      </trkpt>
      <trkpt lat="45.92464" lon="6.53102">
        <ele>2468.966</ele>
        <time>2026-03-13T12:33:52Z</time>
      </trkpt>
      <trkpt lat="45.92464" lon="6.53102">
        <ele>2468.963</ele>
        <time>2026-03-13T12:33:57Z</time>
      </trkpt>
      <trkpt lat="45.92464" lon="6.53102">
        <ele>2468.962</ele>
        <time>2026-03-13T12:34:02Z</time>
      </trkpt>
      <trkpt lat="45.92464" lon="6.53102">
        <ele>2468.959</ele>
        <time>2026-03-13T12:34:07Z</time>
      </trkpt>
      <trkpt lat="45.92464" lon="6.53102">
        <ele>2468.954</ele>
        <time>2026-03-13T12:34:12Z</time>
      </trkpt>
      <trkpt lat="45.92464" lon="6.53102">
        <ele>2468.953</ele>
        <time>2026-03-13T12:34:17Z</time>
      </trkpt>
      <trkpt lat="45.92464" lon="6.53102">
        <ele>2468.946</ele>
        <time>2026-03-13T12:34:22Z</time>
      </trkpt>
      <trkpt lat="45.92464" lon="6.53102">
        <ele>2468.94</ele>
        <time>2026-03-13T12:34:27Z</time>
      </trkpt>
      <trkpt lat="45.92464" lon="6.53102">
        <ele>2468.937</ele>
        <time>2026-03-13T12:34:32Z</time>
      </trkpt>
      <trkpt lat="45.92464" lon="6.53102">
        <ele>2468.927</ele>
        <time>2026-03-13T12:34:37Z</time>
      </trkpt>
      <trkpt lat="45.92464" lon="6.53102">
        <ele>2468.921</ele>
        <time>2026-03-13T12:34:42Z</time>
      </trkpt>
      <trkpt lat="45.92464" lon="6.53102">
        <ele>2468.907</ele>
        <time>2026-03-13T12:34:47Z</time>
      </trkpt>
      <trkpt lat="45.92464" lon="6.53102">
        <ele>2468.897</ele>
        <time>2026-03-13T12:34:52Z</time>
      </trkpt>
      <trkpt lat="45.92464" lon="6.53102">
        <ele>2468.89</ele>
        <time>2026-03-13T12:34:57Z</time>
      </trkpt>
      <trkpt lat="45.92464" lon="6.53102">
        <ele>2468.882</ele>
        <time>2026-03-13T12:35:02Z</time>
      </trkpt>
      <trkpt lat="45.92464" lon="6.53102">
        <ele>2468.874</ele>
        <time>2026-03-13T12:35:07Z</time>
      </trkpt>
      <trkpt lat="45.92464" lon="6.53102">
        <ele>2468.866</ele>
        <time>2026-03-13T12:35:12Z</time>
      </trkpt>
      <trkpt lat="45.92464" lon="6.53102">
        <ele>2468.862</ele>
        <time>2026-03-13T12:35:17Z</time>
      </trkpt>
      <trkpt lat="45.92464" lon="6.53102">
        <ele>2468.857</ele>
        <time>2026-03-13T12:35:22Z</time>
      </trkpt>
      <trkpt lat="45.92464" lon="6.53102">
        <ele>2468.85</ele>
        <time>2026-03-13T12:35:27Z</time>
      </trkpt>
      <trkpt lat="45.92464" lon="6.53102">
        <ele>2468.849</ele>
        <time>2026-03-13T12:35:32Z</time>
      </trkpt>
      <trkpt lat="45.92464" lon="6.53102">
        <ele>2468.849</ele>
        <time>2026-03-13T12:35:37Z</time>
      </trkpt>
      <trkpt lat="45.92464" lon="6.53102">
        <ele>2468.846</ele>
        <time>2026-03-13T12:35:42Z</time>
      </trkpt>
      <trkpt lat="45.92464" lon="6.53102">
        <ele>2468.838</ele>
        <time>2026-03-13T12:35:47Z</time>
      </trkpt>
      <trkpt lat="45.92464" lon="6.53102">
        <ele>2468.832</ele>
        <time>2026-03-13T12:35:52Z</time>
      </trkpt>
      <trkpt lat="45.92464" lon="6.53102">
        <ele>2468.832</ele>
        <time>2026-03-13T12:35:57Z</time>
      </trkpt>
      <trkpt lat="45.92464" lon="6.53102">
        <ele>2468.826</ele>
        <time>2026-03-13T12:36:02Z</time>
      </trkpt>
      <trkpt lat="45.92464" lon="6.53102">
        <ele>2468.825</ele>
        <time>2026-03-13T12:36:07Z</time>
      </trkpt>
      <trkpt lat="45.92464" lon="6.53102">
        <ele>2468.819</ele>
        <time>2026-03-13T12:36:12Z</time>
      </trkpt>
      <trkpt lat="45.92464" lon="6.53102">
        <ele>2468.806</ele>
        <time>2026-03-13T12:36:17Z</time>
      </trkpt>
      <trkpt lat="45.92464" lon="6.53102">
        <ele>2468.8</ele>
        <time>2026-03-13T12:36:22Z</time>
      </trkpt>
      <trkpt lat="45.92464" lon="6.53102">
        <ele>2468.793</ele>
        <time>2026-03-13T12:36:27Z</time>
      </trkpt>
      <trkpt lat="45.92464" lon="6.53102">
        <ele>2468.789</ele>
        <time>2026-03-13T12:36:32Z</time>
      </trkpt>
      <trkpt lat="45.92464" lon="6.53102">
        <ele>2468.781</ele>
        <time>2026-03-13T12:36:37Z</time>
      </trkpt>
      <trkpt lat="45.92464" lon="6.53102">
        <ele>2468.78</ele>
        <time>2026-03-13T12:36:42Z</time>
      </trkpt>
      <trkpt lat="45.92464" lon="6.53102">
        <ele>2468.776</ele>
        <time>2026-03-13T12:36:47Z</time>
      </trkpt>
      <trkpt lat="45.92464" lon="6.53102">
        <ele>2468.772</ele>
        <time>2026-03-13T12:36:52Z</time>
      </trkpt>
      <trkpt lat="45.92464" lon="6.53102">
        <ele>2468.771</ele>
        <time>2026-03-13T12:36:57Z</time>
      </trkpt>
      <trkpt lat="45.92464" lon="6.53102">
        <ele>2468.767</ele>
        <time>2026-03-13T12:37:02Z</time>
      </trkpt>
      <trkpt lat="45.92464" lon="6.53102">
        <ele>2468.762</ele>
        <time>2026-03-13T12:37:07Z</time>
      </trkpt>
      <trkpt lat="45.92464" lon="6.53102">
        <ele>2468.757</ele>
        <time>2026-03-13T12:37:12Z</time>
      </trkpt>
      <trkpt lat="45.92464" lon="6.53102">
        <ele>2468.75</ele>
        <time>2026-03-13T12:37:17Z</time>
      </trkpt>
      <trkpt lat="45.92464" lon="6.53102">
        <ele>2468.739</ele>
        <time>2026-03-13T12:37:22Z</time>
      </trkpt>
      <trkpt lat="45.92464" lon="6.53102">
        <ele>2468.736</ele>
        <time>2026-03-13T12:37:27Z</time>
      </trkpt>
      <trkpt lat="45.92464" lon="6.53102">
        <ele>2468.736</ele>
        <time>2026-03-13T12:37:32Z</time>
      </trkpt>
      <trkpt lat="45.92464" lon="6.53102">
        <ele>2468.726</ele>
        <time>2026-03-13T12:37:37Z</time>
      </trkpt>
      <trkpt lat="45.92464" lon="6.53102">
        <ele>2468.724</ele>
        <time>2026-03-13T12:37:42Z</time>
      </trkpt>
      <trkpt lat="45.92464" lon="6.53102">
        <ele>2468.722</ele>
        <time>2026-03-13T12:37:47Z</time>
      </trkpt>
      <trkpt lat="45.92464" lon="6.53102">
        <ele>2468.718</ele>
        <time>2026-03-13T12:37:52Z</time>
      </trkpt>
      <trkpt lat="45.92464" lon="6.53102">
        <ele>2468.707</ele>
        <time>2026-03-13T12:37:57Z</time>
      </trkpt>
      <trkpt lat="45.92464" lon="6.53102">
        <ele>2468.706</ele>
        <time>2026-03-13T12:38:02Z</time>
      </trkpt>
      <trkpt lat="45.92464" lon="6.53102">
        <ele>2468.701</ele>
        <time>2026-03-13T12:38:07Z</time>
      </trkpt>
      <trkpt lat="45.92464" lon="6.53102">
        <ele>2468.7</ele>
        <time>2026-03-13T12:38:12Z</time>
      </trkpt>
      <trkpt lat="45.92464" lon="6.53102">
        <ele>2468.698</ele>
        <time>2026-03-13T12:38:17Z</time>
      </trkpt>
      <trkpt lat="45.92464" lon="6.53102">
        <ele>2468.691</ele>
        <time>2026-03-13T12:38:22Z</time>
      </trkpt>
      <trkpt lat="45.92464" lon="6.53102">
        <ele>2468.683</ele>
        <time>2026-03-13T12:38:27Z</time>
      </trkpt>
      <trkpt lat="45.92464" lon="6.53102">
        <ele>2468.681</ele>
        <time>2026-03-13T12:38:32Z</time>
      </trkpt>
      <trkpt lat="45.92464" lon="6.53102">
        <ele>2468.675</ele>
        <time>2026-03-13T12:38:37Z</time>
      </trkpt>
      <trkpt lat="45.92464" lon="6.53102">
        <ele>2468.669</ele>
        <time>2026-03-13T12:38:42Z</time>
      </trkpt>
      <trkpt lat="45.92464" lon="6.53102">
        <ele>2468.663</ele>
        <time>2026-03-13T12:38:47Z</time>
      </trkpt>
      <trkpt lat="45.92464" lon="6.53102">
        <ele>2468.663</ele>
        <time>2026-03-13T12:38:52Z</time>
      </trkpt>
      <trkpt lat="45.92464" lon="6.53102">
        <ele>2468.657</ele>
        <time>2026-03-13T12:38:57Z</time>
      </trkpt>
      <trkpt lat="45.92464" lon="6.53102">
        <ele>2468.653</ele>
        <time>2026-03-13T12:39:02Z</time>
      </trkpt>
      <trkpt lat="45.92464" lon="6.53102">
        <ele>2468.648</ele>
        <time>2026-03-13T12:39:07Z</time>
      </trkpt>
      <trkpt lat="45.92464" lon="6.53102">
        <ele>2468.642</ele>
        <time>2026-03-13T12:39:12Z</time>
      </trkpt>
      <trkpt lat="45.92464" lon="6.53102">
        <ele>2468.633</ele>
        <time>2026-03-13T12:39:17Z</time>
      </trkpt>
      <trkpt lat="45.92464" lon="6.53102">
        <ele>2468.631</ele>
        <time>2026-03-13T12:39:22Z</time>
      </trkpt>
      <trkpt lat="45.92464" lon="6.53102">
        <ele>2468.627</ele>
        <time>2026-03-13T12:39:27Z</time>
      </trkpt>
      <trkpt lat="45.92464" lon="6.53102">
        <ele>2468.623</ele>
        <time>2026-03-13T12:39:32Z</time>
      </trkpt>
      <trkpt lat="45.92464" lon="6.53102">
        <ele>2468.614</ele>
        <time>2026-03-13T12:39:37Z</time>
      </trkpt>
      <trkpt lat="45.92464" lon="6.53102">
        <ele>2468.609</ele>
        <time>2026-03-13T12:39:42Z</time>
      </trkpt>
      <trkpt lat="45.92464" lon="6.53102">
        <ele>2468.601</ele>
        <time>2026-03-13T12:39:47Z</time>
      </trkpt>
      <trkpt lat="45.92464" lon="6.53102">
        <ele>2468.598</ele>
        <time>2026-03-13T12:39:52Z</time>
      </trkpt>
      <trkpt lat="45.92464" lon="6.53102">
        <ele>2468.591</ele>
        <time>2026-03-13T12:39:57Z</time>
      </trkpt>
      <trkpt lat="45.92464" lon="6.53102">
        <ele>2468.583</ele>
        <time>2026-03-13T12:40:02Z</time>
      </trkpt>
      <trkpt lat="45.92464" lon="6.53102">
        <ele>2468.583</ele>
        <time>2026-03-13T12:40:07Z</time>
      </trkpt>
      <trkpt lat="45.92464" lon="6.53102">
        <ele>2468.574</ele>
        <time>2026-03-13T12:40:12Z</time>
      </trkpt>
      <trkpt lat="45.92464" lon="6.53102">
        <ele>2468.57</ele>
        <time>2026-03-13T12:40:17Z</time>
      </trkpt>
      <trkpt lat="45.92464" lon="6.53102">
        <ele>2468.563</ele>
        <time>2026-03-13T12:40:22Z</time>
      </trkpt>
      <trkpt lat="45.92464" lon="6.53102">
        <ele>2468.561</ele>
        <time>2026-03-13T12:40:27Z</time>
      </trkpt>
      <trkpt lat="45.92464" lon="6.53102">
        <ele>2468.557</ele>
        <time>2026-03-13T12:40:32Z</time>
      </trkpt>
      <trkpt lat="45.92464" lon="6.53102">
        <ele>2468.559</ele>
        <time>2026-03-13T12:40:37Z</time>
      </trkpt>
      <trkpt lat="45.92464" lon="6.53102">
        <ele>2468.558</ele>
        <time>2026-03-13T12:40:42Z</time>
      </trkpt>
      <trkpt lat="45.92464" lon="6.53102">
        <ele>2468.558</ele>
        <time>2026-03-13T12:40:47Z</time>
      </trkpt>
      <trkpt lat="45.92464" lon="6.53102">
        <ele>2468.557</ele>
        <time>2026-03-13T12:40:52Z</time>
      </trkpt>
      <trkpt lat="45.92464" lon="6.53102">
        <ele>2468.55</ele>
        <time>2026-03-13T12:40:57Z</time>
      </trkpt>
      <trkpt lat="45.92464" lon="6.53102">
        <ele>2468.549</ele>
        <time>2026-03-13T12:41:02Z</time>
      </trkpt>
      <trkpt lat="45.92464" lon="6.53102">
        <ele>2468.545</ele>
        <time>2026-03-13T12:41:07Z</time>
      </trkpt>
      <trkpt lat="45.92464" lon="6.53102">
        <ele>2468.544</ele>
        <time>2026-03-13T12:41:12Z</time>
      </trkpt>
      <trkpt lat="45.92464" lon="6.53102">
        <ele>2468.543</ele>
        <time>2026-03-13T12:41:17Z</time>
      </trkpt>
      <trkpt lat="45.92464" lon="6.53102">
        <ele>2468.54</ele>
        <time>2026-03-13T12:41:22Z</time>
      </trkpt>
      <trkpt lat="45.92464" lon="6.53102">
        <ele>2468.539</ele>
        <time>2026-03-13T12:41:27Z</time>
      </trkpt>
      <trkpt lat="45.92464" lon="6.53102">
        <ele>2468.538</ele>
        <time>2026-03-13T12:41:32Z</time>
      </trkpt>
      <trkpt lat="45.92464" lon="6.53102">
        <ele>2468.539</ele>
        <time>2026-03-13T12:41:37Z</time>
      </trkpt>
      <trkpt lat="45.92464" lon="6.53102">
        <ele>2468.534</ele>
        <time>2026-03-13T12:41:42Z</time>
      </trkpt>
      <trkpt lat="45.92464" lon="6.53102">
        <ele>2468.527</ele>
        <time>2026-03-13T12:41:47Z</time>
      </trkpt>
      <trkpt lat="45.92464" lon="6.53102">
        <ele>2468.525</ele>
        <time>2026-03-13T12:41:52Z</time>
      </trkpt>
      <trkpt lat="45.92464" lon="6.53102">
        <ele>2468.525</ele>
        <time>2026-03-13T12:41:57Z</time>
      </trkpt>
      <trkpt lat="45.92464" lon="6.53102">
        <ele>2468.52</ele>
        <time>2026-03-13T12:42:02Z</time>
      </trkpt>
      <trkpt lat="45.92464" lon="6.53102">
        <ele>2468.519</ele>
        <time>2026-03-13T12:42:07Z</time>
      </trkpt>
      <trkpt lat="45.92464" lon="6.53102">
        <ele>2468.515</ele>
        <time>2026-03-13T12:42:12Z</time>
      </trkpt>
      <trkpt lat="45.92464" lon="6.53102">
        <ele>2468.514</ele>
        <time>2026-03-13T12:42:17Z</time>
      </trkpt>
      <trkpt lat="45.92464" lon="6.53102">
        <ele>2468.511</ele>
        <time>2026-03-13T12:42:22Z</time>
      </trkpt>
      <trkpt lat="45.92464" lon="6.53102">
        <ele>2468.51</ele>
        <time>2026-03-13T12:42:27Z</time>
      </trkpt>
      <trkpt lat="45.92464" lon="6.53102">
        <ele>2468.51</ele>
        <time>2026-03-13T12:42:32Z</time>
      </trkpt>
      <trkpt lat="45.92464" lon="6.53102">
        <ele>2468.505</ele>
        <time>2026-03-13T12:42:37Z</time>
      </trkpt>
      <trkpt lat="45.92464" lon="6.53102">
        <ele>2468.503</ele>
        <time>2026-03-13T12:42:42Z</time>
      </trkpt>
      <trkpt lat="45.92464" lon="6.53102">
        <ele>2468.501</ele>
        <time>2026-03-13T12:42:47Z</time>
      </trkpt>
      <trkpt lat="45.92464" lon="6.53102">
        <ele>2468.501</ele>
        <time>2026-03-13T12:42:52Z</time>
      </trkpt>
      <trkpt lat="45.92464" lon="6.53102">
        <ele>2468.504</ele>
        <time>2026-03-13T12:42:57Z</time>
      </trkpt>
      <trkpt lat="45.92464" lon="6.53102">
        <ele>2468.505</ele>
        <time>2026-03-13T12:43:02Z</time>
      </trkpt>
      <trkpt lat="45.92464" lon="6.53102">
        <ele>2468.507</ele>
        <time>2026-03-13T12:43:07Z</time>
      </trkpt>
      <trkpt lat="45.92464" lon="6.53102">
        <ele>2468.506</ele>
        <time>2026-03-13T12:43:12Z</time>
      </trkpt>
      <trkpt lat="45.92464" lon="6.53102">
        <ele>2468.51</ele>
        <time>2026-03-13T12:43:17Z</time>
      </trkpt>
      <trkpt lat="45.92464" lon="6.53102">
        <ele>2468.511</ele>
        <time>2026-03-13T12:43:22Z</time>
      </trkpt>
      <trkpt lat="45.92464" lon="6.53102">
        <ele>2468.513</ele>
        <time>2026-03-13T12:43:27Z</time>
      </trkpt>
      <trkpt lat="45.92464" lon="6.53102">
        <ele>2468.515</ele>
        <time>2026-03-13T12:43:32Z</time>
      </trkpt>
      <trkpt lat="45.92464" lon="6.53102">
        <ele>2468.514</ele>
        <time>2026-03-13T12:43:37Z</time>
      </trkpt>
      <trkpt lat="45.92464" lon="6.53102">
        <ele>2468.516</ele>
        <time>2026-03-13T12:43:42Z</time>
      </trkpt>
      <trkpt lat="45.92464" lon="6.53102">
        <ele>2468.516</ele>
        <time>2026-03-13T12:43:47Z</time>
      </trkpt>
      <trkpt lat="45.92464" lon="6.53102">
        <ele>2468.515</ele>
        <time>2026-03-13T12:43:52Z</time>
      </trkpt>
      <trkpt lat="45.92464" lon="6.53102">
        <ele>2468.515</ele>
        <time>2026-03-13T12:43:57Z</time>
      </trkpt>
      <trkpt lat="45.92464" lon="6.53102">
        <ele>2468.514</ele>
        <time>2026-03-13T12:44:02Z</time>
      </trkpt>
      <trkpt lat="45.92464" lon="6.53102">
        <ele>2468.508</ele>
        <time>2026-03-13T12:44:07Z</time>
      </trkpt>
      <trkpt lat="45.92464" lon="6.53102">
        <ele>2468.51</ele>
        <time>2026-03-13T12:44:12Z</time>
      </trkpt>
      <trkpt lat="45.92464" lon="6.53102">
        <ele>2468.51</ele>
        <time>2026-03-13T12:44:17Z</time>
      </trkpt>
      <trkpt lat="45.92464" lon="6.53102">
        <ele>2468.511</ele>
        <time>2026-03-13T12:44:22Z</time>
      </trkpt>
      <trkpt lat="45.92464" lon="6.53102">
        <ele>2468.513</ele>
        <time>2026-03-13T12:44:27Z</time>
      </trkpt>
      <trkpt lat="45.92464" lon="6.53102">
        <ele>2468.515</ele>
        <time>2026-03-13T12:44:32Z</time>
      </trkpt>
      <trkpt lat="45.92464" lon="6.53102">
        <ele>2468.51</ele>
        <time>2026-03-13T12:44:37Z</time>
      </trkpt>
      <trkpt lat="45.92464" lon="6.53102">
        <ele>2468.512</ele>
        <time>2026-03-13T12:44:42Z</time>
      </trkpt>
      <trkpt lat="45.92464" lon="6.53102">
        <ele>2468.505</ele>
        <time>2026-03-13T12:44:47Z</time>
      </trkpt>
      <trkpt lat="45.92464" lon="6.53102">
        <ele>2468.496</ele>
        <time>2026-03-13T12:44:52Z</time>
      </trkpt>
      <trkpt lat="45.92464" lon="6.53102">
        <ele>2468.486</ele>
        <time>2026-03-13T12:44:57Z</time>
      </trkpt>
      <trkpt lat="45.92464" lon="6.53102">
        <ele>2468.478</ele>
        <time>2026-03-13T12:45:02Z</time>
      </trkpt>
      <trkpt lat="45.92464" lon="6.53102">
        <ele>2468.474</ele>
        <time>2026-03-13T12:45:07Z</time>
      </trkpt>
      <trkpt lat="45.92464" lon="6.53102">
        <ele>2468.463</ele>
        <time>2026-03-13T12:45:12Z</time>
      </trkpt>
      <trkpt lat="45.92464" lon="6.53102">
        <ele>2468.453</ele>
        <time>2026-03-13T12:45:17Z</time>
      </trkpt>
      <trkpt lat="45.92464" lon="6.53102">
        <ele>2468.447</ele>
        <time>2026-03-13T12:45:22Z</time>
      </trkpt>
      <trkpt lat="45.92464" lon="6.53102">
        <ele>2468.438</ele>
        <time>2026-03-13T12:45:27Z</time>
      </trkpt>
      <trkpt lat="45.92464" lon="6.53102">
        <ele>2468.427</ele>
        <time>2026-03-13T12:45:32Z</time>
      </trkpt>
      <trkpt lat="45.92464" lon="6.53102">
        <ele>2468.413</ele>
        <time>2026-03-13T12:45:37Z</time>
      </trkpt>
      <trkpt lat="45.92464" lon="6.53102">
        <ele>2468.403</ele>
        <time>2026-03-13T12:45:42Z</time>
      </trkpt>
      <trkpt lat="45.92464" lon="6.53102">
        <ele>2468.393</ele>
        <time>2026-03-13T12:45:47Z</time>
      </trkpt>
      <trkpt lat="45.92464" lon="6.53102">
        <ele>2468.386</ele>
        <time>2026-03-13T12:45:52Z</time>
      </trkpt>
      <trkpt lat="45.92464" lon="6.53102">
        <ele>2468.383</ele>
        <time>2026-03-13T12:45:57Z</time>
      </trkpt>
      <trkpt lat="45.92464" lon="6.53102">
        <ele>2468.375</ele>
        <time>2026-03-13T12:46:02Z</time>
      </trkpt>
      <trkpt lat="45.92464" lon="6.53102">
        <ele>2468.366</ele>
        <time>2026-03-13T12:46:07Z</time>
      </trkpt>
      <trkpt lat="45.92464" lon="6.53102">
        <ele>2468.362</ele>
        <time>2026-03-13T12:46:12Z</time>
      </trkpt>
      <trkpt lat="45.92464" lon="6.53102">
        <ele>2468.36</ele>
        <time>2026-03-13T12:46:17Z</time>
      </trkpt>
      <trkpt lat="45.92464" lon="6.53102">
        <ele>2468.36</ele>
        <time>2026-03-13T12:46:22Z</time>
      </trkpt>
      <trkpt lat="45.92464" lon="6.53102">
        <ele>2468.355</ele>
        <time>2026-03-13T12:46:27Z</time>
      </trkpt>
      <trkpt lat="45.92464" lon="6.53102">
        <ele>2468.35</ele>
        <time>2026-03-13T12:46:32Z</time>
      </trkpt>
      <trkpt lat="45.92464" lon="6.53102">
        <ele>2468.348</ele>
        <time>2026-03-13T12:46:37Z</time>
      </trkpt>
      <trkpt lat="45.92464" lon="6.53102">
        <ele>2468.346</ele>
        <time>2026-03-13T12:46:42Z</time>
      </trkpt>
      <trkpt lat="45.92464" lon="6.53102">
        <ele>2468.338</ele>
        <time>2026-03-13T12:46:47Z</time>
      </trkpt>
      <trkpt lat="45.92464" lon="6.53102">
        <ele>2468.333</ele>
        <time>2026-03-13T12:46:52Z</time>
      </trkpt>
      <trkpt lat="45.92464" lon="6.53102">
        <ele>2468.326</ele>
        <time>2026-03-13T12:46:57Z</time>
      </trkpt>
      <trkpt lat="45.92464" lon="6.53102">
        <ele>2468.323</ele>
        <time>2026-03-13T12:47:02Z</time>
      </trkpt>
      <trkpt lat="45.92464" lon="6.53102">
        <ele>2468.32</ele>
        <time>2026-03-13T12:47:07Z</time>
      </trkpt>
      <trkpt lat="45.92464" lon="6.53102">
        <ele>2468.318</ele>
        <time>2026-03-13T12:47:12Z</time>
      </trkpt>
      <trkpt lat="45.92464" lon="6.53102">
        <ele>2468.313</ele>
        <time>2026-03-13T12:47:17Z</time>
      </trkpt>
      <trkpt lat="45.92464" lon="6.53102">
        <ele>2468.306</ele>
        <time>2026-03-13T12:47:22Z</time>
      </trkpt>
      <trkpt lat="45.92464" lon="6.53102">
        <ele>2468.305</ele>
        <time>2026-03-13T12:47:27Z</time>
      </trkpt>
      <trkpt lat="45.92464" lon="6.53102">
        <ele>2468.305</ele>
        <time>2026-03-13T12:47:32Z</time>
      </trkpt>
      <trkpt lat="45.92464" lon="6.53102">
        <ele>2468.298</ele>
        <time>2026-03-13T12:47:37Z</time>
      </trkpt>
      <trkpt lat="45.92464" lon="6.53102">
        <ele>2468.296</ele>
        <time>2026-03-13T12:47:42Z</time>
      </trkpt>
      <trkpt lat="45.92464" lon="6.53102">
        <ele>2468.291</ele>
        <time>2026-03-13T12:47:47Z</time>
      </trkpt>
      <trkpt lat="45.92464" lon="6.53102">
        <ele>2468.197</ele>
        <time>2026-03-13T12:47:52Z</time>
      </trkpt>
      <trkpt lat="45.92464" lon="6.53102">
        <ele>2467.661</ele>
        <time>2026-03-13T12:47:57Z</time>
      </trkpt>
      <trkpt lat="45.92464" lon="6.53102">
        <ele>2467.373</ele>
        <time>2026-03-13T12:48:02Z</time>
      </trkpt>
      <trkpt lat="45.92464" lon="6.53102">
        <ele>2467.395</ele>
        <time>2026-03-13T12:48:07Z</time>
      </trkpt>
      <trkpt lat="45.92464" lon="6.53102">
        <ele>2467.412</ele>
        <time>2026-03-13T12:48:12Z</time>
      </trkpt>
      <trkpt lat="45.92464" lon="6.53102">
        <ele>2467.437</ele>
        <time>2026-03-13T12:48:17Z</time>
      </trkpt>
      <trkpt lat="45.92464" lon="6.53102">
        <ele>2467.438</ele>
        <time>2026-03-13T12:48:22Z</time>
      </trkpt>
      <trkpt lat="45.92464" lon="6.53102">
        <ele>2467.439</ele>
        <time>2026-03-13T12:48:27Z</time>
      </trkpt>
      <trkpt lat="45.92464" lon="6.53102">
        <ele>2467.441</ele>
        <time>2026-03-13T12:48:32Z</time>
      </trkpt>
      <trkpt lat="45.92464" lon="6.53102">
        <ele>2467.441</ele>
        <time>2026-03-13T12:48:37Z</time>
      </trkpt>
      <trkpt lat="45.92464" lon="6.53102">
        <ele>2467.446</ele>
        <time>2026-03-13T12:48:42Z</time>
      </trkpt>
      <trkpt lat="45.92464" lon="6.53102">
        <ele>2467.444</ele>
        <time>2026-03-13T12:48:47Z</time>
      </trkpt>
      <trkpt lat="45.92464" lon="6.53102">
        <ele>2467.454</ele>
        <time>2026-03-13T12:48:52Z</time>
      </trkpt>
      <trkpt lat="45.92464" lon="6.53102">
        <ele>2467.463</ele>
        <time>2026-03-13T12:48:57Z</time>
      </trkpt>
      <trkpt lat="45.92464" lon="6.53102">
        <ele>2467.471</ele>
        <time>2026-03-13T12:49:02Z</time>
      </trkpt>
      <trkpt lat="45.92464" lon="6.53102">
        <ele>2467.478</ele>
        <time>2026-03-13T12:49:07Z</time>
      </trkpt>
      <trkpt lat="45.92464" lon="6.53102">
        <ele>2467.48</ele>
        <time>2026-03-13T12:49:12Z</time>
      </trkpt>
      <trkpt lat="45.92464" lon="6.53102">
        <ele>2467.488</ele>
        <time>2026-03-13T12:49:17Z</time>
      </trkpt>
      <trkpt lat="45.92464" lon="6.53102">
        <ele>2467.5</ele>
        <time>2026-03-13T12:49:22Z</time>
      </trkpt>
      <trkpt lat="45.92464" lon="6.53102">
        <ele>2467.505</ele>
        <time>2026-03-13T12:49:27Z</time>
      </trkpt>
      <trkpt lat="45.92464" lon="6.53102">
        <ele>2467.513</ele>
        <time>2026-03-13T12:49:32Z</time>
      </trkpt>
      <trkpt lat="45.92464" lon="6.53102">
        <ele>2467.518</ele>
        <time>2026-03-13T12:49:37Z</time>
      </trkpt>
      <trkpt lat="45.92464" lon="6.53102">
        <ele>2467.522</ele>
        <time>2026-03-13T12:49:42Z</time>
      </trkpt>
      <trkpt lat="45.92464" lon="6.53102">
        <ele>2467.52</ele>
        <time>2026-03-13T12:49:47Z</time>
      </trkpt>
      <trkpt lat="45.92464" lon="6.53102">
        <ele>2467.528</ele>
        <time>2026-03-13T12:49:52Z</time>
      </trkpt>
      <trkpt lat="45.92464" lon="6.53102">
        <ele>2467.535</ele>
        <time>2026-03-13T12:49:57Z</time>
      </trkpt>
      <trkpt lat="45.92464" lon="6.53102">
        <ele>2467.549</ele>
        <time>2026-03-13T12:50:02Z</time>
      </trkpt>
      <trkpt lat="45.92464" lon="6.53102">
        <ele>2467.559</ele>
        <time>2026-03-13T12:50:07Z</time>
      </trkpt>
      <trkpt lat="45.92464" lon="6.53102">
        <ele>2467.569</ele>
        <time>2026-03-13T12:50:12Z</time>
      </trkpt>
      <trkpt lat="45.92464" lon="6.53102">
        <ele>2467.572</ele>
        <time>2026-03-13T12:50:17Z</time>
      </trkpt>
      <trkpt lat="45.92464" lon="6.53102">
        <ele>2467.585</ele>
        <time>2026-03-13T12:50:22Z</time>
      </trkpt>
      <trkpt lat="45.92464" lon="6.53102">
        <ele>2467.593</ele>
        <time>2026-03-13T12:50:27Z</time>
      </trkpt>
      <trkpt lat="45.92464" lon="6.53102">
        <ele>2467.601</ele>
        <time>2026-03-13T12:50:32Z</time>
      </trkpt>
      <trkpt lat="45.92464" lon="6.53102">
        <ele>2467.599</ele>
        <time>2026-03-13T12:50:37Z</time>
      </trkpt>
      <trkpt lat="45.92464" lon="6.53102">
        <ele>2467.595</ele>
        <time>2026-03-13T12:50:42Z</time>
      </trkpt>
      <trkpt lat="45.92464" lon="6.53102">
        <ele>2467.594</ele>
        <time>2026-03-13T12:50:47Z</time>
      </trkpt>
      <trkpt lat="45.92464" lon="6.53102">
        <ele>2467.605</ele>
        <time>2026-03-13T12:50:52Z</time>
      </trkpt>
      <trkpt lat="45.92464" lon="6.53102">
        <ele>2467.884</ele>
        <time>2026-03-13T12:50:57Z</time>
      </trkpt>
      <trkpt lat="45.92464" lon="6.53102">
        <ele>2467.461</ele>
        <time>2026-03-13T12:51:02Z</time>
      </trkpt>
      <trkpt lat="45.92464" lon="6.53102">
        <ele>2467.888</ele>
        <time>2026-03-13T12:51:07Z</time>
      </trkpt>
      <trkpt lat="45.92464" lon="6.53102">
        <ele>2468.258</ele>
        <time>2026-03-13T12:51:12Z</time>
      </trkpt>
      <trkpt lat="45.92464" lon="6.53102">
        <ele>2468.735</ele>
        <time>2026-03-13T12:51:17Z</time>
      </trkpt>
      <trkpt lat="45.92464" lon="6.53102">
        <ele>2468.961</ele>
        <time>2026-03-13T12:51:22Z</time>
      </trkpt>
      <trkpt lat="45.92464" lon="6.53102">
        <ele>2468.986</ele>
        <time>2026-03-13T12:51:27Z</time>
      </trkpt>
      <trkpt lat="45.92464" lon="6.53102">
        <ele>2468.991</ele>
        <time>2026-03-13T12:51:32Z</time>
      </trkpt>
      <trkpt lat="45.92464" lon="6.53102">
        <ele>2468.978</ele>
        <time>2026-03-13T12:51:37Z</time>
      </trkpt>
      <trkpt lat="45.92464" lon="6.53102">
        <ele>2468.97</ele>
        <time>2026-03-13T12:51:42Z</time>
      </trkpt>
      <trkpt lat="45.92464" lon="6.53102">
        <ele>2468.961</ele>
        <time>2026-03-13T12:51:47Z</time>
      </trkpt>
      <trkpt lat="45.92464" lon="6.53102">
        <ele>2468.961</ele>
        <time>2026-03-13T12:51:52Z</time>
      </trkpt>
      <trkpt lat="45.92464" lon="6.53102">
        <ele>2468.954</ele>
        <time>2026-03-13T12:51:57Z</time>
      </trkpt>
      <trkpt lat="45.92464" lon="6.53102">
        <ele>2468.941</ele>
        <time>2026-03-13T12:52:02Z</time>
      </trkpt>
      <trkpt lat="45.92464" lon="6.53102">
        <ele>2468.933</ele>
        <time>2026-03-13T12:52:07Z</time>
      </trkpt>
      <trkpt lat="45.92464" lon="6.53102">
        <ele>2468.925</ele>
        <time>2026-03-13T12:52:12Z</time>
      </trkpt>
      <trkpt lat="45.92464" lon="6.53102">
        <ele>2468.626</ele>
        <time>2026-03-13T12:52:17Z</time>
      </trkpt>
      <trkpt lat="45.92464" lon="6.53102">
        <ele>2468.462</ele>
        <time>2026-03-13T12:52:22Z</time>
      </trkpt>
      <trkpt lat="45.92464" lon="6.53102">
        <ele>2468.561</ele>
        <time>2026-03-13T12:52:27Z</time>
      </trkpt>
      <trkpt lat="45.92464" lon="6.53102">
        <ele>2468.706</ele>
        <time>2026-03-13T12:52:32Z</time>
      </trkpt>
      <trkpt lat="45.92464" lon="6.53102">
        <ele>2468.716</ele>
        <time>2026-03-13T12:52:37Z</time>
      </trkpt>
      <trkpt lat="45.92464" lon="6.53102">
        <ele>2468.713</ele>
        <time>2026-03-13T12:52:42Z</time>
      </trkpt>
      <trkpt lat="45.92464" lon="6.53102">
        <ele>2468.712</ele>
        <time>2026-03-13T12:52:47Z</time>
      </trkpt>
      <trkpt lat="45.92464" lon="6.53102">
        <ele>2468.712</ele>
        <time>2026-03-13T12:52:52Z</time>
      </trkpt>
      <trkpt lat="45.92464" lon="6.53102">
        <ele>2468.707</ele>
        <time>2026-03-13T12:52:57Z</time>
      </trkpt>
      <trkpt lat="45.92464" lon="6.53102">
        <ele>2468.707</ele>
        <time>2026-03-13T12:53:02Z</time>
      </trkpt>
      <trkpt lat="45.92464" lon="6.53102">
        <ele>2468.701</ele>
        <time>2026-03-13T12:53:07Z</time>
      </trkpt>
      <trkpt lat="45.92464" lon="6.53102">
        <ele>2468.701</ele>
        <time>2026-03-13T12:53:12Z</time>
      </trkpt>
      <trkpt lat="45.92464" lon="6.53102">
        <ele>2468.705</ele>
        <time>2026-03-13T12:53:17Z</time>
      </trkpt>
      <trkpt lat="45.92464" lon="6.53102">
        <ele>2468.707</ele>
        <time>2026-03-13T12:53:22Z</time>
      </trkpt>
      <trkpt lat="45.92463" lon="6.53099">
        <ele>2468.803</ele>
        <time>2026-03-13T12:53:27Z</time>
      </trkpt>
      <trkpt lat="45.92463" lon="6.53097">
        <ele>2468.068</ele>
        <time>2026-03-13T12:53:32Z</time>
      </trkpt>
      <trkpt lat="45.92466" lon="6.53094">
        <ele>2467.109</ele>
        <time>2026-03-13T12:53:37Z</time>
      </trkpt>
      <trkpt lat="45.92468" lon="6.53091">
        <ele>2465.31</ele>
        <time>2026-03-13T12:53:42Z</time>
      </trkpt>
      <trkpt lat="45.92472" lon="6.53087">
        <ele>2463.662</ele>
        <time>2026-03-13T12:53:47Z</time>
      </trkpt>
      <trkpt lat="45.92475" lon="6.53084">
        <ele>2462.605</ele>
        <time>2026-03-13T12:53:52Z</time>
      </trkpt>
      <trkpt lat="45.92478" lon="6.5308">
        <ele>2461.567</ele>
        <time>2026-03-13T12:53:57Z</time>
      </trkpt>
      <trkpt lat="45.9248" lon="6.53076">
        <ele>2460.126</ele>
        <time>2026-03-13T12:54:02Z</time>
      </trkpt>
      <trkpt lat="45.92483" lon="6.53071">
        <ele>2459.08</ele>
        <time>2026-03-13T12:54:07Z</time>
      </trkpt>
      <trkpt lat="45.92484" lon="6.53067">
        <ele>2458.565</ele>
        <time>2026-03-13T12:54:12Z</time>
      </trkpt>
      <trkpt lat="45.92485" lon="6.53065">
        <ele>2457.748</ele>
        <time>2026-03-13T12:54:17Z</time>
      </trkpt>
      <trkpt lat="45.92485" lon="6.53064">
        <ele>2457.742</ele>
        <time>2026-03-13T12:54:22Z</time>
      </trkpt>
      <trkpt lat="45.92485" lon="6.53064">
        <ele>2457.731</ele>
        <time>2026-03-13T12:54:27Z</time>
      </trkpt>
      <trkpt lat="45.92485" lon="6.53064">
        <ele>2457.731</ele>
        <time>2026-03-13T12:54:32Z</time>
      </trkpt>
      <trkpt lat="45.92485" lon="6.53064">
        <ele>2456.905</ele>
        <time>2026-03-13T12:54:37Z</time>
      </trkpt>
      <trkpt lat="45.92485" lon="6.53064">
        <ele>2456.365</ele>
        <time>2026-03-13T12:54:42Z</time>
      </trkpt>
      <trkpt lat="45.92485" lon="6.53064">
        <ele>2456.347</ele>
        <time>2026-03-13T12:54:47Z</time>
      </trkpt>
      <trkpt lat="45.92485" lon="6.53064">
        <ele>2456.082</ele>
        <time>2026-03-13T12:54:52Z</time>
      </trkpt>
      <trkpt lat="45.92485" lon="6.53064">
        <ele>2456.074</ele>
        <time>2026-03-13T12:54:57Z</time>
      </trkpt>
      <trkpt lat="45.92485" lon="6.53064">
        <ele>2456.072</ele>
        <time>2026-03-13T12:55:02Z</time>
      </trkpt>
      <trkpt lat="45.92485" lon="6.53064">
        <ele>2456.063</ele>
        <time>2026-03-13T12:55:07Z</time>
      </trkpt>
      <trkpt lat="45.92485" lon="6.53064">
        <ele>2456.053</ele>
        <time>2026-03-13T12:55:12Z</time>
      </trkpt>
      <trkpt lat="45.92485" lon="6.53064">
        <ele>2456.044</ele>
        <time>2026-03-13T12:55:17Z</time>
      </trkpt>
      <trkpt lat="45.92485" lon="6.53064">
        <ele>2456.041</ele>
        <time>2026-03-13T12:55:22Z</time>
      </trkpt>
      <trkpt lat="45.92485" lon="6.53064">
        <ele>2456.039</ele>
        <time>2026-03-13T12:55:27Z</time>
      </trkpt>
      <trkpt lat="45.92485" lon="6.53064">
        <ele>2455.859</ele>
        <time>2026-03-13T12:55:32Z</time>
      </trkpt>
      <trkpt lat="45.92485" lon="6.53064">
        <ele>2454.851</ele>
        <time>2026-03-13T12:55:37Z</time>
      </trkpt>
      <trkpt lat="45.92485" lon="6.53064">
        <ele>2454.642</ele>
        <time>2026-03-13T12:55:42Z</time>
      </trkpt>
      <trkpt lat="45.92485" lon="6.53063">
        <ele>2453.863</ele>
        <time>2026-03-13T12:55:47Z</time>
      </trkpt>
      <trkpt lat="45.9248" lon="6.53055">
        <ele>2449.067</ele>
        <time>2026-03-13T12:55:52Z</time>
      </trkpt>
      <trkpt lat="45.92489" lon="6.53042">
        <ele>2448.048</ele>
        <time>2026-03-13T12:55:57Z</time>
      </trkpt>
      <trkpt lat="45.92495" lon="6.53033">
        <ele>2448.815</ele>
        <time>2026-03-13T12:56:02Z</time>
      </trkpt>
      <trkpt lat="45.92494" lon="6.53034">
        <ele>2448.927</ele>
        <time>2026-03-13T12:56:07Z</time>
      </trkpt>
      <trkpt lat="45.92487" lon="6.53032">
        <ele>2445.171</ele>
        <time>2026-03-13T12:56:12Z</time>
      </trkpt>
      <trkpt lat="45.92481" lon="6.53025">
        <ele>2440.195</ele>
        <time>2026-03-13T12:56:17Z</time>
      </trkpt>
      <trkpt lat="45.92469" lon="6.53035">
        <ele>2436.832</ele>
        <time>2026-03-13T12:56:22Z</time>
      </trkpt>
      <trkpt lat="45.92452" lon="6.53039">
        <ele>2437.122</ele>
        <time>2026-03-13T12:56:27Z</time>
      </trkpt>
      <trkpt lat="45.92433" lon="6.53037">
        <ele>2436.656</ele>
        <time>2026-03-13T12:56:32Z</time>
      </trkpt>
      <trkpt lat="45.92422" lon="6.5303">
        <ele>2433.651</ele>
        <time>2026-03-13T12:56:37Z</time>
      </trkpt>
      <trkpt lat="45.92422" lon="6.53029">
        <ele>2433.95</ele>
        <time>2026-03-13T12:56:42Z</time>
      </trkpt>
      <trkpt lat="45.92424" lon="6.53028">
        <ele>2432.681</ele>
        <time>2026-03-13T12:56:47Z</time>
      </trkpt>
      <trkpt lat="45.92424" lon="6.53027">
        <ele>2431.336</ele>
        <time>2026-03-13T12:56:52Z</time>
      </trkpt>
      <trkpt lat="45.92424" lon="6.53027">
        <ele>2431.518</ele>
        <time>2026-03-13T12:56:57Z</time>
      </trkpt>
      <trkpt lat="45.92422" lon="6.53025">
        <ele>2431.579</ele>
        <time>2026-03-13T12:57:02Z</time>
      </trkpt>
      <trkpt lat="45.92415" lon="6.53008">
        <ele>2429.892</ele>
        <time>2026-03-13T12:57:07Z</time>
      </trkpt>
      <trkpt lat="45.92423" lon="6.52993">
        <ele>2425.447</ele>
        <time>2026-03-13T12:57:12Z</time>
      </trkpt>
      <trkpt lat="45.92429" lon="6.52975">
        <ele>2421.82</ele>
        <time>2026-03-13T12:57:17Z</time>
      </trkpt>
      <trkpt lat="45.92426" lon="6.52953">
        <ele>2416.994</ele>
        <time>2026-03-13T12:57:22Z</time>
      </trkpt>
      <trkpt lat="45.92426" lon="6.52952">
        <ele>2411.729</ele>
        <time>2026-03-13T12:57:27Z</time>
      </trkpt>
      <trkpt lat="45.92426" lon="6.52952">
        <ele>2410.605</ele>
        <time>2026-03-13T12:57:32Z</time>
      </trkpt>
      <trkpt lat="45.92426" lon="6.52952">
        <ele>2410.145</ele>
        <time>2026-03-13T12:57:37Z</time>
      </trkpt>
      <trkpt lat="45.92426" lon="6.52952">
        <ele>2410.04</ele>
        <time>2026-03-13T12:57:42Z</time>
      </trkpt>
      <trkpt lat="45.92426" lon="6.52952">
        <ele>2410.029</ele>
        <time>2026-03-13T12:57:47Z</time>
      </trkpt>
      <trkpt lat="45.92426" lon="6.52952">
        <ele>2410.026</ele>
        <time>2026-03-13T12:57:52Z</time>
      </trkpt>
      <trkpt lat="45.92426" lon="6.52952">
        <ele>2410.03</ele>
        <time>2026-03-13T12:57:57Z</time>
      </trkpt>
      <trkpt lat="45.92426" lon="6.52952">
        <ele>2410.031</ele>
        <time>2026-03-13T12:58:02Z</time>
      </trkpt>
      <trkpt lat="45.92421" lon="6.52944">
        <ele>2408.666</ele>
        <time>2026-03-13T12:58:07Z</time>
      </trkpt>
      <trkpt lat="45.92411" lon="6.5293">
        <ele>2405.566</ele>
        <time>2026-03-13T12:58:12Z</time>
      </trkpt>
      <trkpt lat="45.92408" lon="6.52913">
        <ele>2400.005</ele>
        <time>2026-03-13T12:58:17Z</time>
      </trkpt>
      <trkpt lat="45.92402" lon="6.52896">
        <ele>2393.021</ele>
        <time>2026-03-13T12:58:22Z</time>
      </trkpt>
      <trkpt lat="45.92388" lon="6.52881">
        <ele>2389.506</ele>
        <time>2026-03-13T12:58:27Z</time>
      </trkpt>
      <trkpt lat="45.92393" lon="6.52864">
        <ele>2379.934</ele>
        <time>2026-03-13T12:58:32Z</time>
      </trkpt>
      <trkpt lat="45.92403" lon="6.52845">
        <ele>2372.572</ele>
        <time>2026-03-13T12:58:37Z</time>
      </trkpt>
      <trkpt lat="45.92412" lon="6.52823">
        <ele>2362.221</ele>
        <time>2026-03-13T12:58:42Z</time>
      </trkpt>
      <trkpt lat="45.92396" lon="6.52793">
        <ele>2354.921</ele>
        <time>2026-03-13T12:58:47Z</time>
      </trkpt>
      <trkpt lat="45.92392" lon="6.52778">
        <ele>2354.027</ele>
        <time>2026-03-13T12:58:52Z</time>
      </trkpt>
      <trkpt lat="45.92389" lon="6.52769">
        <ele>2352.813</ele>
        <time>2026-03-13T12:58:57Z</time>
      </trkpt>
      <trkpt lat="45.92384" lon="6.5276">
        <ele>2350.035</ele>
        <time>2026-03-13T12:59:02Z</time>
      </trkpt>
      <trkpt lat="45.92377" lon="6.52747">
        <ele>2347.138</ele>
        <time>2026-03-13T12:59:07Z</time>
      </trkpt>
      <trkpt lat="45.92376" lon="6.52745">
        <ele>2347.404</ele>
        <time>2026-03-13T12:59:12Z</time>
      </trkpt>
      <trkpt lat="45.92376" lon="6.52745">
        <ele>2347.575</ele>
        <time>2026-03-13T12:59:17Z</time>
      </trkpt>
      <trkpt lat="45.92376" lon="6.52745">
        <ele>2347.081</ele>
        <time>2026-03-13T12:59:22Z</time>
      </trkpt>
      <trkpt lat="45.92376" lon="6.52745">
        <ele>2347.058</ele>
        <time>2026-03-13T12:59:27Z</time>
      </trkpt>
      <trkpt lat="45.92376" lon="6.52745">
        <ele>2347.05</ele>
        <time>2026-03-13T12:59:32Z</time>
      </trkpt>
      <trkpt lat="45.92376" lon="6.52745">
        <ele>2347.041</ele>
        <time>2026-03-13T12:59:37Z</time>
      </trkpt>
      <trkpt lat="45.92377" lon="6.52745">
        <ele>2347.561</ele>
        <time>2026-03-13T12:59:42Z</time>
      </trkpt>
      <trkpt lat="45.92377" lon="6.52744">
        <ele>2348.325</ele>
        <time>2026-03-13T12:59:47Z</time>
      </trkpt>
      <trkpt lat="45.92377" lon="6.52744">
        <ele>2348.668</ele>
        <time>2026-03-13T12:59:52Z</time>
      </trkpt>
      <trkpt lat="45.92377" lon="6.52744">
        <ele>2348.597</ele>
        <time>2026-03-13T12:59:57Z</time>
      </trkpt>
      <trkpt lat="45.92377" lon="6.52744">
        <ele>2348.582</ele>
        <time>2026-03-13T13:00:02Z</time>
      </trkpt>
      <trkpt lat="45.92377" lon="6.52744">
        <ele>2348.577</ele>
        <time>2026-03-13T13:00:07Z</time>
      </trkpt>
      <trkpt lat="45.92376" lon="6.52743">
        <ele>2347.979</ele>
        <time>2026-03-13T13:00:12Z</time>
      </trkpt>
      <trkpt lat="45.92377" lon="6.52727">
        <ele>2345.264</ele>
        <time>2026-03-13T13:00:17Z</time>
      </trkpt>
      <trkpt lat="45.92388" lon="6.52718">
        <ele>2342.003</ele>
        <time>2026-03-13T13:00:22Z</time>
      </trkpt>
      <trkpt lat="45.92395" lon="6.52716">
        <ele>2337.264</ele>
        <time>2026-03-13T13:00:27Z</time>
      </trkpt>
      <trkpt lat="45.92402" lon="6.52704">
        <ele>2333.768</ele>
        <time>2026-03-13T13:00:32Z</time>
      </trkpt>
      <trkpt lat="45.92402" lon="6.52704">
        <ele>2332.886</ele>
        <time>2026-03-13T13:00:37Z</time>
      </trkpt>
      <trkpt lat="45.92402" lon="6.52704">
        <ele>2332.49</ele>
        <time>2026-03-13T13:00:42Z</time>
      </trkpt>
      <trkpt lat="45.92402" lon="6.52704">
        <ele>2332.587</ele>
        <time>2026-03-13T13:00:47Z</time>
      </trkpt>
      <trkpt lat="45.92402" lon="6.52704">
        <ele>2332.572</ele>
        <time>2026-03-13T13:00:52Z</time>
      </trkpt>
      <trkpt lat="45.92402" lon="6.52704">
        <ele>2331.992</ele>
        <time>2026-03-13T13:00:57Z</time>
      </trkpt>
      <trkpt lat="45.92402" lon="6.52704">
        <ele>2328.213</ele>
        <time>2026-03-13T13:01:02Z</time>
      </trkpt>
      <trkpt lat="45.92402" lon="6.52704">
        <ele>2326.203</ele>
        <time>2026-03-13T13:01:07Z</time>
      </trkpt>
      <trkpt lat="45.92402" lon="6.52704">
        <ele>2324.834</ele>
        <time>2026-03-13T13:01:12Z</time>
      </trkpt>
      <trkpt lat="45.92402" lon="6.52704">
        <ele>2323.048</ele>
        <time>2026-03-13T13:01:17Z</time>
      </trkpt>
      <trkpt lat="45.924" lon="6.52691">
        <ele>2322.619</ele>
        <time>2026-03-13T13:01:22Z</time>
      </trkpt>
      <trkpt lat="45.92386" lon="6.52673">
        <ele>2316.145</ele>
        <time>2026-03-13T13:01:27Z</time>
      </trkpt>
      <trkpt lat="45.92369" lon="6.52652">
        <ele>2312.009</ele>
        <time>2026-03-13T13:01:32Z</time>
      </trkpt>
      <trkpt lat="45.92367" lon="6.52641">
        <ele>2308.913</ele>
        <time>2026-03-13T13:01:37Z</time>
      </trkpt>
      <trkpt lat="45.92371" lon="6.52637">
        <ele>2304.873</ele>
        <time>2026-03-13T13:01:42Z</time>
      </trkpt>
      <trkpt lat="45.92371" lon="6.52637">
        <ele>2304.603</ele>
        <time>2026-03-13T13:01:47Z</time>
      </trkpt>
      <trkpt lat="45.92371" lon="6.52637">
        <ele>2305.476</ele>
        <time>2026-03-13T13:01:52Z</time>
      </trkpt>
      <trkpt lat="45.92374" lon="6.52638">
        <ele>2303.28</ele>
        <time>2026-03-13T13:01:57Z</time>
      </trkpt>
      <trkpt lat="45.92378" lon="6.52625">
        <ele>2297.298</ele>
        <time>2026-03-13T13:02:02Z</time>
      </trkpt>
      <trkpt lat="45.92382" lon="6.52609">
        <ele>2289.111</ele>
        <time>2026-03-13T13:02:07Z</time>
      </trkpt>
      <trkpt lat="45.9238" lon="6.52605">
        <ele>2285.909</ele>
        <time>2026-03-13T13:02:12Z</time>
      </trkpt>
      <trkpt lat="45.9238" lon="6.52605">
        <ele>2285.462</ele>
        <time>2026-03-13T13:02:17Z</time>
      </trkpt>
      <trkpt lat="45.9238" lon="6.52604">
        <ele>2283.816</ele>
        <time>2026-03-13T13:02:22Z</time>
      </trkpt>
      <trkpt lat="45.92386" lon="6.52596">
        <ele>2278.288</ele>
        <time>2026-03-13T13:02:27Z</time>
      </trkpt>
      <trkpt lat="45.92385" lon="6.5256">
        <ele>2270.705</ele>
        <time>2026-03-13T13:02:32Z</time>
      </trkpt>
      <trkpt lat="45.92385" lon="6.52526">
        <ele>2266.69</ele>
        <time>2026-03-13T13:02:37Z</time>
      </trkpt>
      <trkpt lat="45.92389" lon="6.52492">
        <ele>2262.733</ele>
        <time>2026-03-13T13:02:42Z</time>
      </trkpt>
      <trkpt lat="45.92392" lon="6.52471">
        <ele>2259.832</ele>
        <time>2026-03-13T13:02:47Z</time>
      </trkpt>
      <trkpt lat="45.92394" lon="6.5245">
        <ele>2255.113</ele>
        <time>2026-03-13T13:02:52Z</time>
      </trkpt>
      <trkpt lat="45.92396" lon="6.52424">
        <ele>2249.47</ele>
        <time>2026-03-13T13:02:57Z</time>
      </trkpt>
      <trkpt lat="45.92394" lon="6.52394">
        <ele>2243.335</ele>
        <time>2026-03-13T13:03:02Z</time>
      </trkpt>
      <trkpt lat="45.9239" lon="6.52374">
        <ele>2240.66</ele>
        <time>2026-03-13T13:03:07Z</time>
      </trkpt>
      <trkpt lat="45.92385" lon="6.52348">
        <ele>2236.731</ele>
        <time>2026-03-13T13:03:12Z</time>
      </trkpt>
      <trkpt lat="45.92381" lon="6.52312">
        <ele>2233.924</ele>
        <time>2026-03-13T13:03:17Z</time>
      </trkpt>
      <trkpt lat="45.9238" lon="6.52296">
        <ele>2230.397</ele>
        <time>2026-03-13T13:03:22Z</time>
      </trkpt>
      <trkpt lat="45.92381" lon="6.52295">
        <ele>2230.554</ele>
        <time>2026-03-13T13:03:27Z</time>
      </trkpt>
      <trkpt lat="45.92381" lon="6.52294">
        <ele>2231.554</ele>
        <time>2026-03-13T13:03:32Z</time>
      </trkpt>
      <trkpt lat="45.92381" lon="6.52294">
        <ele>2231.827</ele>
        <time>2026-03-13T13:03:37Z</time>
      </trkpt>
      <trkpt lat="45.92381" lon="6.52294">
        <ele>2231.361</ele>
        <time>2026-03-13T13:03:42Z</time>
      </trkpt>
      <trkpt lat="45.92381" lon="6.52294">
        <ele>2229.144</ele>
        <time>2026-03-13T13:03:47Z</time>
      </trkpt>
      <trkpt lat="45.92381" lon="6.52294">
        <ele>2228.341</ele>
        <time>2026-03-13T13:03:52Z</time>
      </trkpt>
      <trkpt lat="45.92382" lon="6.52282">
        <ele>2228.295</ele>
        <time>2026-03-13T13:03:57Z</time>
      </trkpt>
      <trkpt lat="45.92382" lon="6.52281">
        <ele>2229.332</ele>
        <time>2026-03-13T13:04:02Z</time>
      </trkpt>
      <trkpt lat="45.92382" lon="6.52281">
        <ele>2229.362</ele>
        <time>2026-03-13T13:04:07Z</time>
      </trkpt>
      <trkpt lat="45.92382" lon="6.52281">
        <ele>2229.349</ele>
        <time>2026-03-13T13:04:12Z</time>
      </trkpt>
      <trkpt lat="45.92382" lon="6.5228">
        <ele>2228.884</ele>
        <time>2026-03-13T13:04:17Z</time>
      </trkpt>
      <trkpt lat="45.92381" lon="6.5227">
        <ele>2226.183</ele>
        <time>2026-03-13T13:04:22Z</time>
      </trkpt>
      <trkpt lat="45.92379" lon="6.52259">
        <ele>2226.008</ele>
        <time>2026-03-13T13:04:27Z</time>
      </trkpt>
      <trkpt lat="45.92375" lon="6.52245">
        <ele>2224.1</ele>
        <time>2026-03-13T13:04:32Z</time>
      </trkpt>
      <trkpt lat="45.92372" lon="6.52233">
        <ele>2223.048</ele>
        <time>2026-03-13T13:04:37Z</time>
      </trkpt>
      <trkpt lat="45.9237" lon="6.52225">
        <ele>2222.121</ele>
        <time>2026-03-13T13:04:42Z</time>
      </trkpt>
      <trkpt lat="45.92368" lon="6.52219">
        <ele>2221.911</ele>
        <time>2026-03-13T13:04:47Z</time>
      </trkpt>
      <trkpt lat="45.92364" lon="6.52201">
        <ele>2219.635</ele>
        <time>2026-03-13T13:04:52Z</time>
      </trkpt>
      <trkpt lat="45.9236" lon="6.52178">
        <ele>2217.156</ele>
        <time>2026-03-13T13:04:57Z</time>
      </trkpt>
      <trkpt lat="45.9236" lon="6.52174">
        <ele>2216.238</ele>
        <time>2026-03-13T13:05:02Z</time>
      </trkpt>
      <trkpt lat="45.9236" lon="6.52169">
        <ele>2216.842</ele>
        <time>2026-03-13T13:05:07Z</time>
      </trkpt>
      <trkpt lat="45.9236" lon="6.52165">
        <ele>2216.321</ele>
        <time>2026-03-13T13:05:12Z</time>
      </trkpt>
      <trkpt lat="45.9236" lon="6.52161">
        <ele>2216.775</ele>
        <time>2026-03-13T13:05:17Z</time>
      </trkpt>
      <trkpt lat="45.9236" lon="6.5216">
        <ele>2216.524</ele>
        <time>2026-03-13T13:05:22Z</time>
      </trkpt>
      <trkpt lat="45.9236" lon="6.52157">
        <ele>2216.737</ele>
        <time>2026-03-13T13:05:27Z</time>
      </trkpt>
      <trkpt lat="45.92358" lon="6.5215">
        <ele>2215.8</ele>
        <time>2026-03-13T13:05:32Z</time>
      </trkpt>
      <trkpt lat="45.92354" lon="6.52136">
        <ele>2212.172</ele>
        <time>2026-03-13T13:05:37Z</time>
      </trkpt>
      <trkpt lat="45.92348" lon="6.52113">
        <ele>2207.543</ele>
        <time>2026-03-13T13:05:42Z</time>
      </trkpt>
      <trkpt lat="45.92339" lon="6.52079">
        <ele>2204.836</ele>
        <time>2026-03-13T13:05:47Z</time>
      </trkpt>
      <trkpt lat="45.92338" lon="6.52074">
        <ele>2206.339</ele>
        <time>2026-03-13T13:05:52Z</time>
      </trkpt>
      <trkpt lat="45.92338" lon="6.52071">
        <ele>2205.157</ele>
        <time>2026-03-13T13:05:57Z</time>
      </trkpt>
      <trkpt lat="45.92336" lon="6.52069">
        <ele>2204.549</ele>
        <time>2026-03-13T13:06:02Z</time>
      </trkpt>
      <trkpt lat="45.92332" lon="6.52061">
        <ele>2204.5</ele>
        <time>2026-03-13T13:06:07Z</time>
      </trkpt>
      <trkpt lat="45.92324" lon="6.52034">
        <ele>2203.559</ele>
        <time>2026-03-13T13:06:12Z</time>
      </trkpt>
      <trkpt lat="45.92322" lon="6.52024">
        <ele>2202.954</ele>
        <time>2026-03-13T13:06:17Z</time>
      </trkpt>
      <trkpt lat="45.9232" lon="6.5202">
        <ele>2203.482</ele>
        <time>2026-03-13T13:06:22Z</time>
      </trkpt>
      <trkpt lat="45.92319" lon="6.52017">
        <ele>2203.603</ele>
        <time>2026-03-13T13:06:27Z</time>
      </trkpt>
      <trkpt lat="45.92319" lon="6.52015">
        <ele>2204.029</ele>
        <time>2026-03-13T13:06:32Z</time>
      </trkpt>
      <trkpt lat="45.92318" lon="6.52012">
        <ele>2203.692</ele>
        <time>2026-03-13T13:06:37Z</time>
      </trkpt>
      <trkpt lat="45.92316" lon="6.52008">
        <ele>2203.24</ele>
        <time>2026-03-13T13:06:42Z</time>
      </trkpt>
      <trkpt lat="45.92315" lon="6.52005">
        <ele>2203.277</ele>
        <time>2026-03-13T13:06:47Z</time>
      </trkpt>
      <trkpt lat="45.92314" lon="6.52001">
        <ele>2204.354</ele>
        <time>2026-03-13T13:06:52Z</time>
      </trkpt>
      <trkpt lat="45.92313" lon="6.51996">
        <ele>2203.515</ele>
        <time>2026-03-13T13:06:57Z</time>
      </trkpt>
      <trkpt lat="45.92312" lon="6.51994">
        <ele>2203.994</ele>
        <time>2026-03-13T13:07:02Z</time>
      </trkpt>
      <trkpt lat="45.92313" lon="6.51992">
        <ele>2204.683</ele>
        <time>2026-03-13T13:07:07Z</time>
      </trkpt>
      <trkpt lat="45.92312" lon="6.51989">
        <ele>2205.186</ele>
        <time>2026-03-13T13:07:12Z</time>
      </trkpt>
      <trkpt lat="45.92312" lon="6.51986">
        <ele>2205.814</ele>
        <time>2026-03-13T13:07:17Z</time>
      </trkpt>
      <trkpt lat="45.92311" lon="6.51984">
        <ele>2206.395</ele>
        <time>2026-03-13T13:07:22Z</time>
      </trkpt>
      <trkpt lat="45.92311" lon="6.51981">
        <ele>2205.964</ele>
        <time>2026-03-13T13:07:27Z</time>
      </trkpt>
      <trkpt lat="45.9231" lon="6.51978">
        <ele>2206.137</ele>
        <time>2026-03-13T13:07:32Z</time>
      </trkpt>
      <trkpt lat="45.92309" lon="6.51975">
        <ele>2206.74</ele>
        <time>2026-03-13T13:07:37Z</time>
      </trkpt>
      <trkpt lat="45.92309" lon="6.51972">
        <ele>2207.168</ele>
        <time>2026-03-13T13:07:42Z</time>
      </trkpt>
      <trkpt lat="45.92308" lon="6.51969">
        <ele>2207.624</ele>
        <time>2026-03-13T13:07:47Z</time>
      </trkpt>
      <trkpt lat="45.92308" lon="6.51963">
        <ele>2206.424</ele>
        <time>2026-03-13T13:07:52Z</time>
      </trkpt>
      <trkpt lat="45.92304" lon="6.51942">
        <ele>2203.396</ele>
        <time>2026-03-13T13:07:57Z</time>
      </trkpt>
      <trkpt lat="45.923" lon="6.51912">
        <ele>2200.226</ele>
        <time>2026-03-13T13:08:02Z</time>
      </trkpt>
      <trkpt lat="45.92295" lon="6.51879">
        <ele>2197.148</ele>
        <time>2026-03-13T13:08:07Z</time>
      </trkpt>
      <trkpt lat="45.92296" lon="6.51877">
        <ele>2197.808</ele>
        <time>2026-03-13T13:08:12Z</time>
      </trkpt>
      <trkpt lat="45.92296" lon="6.51876">
        <ele>2198.63</ele>
        <time>2026-03-13T13:08:17Z</time>
      </trkpt>
      <trkpt lat="45.92296" lon="6.51876">
        <ele>2199.011</ele>
        <time>2026-03-13T13:08:22Z</time>
      </trkpt>
      <trkpt lat="45.92296" lon="6.51876">
        <ele>2198.079</ele>
        <time>2026-03-13T13:08:27Z</time>
      </trkpt>
      <trkpt lat="45.92296" lon="6.51875">
        <ele>2198.041</ele>
        <time>2026-03-13T13:08:32Z</time>
      </trkpt>
      <trkpt lat="45.92296" lon="6.51874">
        <ele>2197.571</ele>
        <time>2026-03-13T13:08:37Z</time>
      </trkpt>
      <trkpt lat="45.92296" lon="6.51873">
        <ele>2197.759</ele>
        <time>2026-03-13T13:08:42Z</time>
      </trkpt>
      <trkpt lat="45.92296" lon="6.51871">
        <ele>2198.8</ele>
        <time>2026-03-13T13:08:47Z</time>
      </trkpt>
      <trkpt lat="45.92297" lon="6.51869">
        <ele>2198.155</ele>
        <time>2026-03-13T13:08:52Z</time>
      </trkpt>
      <trkpt lat="45.92297" lon="6.51867">
        <ele>2198.425</ele>
        <time>2026-03-13T13:08:57Z</time>
      </trkpt>
      <trkpt lat="45.92298" lon="6.51865">
        <ele>2199.191</ele>
        <time>2026-03-13T13:09:02Z</time>
      </trkpt>
      <trkpt lat="45.92298" lon="6.51863">
        <ele>2199.184</ele>
        <time>2026-03-13T13:09:07Z</time>
      </trkpt>
      <trkpt lat="45.92298" lon="6.51861">
        <ele>2199.645</ele>
        <time>2026-03-13T13:09:12Z</time>
      </trkpt>
      <trkpt lat="45.92299" lon="6.51859">
        <ele>2199.602</ele>
        <time>2026-03-13T13:09:17Z</time>
      </trkpt>
      <trkpt lat="45.923" lon="6.51856">
        <ele>2198.847</ele>
        <time>2026-03-13T13:09:22Z</time>
      </trkpt>
      <trkpt lat="45.92301" lon="6.51853">
        <ele>2198.924</ele>
        <time>2026-03-13T13:09:27Z</time>
      </trkpt>
      <trkpt lat="45.92301" lon="6.5185">
        <ele>2199.435</ele>
        <time>2026-03-13T13:09:32Z</time>
      </trkpt>
      <trkpt lat="45.92301" lon="6.51848">
        <ele>2200.012</ele>
        <time>2026-03-13T13:09:37Z</time>
      </trkpt>
      <trkpt lat="45.92301" lon="6.51848">
        <ele>2200.35</ele>
        <time>2026-03-13T13:09:42Z</time>
      </trkpt>
      <trkpt lat="45.92301" lon="6.51848">
        <ele>2200.377</ele>
        <time>2026-03-13T13:09:47Z</time>
      </trkpt>
      <trkpt lat="45.92301" lon="6.51848">
        <ele>2200.384</ele>
        <time>2026-03-13T13:09:52Z</time>
      </trkpt>
      <trkpt lat="45.92301" lon="6.51848">
        <ele>2200.391</ele>
        <time>2026-03-13T13:09:57Z</time>
      </trkpt>
      <trkpt lat="45.92301" lon="6.51848">
        <ele>2200.384</ele>
        <time>2026-03-13T13:10:02Z</time>
      </trkpt>
      <trkpt lat="45.92301" lon="6.51848">
        <ele>2200.387</ele>
        <time>2026-03-13T13:10:07Z</time>
      </trkpt>
      <trkpt lat="45.92301" lon="6.51845">
        <ele>2200.818</ele>
        <time>2026-03-13T13:10:12Z</time>
      </trkpt>
      <trkpt lat="45.92301" lon="6.51838">
        <ele>2201.026</ele>
        <time>2026-03-13T13:10:17Z</time>
      </trkpt>
      <trkpt lat="45.92301" lon="6.51825">
        <ele>2200.031</ele>
        <time>2026-03-13T13:10:22Z</time>
      </trkpt>
      <trkpt lat="45.92299" lon="6.518">
        <ele>2197.456</ele>
        <time>2026-03-13T13:10:27Z</time>
      </trkpt>
      <trkpt lat="45.92298" lon="6.51779">
        <ele>2195.931</ele>
        <time>2026-03-13T13:10:32Z</time>
      </trkpt>
      <trkpt lat="45.92297" lon="6.51757">
        <ele>2194.986</ele>
        <time>2026-03-13T13:10:37Z</time>
      </trkpt>
      <trkpt lat="45.92297" lon="6.51732">
        <ele>2193.158</ele>
        <time>2026-03-13T13:10:42Z</time>
      </trkpt>
      <trkpt lat="45.92301" lon="6.51709">
        <ele>2191.738</ele>
        <time>2026-03-13T13:10:47Z</time>
      </trkpt>
      <trkpt lat="45.92302" lon="6.51699">
        <ele>2192.023</ele>
        <time>2026-03-13T13:10:52Z</time>
      </trkpt>
      <trkpt lat="45.92302" lon="6.51699">
        <ele>2192.112</ele>
        <time>2026-03-13T13:10:57Z</time>
      </trkpt>
      <trkpt lat="45.92302" lon="6.51699">
        <ele>2192.664</ele>
        <time>2026-03-13T13:11:02Z</time>
      </trkpt>
      <trkpt lat="45.92302" lon="6.51699">
        <ele>2192.686</ele>
        <time>2026-03-13T13:11:07Z</time>
      </trkpt>
      <trkpt lat="45.92302" lon="6.51699">
        <ele>2192.692</ele>
        <time>2026-03-13T13:11:12Z</time>
      </trkpt>
      <trkpt lat="45.92302" lon="6.51699">
        <ele>2192.697</ele>
        <time>2026-03-13T13:11:17Z</time>
      </trkpt>
      <trkpt lat="45.92302" lon="6.51699">
        <ele>2192.695</ele>
        <time>2026-03-13T13:11:22Z</time>
      </trkpt>
      <trkpt lat="45.92303" lon="6.51694">
        <ele>2192.521</ele>
        <time>2026-03-13T13:11:27Z</time>
      </trkpt>
      <trkpt lat="45.92304" lon="6.51684">
        <ele>2189.836</ele>
        <time>2026-03-13T13:11:32Z</time>
      </trkpt>
      <trkpt lat="45.92318" lon="6.51679">
        <ele>2180.348</ele>
        <time>2026-03-13T13:11:37Z</time>
      </trkpt>
      <trkpt lat="45.92326" lon="6.51665">
        <ele>2174.756</ele>
        <time>2026-03-13T13:11:42Z</time>
      </trkpt>
      <trkpt lat="45.92328" lon="6.51665">
        <ele>2175.437</ele>
        <time>2026-03-13T13:11:47Z</time>
      </trkpt>
      <trkpt lat="45.92328" lon="6.51666">
        <ele>2175.436</ele>
        <time>2026-03-13T13:11:52Z</time>
      </trkpt>
      <trkpt lat="45.92328" lon="6.51666">
        <ele>2175.386</ele>
        <time>2026-03-13T13:11:57Z</time>
      </trkpt>
      <trkpt lat="45.92328" lon="6.51666">
        <ele>2175.342</ele>
        <time>2026-03-13T13:12:02Z</time>
      </trkpt>
      <trkpt lat="45.92328" lon="6.51666">
        <ele>2175.047</ele>
        <time>2026-03-13T13:12:07Z</time>
      </trkpt>
      <trkpt lat="45.92328" lon="6.51666">
        <ele>2174.459</ele>
        <time>2026-03-13T13:12:12Z</time>
      </trkpt>
      <trkpt lat="45.92334" lon="6.51654">
        <ele>2171.099</ele>
        <time>2026-03-13T13:12:17Z</time>
      </trkpt>
      <trkpt lat="45.9235" lon="6.51645">
        <ele>2162.449</ele>
        <time>2026-03-13T13:12:22Z</time>
      </trkpt>
      <trkpt lat="45.9237" lon="6.51632">
        <ele>2155.116</ele>
        <time>2026-03-13T13:12:27Z</time>
      </trkpt>
      <trkpt lat="45.92392" lon="6.51629">
        <ele>2144.398</ele>
        <time>2026-03-13T13:12:32Z</time>
      </trkpt>
      <trkpt lat="45.92415" lon="6.51629">
        <ele>2136.739</ele>
        <time>2026-03-13T13:12:37Z</time>
      </trkpt>
      <trkpt lat="45.92439" lon="6.51624">
        <ele>2130.241</ele>
        <time>2026-03-13T13:12:42Z</time>
      </trkpt>
      <trkpt lat="45.92453" lon="6.51614">
        <ele>2129.102</ele>
        <time>2026-03-13T13:12:47Z</time>
      </trkpt>
      <trkpt lat="45.92455" lon="6.51613">
        <ele>2126.867</ele>
        <time>2026-03-13T13:12:52Z</time>
      </trkpt>
      <trkpt lat="45.92462" lon="6.51606">
        <ele>2123.786</ele>
        <time>2026-03-13T13:12:57Z</time>
      </trkpt>
      <trkpt lat="45.92464" lon="6.51598">
        <ele>2122.826</ele>
        <time>2026-03-13T13:13:02Z</time>
      </trkpt>
      <trkpt lat="45.92464" lon="6.51598">
        <ele>2122.099</ele>
        <time>2026-03-13T13:13:07Z</time>
      </trkpt>
      <trkpt lat="45.92464" lon="6.51598">
        <ele>2121.03</ele>
        <time>2026-03-13T13:13:12Z</time>
      </trkpt>
      <trkpt lat="45.92464" lon="6.51598">
        <ele>2120.956</ele>
        <time>2026-03-13T13:13:17Z</time>
      </trkpt>
      <trkpt lat="45.92464" lon="6.51598">
        <ele>2120.961</ele>
        <time>2026-03-13T13:13:22Z</time>
      </trkpt>
      <trkpt lat="45.92464" lon="6.51597">
        <ele>2119.358</ele>
        <time>2026-03-13T13:13:27Z</time>
      </trkpt>
      <trkpt lat="45.92465" lon="6.51596">
        <ele>2118.173</ele>
        <time>2026-03-13T13:13:32Z</time>
      </trkpt>
      <trkpt lat="45.92476" lon="6.51578">
        <ele>2114.141</ele>
        <time>2026-03-13T13:13:37Z</time>
      </trkpt>
      <trkpt lat="45.92487" lon="6.51579">
        <ele>2105.879</ele>
        <time>2026-03-13T13:13:42Z</time>
      </trkpt>
      <trkpt lat="45.92498" lon="6.51591">
        <ele>2099.83</ele>
        <time>2026-03-13T13:13:47Z</time>
      </trkpt>
      <trkpt lat="45.925" lon="6.51597">
        <ele>2097.401</ele>
        <time>2026-03-13T13:13:52Z</time>
      </trkpt>
      <trkpt lat="45.92504" lon="6.51606">
        <ele>2097.293</ele>
        <time>2026-03-13T13:13:57Z</time>
      </trkpt>
      <trkpt lat="45.9251" lon="6.51618">
        <ele>2094.188</ele>
        <time>2026-03-13T13:14:02Z</time>
      </trkpt>
      <trkpt lat="45.92513" lon="6.51619">
        <ele>2093.272</ele>
        <time>2026-03-13T13:14:07Z</time>
      </trkpt>
      <trkpt lat="45.92524" lon="6.5161">
        <ele>2086.588</ele>
        <time>2026-03-13T13:14:12Z</time>
      </trkpt>
      <trkpt lat="45.92525" lon="6.51602">
        <ele>2084.902</ele>
        <time>2026-03-13T13:14:17Z</time>
      </trkpt>
      <trkpt lat="45.92526" lon="6.51601">
        <ele>2082.236</ele>
        <time>2026-03-13T13:14:22Z</time>
      </trkpt>
      <trkpt lat="45.92542" lon="6.51608">
        <ele>2078.451</ele>
        <time>2026-03-13T13:14:27Z</time>
      </trkpt>
      <trkpt lat="45.9255" lon="6.516">
        <ele>2070.798</ele>
        <time>2026-03-13T13:14:32Z</time>
      </trkpt>
      <trkpt lat="45.9255" lon="6.516">
        <ele>2066.828</ele>
        <time>2026-03-13T13:14:37Z</time>
      </trkpt>
      <trkpt lat="45.9255" lon="6.516">
        <ele>2067.179</ele>
        <time>2026-03-13T13:14:42Z</time>
      </trkpt>
      <trkpt lat="45.9255" lon="6.516">
        <ele>2067.008</ele>
        <time>2026-03-13T13:14:47Z</time>
      </trkpt>
      <trkpt lat="45.9255" lon="6.516">
        <ele>2066.823</ele>
        <time>2026-03-13T13:14:52Z</time>
      </trkpt>
      <trkpt lat="45.9255" lon="6.516">
        <ele>2065.849</ele>
        <time>2026-03-13T13:14:57Z</time>
      </trkpt>
      <trkpt lat="45.92555" lon="6.51599">
        <ele>2063.989</ele>
        <time>2026-03-13T13:15:02Z</time>
      </trkpt>
      <trkpt lat="45.92567" lon="6.51582">
        <ele>2053.111</ele>
        <time>2026-03-13T13:15:07Z</time>
      </trkpt>
      <trkpt lat="45.92575" lon="6.51562">
        <ele>2044.248</ele>
        <time>2026-03-13T13:15:12Z</time>
      </trkpt>
      <trkpt lat="45.92586" lon="6.51561">
        <ele>2035.612</ele>
        <time>2026-03-13T13:15:17Z</time>
      </trkpt>
      <trkpt lat="45.92587" lon="6.51537">
        <ele>2032.089</ele>
        <time>2026-03-13T13:15:22Z</time>
      </trkpt>
      <trkpt lat="45.92588" lon="6.51534">
        <ele>2032.168</ele>
        <time>2026-03-13T13:15:27Z</time>
      </trkpt>
      <trkpt lat="45.92588" lon="6.51534">
        <ele>2031.467</ele>
        <time>2026-03-13T13:15:32Z</time>
      </trkpt>
      <trkpt lat="45.92589" lon="6.51534">
        <ele>2031.898</ele>
        <time>2026-03-13T13:15:37Z</time>
      </trkpt>
      <trkpt lat="45.92589" lon="6.51534">
        <ele>2031.936</ele>
        <time>2026-03-13T13:15:42Z</time>
      </trkpt>
      <trkpt lat="45.92591" lon="6.51527">
        <ele>2030.149</ele>
        <time>2026-03-13T13:15:47Z</time>
      </trkpt>
      <trkpt lat="45.92605" lon="6.5152">
        <ele>2026.114</ele>
        <time>2026-03-13T13:15:52Z</time>
      </trkpt>
      <trkpt lat="45.92621" lon="6.51524">
        <ele>2014.39</ele>
        <time>2026-03-13T13:15:57Z</time>
      </trkpt>
      <trkpt lat="45.92634" lon="6.51519">
        <ele>2001.16</ele>
        <time>2026-03-13T13:16:02Z</time>
      </trkpt>
      <trkpt lat="45.9264" lon="6.51524">
        <ele>1998.567</ele>
        <time>2026-03-13T13:16:07Z</time>
      </trkpt>
      <trkpt lat="45.9264" lon="6.51526">
        <ele>1998.478</ele>
        <time>2026-03-13T13:16:12Z</time>
      </trkpt>
      <trkpt lat="45.9264" lon="6.51527">
        <ele>1997.873</ele>
        <time>2026-03-13T13:16:17Z</time>
      </trkpt>
      <trkpt lat="45.92646" lon="6.51525">
        <ele>1989.746</ele>
        <time>2026-03-13T13:16:22Z</time>
      </trkpt>
      <trkpt lat="45.92661" lon="6.51517">
        <ele>1981.474</ele>
        <time>2026-03-13T13:16:27Z</time>
      </trkpt>
      <trkpt lat="45.92677" lon="6.51518">
        <ele>1974.655</ele>
        <time>2026-03-13T13:16:32Z</time>
      </trkpt>
      <trkpt lat="45.92693" lon="6.51514">
        <ele>1970.748</ele>
        <time>2026-03-13T13:16:37Z</time>
      </trkpt>
      <trkpt lat="45.92695" lon="6.51514">
        <ele>1970.721</ele>
        <time>2026-03-13T13:16:42Z</time>
      </trkpt>
      <trkpt lat="45.92696" lon="6.51514">
        <ele>1970.314</ele>
        <time>2026-03-13T13:16:47Z</time>
      </trkpt>
      <trkpt lat="45.92696" lon="6.51514">
        <ele>1969.371</ele>
        <time>2026-03-13T13:16:52Z</time>
      </trkpt>
      <trkpt lat="45.92696" lon="6.51514">
        <ele>1969.399</ele>
        <time>2026-03-13T13:16:57Z</time>
      </trkpt>
      <trkpt lat="45.92696" lon="6.51514">
        <ele>1969.401</ele>
        <time>2026-03-13T13:17:02Z</time>
      </trkpt>
      <trkpt lat="45.92696" lon="6.51514">
        <ele>1969.398</ele>
        <time>2026-03-13T13:17:07Z</time>
      </trkpt>
      <trkpt lat="45.92696" lon="6.51514">
        <ele>1969.406</ele>
        <time>2026-03-13T13:17:12Z</time>
      </trkpt>
      <trkpt lat="45.92696" lon="6.51514">
        <ele>1969.402</ele>
        <time>2026-03-13T13:17:17Z</time>
      </trkpt>
      <trkpt lat="45.92696" lon="6.51514">
        <ele>1968.933</ele>
        <time>2026-03-13T13:17:22Z</time>
      </trkpt>
      <trkpt lat="45.92702" lon="6.51494">
        <ele>1962.784</ele>
        <time>2026-03-13T13:17:27Z</time>
      </trkpt>
      <trkpt lat="45.92713" lon="6.51471">
        <ele>1949.85</ele>
        <time>2026-03-13T13:17:32Z</time>
      </trkpt>
      <trkpt lat="45.92719" lon="6.5146">
        <ele>1948.01</ele>
        <time>2026-03-13T13:17:37Z</time>
      </trkpt>
      <trkpt lat="45.92719" lon="6.51453">
        <ele>1946.698</ele>
        <time>2026-03-13T13:17:42Z</time>
      </trkpt>
      <trkpt lat="45.92719" lon="6.51452">
        <ele>1947.335</ele>
        <time>2026-03-13T13:17:47Z</time>
      </trkpt>
      <trkpt lat="45.92719" lon="6.51452">
        <ele>1948.727</ele>
        <time>2026-03-13T13:17:52Z</time>
      </trkpt>
      <trkpt lat="45.92719" lon="6.51452">
        <ele>1948.67</ele>
        <time>2026-03-13T13:17:57Z</time>
      </trkpt>
      <trkpt lat="45.92719" lon="6.51452">
        <ele>1948.683</ele>
        <time>2026-03-13T13:18:02Z</time>
      </trkpt>
      <trkpt lat="45.92719" lon="6.51452">
        <ele>1948.698</ele>
        <time>2026-03-13T13:18:07Z</time>
      </trkpt>
      <trkpt lat="45.92719" lon="6.51451">
        <ele>1948.719</ele>
        <time>2026-03-13T13:18:12Z</time>
      </trkpt>
      <trkpt lat="45.92713" lon="6.51439">
        <ele>1947.158</ele>
        <time>2026-03-13T13:18:17Z</time>
      </trkpt>
      <trkpt lat="45.92708" lon="6.51419">
        <ele>1939.104</ele>
        <time>2026-03-13T13:18:22Z</time>
      </trkpt>
      <trkpt lat="45.92718" lon="6.51405">
        <ele>1937.302</ele>
        <time>2026-03-13T13:18:27Z</time>
      </trkpt>
      <trkpt lat="45.92737" lon="6.51396">
        <ele>1933.012</ele>
        <time>2026-03-13T13:18:32Z</time>
      </trkpt>
      <trkpt lat="45.92759" lon="6.51376">
        <ele>1923.282</ele>
        <time>2026-03-13T13:18:37Z</time>
      </trkpt>
      <trkpt lat="45.92765" lon="6.51375">
        <ele>1916.34</ele>
        <time>2026-03-13T13:18:42Z</time>
      </trkpt>
      <trkpt lat="45.92765" lon="6.51375">
        <ele>1915.398</ele>
        <time>2026-03-13T13:18:47Z</time>
      </trkpt>
      <trkpt lat="45.92765" lon="6.51375">
        <ele>1914.991</ele>
        <time>2026-03-13T13:18:52Z</time>
      </trkpt>
      <trkpt lat="45.92765" lon="6.51375">
        <ele>1915.058</ele>
        <time>2026-03-13T13:18:57Z</time>
      </trkpt>
      <trkpt lat="45.92765" lon="6.51375">
        <ele>1915.045</ele>
        <time>2026-03-13T13:19:02Z</time>
      </trkpt>
      <trkpt lat="45.92765" lon="6.51375">
        <ele>1915.04</ele>
        <time>2026-03-13T13:19:07Z</time>
      </trkpt>
      <trkpt lat="45.92765" lon="6.51375">
        <ele>1915.026</ele>
        <time>2026-03-13T13:19:12Z</time>
      </trkpt>
      <trkpt lat="45.92765" lon="6.51375">
        <ele>1915.011</ele>
        <time>2026-03-13T13:19:17Z</time>
      </trkpt>
      <trkpt lat="45.92765" lon="6.51375">
        <ele>1915.003</ele>
        <time>2026-03-13T13:19:22Z</time>
      </trkpt>
      <trkpt lat="45.92765" lon="6.51375">
        <ele>1914.991</ele>
        <time>2026-03-13T13:19:27Z</time>
      </trkpt>
      <trkpt lat="45.92771" lon="6.51363">
        <ele>1906.33</ele>
        <time>2026-03-13T13:19:32Z</time>
      </trkpt>
      <trkpt lat="45.92783" lon="6.5135">
        <ele>1899.562</ele>
        <time>2026-03-13T13:19:37Z</time>
      </trkpt>
      <trkpt lat="45.92792" lon="6.51332">
        <ele>1889.563</ele>
        <time>2026-03-13T13:19:42Z</time>
      </trkpt>
      <trkpt lat="45.92796" lon="6.51316">
        <ele>1884.149</ele>
        <time>2026-03-13T13:19:47Z</time>
      </trkpt>
      <trkpt lat="45.92796" lon="6.51315">
        <ele>1883.366</ele>
        <time>2026-03-13T13:19:52Z</time>
      </trkpt>
      <trkpt lat="45.92796" lon="6.51307">
        <ele>1877.545</ele>
        <time>2026-03-13T13:19:57Z</time>
      </trkpt>
      <trkpt lat="45.92799" lon="6.51286">
        <ele>1872.426</ele>
        <time>2026-03-13T13:20:02Z</time>
      </trkpt>
      <trkpt lat="45.92812" lon="6.51275">
        <ele>1863.992</ele>
        <time>2026-03-13T13:20:07Z</time>
      </trkpt>
      <trkpt lat="45.92812" lon="6.51261">
        <ele>1860.713</ele>
        <time>2026-03-13T13:20:12Z</time>
      </trkpt>
      <trkpt lat="45.92812" lon="6.5126">
        <ele>1861.567</ele>
        <time>2026-03-13T13:20:17Z</time>
      </trkpt>
      <trkpt lat="45.92812" lon="6.5126">
        <ele>1862.156</ele>
        <time>2026-03-13T13:20:22Z</time>
      </trkpt>
      <trkpt lat="45.92812" lon="6.51259">
        <ele>1862.303</ele>
        <time>2026-03-13T13:20:27Z</time>
      </trkpt>
      <trkpt lat="45.92817" lon="6.51248">
        <ele>1856.302</ele>
        <time>2026-03-13T13:20:32Z</time>
      </trkpt>
      <trkpt lat="45.92828" lon="6.51233">
        <ele>1848.076</ele>
        <time>2026-03-13T13:20:37Z</time>
      </trkpt>
      <trkpt lat="45.92843" lon="6.51221">
        <ele>1839.037</ele>
        <time>2026-03-13T13:20:42Z</time>
      </trkpt>
      <trkpt lat="45.9286" lon="6.51208">
        <ele>1834.19</ele>
        <time>2026-03-13T13:20:47Z</time>
      </trkpt>
      <trkpt lat="45.92885" lon="6.51167">
        <ele>1829.41</ele>
        <time>2026-03-13T13:20:52Z</time>
      </trkpt>
      <trkpt lat="45.92893" lon="6.51136">
        <ele>1830.573</ele>
        <time>2026-03-13T13:20:57Z</time>
      </trkpt>
      <trkpt lat="45.92893" lon="6.51122">
        <ele>1830.499</ele>
        <time>2026-03-13T13:21:02Z</time>
      </trkpt>
      <trkpt lat="45.92895" lon="6.51117">
        <ele>1831.011</ele>
        <time>2026-03-13T13:21:07Z</time>
      </trkpt>
      <trkpt lat="45.929" lon="6.51092">
        <ele>1826.289</ele>
        <time>2026-03-13T13:21:12Z</time>
      </trkpt>
      <trkpt lat="45.92907" lon="6.5106">
        <ele>1819.977</ele>
        <time>2026-03-13T13:21:17Z</time>
      </trkpt>
      <trkpt lat="45.92915" lon="6.51027">
        <ele>1811.539</ele>
        <time>2026-03-13T13:21:22Z</time>
      </trkpt>
      <trkpt lat="45.92923" lon="6.50979">
        <ele>1805.806</ele>
        <time>2026-03-13T13:21:27Z</time>
      </trkpt>
      <trkpt lat="45.92932" lon="6.50953">
        <ele>1806.341</ele>
        <time>2026-03-13T13:21:32Z</time>
      </trkpt>
      <trkpt lat="45.92934" lon="6.50945">
        <ele>1806.343</ele>
        <time>2026-03-13T13:21:37Z</time>
      </trkpt>
      <trkpt lat="45.92934" lon="6.50945">
        <ele>1806.736</ele>
        <time>2026-03-13T13:21:42Z</time>
      </trkpt>
      <trkpt lat="45.92934" lon="6.50945">
        <ele>1805.873</ele>
        <time>2026-03-13T13:21:47Z</time>
      </trkpt>
      <trkpt lat="45.92934" lon="6.50945">
        <ele>1805.505</ele>
        <time>2026-03-13T13:21:52Z</time>
      </trkpt>
      <trkpt lat="45.92934" lon="6.50943">
        <ele>1805.713</ele>
        <time>2026-03-13T13:21:57Z</time>
      </trkpt>
      <trkpt lat="45.92934" lon="6.50943">
        <ele>1805.723</ele>
        <time>2026-03-13T13:22:02Z</time>
      </trkpt>
      <trkpt lat="45.92934" lon="6.50943">
        <ele>1805.717</ele>
        <time>2026-03-13T13:22:07Z</time>
      </trkpt>
      <trkpt lat="45.92934" lon="6.50943">
        <ele>1805.718</ele>
        <time>2026-03-13T13:22:12Z</time>
      </trkpt>
      <trkpt lat="45.92934" lon="6.50943">
        <ele>1805.718</ele>
        <time>2026-03-13T13:22:17Z</time>
      </trkpt>
      <trkpt lat="45.92934" lon="6.50943">
        <ele>1805.711</ele>
        <time>2026-03-13T13:22:22Z</time>
      </trkpt>
      <trkpt lat="45.92934" lon="6.50941">
        <ele>1805.259</ele>
        <time>2026-03-13T13:22:27Z</time>
      </trkpt>
      <trkpt lat="45.92932" lon="6.50924">
        <ele>1803.578</ele>
        <time>2026-03-13T13:22:32Z</time>
      </trkpt>
      <trkpt lat="45.92934" lon="6.50916">
        <ele>1799.912</ele>
        <time>2026-03-13T13:22:37Z</time>
      </trkpt>
      <trkpt lat="45.92934" lon="6.50916">
        <ele>1799.777</ele>
        <time>2026-03-13T13:22:42Z</time>
      </trkpt>
      <trkpt lat="45.92934" lon="6.50916">
        <ele>1799.766</ele>
        <time>2026-03-13T13:22:47Z</time>
      </trkpt>
      <trkpt lat="45.92934" lon="6.50916">
        <ele>1799.757</ele>
        <time>2026-03-13T13:22:52Z</time>
      </trkpt>
      <trkpt lat="45.92934" lon="6.50916">
        <ele>1799.753</ele>
        <time>2026-03-13T13:22:57Z</time>
      </trkpt>
      <trkpt lat="45.92934" lon="6.50916">
        <ele>1799.755</ele>
        <time>2026-03-13T13:23:02Z</time>
      </trkpt>
      <trkpt lat="45.92934" lon="6.50916">
        <ele>1799.754</ele>
        <time>2026-03-13T13:23:07Z</time>
      </trkpt>
      <trkpt lat="45.92934" lon="6.50916">
        <ele>1799.747</ele>
        <time>2026-03-13T13:23:12Z</time>
      </trkpt>
      <trkpt lat="45.92934" lon="6.50916">
        <ele>1798.004</ele>
        <time>2026-03-13T13:23:17Z</time>
      </trkpt>
      <trkpt lat="45.92934" lon="6.50916">
        <ele>1796.553</ele>
        <time>2026-03-13T13:23:22Z</time>
      </trkpt>
      <trkpt lat="45.92934" lon="6.50916">
        <ele>1795.798</ele>
        <time>2026-03-13T13:23:27Z</time>
      </trkpt>
      <trkpt lat="45.92934" lon="6.50916">
        <ele>1795.688</ele>
        <time>2026-03-13T13:23:32Z</time>
      </trkpt>
      <trkpt lat="45.92934" lon="6.50916">
        <ele>1795.599</ele>
        <time>2026-03-13T13:23:37Z</time>
      </trkpt>
      <trkpt lat="45.92934" lon="6.50916">
        <ele>1795.554</ele>
        <time>2026-03-13T13:23:42Z</time>
      </trkpt>
      <trkpt lat="45.92934" lon="6.50916">
        <ele>1795.552</ele>
        <time>2026-03-13T13:23:47Z</time>
      </trkpt>
      <trkpt lat="45.92934" lon="6.50916">
        <ele>1795.563</ele>
        <time>2026-03-13T13:23:52Z</time>
      </trkpt>
      <trkpt lat="45.92934" lon="6.50916">
        <ele>1794.979</ele>
        <time>2026-03-13T13:23:57Z</time>
      </trkpt>
      <trkpt lat="45.92942" lon="6.50902">
        <ele>1786.396</ele>
        <time>2026-03-13T13:24:02Z</time>
      </trkpt>
      <trkpt lat="45.92944" lon="6.50879">
        <ele>1774.647</ele>
        <time>2026-03-13T13:24:07Z</time>
      </trkpt>
      <trkpt lat="45.92943" lon="6.50865">
        <ele>1774.82</ele>
        <time>2026-03-13T13:24:12Z</time>
      </trkpt>
      <trkpt lat="45.92948" lon="6.50861">
        <ele>1771</ele>
        <time>2026-03-13T13:24:17Z</time>
      </trkpt>
      <trkpt lat="45.92949" lon="6.5086">
        <ele>1770.522</ele>
        <time>2026-03-13T13:24:22Z</time>
      </trkpt>
      <trkpt lat="45.92948" lon="6.50859">
        <ele>1771.684</ele>
        <time>2026-03-13T13:24:27Z</time>
      </trkpt>
      <trkpt lat="45.92943" lon="6.50851">
        <ele>1771.283</ele>
        <time>2026-03-13T13:24:32Z</time>
      </trkpt>
      <trkpt lat="45.9294" lon="6.50845">
        <ele>1770.484</ele>
        <time>2026-03-13T13:24:37Z</time>
      </trkpt>
      <trkpt lat="45.92928" lon="6.50831">
        <ele>1767.567</ele>
        <time>2026-03-13T13:24:42Z</time>
      </trkpt>
      <trkpt lat="45.92915" lon="6.50817">
        <ele>1765.135</ele>
        <time>2026-03-13T13:24:47Z</time>
      </trkpt>
      <trkpt lat="45.92907" lon="6.50802">
        <ele>1764.816</ele>
        <time>2026-03-13T13:24:52Z</time>
      </trkpt>
      <trkpt lat="45.92907" lon="6.50802">
        <ele>1764.669</ele>
        <time>2026-03-13T13:24:57Z</time>
      </trkpt>
      <trkpt lat="45.92908" lon="6.50801">
        <ele>1765.054</ele>
        <time>2026-03-13T13:25:02Z</time>
      </trkpt>
      <trkpt lat="45.9291" lon="6.50793">
        <ele>1762.062</ele>
        <time>2026-03-13T13:25:07Z</time>
      </trkpt>
      <trkpt lat="45.92917" lon="6.50793">
        <ele>1759.491</ele>
        <time>2026-03-13T13:25:12Z</time>
      </trkpt>
      <trkpt lat="45.92924" lon="6.50795">
        <ele>1755.089</ele>
        <time>2026-03-13T13:25:17Z</time>
      </trkpt>
      <trkpt lat="45.92924" lon="6.50795">
        <ele>1752.89</ele>
        <time>2026-03-13T13:25:22Z</time>
      </trkpt>
      <trkpt lat="45.92924" lon="6.50786">
        <ele>1748.789</ele>
        <time>2026-03-13T13:25:27Z</time>
      </trkpt>
      <trkpt lat="45.92926" lon="6.50771">
        <ele>1745.879</ele>
        <time>2026-03-13T13:25:32Z</time>
      </trkpt>
      <trkpt lat="45.92929" lon="6.50764">
        <ele>1740.99</ele>
        <time>2026-03-13T13:25:37Z</time>
      </trkpt>
      <trkpt lat="45.9293" lon="6.50763">
        <ele>1741.393</ele>
        <time>2026-03-13T13:25:42Z</time>
      </trkpt>
      <trkpt lat="45.92927" lon="6.50756">
        <ele>1739.437</ele>
        <time>2026-03-13T13:25:47Z</time>
      </trkpt>
      <trkpt lat="45.92931" lon="6.5075">
        <ele>1733.469</ele>
        <time>2026-03-13T13:25:52Z</time>
      </trkpt>
      <trkpt lat="45.92942" lon="6.50757">
        <ele>1730.287</ele>
        <time>2026-03-13T13:25:57Z</time>
      </trkpt>
      <trkpt lat="45.92942" lon="6.50757">
        <ele>1730.316</ele>
        <time>2026-03-13T13:26:02Z</time>
      </trkpt>
      <trkpt lat="45.92942" lon="6.50757">
        <ele>1730.657</ele>
        <time>2026-03-13T13:26:07Z</time>
      </trkpt>
      <trkpt lat="45.92942" lon="6.50757">
        <ele>1725.755</ele>
        <time>2026-03-13T13:26:12Z</time>
      </trkpt>
      <trkpt lat="45.92942" lon="6.50757">
        <ele>1722.696</ele>
        <time>2026-03-13T13:26:17Z</time>
      </trkpt>
      <trkpt lat="45.92949" lon="6.50752">
        <ele>1723.137</ele>
        <time>2026-03-13T13:26:22Z</time>
      </trkpt>
      <trkpt lat="45.92949" lon="6.50752">
        <ele>1723.046</ele>
        <time>2026-03-13T13:26:27Z</time>
      </trkpt>
      <trkpt lat="45.92949" lon="6.50752">
        <ele>1723.04</ele>
        <time>2026-03-13T13:26:32Z</time>
      </trkpt>
      <trkpt lat="45.92953" lon="6.50757">
        <ele>1720.628</ele>
        <time>2026-03-13T13:26:37Z</time>
      </trkpt>
      <trkpt lat="45.92967" lon="6.50755">
        <ele>1716.864</ele>
        <time>2026-03-13T13:26:42Z</time>
      </trkpt>
      <trkpt lat="45.92969" lon="6.50735">
        <ele>1710.248</ele>
        <time>2026-03-13T13:26:47Z</time>
      </trkpt>
      <trkpt lat="45.92978" lon="6.50738">
        <ele>1707.748</ele>
        <time>2026-03-13T13:26:52Z</time>
      </trkpt>
      <trkpt lat="45.92986" lon="6.5073">
        <ele>1701.606</ele>
        <time>2026-03-13T13:26:57Z</time>
      </trkpt>
      <trkpt lat="45.92993" lon="6.50735">
        <ele>1701.277</ele>
        <time>2026-03-13T13:27:02Z</time>
      </trkpt>
      <trkpt lat="45.93002" lon="6.5074">
        <ele>1698.624</ele>
        <time>2026-03-13T13:27:07Z</time>
      </trkpt>
      <trkpt lat="45.93014" lon="6.50721">
        <ele>1691.769</ele>
        <time>2026-03-13T13:27:12Z</time>
      </trkpt>
      <trkpt lat="45.93006" lon="6.50709">
        <ele>1691.45</ele>
        <time>2026-03-13T13:27:17Z</time>
      </trkpt>
      <trkpt lat="45.92998" lon="6.507">
        <ele>1690.434</ele>
        <time>2026-03-13T13:27:22Z</time>
      </trkpt>
      <trkpt lat="45.92988" lon="6.50688">
        <ele>1689.698</ele>
        <time>2026-03-13T13:27:27Z</time>
      </trkpt>
      <trkpt lat="45.92977" lon="6.50677">
        <ele>1688.454</ele>
        <time>2026-03-13T13:27:32Z</time>
      </trkpt>
      <trkpt lat="45.9296" lon="6.50655">
        <ele>1685.629</ele>
        <time>2026-03-13T13:27:37Z</time>
      </trkpt>
      <trkpt lat="45.92948" lon="6.50636">
        <ele>1683.647</ele>
        <time>2026-03-13T13:27:42Z</time>
      </trkpt>
      <trkpt lat="45.92946" lon="6.50634">
        <ele>1683.368</ele>
        <time>2026-03-13T13:27:47Z</time>
      </trkpt>
      <trkpt lat="45.92946" lon="6.50634">
        <ele>1683.731</ele>
        <time>2026-03-13T13:27:52Z</time>
      </trkpt>
      <trkpt lat="45.92946" lon="6.50634">
        <ele>1683.731</ele>
        <time>2026-03-13T13:27:57Z</time>
      </trkpt>
      <trkpt lat="45.92946" lon="6.50634">
        <ele>1683.749</ele>
        <time>2026-03-13T13:28:02Z</time>
      </trkpt>
      <trkpt lat="45.92946" lon="6.50634">
        <ele>1683.753</ele>
        <time>2026-03-13T13:28:07Z</time>
      </trkpt>
      <trkpt lat="45.92946" lon="6.50634">
        <ele>1683.755</ele>
        <time>2026-03-13T13:28:12Z</time>
      </trkpt>
      <trkpt lat="45.92946" lon="6.50634">
        <ele>1683.757</ele>
        <time>2026-03-13T13:28:17Z</time>
      </trkpt>
      <trkpt lat="45.92946" lon="6.50634">
        <ele>1683.761</ele>
        <time>2026-03-13T13:28:22Z</time>
      </trkpt>
      <trkpt lat="45.92946" lon="6.50634">
        <ele>1683.767</ele>
        <time>2026-03-13T13:28:27Z</time>
      </trkpt>
      <trkpt lat="45.92946" lon="6.50634">
        <ele>1683.771</ele>
        <time>2026-03-13T13:28:32Z</time>
      </trkpt>
      <trkpt lat="45.92946" lon="6.50634">
        <ele>1683.771</ele>
        <time>2026-03-13T13:28:37Z</time>
      </trkpt>
      <trkpt lat="45.92946" lon="6.50634">
        <ele>1683.773</ele>
        <time>2026-03-13T13:28:42Z</time>
      </trkpt>
      <trkpt lat="45.92946" lon="6.50634">
        <ele>1683.772</ele>
        <time>2026-03-13T13:28:47Z</time>
      </trkpt>
      <trkpt lat="45.92946" lon="6.50634">
        <ele>1683.775</ele>
        <time>2026-03-13T13:28:52Z</time>
      </trkpt>
      <trkpt lat="45.92946" lon="6.50634">
        <ele>1683.782</ele>
        <time>2026-03-13T13:28:57Z</time>
      </trkpt>
      <trkpt lat="45.92947" lon="6.50634">
        <ele>1683.783</ele>
        <time>2026-03-13T13:29:02Z</time>
      </trkpt>
      <trkpt lat="45.92947" lon="6.50634">
        <ele>1683.784</ele>
        <time>2026-03-13T13:29:07Z</time>
      </trkpt>
      <trkpt lat="45.92947" lon="6.50633">
        <ele>1684.032</ele>
        <time>2026-03-13T13:29:12Z</time>
      </trkpt>
      <trkpt lat="45.92947" lon="6.50632">
        <ele>1684.578</ele>
        <time>2026-03-13T13:29:17Z</time>
      </trkpt>
      <trkpt lat="45.92947" lon="6.50632">
        <ele>1684.617</ele>
        <time>2026-03-13T13:29:22Z</time>
      </trkpt>
      <trkpt lat="45.92947" lon="6.50632">
        <ele>1684.634</ele>
        <time>2026-03-13T13:29:27Z</time>
      </trkpt>
      <trkpt lat="45.92947" lon="6.50632">
        <ele>1684.636</ele>
        <time>2026-03-13T13:29:32Z</time>
      </trkpt>
      <trkpt lat="45.92947" lon="6.50632">
        <ele>1684.635</ele>
        <time>2026-03-13T13:29:37Z</time>
      </trkpt>
      <trkpt lat="45.92947" lon="6.50632">
        <ele>1684.645</ele>
        <time>2026-03-13T13:29:42Z</time>
      </trkpt>
      <trkpt lat="45.92947" lon="6.50632">
        <ele>1684.654</ele>
        <time>2026-03-13T13:29:47Z</time>
      </trkpt>
      <trkpt lat="45.92947" lon="6.50632">
        <ele>1684.659</ele>
        <time>2026-03-13T13:29:52Z</time>
      </trkpt>
      <trkpt lat="45.92946" lon="6.50632">
        <ele>1684.33</ele>
        <time>2026-03-13T13:29:57Z</time>
      </trkpt>
      <trkpt lat="45.92938" lon="6.50614">
        <ele>1680.402</ele>
        <time>2026-03-13T13:30:02Z</time>
      </trkpt>
      <trkpt lat="45.92934" lon="6.50598">
        <ele>1677.927</ele>
        <time>2026-03-13T13:30:07Z</time>
      </trkpt>
      <trkpt lat="45.92935" lon="6.50581">
        <ele>1676.814</ele>
        <time>2026-03-13T13:30:12Z</time>
      </trkpt>
      <trkpt lat="45.92933" lon="6.50558">
        <ele>1674.229</ele>
        <time>2026-03-13T13:30:17Z</time>
      </trkpt>
      <trkpt lat="45.92931" lon="6.50535">
        <ele>1674.151</ele>
        <time>2026-03-13T13:30:22Z</time>
      </trkpt>
      <trkpt lat="45.92929" lon="6.50533">
        <ele>1674.559</ele>
        <time>2026-03-13T13:30:27Z</time>
      </trkpt>
      <trkpt lat="45.92927" lon="6.50531">
        <ele>1675.294</ele>
        <time>2026-03-13T13:30:32Z</time>
      </trkpt>
      <trkpt lat="45.92925" lon="6.50525">
        <ele>1675.965</ele>
        <time>2026-03-13T13:30:37Z</time>
      </trkpt>
      <trkpt lat="45.92922" lon="6.50519">
        <ele>1675.203</ele>
        <time>2026-03-13T13:30:42Z</time>
      </trkpt>
      <trkpt lat="45.92915" lon="6.5051">
        <ele>1674.28</ele>
        <time>2026-03-13T13:30:47Z</time>
      </trkpt>
      <trkpt lat="45.92898" lon="6.5049">
        <ele>1671.978</ele>
        <time>2026-03-13T13:30:52Z</time>
      </trkpt>
      <trkpt lat="45.92886" lon="6.50485">
        <ele>1670.884</ele>
        <time>2026-03-13T13:30:57Z</time>
      </trkpt>
      <trkpt lat="45.92885" lon="6.50487">
        <ele>1670.675</ele>
        <time>2026-03-13T13:31:02Z</time>
      </trkpt>
      <trkpt lat="45.92885" lon="6.50487">
        <ele>1669.957</ele>
        <time>2026-03-13T13:31:07Z</time>
      </trkpt>
      <trkpt lat="45.92885" lon="6.50488">
        <ele>1669.156</ele>
        <time>2026-03-13T13:31:12Z</time>
      </trkpt>
      <trkpt lat="45.92885" lon="6.50488">
        <ele>1669.171</ele>
        <time>2026-03-13T13:31:17Z</time>
      </trkpt>
      <trkpt lat="45.92885" lon="6.50488">
        <ele>1669.174</ele>
        <time>2026-03-13T13:31:22Z</time>
      </trkpt>
      <trkpt lat="45.92885" lon="6.50488">
        <ele>1669.189</ele>
        <time>2026-03-13T13:31:27Z</time>
      </trkpt>
      <trkpt lat="45.92885" lon="6.50488">
        <ele>1669.194</ele>
        <time>2026-03-13T13:31:32Z</time>
      </trkpt>
      <trkpt lat="45.92885" lon="6.50488">
        <ele>1669.202</ele>
        <time>2026-03-13T13:31:37Z</time>
      </trkpt>
      <trkpt lat="45.92885" lon="6.50488">
        <ele>1669.207</ele>
        <time>2026-03-13T13:31:42Z</time>
      </trkpt>
      <trkpt lat="45.92885" lon="6.50488">
        <ele>1669.199</ele>
        <time>2026-03-13T13:31:47Z</time>
      </trkpt>
      <trkpt lat="45.92885" lon="6.50488">
        <ele>1669.212</ele>
        <time>2026-03-13T13:31:52Z</time>
      </trkpt>
      <trkpt lat="45.92885" lon="6.50488">
        <ele>1669.216</ele>
        <time>2026-03-13T13:31:57Z</time>
      </trkpt>
      <trkpt lat="45.92885" lon="6.50488">
        <ele>1669.219</ele>
        <time>2026-03-13T13:32:02Z</time>
      </trkpt>
      <trkpt lat="45.92885" lon="6.50488">
        <ele>1669.226</ele>
        <time>2026-03-13T13:32:07Z</time>
      </trkpt>
      <trkpt lat="45.92885" lon="6.50488">
        <ele>1669.228</ele>
        <time>2026-03-13T13:32:12Z</time>
      </trkpt>
      <trkpt lat="45.92885" lon="6.50488">
        <ele>1669.241</ele>
        <time>2026-03-13T13:32:17Z</time>
      </trkpt>
      <trkpt lat="45.92876" lon="6.50482">
        <ele>1665.845</ele>
        <time>2026-03-13T13:32:22Z</time>
      </trkpt>
      <trkpt lat="45.92879" lon="6.5046">
        <ele>1660.608</ele>
        <time>2026-03-13T13:32:27Z</time>
      </trkpt>
      <trkpt lat="45.92879" lon="6.50442">
        <ele>1654.239</ele>
        <time>2026-03-13T13:32:32Z</time>
      </trkpt>
      <trkpt lat="45.92874" lon="6.5043">
        <ele>1648.659</ele>
        <time>2026-03-13T13:32:37Z</time>
      </trkpt>
      <trkpt lat="45.92873" lon="6.50409">
        <ele>1644.937</ele>
        <time>2026-03-13T13:32:42Z</time>
      </trkpt>
      <trkpt lat="45.92873" lon="6.50409">
        <ele>1642.16</ele>
        <time>2026-03-13T13:32:47Z</time>
      </trkpt>
      <trkpt lat="45.92881" lon="6.50397">
        <ele>1639.134</ele>
        <time>2026-03-13T13:32:52Z</time>
      </trkpt>
      <trkpt lat="45.92887" lon="6.50392">
        <ele>1634.885</ele>
        <time>2026-03-13T13:32:57Z</time>
      </trkpt>
      <trkpt lat="45.92886" lon="6.50384">
        <ele>1632.206</ele>
        <time>2026-03-13T13:33:02Z</time>
      </trkpt>
      <trkpt lat="45.92888" lon="6.50375">
        <ele>1630.187</ele>
        <time>2026-03-13T13:33:07Z</time>
      </trkpt>
      <trkpt lat="45.92876" lon="6.50358">
        <ele>1627.134</ele>
        <time>2026-03-13T13:33:12Z</time>
      </trkpt>
      <trkpt lat="45.92869" lon="6.50338">
        <ele>1625.51</ele>
        <time>2026-03-13T13:33:17Z</time>
      </trkpt>
      <trkpt lat="45.92868" lon="6.50337">
        <ele>1625.674</ele>
        <time>2026-03-13T13:33:22Z</time>
      </trkpt>
      <trkpt lat="45.92868" lon="6.50337">
        <ele>1625.852</ele>
        <time>2026-03-13T13:33:27Z</time>
      </trkpt>
      <trkpt lat="45.92868" lon="6.50336">
        <ele>1626.178</ele>
        <time>2026-03-13T13:33:32Z</time>
      </trkpt>
      <trkpt lat="45.92866" lon="6.50328">
        <ele>1622.95</ele>
        <time>2026-03-13T13:33:37Z</time>
      </trkpt>
      <trkpt lat="45.92866" lon="6.50328">
        <ele>1622.085</ele>
        <time>2026-03-13T13:33:42Z</time>
      </trkpt>
      <trkpt lat="45.92863" lon="6.50326">
        <ele>1622.075</ele>
        <time>2026-03-13T13:33:47Z</time>
      </trkpt>
      <trkpt lat="45.92854" lon="6.50314">
        <ele>1617.525</ele>
        <time>2026-03-13T13:33:52Z</time>
      </trkpt>
      <trkpt lat="45.9284" lon="6.50294">
        <ele>1613.821</ele>
        <time>2026-03-13T13:33:57Z</time>
      </trkpt>
      <trkpt lat="45.92845" lon="6.50278">
        <ele>1607.539</ele>
        <time>2026-03-13T13:34:02Z</time>
      </trkpt>
      <trkpt lat="45.92836" lon="6.50268">
        <ele>1605.386</ele>
        <time>2026-03-13T13:34:07Z</time>
      </trkpt>
      <trkpt lat="45.92836" lon="6.50268">
        <ele>1605.627</ele>
        <time>2026-03-13T13:34:12Z</time>
      </trkpt>
      <trkpt lat="45.92836" lon="6.50268">
        <ele>1604.96</ele>
        <time>2026-03-13T13:34:17Z</time>
      </trkpt>
      <trkpt lat="45.92833" lon="6.50266">
        <ele>1603.261</ele>
        <time>2026-03-13T13:34:22Z</time>
      </trkpt>
      <trkpt lat="45.92826" lon="6.50245">
        <ele>1596.285</ele>
        <time>2026-03-13T13:34:27Z</time>
      </trkpt>
      <trkpt lat="45.9282" lon="6.50226">
        <ele>1591.491</ele>
        <time>2026-03-13T13:34:32Z</time>
      </trkpt>
      <trkpt lat="45.92819" lon="6.50226">
        <ele>1591.543</ele>
        <time>2026-03-13T13:34:37Z</time>
      </trkpt>
      <trkpt lat="45.92817" lon="6.50224">
        <ele>1591.584</ele>
        <time>2026-03-13T13:34:42Z</time>
      </trkpt>
      <trkpt lat="45.92814" lon="6.50224">
        <ele>1591.143</ele>
        <time>2026-03-13T13:34:47Z</time>
      </trkpt>
      <trkpt lat="45.92811" lon="6.50222">
        <ele>1591.208</ele>
        <time>2026-03-13T13:34:52Z</time>
      </trkpt>
      <trkpt lat="45.92805" lon="6.50217">
        <ele>1591.182</ele>
        <time>2026-03-13T13:34:57Z</time>
      </trkpt>
      <trkpt lat="45.92791" lon="6.50205">
        <ele>1588.797</ele>
        <time>2026-03-13T13:35:02Z</time>
      </trkpt>
      <trkpt lat="45.92773" lon="6.50188">
        <ele>1587.482</ele>
        <time>2026-03-13T13:35:07Z</time>
      </trkpt>
      <trkpt lat="45.92769" lon="6.50178">
        <ele>1583.89</ele>
        <time>2026-03-13T13:35:12Z</time>
      </trkpt>
      <trkpt lat="45.92757" lon="6.50162">
        <ele>1581.535</ele>
        <time>2026-03-13T13:35:17Z</time>
      </trkpt>
      <trkpt lat="45.92755" lon="6.50158">
        <ele>1582.128</ele>
        <time>2026-03-13T13:35:22Z</time>
      </trkpt>
      <trkpt lat="45.92751" lon="6.50153">
        <ele>1582.156</ele>
        <time>2026-03-13T13:35:27Z</time>
      </trkpt>
      <trkpt lat="45.9274" lon="6.50132">
        <ele>1578.876</ele>
        <time>2026-03-13T13:35:32Z</time>
      </trkpt>
      <trkpt lat="45.92734" lon="6.50121">
        <ele>1579.255</ele>
        <time>2026-03-13T13:35:37Z</time>
      </trkpt>
      <trkpt lat="45.92727" lon="6.50108">
        <ele>1577.879</ele>
        <time>2026-03-13T13:35:42Z</time>
      </trkpt>
      <trkpt lat="45.92717" lon="6.50103">
        <ele>1574.979</ele>
        <time>2026-03-13T13:35:47Z</time>
      </trkpt>
      <trkpt lat="45.92695" lon="6.50091">
        <ele>1570.592</ele>
        <time>2026-03-13T13:35:52Z</time>
      </trkpt>
      <trkpt lat="45.92692" lon="6.50082">
        <ele>1569.007</ele>
        <time>2026-03-13T13:35:57Z</time>
      </trkpt>
      <trkpt lat="45.92692" lon="6.50079">
        <ele>1567.66</ele>
        <time>2026-03-13T13:36:02Z</time>
      </trkpt>
      <trkpt lat="45.92692" lon="6.50079">
        <ele>1568.049</ele>
        <time>2026-03-13T13:36:07Z</time>
      </trkpt>
      <trkpt lat="45.92692" lon="6.50079">
        <ele>1568.634</ele>
        <time>2026-03-13T13:36:12Z</time>
      </trkpt>
      <trkpt lat="45.92692" lon="6.50079">
        <ele>1568.675</ele>
        <time>2026-03-13T13:36:17Z</time>
      </trkpt>
      <trkpt lat="45.92692" lon="6.50079">
        <ele>1568.691</ele>
        <time>2026-03-13T13:36:22Z</time>
      </trkpt>
      <trkpt lat="45.92692" lon="6.50079">
        <ele>1568.69</ele>
        <time>2026-03-13T13:36:27Z</time>
      </trkpt>
      <trkpt lat="45.92693" lon="6.50064">
        <ele>1564.877</ele>
        <time>2026-03-13T13:36:32Z</time>
      </trkpt>
      <trkpt lat="45.92695" lon="6.50058">
        <ele>1562.994</ele>
        <time>2026-03-13T13:36:37Z</time>
      </trkpt>
      <trkpt lat="45.92695" lon="6.50058">
        <ele>1562.745</ele>
        <time>2026-03-13T13:36:42Z</time>
      </trkpt>
      <trkpt lat="45.92693" lon="6.50055">
        <ele>1562.265</ele>
        <time>2026-03-13T13:36:47Z</time>
      </trkpt>
      <trkpt lat="45.92678" lon="6.50032">
        <ele>1558.664</ele>
        <time>2026-03-13T13:36:52Z</time>
      </trkpt>
      <trkpt lat="45.92673" lon="6.50015">
        <ele>1558.536</ele>
        <time>2026-03-13T13:36:57Z</time>
      </trkpt>
      <trkpt lat="45.92671" lon="6.50005">
        <ele>1557.653</ele>
        <time>2026-03-13T13:37:02Z</time>
      </trkpt>
      <trkpt lat="45.92671" lon="6.49993">
        <ele>1557.625</ele>
        <time>2026-03-13T13:37:07Z</time>
      </trkpt>
      <trkpt lat="45.92672" lon="6.49992">
        <ele>1557.644</ele>
        <time>2026-03-13T13:37:12Z</time>
      </trkpt>
      <trkpt lat="45.92672" lon="6.49991">
        <ele>1557.668</ele>
        <time>2026-03-13T13:37:17Z</time>
      </trkpt>
      <trkpt lat="45.92672" lon="6.49991">
        <ele>1557.234</ele>
        <time>2026-03-13T13:37:22Z</time>
      </trkpt>
      <trkpt lat="45.92671" lon="6.49991">
        <ele>1557.401</ele>
        <time>2026-03-13T13:37:27Z</time>
      </trkpt>
      <trkpt lat="45.92672" lon="6.49992">
        <ele>1557.625</ele>
        <time>2026-03-13T13:37:32Z</time>
      </trkpt>
      <trkpt lat="45.92672" lon="6.49992">
        <ele>1557.519</ele>
        <time>2026-03-13T13:37:37Z</time>
      </trkpt>
      <trkpt lat="45.92672" lon="6.49992">
        <ele>1557.521</ele>
        <time>2026-03-13T13:37:42Z</time>
      </trkpt>
      <trkpt lat="45.92672" lon="6.49992">
        <ele>1557.52</ele>
        <time>2026-03-13T13:37:47Z</time>
      </trkpt>
      <trkpt lat="45.92672" lon="6.49991">
        <ele>1557.529</ele>
        <time>2026-03-13T13:37:52Z</time>
      </trkpt>
      <trkpt lat="45.92672" lon="6.49991">
        <ele>1557.53</ele>
        <time>2026-03-13T13:37:57Z</time>
      </trkpt>
      <trkpt lat="45.92673" lon="6.49982">
        <ele>1555.066</ele>
        <time>2026-03-13T13:38:02Z</time>
      </trkpt>
      <trkpt lat="45.92678" lon="6.49974">
        <ele>1550.286</ele>
        <time>2026-03-13T13:38:07Z</time>
      </trkpt>
      <trkpt lat="45.92681" lon="6.49971">
        <ele>1547.456</ele>
        <time>2026-03-13T13:38:12Z</time>
      </trkpt>
      <trkpt lat="45.92681" lon="6.49971">
        <ele>1546.836</ele>
        <time>2026-03-13T13:38:17Z</time>
      </trkpt>
      <trkpt lat="45.92681" lon="6.49971">
        <ele>1543.051</ele>
        <time>2026-03-13T13:38:22Z</time>
      </trkpt>
      <trkpt lat="45.92681" lon="6.49971">
        <ele>1538.835</ele>
        <time>2026-03-13T13:38:27Z</time>
      </trkpt>
      <trkpt lat="45.92692" lon="6.49967">
        <ele>1537.66</ele>
        <time>2026-03-13T13:38:32Z</time>
      </trkpt>
      <trkpt lat="45.92695" lon="6.49953">
        <ele>1533.924</ele>
        <time>2026-03-13T13:38:37Z</time>
      </trkpt>
      <trkpt lat="45.92691" lon="6.49935">
        <ele>1533.306</ele>
        <time>2026-03-13T13:38:42Z</time>
      </trkpt>
      <trkpt lat="45.92698" lon="6.49925">
        <ele>1531.186</ele>
        <time>2026-03-13T13:38:47Z</time>
      </trkpt>
      <trkpt lat="45.92706" lon="6.49921">
        <ele>1528.77</ele>
        <time>2026-03-13T13:38:52Z</time>
      </trkpt>
      <trkpt lat="45.92706" lon="6.49921">
        <ele>1528.546</ele>
        <time>2026-03-13T13:38:57Z</time>
      </trkpt>
      <trkpt lat="45.92704" lon="6.49919">
        <ele>1528.191</ele>
        <time>2026-03-13T13:39:02Z</time>
      </trkpt>
      <trkpt lat="45.92703" lon="6.49906">
        <ele>1527.223</ele>
        <time>2026-03-13T13:39:07Z</time>
      </trkpt>
      <trkpt lat="45.92699" lon="6.49894">
        <ele>1525.999</ele>
        <time>2026-03-13T13:39:12Z</time>
      </trkpt>
      <trkpt lat="45.9269" lon="6.49876">
        <ele>1523.574</ele>
        <time>2026-03-13T13:39:17Z</time>
      </trkpt>
      <trkpt lat="45.9269" lon="6.49876">
        <ele>1520.075</ele>
        <time>2026-03-13T13:39:22Z</time>
      </trkpt>
      <trkpt lat="45.92696" lon="6.49874">
        <ele>1519.987</ele>
        <time>2026-03-13T13:39:27Z</time>
      </trkpt>
      <trkpt lat="45.92698" lon="6.49876">
        <ele>1518.942</ele>
        <time>2026-03-13T13:39:32Z</time>
      </trkpt>
      <trkpt lat="45.92709" lon="6.49884">
        <ele>1517.329</ele>
        <time>2026-03-13T13:39:37Z</time>
      </trkpt>
      <trkpt lat="45.92719" lon="6.49883">
        <ele>1513.726</ele>
        <time>2026-03-13T13:39:42Z</time>
      </trkpt>
      <trkpt lat="45.9273" lon="6.4988">
        <ele>1511.091</ele>
        <time>2026-03-13T13:39:47Z</time>
      </trkpt>
      <trkpt lat="45.92734" lon="6.49878">
        <ele>1505.514</ele>
        <time>2026-03-13T13:39:52Z</time>
      </trkpt>
      <trkpt lat="45.92735" lon="6.49878">
        <ele>1504.567</ele>
        <time>2026-03-13T13:39:57Z</time>
      </trkpt>
      <trkpt lat="45.92744" lon="6.49886">
        <ele>1502.944</ele>
        <time>2026-03-13T13:40:02Z</time>
      </trkpt>
      <trkpt lat="45.9275" lon="6.49892">
        <ele>1501.659</ele>
        <time>2026-03-13T13:40:07Z</time>
      </trkpt>
      <trkpt lat="45.9276" lon="6.49903">
        <ele>1500.557</ele>
        <time>2026-03-13T13:40:12Z</time>
      </trkpt>
      <trkpt lat="45.92761" lon="6.49902">
        <ele>1500.484</ele>
        <time>2026-03-13T13:40:17Z</time>
      </trkpt>
      <trkpt lat="45.92761" lon="6.49902">
        <ele>1500.381</ele>
        <time>2026-03-13T13:40:22Z</time>
      </trkpt>
      <trkpt lat="45.92761" lon="6.49902">
        <ele>1500.404</ele>
        <time>2026-03-13T13:40:27Z</time>
      </trkpt>
      <trkpt lat="45.92761" lon="6.49902">
        <ele>1499.743</ele>
        <time>2026-03-13T13:40:32Z</time>
      </trkpt>
      <trkpt lat="45.92761" lon="6.49902">
        <ele>1500.678</ele>
        <time>2026-03-13T13:40:37Z</time>
      </trkpt>
      <trkpt lat="45.92773" lon="6.4991">
        <ele>1499.249</ele>
        <time>2026-03-13T13:40:42Z</time>
      </trkpt>
      <trkpt lat="45.92773" lon="6.4991">
        <ele>1499.775</ele>
        <time>2026-03-13T13:40:47Z</time>
      </trkpt>
      <trkpt lat="45.9279" lon="6.49905">
        <ele>1493.576</ele>
        <time>2026-03-13T13:40:52Z</time>
      </trkpt>
      <trkpt lat="45.928" lon="6.49874">
        <ele>1488.706</ele>
        <time>2026-03-13T13:40:57Z</time>
      </trkpt>
      <trkpt lat="45.92811" lon="6.49844">
        <ele>1481.244</ele>
        <time>2026-03-13T13:41:02Z</time>
      </trkpt>
      <trkpt lat="45.9283" lon="6.49819">
        <ele>1474.282</ele>
        <time>2026-03-13T13:41:07Z</time>
      </trkpt>
      <trkpt lat="45.92843" lon="6.49785">
        <ele>1466.58</ele>
        <time>2026-03-13T13:41:12Z</time>
      </trkpt>
      <trkpt lat="45.92849" lon="6.49754">
        <ele>1462.537</ele>
        <time>2026-03-13T13:41:17Z</time>
      </trkpt>
      <trkpt lat="45.92855" lon="6.49709">
        <ele>1458.759</ele>
        <time>2026-03-13T13:41:22Z</time>
      </trkpt>
      <trkpt lat="45.92864" lon="6.49674">
        <ele>1460.059</ele>
        <time>2026-03-13T13:41:27Z</time>
      </trkpt>
      <trkpt lat="45.92865" lon="6.49667">
        <ele>1461.194</ele>
        <time>2026-03-13T13:41:32Z</time>
      </trkpt>
      <trkpt lat="45.92866" lon="6.49664">
        <ele>1460.583</ele>
        <time>2026-03-13T13:41:37Z</time>
      </trkpt>
      <trkpt lat="45.92867" lon="6.49662">
        <ele>1460.906</ele>
        <time>2026-03-13T13:41:42Z</time>
      </trkpt>
      <trkpt lat="45.92868" lon="6.49661">
        <ele>1460.099</ele>
        <time>2026-03-13T13:41:47Z</time>
      </trkpt>
      <trkpt lat="45.92869" lon="6.49661">
        <ele>1460.308</ele>
        <time>2026-03-13T13:41:52Z</time>
      </trkpt>
      <trkpt lat="45.92869" lon="6.49661">
        <ele>1460.05</ele>
        <time>2026-03-13T13:41:57Z</time>
      </trkpt>
      <trkpt lat="45.92869" lon="6.49661">
        <ele>1460.163</ele>
        <time>2026-03-13T13:42:02Z</time>
      </trkpt>
      <trkpt lat="45.92869" lon="6.49661">
        <ele>1460.153</ele>
        <time>2026-03-13T13:42:07Z</time>
      </trkpt>
      <trkpt lat="45.92869" lon="6.49661">
        <ele>1460.14</ele>
        <time>2026-03-13T13:42:12Z</time>
      </trkpt>
      <trkpt lat="45.92869" lon="6.49661">
        <ele>1460.143</ele>
        <time>2026-03-13T13:42:17Z</time>
      </trkpt>
      <trkpt lat="45.92869" lon="6.49661">
        <ele>1460.126</ele>
        <time>2026-03-13T13:42:22Z</time>
      </trkpt>
      <trkpt lat="45.92869" lon="6.49661">
        <ele>1460.75</ele>
        <time>2026-03-13T13:42:27Z</time>
      </trkpt>
      <trkpt lat="45.92869" lon="6.49661">
        <ele>1460.521</ele>
        <time>2026-03-13T13:42:32Z</time>
      </trkpt>
      <trkpt lat="45.92869" lon="6.49661">
        <ele>1460.29</ele>
        <time>2026-03-13T13:42:37Z</time>
      </trkpt>
      <trkpt lat="45.92869" lon="6.49661">
        <ele>1460.171</ele>
        <time>2026-03-13T13:42:42Z</time>
      </trkpt>
      <trkpt lat="45.92869" lon="6.49661">
        <ele>1460.24</ele>
        <time>2026-03-13T13:42:47Z</time>
      </trkpt>
      <trkpt lat="45.92869" lon="6.49661">
        <ele>1460.235</ele>
        <time>2026-03-13T13:42:52Z</time>
      </trkpt>
      <trkpt lat="45.92869" lon="6.49661">
        <ele>1460.239</ele>
        <time>2026-03-13T13:42:57Z</time>
      </trkpt>
      <trkpt lat="45.92869" lon="6.49661">
        <ele>1460.245</ele>
        <time>2026-03-13T13:43:02Z</time>
      </trkpt>
      <trkpt lat="45.92869" lon="6.49661">
        <ele>1460.245</ele>
        <time>2026-03-13T13:43:07Z</time>
      </trkpt>
      <trkpt lat="45.92869" lon="6.49661">
        <ele>1461.761</ele>
        <time>2026-03-13T13:43:12Z</time>
      </trkpt>
      <trkpt lat="45.92869" lon="6.49661">
        <ele>1461.905</ele>
        <time>2026-03-13T13:43:17Z</time>
      </trkpt>
      <trkpt lat="45.92869" lon="6.49661">
        <ele>1461.708</ele>
        <time>2026-03-13T13:43:22Z</time>
      </trkpt>
      <trkpt lat="45.92869" lon="6.49661">
        <ele>1461.724</ele>
        <time>2026-03-13T13:43:27Z</time>
      </trkpt>
      <trkpt lat="45.92869" lon="6.49661">
        <ele>1461.716</ele>
        <time>2026-03-13T13:43:32Z</time>
      </trkpt>
      <trkpt lat="45.92869" lon="6.49661">
        <ele>1461.721</ele>
        <time>2026-03-13T13:43:37Z</time>
      </trkpt>
      <trkpt lat="45.92869" lon="6.49661">
        <ele>1461.768</ele>
        <time>2026-03-13T13:43:42Z</time>
      </trkpt>
      <trkpt lat="45.92869" lon="6.49661">
        <ele>1461.464</ele>
        <time>2026-03-13T13:43:47Z</time>
      </trkpt>
      <trkpt lat="45.92869" lon="6.49661">
        <ele>1461.796</ele>
        <time>2026-03-13T13:43:52Z</time>
      </trkpt>
      <trkpt lat="45.92866" lon="6.49651">
        <ele>1461.872</ele>
        <time>2026-03-13T13:43:57Z</time>
      </trkpt>
      <trkpt lat="45.92866" lon="6.4965">
        <ele>1460.44</ele>
        <time>2026-03-13T13:44:02Z</time>
      </trkpt>
      <trkpt lat="45.92867" lon="6.49647">
        <ele>1460.791</ele>
        <time>2026-03-13T13:44:07Z</time>
      </trkpt>
      <trkpt lat="45.92867" lon="6.49646">
        <ele>1461.337</ele>
        <time>2026-03-13T13:44:12Z</time>
      </trkpt>
      <trkpt lat="45.92868" lon="6.49646">
        <ele>1462.267</ele>
        <time>2026-03-13T13:44:17Z</time>
      </trkpt>
      <trkpt lat="45.92868" lon="6.49645">
        <ele>1460.487</ele>
        <time>2026-03-13T13:44:22Z</time>
      </trkpt>
      <trkpt lat="45.92868" lon="6.49644">
        <ele>1460.945</ele>
        <time>2026-03-13T13:44:27Z</time>
      </trkpt>
      <trkpt lat="45.92867" lon="6.4964">
        <ele>1462.042</ele>
        <time>2026-03-13T13:44:32Z</time>
      </trkpt>
      <trkpt lat="45.92866" lon="6.49637">
        <ele>1462.912</ele>
        <time>2026-03-13T13:44:37Z</time>
      </trkpt>
      <trkpt lat="45.92865" lon="6.49632">
        <ele>1463.545</ele>
        <time>2026-03-13T13:44:42Z</time>
      </trkpt>
      <trkpt lat="45.92865" lon="6.49628">
        <ele>1463.75</ele>
        <time>2026-03-13T13:44:47Z</time>
      </trkpt>
      <trkpt lat="45.92864" lon="6.49625">
        <ele>1465.401</ele>
        <time>2026-03-13T13:44:52Z</time>
      </trkpt>
      <trkpt lat="45.92862" lon="6.4962">
        <ele>1465.77</ele>
        <time>2026-03-13T13:44:57Z</time>
      </trkpt>
      <trkpt lat="45.92862" lon="6.49615">
        <ele>1466.188</ele>
        <time>2026-03-13T13:45:02Z</time>
      </trkpt>
      <trkpt lat="45.92861" lon="6.49612">
        <ele>1467.313</ele>
        <time>2026-03-13T13:45:07Z</time>
      </trkpt>
      <trkpt lat="45.9286" lon="6.49609">
        <ele>1467.517</ele>
        <time>2026-03-13T13:45:12Z</time>
      </trkpt>
      <trkpt lat="45.92859" lon="6.49607">
        <ele>1467.993</ele>
        <time>2026-03-13T13:45:17Z</time>
      </trkpt>
      <trkpt lat="45.92858" lon="6.49603">
        <ele>1468.915</ele>
        <time>2026-03-13T13:45:22Z</time>
      </trkpt>
      <trkpt lat="45.92857" lon="6.49599">
        <ele>1469.321</ele>
        <time>2026-03-13T13:45:27Z</time>
      </trkpt>
      <trkpt lat="45.92857" lon="6.49596">
        <ele>1470.038</ele>
        <time>2026-03-13T13:45:32Z</time>
      </trkpt>
      <trkpt lat="45.92858" lon="6.49592">
        <ele>1470.243</ele>
        <time>2026-03-13T13:45:37Z</time>
      </trkpt>
      <trkpt lat="45.92859" lon="6.49588">
        <ele>1470.024</ele>
        <time>2026-03-13T13:45:42Z</time>
      </trkpt>
      <trkpt lat="45.9286" lon="6.49584">
        <ele>1470.079</ele>
        <time>2026-03-13T13:45:47Z</time>
      </trkpt>
      <trkpt lat="45.92861" lon="6.4958">
        <ele>1471.741</ele>
        <time>2026-03-13T13:45:52Z</time>
      </trkpt>
      <trkpt lat="45.92861" lon="6.49575">
        <ele>1472.34</ele>
        <time>2026-03-13T13:45:57Z</time>
      </trkpt>
      <trkpt lat="45.92861" lon="6.49572">
        <ele>1472.618</ele>
        <time>2026-03-13T13:46:02Z</time>
      </trkpt>
      <trkpt lat="45.92861" lon="6.49568">
        <ele>1473.02</ele>
        <time>2026-03-13T13:46:07Z</time>
      </trkpt>
      <trkpt lat="45.92861" lon="6.49564">
        <ele>1474.059</ele>
        <time>2026-03-13T13:46:12Z</time>
      </trkpt>
      <trkpt lat="45.92861" lon="6.49559">
        <ele>1475.217</ele>
        <time>2026-03-13T13:46:17Z</time>
      </trkpt>
      <trkpt lat="45.92862" lon="6.49554">
        <ele>1475.696</ele>
        <time>2026-03-13T13:46:22Z</time>
      </trkpt>
      <trkpt lat="45.9286" lon="6.4955">
        <ele>1475.409</ele>
        <time>2026-03-13T13:46:27Z</time>
      </trkpt>
      <trkpt lat="45.92858" lon="6.49546">
        <ele>1475.033</ele>
        <time>2026-03-13T13:46:32Z</time>
      </trkpt>
      <trkpt lat="45.92855" lon="6.49542">
        <ele>1475.134</ele>
        <time>2026-03-13T13:46:37Z</time>
      </trkpt>
      <trkpt lat="45.92853" lon="6.49539">
        <ele>1475.604</ele>
        <time>2026-03-13T13:46:42Z</time>
      </trkpt>
      <trkpt lat="45.92851" lon="6.49535">
        <ele>1476.589</ele>
        <time>2026-03-13T13:46:47Z</time>
      </trkpt>
      <trkpt lat="45.92849" lon="6.49532">
        <ele>1477.06</ele>
        <time>2026-03-13T13:46:52Z</time>
      </trkpt>
      <trkpt lat="45.92847" lon="6.49528">
        <ele>1478.142</ele>
        <time>2026-03-13T13:46:57Z</time>
      </trkpt>
      <trkpt lat="45.92845" lon="6.49526">
        <ele>1479.323</ele>
        <time>2026-03-13T13:47:02Z</time>
      </trkpt>
      <trkpt lat="45.92842" lon="6.49523">
        <ele>1480.106</ele>
        <time>2026-03-13T13:47:07Z</time>
      </trkpt>
      <trkpt lat="45.92839" lon="6.4952">
        <ele>1481.18</ele>
        <time>2026-03-13T13:47:12Z</time>
      </trkpt>
      <trkpt lat="45.92837" lon="6.49517">
        <ele>1480.77</ele>
        <time>2026-03-13T13:47:17Z</time>
      </trkpt>
      <trkpt lat="45.92834" lon="6.49514">
        <ele>1481.221</ele>
        <time>2026-03-13T13:47:22Z</time>
      </trkpt>
      <trkpt lat="45.9283" lon="6.49511">
        <ele>1482.075</ele>
        <time>2026-03-13T13:47:27Z</time>
      </trkpt>
      <trkpt lat="45.92826" lon="6.49509">
        <ele>1482.522</ele>
        <time>2026-03-13T13:47:32Z</time>
      </trkpt>
      <trkpt lat="45.92822" lon="6.49507">
        <ele>1482.78</ele>
        <time>2026-03-13T13:47:37Z</time>
      </trkpt>
      <trkpt lat="45.92819" lon="6.49506">
        <ele>1483.243</ele>
        <time>2026-03-13T13:47:42Z</time>
      </trkpt>
      <trkpt lat="45.92815" lon="6.49505">
        <ele>1483.339</ele>
        <time>2026-03-13T13:47:47Z</time>
      </trkpt>
      <trkpt lat="45.92812" lon="6.49504">
        <ele>1484.198</ele>
        <time>2026-03-13T13:47:52Z</time>
      </trkpt>
      <trkpt lat="45.9281" lon="6.49502">
        <ele>1484.621</ele>
        <time>2026-03-13T13:47:57Z</time>
      </trkpt>
      <trkpt lat="45.92805" lon="6.495">
        <ele>1485.477</ele>
        <time>2026-03-13T13:48:02Z</time>
      </trkpt>
      <trkpt lat="45.92801" lon="6.49497">
        <ele>1485.407</ele>
        <time>2026-03-13T13:48:07Z</time>
      </trkpt>
      <trkpt lat="45.92798" lon="6.49496">
        <ele>1486.673</ele>
        <time>2026-03-13T13:48:12Z</time>
      </trkpt>
      <trkpt lat="45.92795" lon="6.49495">
        <ele>1486.806</ele>
        <time>2026-03-13T13:48:17Z</time>
      </trkpt>
      <trkpt lat="45.92791" lon="6.49494">
        <ele>1486.763</ele>
        <time>2026-03-13T13:48:22Z</time>
      </trkpt>
      <trkpt lat="45.92788" lon="6.49492">
        <ele>1487.594</ele>
        <time>2026-03-13T13:48:27Z</time>
      </trkpt>
      <trkpt lat="45.92786" lon="6.4949">
        <ele>1488.4</ele>
        <time>2026-03-13T13:48:32Z</time>
      </trkpt>
      <trkpt lat="45.92783" lon="6.49489">
        <ele>1488.714</ele>
        <time>2026-03-13T13:48:37Z</time>
      </trkpt>
      <trkpt lat="45.92781" lon="6.49486">
        <ele>1489.05</ele>
        <time>2026-03-13T13:48:42Z</time>
      </trkpt>
      <trkpt lat="45.92779" lon="6.49484">
        <ele>1489.713</ele>
        <time>2026-03-13T13:48:47Z</time>
      </trkpt>
      <trkpt lat="45.92776" lon="6.49481">
        <ele>1490.8</ele>
        <time>2026-03-13T13:48:52Z</time>
      </trkpt>
      <trkpt lat="45.92773" lon="6.49478">
        <ele>1490.978</ele>
        <time>2026-03-13T13:48:57Z</time>
      </trkpt>
      <trkpt lat="45.9277" lon="6.49474">
        <ele>1491.498</ele>
        <time>2026-03-13T13:49:02Z</time>
      </trkpt>
      <trkpt lat="45.92766" lon="6.49471">
        <ele>1492.049</ele>
        <time>2026-03-13T13:49:07Z</time>
      </trkpt>
      <trkpt lat="45.92764" lon="6.49466">
        <ele>1492.769</ele>
        <time>2026-03-13T13:49:12Z</time>
      </trkpt>
      <trkpt lat="45.92761" lon="6.49463">
        <ele>1492.553</ele>
        <time>2026-03-13T13:49:17Z</time>
      </trkpt>
      <trkpt lat="45.92758" lon="6.49459">
        <ele>1492.825</ele>
        <time>2026-03-13T13:49:22Z</time>
      </trkpt>
      <trkpt lat="45.92756" lon="6.49455">
        <ele>1493.133</ele>
        <time>2026-03-13T13:49:27Z</time>
      </trkpt>
      <trkpt lat="45.92753" lon="6.49449">
        <ele>1493.352</ele>
        <time>2026-03-13T13:49:32Z</time>
      </trkpt>
      <trkpt lat="45.92752" lon="6.49447">
        <ele>1493.303</ele>
        <time>2026-03-13T13:49:37Z</time>
      </trkpt>
      <trkpt lat="45.92752" lon="6.49447">
        <ele>1493.274</ele>
        <time>2026-03-13T13:49:42Z</time>
      </trkpt>
      <trkpt lat="45.92752" lon="6.49446">
        <ele>1493.642</ele>
        <time>2026-03-13T13:49:47Z</time>
      </trkpt>
      <trkpt lat="45.92752" lon="6.49446">
        <ele>1493.657</ele>
        <time>2026-03-13T13:49:52Z</time>
      </trkpt>
      <trkpt lat="45.92752" lon="6.49446">
        <ele>1494.035</ele>
        <time>2026-03-13T13:49:57Z</time>
      </trkpt>
      <trkpt lat="45.92752" lon="6.49446">
        <ele>1494.032</ele>
        <time>2026-03-13T13:50:02Z</time>
      </trkpt>
      <trkpt lat="45.92752" lon="6.49446">
        <ele>1494.023</ele>
        <time>2026-03-13T13:50:07Z</time>
      </trkpt>
      <trkpt lat="45.92752" lon="6.49446">
        <ele>1494.027</ele>
        <time>2026-03-13T13:50:12Z</time>
      </trkpt>
      <trkpt lat="45.92752" lon="6.49446">
        <ele>1494.031</ele>
        <time>2026-03-13T13:50:17Z</time>
      </trkpt>
      <trkpt lat="45.92752" lon="6.49446">
        <ele>1494.03</ele>
        <time>2026-03-13T13:50:22Z</time>
      </trkpt>
      <trkpt lat="45.92752" lon="6.49446">
        <ele>1494.034</ele>
        <time>2026-03-13T13:50:27Z</time>
      </trkpt>
      <trkpt lat="45.92752" lon="6.49446">
        <ele>1493.917</ele>
        <time>2026-03-13T13:50:32Z</time>
      </trkpt>
      <trkpt lat="45.92752" lon="6.49446">
        <ele>1493.938</ele>
        <time>2026-03-13T13:50:37Z</time>
      </trkpt>
      <trkpt lat="45.92752" lon="6.49446">
        <ele>1493.936</ele>
        <time>2026-03-13T13:50:42Z</time>
      </trkpt>
      <trkpt lat="45.92752" lon="6.49446">
        <ele>1493.939</ele>
        <time>2026-03-13T13:50:47Z</time>
      </trkpt>
      <trkpt lat="45.92752" lon="6.49446">
        <ele>1493.942</ele>
        <time>2026-03-13T13:50:52Z</time>
      </trkpt>
      <trkpt lat="45.92752" lon="6.49446">
        <ele>1493.858</ele>
        <time>2026-03-13T13:50:57Z</time>
      </trkpt>
      <trkpt lat="45.92752" lon="6.49446">
        <ele>1493.854</ele>
        <time>2026-03-13T13:51:02Z</time>
      </trkpt>
      <trkpt lat="45.92752" lon="6.49446">
        <ele>1493.847</ele>
        <time>2026-03-13T13:51:07Z</time>
      </trkpt>
      <trkpt lat="45.92752" lon="6.49446">
        <ele>1493.846</ele>
        <time>2026-03-13T13:51:12Z</time>
      </trkpt>
      <trkpt lat="45.92752" lon="6.49446">
        <ele>1493.847</ele>
        <time>2026-03-13T13:51:17Z</time>
      </trkpt>
      <trkpt lat="45.92752" lon="6.49446">
        <ele>1493.849</ele>
        <time>2026-03-13T13:51:22Z</time>
      </trkpt>
      <trkpt lat="45.92752" lon="6.49446">
        <ele>1493.846</ele>
        <time>2026-03-13T13:51:27Z</time>
      </trkpt>
      <trkpt lat="45.92752" lon="6.49446">
        <ele>1493.85</ele>
        <time>2026-03-13T13:51:32Z</time>
      </trkpt>
      <trkpt lat="45.92752" lon="6.49446">
        <ele>1493.853</ele>
        <time>2026-03-13T13:51:37Z</time>
      </trkpt>
      <trkpt lat="45.92752" lon="6.49446">
        <ele>1493.856</ele>
        <time>2026-03-13T13:51:42Z</time>
      </trkpt>
      <trkpt lat="45.92752" lon="6.49446">
        <ele>1493.442</ele>
        <time>2026-03-13T13:51:47Z</time>
      </trkpt>
      <trkpt lat="45.92752" lon="6.49446">
        <ele>1493.459</ele>
        <time>2026-03-13T13:51:52Z</time>
      </trkpt>
      <trkpt lat="45.92752" lon="6.49446">
        <ele>1493.468</ele>
        <time>2026-03-13T13:51:57Z</time>
      </trkpt>
      <trkpt lat="45.92752" lon="6.49446">
        <ele>1493.475</ele>
        <time>2026-03-13T13:52:02Z</time>
      </trkpt>
      <trkpt lat="45.92752" lon="6.49446">
        <ele>1493.481</ele>
        <time>2026-03-13T13:52:07Z</time>
      </trkpt>
      <trkpt lat="45.92752" lon="6.49446">
        <ele>1493.486</ele>
        <time>2026-03-13T13:52:12Z</time>
      </trkpt>
      <trkpt lat="45.92752" lon="6.49446">
        <ele>1493.486</ele>
        <time>2026-03-13T13:52:17Z</time>
      </trkpt>
      <trkpt lat="45.92752" lon="6.49446">
        <ele>1493.776</ele>
        <time>2026-03-13T13:52:22Z</time>
      </trkpt>
      <trkpt lat="45.92752" lon="6.49446">
        <ele>1493.754</ele>
        <time>2026-03-13T13:52:27Z</time>
      </trkpt>
      <trkpt lat="45.92752" lon="6.49446">
        <ele>1493.759</ele>
        <time>2026-03-13T13:52:32Z</time>
      </trkpt>
      <trkpt lat="45.92752" lon="6.49446">
        <ele>1493.74</ele>
        <time>2026-03-13T13:52:37Z</time>
      </trkpt>
      <trkpt lat="45.92752" lon="6.49446">
        <ele>1497.496</ele>
        <time>2026-03-13T13:52:42Z</time>
      </trkpt>
      <trkpt lat="45.92752" lon="6.49446">
        <ele>1496.821</ele>
        <time>2026-03-13T13:52:47Z</time>
      </trkpt>
      <trkpt lat="45.92752" lon="6.49446">
        <ele>1496.583</ele>
        <time>2026-03-13T13:52:52Z</time>
      </trkpt>
      <trkpt lat="45.92752" lon="6.49446">
        <ele>1495.605</ele>
        <time>2026-03-13T13:52:57Z</time>
      </trkpt>
      <trkpt lat="45.92752" lon="6.49446">
        <ele>1495.61</ele>
        <time>2026-03-13T13:53:02Z</time>
      </trkpt>
      <trkpt lat="45.92752" lon="6.49446">
        <ele>1495.646</ele>
        <time>2026-03-13T13:53:07Z</time>
      </trkpt>
      <trkpt lat="45.92752" lon="6.49446">
        <ele>1495.631</ele>
        <time>2026-03-13T13:53:12Z</time>
      </trkpt>
      <trkpt lat="45.92752" lon="6.49446">
        <ele>1495.614</ele>
        <time>2026-03-13T13:53:17Z</time>
      </trkpt>
      <trkpt lat="45.92752" lon="6.49446">
        <ele>1495.618</ele>
        <time>2026-03-13T13:53:22Z</time>
      </trkpt>
      <trkpt lat="45.92752" lon="6.49446">
        <ele>1495.626</ele>
        <time>2026-03-13T13:53:27Z</time>
      </trkpt>
      <trkpt lat="45.92752" lon="6.49446">
        <ele>1495.627</ele>
        <time>2026-03-13T13:53:32Z</time>
      </trkpt>
      <trkpt lat="45.92752" lon="6.49446">
        <ele>1495.634</ele>
        <time>2026-03-13T13:53:37Z</time>
      </trkpt>
      <trkpt lat="45.92752" lon="6.49446">
        <ele>1495.629</ele>
        <time>2026-03-13T13:53:42Z</time>
      </trkpt>
      <trkpt lat="45.92752" lon="6.49446">
        <ele>1495.618</ele>
        <time>2026-03-13T13:53:47Z</time>
      </trkpt>
      <trkpt lat="45.92752" lon="6.49446">
        <ele>1495.606</ele>
        <time>2026-03-13T13:53:52Z</time>
      </trkpt>
      <trkpt lat="45.92752" lon="6.49446">
        <ele>1495.602</ele>
        <time>2026-03-13T13:53:57Z</time>
      </trkpt>
      <trkpt lat="45.92752" lon="6.49446">
        <ele>1495.718</ele>
        <time>2026-03-13T13:54:02Z</time>
      </trkpt>
      <trkpt lat="45.92752" lon="6.49446">
        <ele>1494.893</ele>
        <time>2026-03-13T13:54:07Z</time>
      </trkpt>
      <trkpt lat="45.92752" lon="6.49446">
        <ele>1494.375</ele>
        <time>2026-03-13T13:54:12Z</time>
      </trkpt>
      <trkpt lat="45.92752" lon="6.49446">
        <ele>1494.319</ele>
        <time>2026-03-13T13:54:17Z</time>
      </trkpt>
      <trkpt lat="45.92752" lon="6.49446">
        <ele>1494.318</ele>
        <time>2026-03-13T13:54:22Z</time>
      </trkpt>
      <trkpt lat="45.92752" lon="6.49446">
        <ele>1494.321</ele>
        <time>2026-03-13T13:54:27Z</time>
      </trkpt>
      <trkpt lat="45.92752" lon="6.49446">
        <ele>1493.675</ele>
        <time>2026-03-13T13:54:32Z</time>
      </trkpt>
      <trkpt lat="45.9275" lon="6.49441">
        <ele>1492.911</ele>
        <time>2026-03-13T13:54:37Z</time>
      </trkpt>
      <trkpt lat="45.9275" lon="6.49441">
        <ele>1493.014</ele>
        <time>2026-03-13T13:54:42Z</time>
      </trkpt>
      <trkpt lat="45.92747" lon="6.49435">
        <ele>1494.694</ele>
        <time>2026-03-13T13:54:47Z</time>
      </trkpt>
      <trkpt lat="45.92742" lon="6.49426">
        <ele>1495.061</ele>
        <time>2026-03-13T13:54:52Z</time>
      </trkpt>
      <trkpt lat="45.92738" lon="6.49414">
        <ele>1495.059</ele>
        <time>2026-03-13T13:54:57Z</time>
      </trkpt>
      <trkpt lat="45.92735" lon="6.49404">
        <ele>1494.751</ele>
        <time>2026-03-13T13:55:02Z</time>
      </trkpt>
      <trkpt lat="45.92731" lon="6.49392">
        <ele>1494.601</ele>
        <time>2026-03-13T13:55:07Z</time>
      </trkpt>
      <trkpt lat="45.92726" lon="6.49378">
        <ele>1493.631</ele>
        <time>2026-03-13T13:55:12Z</time>
      </trkpt>
      <trkpt lat="45.92722" lon="6.49369">
        <ele>1492.892</ele>
        <time>2026-03-13T13:55:17Z</time>
      </trkpt>
      <trkpt lat="45.92713" lon="6.49343">
        <ele>1489.804</ele>
        <time>2026-03-13T13:55:22Z</time>
      </trkpt>
      <trkpt lat="45.92706" lon="6.49312">
        <ele>1489.036</ele>
        <time>2026-03-13T13:55:27Z</time>
      </trkpt>
      <trkpt lat="45.92689" lon="6.49284">
        <ele>1486.95</ele>
        <time>2026-03-13T13:55:32Z</time>
      </trkpt>
      <trkpt lat="45.9267" lon="6.49271">
        <ele>1486.363</ele>
        <time>2026-03-13T13:55:37Z</time>
      </trkpt>
      <trkpt lat="45.92661" lon="6.49267">
        <ele>1487.45</ele>
        <time>2026-03-13T13:55:42Z</time>
      </trkpt>
      <trkpt lat="45.92654" lon="6.49264">
        <ele>1487.356</ele>
        <time>2026-03-13T13:55:47Z</time>
      </trkpt>
      <trkpt lat="45.92648" lon="6.4926">
        <ele>1487.61</ele>
        <time>2026-03-13T13:55:52Z</time>
      </trkpt>
      <trkpt lat="45.92643" lon="6.49257">
        <ele>1488.24</ele>
        <time>2026-03-13T13:55:57Z</time>
      </trkpt>
      <trkpt lat="45.92639" lon="6.49254">
        <ele>1488.255</ele>
        <time>2026-03-13T13:56:02Z</time>
      </trkpt>
      <trkpt lat="45.92636" lon="6.49249">
        <ele>1488.134</ele>
        <time>2026-03-13T13:56:07Z</time>
      </trkpt>
      <trkpt lat="45.92634" lon="6.49245">
        <ele>1488.493</ele>
        <time>2026-03-13T13:56:12Z</time>
      </trkpt>
      <trkpt lat="45.92631" lon="6.49242">
        <ele>1489.069</ele>
        <time>2026-03-13T13:56:17Z</time>
      </trkpt>
      <trkpt lat="45.92629" lon="6.4924">
        <ele>1488.704</ele>
        <time>2026-03-13T13:56:22Z</time>
      </trkpt>
      <trkpt lat="45.92626" lon="6.49238">
        <ele>1489.4</ele>
        <time>2026-03-13T13:56:27Z</time>
      </trkpt>
      <trkpt lat="45.92623" lon="6.49235">
        <ele>1490.99</ele>
        <time>2026-03-13T13:56:32Z</time>
      </trkpt>
      <trkpt lat="45.92622" lon="6.49235">
        <ele>1490.925</ele>
        <time>2026-03-13T13:56:37Z</time>
      </trkpt>
      <trkpt lat="45.92621" lon="6.49235">
        <ele>1490.678</ele>
        <time>2026-03-13T13:56:42Z</time>
      </trkpt>
      <trkpt lat="45.92618" lon="6.49232">
        <ele>1490.51</ele>
        <time>2026-03-13T13:56:47Z</time>
      </trkpt>
      <trkpt lat="45.92616" lon="6.49231">
        <ele>1491.209</ele>
        <time>2026-03-13T13:56:52Z</time>
      </trkpt>
      <trkpt lat="45.92614" lon="6.49229">
        <ele>1490.961</ele>
        <time>2026-03-13T13:56:57Z</time>
      </trkpt>
      <trkpt lat="45.92611" lon="6.49229">
        <ele>1491.682</ele>
        <time>2026-03-13T13:57:02Z</time>
      </trkpt>
      <trkpt lat="45.9261" lon="6.4923">
        <ele>1491.75</ele>
        <time>2026-03-13T13:57:07Z</time>
      </trkpt>
      <trkpt lat="45.9261" lon="6.4923">
        <ele>1491.15</ele>
        <time>2026-03-13T13:57:12Z</time>
      </trkpt>
      <trkpt lat="45.9261" lon="6.4923">
        <ele>1491.188</ele>
        <time>2026-03-13T13:57:17Z</time>
      </trkpt>
      <trkpt lat="45.9261" lon="6.4923">
        <ele>1491.197</ele>
        <time>2026-03-13T13:57:22Z</time>
      </trkpt>
      <trkpt lat="45.92609" lon="6.4923">
        <ele>1491.142</ele>
        <time>2026-03-13T13:57:27Z</time>
      </trkpt>
      <trkpt lat="45.92609" lon="6.4923">
        <ele>1491.009</ele>
        <time>2026-03-13T13:57:32Z</time>
      </trkpt>
      <trkpt lat="45.92609" lon="6.49231">
        <ele>1491.353</ele>
        <time>2026-03-13T13:57:37Z</time>
      </trkpt>
      <trkpt lat="45.92609" lon="6.49231">
        <ele>1491.398</ele>
        <time>2026-03-13T13:57:42Z</time>
      </trkpt>
      <trkpt lat="45.92609" lon="6.49231">
        <ele>1491.388</ele>
        <time>2026-03-13T13:57:47Z</time>
      </trkpt>
      <trkpt lat="45.92609" lon="6.49231">
        <ele>1491.383</ele>
        <time>2026-03-13T13:57:52Z</time>
      </trkpt>
      <trkpt lat="45.92609" lon="6.49231">
        <ele>1491.379</ele>
        <time>2026-03-13T13:57:57Z</time>
      </trkpt>
      <trkpt lat="45.92609" lon="6.49231">
        <ele>1491.376</ele>
        <time>2026-03-13T13:58:02Z</time>
      </trkpt>
      <trkpt lat="45.92609" lon="6.49231">
        <ele>1491.364</ele>
        <time>2026-03-13T13:58:07Z</time>
      </trkpt>
      <trkpt lat="45.92609" lon="6.49231">
        <ele>1491.351</ele>
        <time>2026-03-13T13:58:12Z</time>
      </trkpt>
      <trkpt lat="45.92609" lon="6.49231">
        <ele>1491.34</ele>
        <time>2026-03-13T13:58:17Z</time>
      </trkpt>
      <trkpt lat="45.92609" lon="6.49231">
        <ele>1491.335</ele>
        <time>2026-03-13T13:58:22Z</time>
      </trkpt>
      <trkpt lat="45.92606" lon="6.49232">
        <ele>1490.958</ele>
        <time>2026-03-13T13:58:27Z</time>
      </trkpt>
      <trkpt lat="45.92604" lon="6.49231">
        <ele>1490.951</ele>
        <time>2026-03-13T13:58:32Z</time>
      </trkpt>
      <trkpt lat="45.92602" lon="6.49229">
        <ele>1492.27</ele>
        <time>2026-03-13T13:58:37Z</time>
      </trkpt>
      <trkpt lat="45.92599" lon="6.49227">
        <ele>1491.833</ele>
        <time>2026-03-13T13:58:42Z</time>
      </trkpt>
      <trkpt lat="45.92594" lon="6.49227">
        <ele>1492.255</ele>
        <time>2026-03-13T13:58:47Z</time>
      </trkpt>
      <trkpt lat="45.92591" lon="6.49227">
        <ele>1491.646</ele>
        <time>2026-03-13T13:58:52Z</time>
      </trkpt>
      <trkpt lat="45.92588" lon="6.49225">
        <ele>1491.637</ele>
        <time>2026-03-13T13:58:57Z</time>
      </trkpt>
      <trkpt lat="45.92586" lon="6.49226">
        <ele>1492.646</ele>
        <time>2026-03-13T13:59:02Z</time>
      </trkpt>
      <trkpt lat="45.92582" lon="6.49223">
        <ele>1492.506</ele>
        <time>2026-03-13T13:59:07Z</time>
      </trkpt>
      <trkpt lat="45.92578" lon="6.49221">
        <ele>1492.33</ele>
        <time>2026-03-13T13:59:12Z</time>
      </trkpt>
      <trkpt lat="45.92575" lon="6.49222">
        <ele>1492.246</ele>
        <time>2026-03-13T13:59:17Z</time>
      </trkpt>
      <trkpt lat="45.92572" lon="6.49222">
        <ele>1492.159</ele>
        <time>2026-03-13T13:59:22Z</time>
      </trkpt>
      <trkpt lat="45.92569" lon="6.49222">
        <ele>1492.355</ele>
        <time>2026-03-13T13:59:27Z</time>
      </trkpt>
      <trkpt lat="45.92565" lon="6.49221">
        <ele>1492.466</ele>
        <time>2026-03-13T13:59:32Z</time>
      </trkpt>
      <trkpt lat="45.92559" lon="6.4922">
        <ele>1492.41</ele>
        <time>2026-03-13T13:59:37Z</time>
      </trkpt>
      <trkpt lat="45.92556" lon="6.4922">
        <ele>1492.797</ele>
        <time>2026-03-13T13:59:42Z</time>
      </trkpt>
      <trkpt lat="45.92555" lon="6.4922">
        <ele>1492.951</ele>
        <time>2026-03-13T13:59:47Z</time>
      </trkpt>
      <trkpt lat="45.92552" lon="6.49219">
        <ele>1493.649</ele>
        <time>2026-03-13T13:59:52Z</time>
      </trkpt>
      <trkpt lat="45.92548" lon="6.49218">
        <ele>1494.136</ele>
        <time>2026-03-13T13:59:57Z</time>
      </trkpt>
      <trkpt lat="45.92545" lon="6.49217">
        <ele>1494.479</ele>
        <time>2026-03-13T14:00:02Z</time>
      </trkpt>
      <trkpt lat="45.92542" lon="6.49216">
        <ele>1495.151</ele>
        <time>2026-03-13T14:00:07Z</time>
      </trkpt>
      <trkpt lat="45.92539" lon="6.49215">
        <ele>1494.966</ele>
        <time>2026-03-13T14:00:12Z</time>
      </trkpt>
      <trkpt lat="45.92538" lon="6.49215">
        <ele>1495.403</ele>
        <time>2026-03-13T14:00:17Z</time>
      </trkpt>
      <trkpt lat="45.92538" lon="6.49215">
        <ele>1495.414</ele>
        <time>2026-03-13T14:00:22Z</time>
      </trkpt>
      <trkpt lat="45.92538" lon="6.49215">
        <ele>1495.424</ele>
        <time>2026-03-13T14:00:27Z</time>
      </trkpt>
      <trkpt lat="45.92538" lon="6.49215">
        <ele>1495.425</ele>
        <time>2026-03-13T14:00:32Z</time>
      </trkpt>
      <trkpt lat="45.92538" lon="6.49215">
        <ele>1495.427</ele>
        <time>2026-03-13T14:00:37Z</time>
      </trkpt>
      <trkpt lat="45.92537" lon="6.49214">
        <ele>1495.454</ele>
        <time>2026-03-13T14:00:42Z</time>
      </trkpt>
      <trkpt lat="45.92533" lon="6.49212">
        <ele>1495.182</ele>
        <time>2026-03-13T14:00:47Z</time>
      </trkpt>
      <trkpt lat="45.9253" lon="6.49209">
        <ele>1496.099</ele>
        <time>2026-03-13T14:00:52Z</time>
      </trkpt>
      <trkpt lat="45.92526" lon="6.49206">
        <ele>1496.186</ele>
        <time>2026-03-13T14:00:57Z</time>
      </trkpt>
      <trkpt lat="45.9252" lon="6.49203">
        <ele>1496.814</ele>
        <time>2026-03-13T14:01:02Z</time>
      </trkpt>
      <trkpt lat="45.92513" lon="6.492">
        <ele>1496.352</ele>
        <time>2026-03-13T14:01:07Z</time>
      </trkpt>
      <trkpt lat="45.92505" lon="6.49198">
        <ele>1496.041</ele>
        <time>2026-03-13T14:01:12Z</time>
      </trkpt>
      <trkpt lat="45.925" lon="6.49196">
        <ele>1496.096</ele>
        <time>2026-03-13T14:01:17Z</time>
      </trkpt>
      <trkpt lat="45.92497" lon="6.49193">
        <ele>1495.641</ele>
        <time>2026-03-13T14:01:22Z</time>
      </trkpt>
      <trkpt lat="45.92494" lon="6.49191">
        <ele>1496.233</ele>
        <time>2026-03-13T14:01:27Z</time>
      </trkpt>
      <trkpt lat="45.92491" lon="6.49187">
        <ele>1497.288</ele>
        <time>2026-03-13T14:01:32Z</time>
      </trkpt>
      <trkpt lat="45.9249" lon="6.49187">
        <ele>1497.659</ele>
        <time>2026-03-13T14:01:37Z</time>
      </trkpt>
      <trkpt lat="45.92488" lon="6.49186">
        <ele>1498.312</ele>
        <time>2026-03-13T14:01:42Z</time>
      </trkpt>
      <trkpt lat="45.92488" lon="6.49186">
        <ele>1498.825</ele>
        <time>2026-03-13T14:01:47Z</time>
      </trkpt>
      <trkpt lat="45.92488" lon="6.49185">
        <ele>1499.039</ele>
        <time>2026-03-13T14:01:52Z</time>
      </trkpt>
      <trkpt lat="45.92486" lon="6.49182">
        <ele>1499.274</ele>
        <time>2026-03-13T14:01:57Z</time>
      </trkpt>
      <trkpt lat="45.92485" lon="6.49181">
        <ele>1499.121</ele>
        <time>2026-03-13T14:02:02Z</time>
      </trkpt>
      <trkpt lat="45.92483" lon="6.49179">
        <ele>1498.907</ele>
        <time>2026-03-13T14:02:07Z</time>
      </trkpt>
      <trkpt lat="45.92483" lon="6.49178">
        <ele>1499.399</ele>
        <time>2026-03-13T14:02:12Z</time>
      </trkpt>
      <trkpt lat="45.92483" lon="6.49178">
        <ele>1499.412</ele>
        <time>2026-03-13T14:02:17Z</time>
      </trkpt>
      <trkpt lat="45.92483" lon="6.49178">
        <ele>1499.421</ele>
        <time>2026-03-13T14:02:22Z</time>
      </trkpt>
      <trkpt lat="45.92483" lon="6.49178">
        <ele>1499.462</ele>
        <time>2026-03-13T14:02:27Z</time>
      </trkpt>
      <trkpt lat="45.92483" lon="6.49178">
        <ele>1499.74</ele>
        <time>2026-03-13T14:02:32Z</time>
      </trkpt>
      <trkpt lat="45.92483" lon="6.49178">
        <ele>1499.814</ele>
        <time>2026-03-13T14:02:37Z</time>
      </trkpt>
      <trkpt lat="45.92483" lon="6.49178">
        <ele>1499.687</ele>
        <time>2026-03-13T14:02:42Z</time>
      </trkpt>
      <trkpt lat="45.92483" lon="6.49178">
        <ele>1500.531</ele>
        <time>2026-03-13T14:02:47Z</time>
      </trkpt>
      <trkpt lat="45.92483" lon="6.49178">
        <ele>1500.572</ele>
        <time>2026-03-13T14:02:52Z</time>
      </trkpt>
      <trkpt lat="45.92475" lon="6.49166">
        <ele>1500.572</ele>
        <time>2026-03-13T14:02:57Z</time>
      </trkpt>
      <trkpt lat="45.92475" lon="6.49166">
        <ele>1500.88</ele>
        <time>2026-03-13T14:03:02Z</time>
      </trkpt>
      <trkpt lat="45.92472" lon="6.49159">
        <ele>1500.342</ele>
        <time>2026-03-13T14:03:07Z</time>
      </trkpt>
      <trkpt lat="45.92465" lon="6.4915">
        <ele>1499.818</ele>
        <time>2026-03-13T14:03:12Z</time>
      </trkpt>
      <trkpt lat="45.92461" lon="6.49142">
        <ele>1499.256</ele>
        <time>2026-03-13T14:03:17Z</time>
      </trkpt>
      <trkpt lat="45.92451" lon="6.49128">
        <ele>1498.176</ele>
        <time>2026-03-13T14:03:22Z</time>
      </trkpt>
      <trkpt lat="45.92437" lon="6.49121">
        <ele>1496.944</ele>
        <time>2026-03-13T14:03:27Z</time>
      </trkpt>
      <trkpt lat="45.92421" lon="6.49125">
        <ele>1494.508</ele>
        <time>2026-03-13T14:03:32Z</time>
      </trkpt>
      <trkpt lat="45.92397" lon="6.49103">
        <ele>1489.071</ele>
        <time>2026-03-13T14:03:37Z</time>
      </trkpt>
      <trkpt lat="45.92368" lon="6.4908">
        <ele>1482.663</ele>
        <time>2026-03-13T14:03:42Z</time>
      </trkpt>
      <trkpt lat="45.92343" lon="6.49061">
        <ele>1477.568</ele>
        <time>2026-03-13T14:03:47Z</time>
      </trkpt>
      <trkpt lat="45.92317" lon="6.49044">
        <ele>1472.808</ele>
        <time>2026-03-13T14:03:52Z</time>
      </trkpt>
      <trkpt lat="45.92294" lon="6.49022">
        <ele>1468.008</ele>
        <time>2026-03-13T14:03:57Z</time>
      </trkpt>
      <trkpt lat="45.92269" lon="6.48995">
        <ele>1463.025</ele>
        <time>2026-03-13T14:04:02Z</time>
      </trkpt>
      <trkpt lat="45.92243" lon="6.48964">
        <ele>1460.658</ele>
        <time>2026-03-13T14:04:07Z</time>
      </trkpt>
      <trkpt lat="45.92219" lon="6.48937">
        <ele>1457.694</ele>
        <time>2026-03-13T14:04:12Z</time>
      </trkpt>
      <trkpt lat="45.92198" lon="6.48909">
        <ele>1455.165</ele>
        <time>2026-03-13T14:04:17Z</time>
      </trkpt>
      <trkpt lat="45.92182" lon="6.48882">
        <ele>1453.18</ele>
        <time>2026-03-13T14:04:22Z</time>
      </trkpt>
      <trkpt lat="45.92172" lon="6.48861">
        <ele>1453.205</ele>
        <time>2026-03-13T14:04:27Z</time>
      </trkpt>
      <trkpt lat="45.92173" lon="6.48858">
        <ele>1454.007</ele>
        <time>2026-03-13T14:04:32Z</time>
      </trkpt>
      <trkpt lat="45.92174" lon="6.48854">
        <ele>1454.592</ele>
        <time>2026-03-13T14:04:37Z</time>
      </trkpt>
      <trkpt lat="45.92174" lon="6.48849">
        <ele>1454.778</ele>
        <time>2026-03-13T14:04:42Z</time>
      </trkpt>
      <trkpt lat="45.92174" lon="6.48844">
        <ele>1455.156</ele>
        <time>2026-03-13T14:04:47Z</time>
      </trkpt>
      <trkpt lat="45.92175" lon="6.4884">
        <ele>1455.175</ele>
        <time>2026-03-13T14:04:52Z</time>
      </trkpt>
      <trkpt lat="45.92175" lon="6.48839">
        <ele>1456.012</ele>
        <time>2026-03-13T14:04:57Z</time>
      </trkpt>
      <trkpt lat="45.92175" lon="6.4884">
        <ele>1456.178</ele>
        <time>2026-03-13T14:05:02Z</time>
      </trkpt>
      <trkpt lat="45.92175" lon="6.4884">
        <ele>1456.352</ele>
        <time>2026-03-13T14:05:07Z</time>
      </trkpt>
      <trkpt lat="45.92176" lon="6.48836">
        <ele>1456.422</ele>
        <time>2026-03-13T14:05:12Z</time>
      </trkpt>
      <trkpt lat="45.92178" lon="6.4883">
        <ele>1457.211</ele>
        <time>2026-03-13T14:05:17Z</time>
      </trkpt>
      <trkpt lat="45.92179" lon="6.48825">
        <ele>1457.488</ele>
        <time>2026-03-13T14:05:22Z</time>
      </trkpt>
      <trkpt lat="45.9218" lon="6.4882">
        <ele>1458.203</ele>
        <time>2026-03-13T14:05:27Z</time>
      </trkpt>
      <trkpt lat="45.9218" lon="6.48814">
        <ele>1458.947</ele>
        <time>2026-03-13T14:05:32Z</time>
      </trkpt>
      <trkpt lat="45.9218" lon="6.48808">
        <ele>1458.986</ele>
        <time>2026-03-13T14:05:37Z</time>
      </trkpt>
      <trkpt lat="45.9218" lon="6.48803">
        <ele>1459.717</ele>
        <time>2026-03-13T14:05:42Z</time>
      </trkpt>
      <trkpt lat="45.9218" lon="6.48797">
        <ele>1460.057</ele>
        <time>2026-03-13T14:05:47Z</time>
      </trkpt>
      <trkpt lat="45.92179" lon="6.48792">
        <ele>1460.263</ele>
        <time>2026-03-13T14:05:52Z</time>
      </trkpt>
      <trkpt lat="45.92177" lon="6.48787">
        <ele>1460.776</ele>
        <time>2026-03-13T14:05:57Z</time>
      </trkpt>
      <trkpt lat="45.92176" lon="6.48782">
        <ele>1460.675</ele>
        <time>2026-03-13T14:06:02Z</time>
      </trkpt>
      <trkpt lat="45.92174" lon="6.48776">
        <ele>1460.826</ele>
        <time>2026-03-13T14:06:07Z</time>
      </trkpt>
      <trkpt lat="45.92173" lon="6.4877">
        <ele>1461.469</ele>
        <time>2026-03-13T14:06:12Z</time>
      </trkpt>
      <trkpt lat="45.92171" lon="6.48764">
        <ele>1462.408</ele>
        <time>2026-03-13T14:06:17Z</time>
      </trkpt>
      <trkpt lat="45.9217" lon="6.48759">
        <ele>1462.764</ele>
        <time>2026-03-13T14:06:22Z</time>
      </trkpt>
      <trkpt lat="45.92168" lon="6.48753">
        <ele>1462.305</ele>
        <time>2026-03-13T14:06:27Z</time>
      </trkpt>
      <trkpt lat="45.92167" lon="6.48747">
        <ele>1463.157</ele>
        <time>2026-03-13T14:06:32Z</time>
      </trkpt>
      <trkpt lat="45.92165" lon="6.48742">
        <ele>1463.36</ele>
        <time>2026-03-13T14:06:37Z</time>
      </trkpt>
      <trkpt lat="45.92163" lon="6.48738">
        <ele>1463.637</ele>
        <time>2026-03-13T14:06:42Z</time>
      </trkpt>
      <trkpt lat="45.92162" lon="6.48734">
        <ele>1463.654</ele>
        <time>2026-03-13T14:06:47Z</time>
      </trkpt>
      <trkpt lat="45.9216" lon="6.48728">
        <ele>1464.622</ele>
        <time>2026-03-13T14:06:52Z</time>
      </trkpt>
      <trkpt lat="45.92159" lon="6.48723">
        <ele>1464.873</ele>
        <time>2026-03-13T14:06:57Z</time>
      </trkpt>
      <trkpt lat="45.92158" lon="6.48718">
        <ele>1465.544</ele>
        <time>2026-03-13T14:07:02Z</time>
      </trkpt>
      <trkpt lat="45.92156" lon="6.48713">
        <ele>1465.927</ele>
        <time>2026-03-13T14:07:07Z</time>
      </trkpt>
      <trkpt lat="45.92154" lon="6.48708">
        <ele>1466.061</ele>
        <time>2026-03-13T14:07:12Z</time>
      </trkpt>
      <trkpt lat="45.92152" lon="6.48705">
        <ele>1466.86</ele>
        <time>2026-03-13T14:07:17Z</time>
      </trkpt>
      <trkpt lat="45.92149" lon="6.48701">
        <ele>1466.296</ele>
        <time>2026-03-13T14:07:22Z</time>
      </trkpt>
      <trkpt lat="45.92146" lon="6.48697">
        <ele>1466.079</ele>
        <time>2026-03-13T14:07:27Z</time>
      </trkpt>
      <trkpt lat="45.92143" lon="6.48692">
        <ele>1465.626</ele>
        <time>2026-03-13T14:07:32Z</time>
      </trkpt>
      <trkpt lat="45.92138" lon="6.48685">
        <ele>1465.4</ele>
        <time>2026-03-13T14:07:37Z</time>
      </trkpt>
      <trkpt lat="45.92134" lon="6.48681">
        <ele>1465.838</ele>
        <time>2026-03-13T14:07:42Z</time>
      </trkpt>
      <trkpt lat="45.92132" lon="6.48677">
        <ele>1466.399</ele>
        <time>2026-03-13T14:07:47Z</time>
      </trkpt>
      <trkpt lat="45.9213" lon="6.48672">
        <ele>1466.803</ele>
        <time>2026-03-13T14:07:52Z</time>
      </trkpt>
      <trkpt lat="45.92128" lon="6.48667">
        <ele>1466.381</ele>
        <time>2026-03-13T14:07:57Z</time>
      </trkpt>
      <trkpt lat="45.92127" lon="6.48648">
        <ele>1464.267</ele>
        <time>2026-03-13T14:08:02Z</time>
      </trkpt>
      <trkpt lat="45.92134" lon="6.48626">
        <ele>1464.115</ele>
        <time>2026-03-13T14:08:07Z</time>
      </trkpt>
      <trkpt lat="45.92146" lon="6.48604">
        <ele>1461.715</ele>
        <time>2026-03-13T14:08:12Z</time>
      </trkpt>
      <trkpt lat="45.92157" lon="6.48579">
        <ele>1460.244</ele>
        <time>2026-03-13T14:08:17Z</time>
      </trkpt>
      <trkpt lat="45.92166" lon="6.48554">
        <ele>1458.98</ele>
        <time>2026-03-13T14:08:22Z</time>
      </trkpt>
      <trkpt lat="45.92176" lon="6.48529">
        <ele>1456.803</ele>
        <time>2026-03-13T14:08:27Z</time>
      </trkpt>
      <trkpt lat="45.9219" lon="6.48494">
        <ele>1452.601</ele>
        <time>2026-03-13T14:08:32Z</time>
      </trkpt>
      <trkpt lat="45.92207" lon="6.48463">
        <ele>1451.275</ele>
        <time>2026-03-13T14:08:37Z</time>
      </trkpt>
      <trkpt lat="45.9222" lon="6.48445">
        <ele>1450.12</ele>
        <time>2026-03-13T14:08:42Z</time>
      </trkpt>
      <trkpt lat="45.92234" lon="6.4843">
        <ele>1449.202</ele>
        <time>2026-03-13T14:08:47Z</time>
      </trkpt>
      <trkpt lat="45.92251" lon="6.48422">
        <ele>1447.65</ele>
        <time>2026-03-13T14:08:52Z</time>
      </trkpt>
      <trkpt lat="45.92258" lon="6.48416">
        <ele>1446.436</ele>
        <time>2026-03-13T14:08:57Z</time>
      </trkpt>
      <trkpt lat="45.92275" lon="6.48407">
        <ele>1444.569</ele>
        <time>2026-03-13T14:09:02Z</time>
      </trkpt>
      <trkpt lat="45.92288" lon="6.48399">
        <ele>1443.172</ele>
        <time>2026-03-13T14:09:07Z</time>
      </trkpt>
      <trkpt lat="45.92288" lon="6.48399">
        <ele>1442.763</ele>
        <time>2026-03-13T14:09:12Z</time>
      </trkpt>
      <trkpt lat="45.92288" lon="6.48399">
        <ele>1443.125</ele>
        <time>2026-03-13T14:09:17Z</time>
      </trkpt>
      <trkpt lat="45.92288" lon="6.48399">
        <ele>1443.546</ele>
        <time>2026-03-13T14:09:22Z</time>
      </trkpt>
      <trkpt lat="45.92288" lon="6.48399">
        <ele>1443.481</ele>
        <time>2026-03-13T14:09:27Z</time>
      </trkpt>
      <trkpt lat="45.92288" lon="6.48399">
        <ele>1443.854</ele>
        <time>2026-03-13T14:09:32Z</time>
      </trkpt>
      <trkpt lat="45.92288" lon="6.48399">
        <ele>1443.859</ele>
        <time>2026-03-13T14:09:37Z</time>
      </trkpt>
      <trkpt lat="45.92288" lon="6.48399">
        <ele>1444.031</ele>
        <time>2026-03-13T14:09:42Z</time>
      </trkpt>
      <trkpt lat="45.92288" lon="6.48399">
        <ele>1445.622</ele>
        <time>2026-03-13T14:09:47Z</time>
      </trkpt>
      <trkpt lat="45.92288" lon="6.48399">
        <ele>1444.946</ele>
        <time>2026-03-13T14:09:52Z</time>
      </trkpt>
      <trkpt lat="45.92288" lon="6.48399">
        <ele>1445.126</ele>
        <time>2026-03-13T14:09:57Z</time>
      </trkpt>
      <trkpt lat="45.92288" lon="6.48399">
        <ele>1444.68</ele>
        <time>2026-03-13T14:10:02Z</time>
      </trkpt>
      <trkpt lat="45.92288" lon="6.48399">
        <ele>1444.625</ele>
        <time>2026-03-13T14:10:07Z</time>
      </trkpt>
      <trkpt lat="45.92288" lon="6.48399">
        <ele>1444.63</ele>
        <time>2026-03-13T14:10:12Z</time>
      </trkpt>
      <trkpt lat="45.92288" lon="6.48399">
        <ele>1444.632</ele>
        <time>2026-03-13T14:10:17Z</time>
      </trkpt>
      <trkpt lat="45.92288" lon="6.48399">
        <ele>1444.636</ele>
        <time>2026-03-13T14:10:22Z</time>
      </trkpt>
      <trkpt lat="45.92288" lon="6.48399">
        <ele>1444.633</ele>
        <time>2026-03-13T14:10:27Z</time>
      </trkpt>
      <trkpt lat="45.92288" lon="6.48399">
        <ele>1444.634</ele>
        <time>2026-03-13T14:10:32Z</time>
      </trkpt>
      <trkpt lat="45.92288" lon="6.48399">
        <ele>1444.634</ele>
        <time>2026-03-13T14:10:37Z</time>
      </trkpt>
      <trkpt lat="45.92288" lon="6.48399">
        <ele>1444.636</ele>
        <time>2026-03-13T14:10:42Z</time>
      </trkpt>
      <trkpt lat="45.92288" lon="6.48399">
        <ele>1444.637</ele>
        <time>2026-03-13T14:10:47Z</time>
      </trkpt>
      <trkpt lat="45.92288" lon="6.48399">
        <ele>1443.102</ele>
        <time>2026-03-13T14:10:52Z</time>
      </trkpt>
      <trkpt lat="45.92288" lon="6.48399">
        <ele>1443.874</ele>
        <time>2026-03-13T14:10:57Z</time>
      </trkpt>
      <trkpt lat="45.92288" lon="6.48399">
        <ele>1443.756</ele>
        <time>2026-03-13T14:11:02Z</time>
      </trkpt>
      <trkpt lat="45.92288" lon="6.48399">
        <ele>1444.233</ele>
        <time>2026-03-13T14:11:07Z</time>
      </trkpt>
      <trkpt lat="45.92288" lon="6.48399">
        <ele>1444.562</ele>
        <time>2026-03-13T14:11:12Z</time>
      </trkpt>
      <trkpt lat="45.92288" lon="6.48399">
        <ele>1444.571</ele>
        <time>2026-03-13T14:11:17Z</time>
      </trkpt>
      <trkpt lat="45.92288" lon="6.48399">
        <ele>1444.573</ele>
        <time>2026-03-13T14:11:22Z</time>
      </trkpt>
      <trkpt lat="45.92288" lon="6.48399">
        <ele>1444.573</ele>
        <time>2026-03-13T14:11:27Z</time>
      </trkpt>
      <trkpt lat="45.92288" lon="6.48399">
        <ele>1444.574</ele>
        <time>2026-03-13T14:11:32Z</time>
      </trkpt>
      <trkpt lat="45.92288" lon="6.48399">
        <ele>1444.578</ele>
        <time>2026-03-13T14:11:37Z</time>
      </trkpt>
      <trkpt lat="45.92288" lon="6.48399">
        <ele>1444.577</ele>
        <time>2026-03-13T14:11:42Z</time>
      </trkpt>
      <trkpt lat="45.92288" lon="6.48399">
        <ele>1444.575</ele>
        <time>2026-03-13T14:11:47Z</time>
      </trkpt>
      <trkpt lat="45.92288" lon="6.48399">
        <ele>1444.575</ele>
        <time>2026-03-13T14:11:52Z</time>
      </trkpt>
      <trkpt lat="45.92288" lon="6.48399">
        <ele>1444.572</ele>
        <time>2026-03-13T14:11:57Z</time>
      </trkpt>
      <trkpt lat="45.92288" lon="6.48399">
        <ele>1444.566</ele>
        <time>2026-03-13T14:12:02Z</time>
      </trkpt>
      <trkpt lat="45.92288" lon="6.48399">
        <ele>1444.568</ele>
        <time>2026-03-13T14:12:07Z</time>
      </trkpt>
      <trkpt lat="45.92288" lon="6.48399">
        <ele>1444.578</ele>
        <time>2026-03-13T14:12:12Z</time>
      </trkpt>
      <trkpt lat="45.92288" lon="6.48399">
        <ele>1444.58</ele>
        <time>2026-03-13T14:12:17Z</time>
      </trkpt>
      <trkpt lat="45.92288" lon="6.48399">
        <ele>1444.579</ele>
        <time>2026-03-13T14:12:22Z</time>
      </trkpt>
      <trkpt lat="45.92288" lon="6.48399">
        <ele>1444.579</ele>
        <time>2026-03-13T14:12:27Z</time>
      </trkpt>
      <trkpt lat="45.92288" lon="6.48399">
        <ele>1444.578</ele>
        <time>2026-03-13T14:12:32Z</time>
      </trkpt>
      <trkpt lat="45.92288" lon="6.48399">
        <ele>1444.574</ele>
        <time>2026-03-13T14:12:37Z</time>
      </trkpt>
      <trkpt lat="45.92288" lon="6.48399">
        <ele>1444.577</ele>
        <time>2026-03-13T14:12:42Z</time>
      </trkpt>
      <trkpt lat="45.92288" lon="6.48399">
        <ele>1444.581</ele>
        <time>2026-03-13T14:12:47Z</time>
      </trkpt>
      <trkpt lat="45.92288" lon="6.48399">
        <ele>1444.58</ele>
        <time>2026-03-13T14:12:52Z</time>
      </trkpt>
      <trkpt lat="45.92288" lon="6.48399">
        <ele>1444.582</ele>
        <time>2026-03-13T14:12:57Z</time>
      </trkpt>
      <trkpt lat="45.92288" lon="6.48399">
        <ele>1444.58</ele>
        <time>2026-03-13T14:13:02Z</time>
      </trkpt>
      <trkpt lat="45.92288" lon="6.48399">
        <ele>1444.581</ele>
        <time>2026-03-13T14:13:07Z</time>
      </trkpt>
      <trkpt lat="45.92288" lon="6.48399">
        <ele>1444.582</ele>
        <time>2026-03-13T14:13:12Z</time>
      </trkpt>
      <trkpt lat="45.92288" lon="6.48399">
        <ele>1444.576</ele>
        <time>2026-03-13T14:13:17Z</time>
      </trkpt>
      <trkpt lat="45.92288" lon="6.48399">
        <ele>1443.764</ele>
        <time>2026-03-13T14:13:22Z</time>
      </trkpt>
      <trkpt lat="45.92288" lon="6.48399">
        <ele>1443.737</ele>
        <time>2026-03-13T14:13:27Z</time>
      </trkpt>
      <trkpt lat="45.92288" lon="6.48399">
        <ele>1444.903</ele>
        <time>2026-03-13T14:13:32Z</time>
      </trkpt>
      <trkpt lat="45.92288" lon="6.48399">
        <ele>1444.926</ele>
        <time>2026-03-13T14:13:37Z</time>
      </trkpt>
      <trkpt lat="45.92288" lon="6.48399">
        <ele>1444.89</ele>
        <time>2026-03-13T14:13:42Z</time>
      </trkpt>
      <trkpt lat="45.92288" lon="6.48399">
        <ele>1444.858</ele>
        <time>2026-03-13T14:13:47Z</time>
      </trkpt>
      <trkpt lat="45.92288" lon="6.48399">
        <ele>1444.86</ele>
        <time>2026-03-13T14:13:52Z</time>
      </trkpt>
      <trkpt lat="45.92288" lon="6.48399">
        <ele>1444.874</ele>
        <time>2026-03-13T14:13:57Z</time>
      </trkpt>
      <trkpt lat="45.92288" lon="6.48399">
        <ele>1444.871</ele>
        <time>2026-03-13T14:14:02Z</time>
      </trkpt>
      <trkpt lat="45.92288" lon="6.48399">
        <ele>1444.872</ele>
        <time>2026-03-13T14:14:07Z</time>
      </trkpt>
      <trkpt lat="45.92288" lon="6.48399">
        <ele>1444.869</ele>
        <time>2026-03-13T14:14:12Z</time>
      </trkpt>
      <trkpt lat="45.92288" lon="6.48399">
        <ele>1444.868</ele>
        <time>2026-03-13T14:14:17Z</time>
      </trkpt>
      <trkpt lat="45.92288" lon="6.48399">
        <ele>1444.858</ele>
        <time>2026-03-13T14:14:22Z</time>
      </trkpt>
      <trkpt lat="45.92288" lon="6.48399">
        <ele>1444.847</ele>
        <time>2026-03-13T14:14:27Z</time>
      </trkpt>
      <trkpt lat="45.92288" lon="6.48399">
        <ele>1444.838</ele>
        <time>2026-03-13T14:14:32Z</time>
      </trkpt>
      <trkpt lat="45.92288" lon="6.48399">
        <ele>1444.859</ele>
        <time>2026-03-13T14:14:37Z</time>
      </trkpt>
      <trkpt lat="45.92288" lon="6.48399">
        <ele>1444.871</ele>
        <time>2026-03-13T14:14:42Z</time>
      </trkpt>
      <trkpt lat="45.92288" lon="6.48399">
        <ele>1444.86</ele>
        <time>2026-03-13T14:14:47Z</time>
      </trkpt>
      <trkpt lat="45.92288" lon="6.48399">
        <ele>1444.862</ele>
        <time>2026-03-13T14:14:52Z</time>
      </trkpt>
      <trkpt lat="45.92288" lon="6.48399">
        <ele>1444.862</ele>
        <time>2026-03-13T14:14:57Z</time>
      </trkpt>
      <trkpt lat="45.92288" lon="6.48399">
        <ele>1444.852</ele>
        <time>2026-03-13T14:15:02Z</time>
      </trkpt>
      <trkpt lat="45.92288" lon="6.48399">
        <ele>1444.847</ele>
        <time>2026-03-13T14:15:07Z</time>
      </trkpt>
      <trkpt lat="45.92288" lon="6.48399">
        <ele>1444.842</ele>
        <time>2026-03-13T14:15:12Z</time>
      </trkpt>
      <trkpt lat="45.92288" lon="6.48399">
        <ele>1444.85</ele>
        <time>2026-03-13T14:15:17Z</time>
      </trkpt>
      <trkpt lat="45.92288" lon="6.48399">
        <ele>1444.86</ele>
        <time>2026-03-13T14:15:22Z</time>
      </trkpt>
      <trkpt lat="45.92288" lon="6.48399">
        <ele>1444.863</ele>
        <time>2026-03-13T14:15:27Z</time>
      </trkpt>
      <trkpt lat="45.92288" lon="6.48399">
        <ele>1444.874</ele>
        <time>2026-03-13T14:15:32Z</time>
      </trkpt>
      <trkpt lat="45.92288" lon="6.48399">
        <ele>1446.062</ele>
        <time>2026-03-13T14:15:37Z</time>
      </trkpt>
      <trkpt lat="45.92288" lon="6.48399">
        <ele>1445.915</ele>
        <time>2026-03-13T14:15:42Z</time>
      </trkpt>
      <trkpt lat="45.92288" lon="6.48399">
        <ele>1445.033</ele>
        <time>2026-03-13T14:15:47Z</time>
      </trkpt>
      <trkpt lat="45.92288" lon="6.48399">
        <ele>1445.054</ele>
        <time>2026-03-13T14:15:52Z</time>
      </trkpt>
      <trkpt lat="45.92288" lon="6.48399">
        <ele>1445.056</ele>
        <time>2026-03-13T14:15:57Z</time>
      </trkpt>
      <trkpt lat="45.92288" lon="6.48399">
        <ele>1445.059</ele>
        <time>2026-03-13T14:16:02Z</time>
      </trkpt>
      <trkpt lat="45.92288" lon="6.48399">
        <ele>1445.063</ele>
        <time>2026-03-13T14:16:07Z</time>
      </trkpt>
      <trkpt lat="45.92288" lon="6.48399">
        <ele>1445.069</ele>
        <time>2026-03-13T14:16:12Z</time>
      </trkpt>
      <trkpt lat="45.92288" lon="6.48399">
        <ele>1445.076</ele>
        <time>2026-03-13T14:16:17Z</time>
      </trkpt>
      <trkpt lat="45.92288" lon="6.48399">
        <ele>1445.08</ele>
        <time>2026-03-13T14:16:22Z</time>
      </trkpt>
      <trkpt lat="45.92288" lon="6.48399">
        <ele>1445.084</ele>
        <time>2026-03-13T14:16:27Z</time>
      </trkpt>
      <trkpt lat="45.92288" lon="6.48399">
        <ele>1445.086</ele>
        <time>2026-03-13T14:16:32Z</time>
      </trkpt>
      <trkpt lat="45.92288" lon="6.48399">
        <ele>1445.092</ele>
        <time>2026-03-13T14:16:37Z</time>
      </trkpt>
      <trkpt lat="45.92288" lon="6.48399">
        <ele>1445.089</ele>
        <time>2026-03-13T14:16:42Z</time>
      </trkpt>
      <trkpt lat="45.92288" lon="6.48399">
        <ele>1445.089</ele>
        <time>2026-03-13T14:16:47Z</time>
      </trkpt>
      <trkpt lat="45.92288" lon="6.48399">
        <ele>1445.098</ele>
        <time>2026-03-13T14:16:52Z</time>
      </trkpt>
      <trkpt lat="45.92288" lon="6.48399">
        <ele>1446.218</ele>
        <time>2026-03-13T14:16:57Z</time>
      </trkpt>
      <trkpt lat="45.92288" lon="6.48399">
        <ele>1446.523</ele>
        <time>2026-03-13T14:17:02Z</time>
      </trkpt>
      <trkpt lat="45.92288" lon="6.48399">
        <ele>1446.309</ele>
        <time>2026-03-13T14:17:07Z</time>
      </trkpt>
      <trkpt lat="45.92288" lon="6.48399">
        <ele>1446.314</ele>
        <time>2026-03-13T14:17:12Z</time>
      </trkpt>
      <trkpt lat="45.92288" lon="6.48399">
        <ele>1446.269</ele>
        <time>2026-03-13T14:17:17Z</time>
      </trkpt>
      <trkpt lat="45.92288" lon="6.48399">
        <ele>1446.919</ele>
        <time>2026-03-13T14:17:22Z</time>
      </trkpt>
      <trkpt lat="45.92288" lon="6.48399">
        <ele>1445.991</ele>
        <time>2026-03-13T14:17:27Z</time>
      </trkpt>
      <trkpt lat="45.92288" lon="6.48399">
        <ele>1446.013</ele>
        <time>2026-03-13T14:17:32Z</time>
      </trkpt>
      <trkpt lat="45.92288" lon="6.48399">
        <ele>1445.904</ele>
        <time>2026-03-13T14:17:37Z</time>
      </trkpt>
      <trkpt lat="45.92288" lon="6.48399">
        <ele>1445.918</ele>
        <time>2026-03-13T14:17:42Z</time>
      </trkpt>
      <trkpt lat="45.92288" lon="6.48399">
        <ele>1445.162</ele>
        <time>2026-03-13T14:17:47Z</time>
      </trkpt>
      <trkpt lat="45.92288" lon="6.48399">
        <ele>1445.009</ele>
        <time>2026-03-13T14:17:52Z</time>
      </trkpt>
      <trkpt lat="45.92288" lon="6.48399">
        <ele>1445.122</ele>
        <time>2026-03-13T14:17:57Z</time>
      </trkpt>
      <trkpt lat="45.92288" lon="6.48399">
        <ele>1445.118</ele>
        <time>2026-03-13T14:18:02Z</time>
      </trkpt>
      <trkpt lat="45.92288" lon="6.48399">
        <ele>1445.138</ele>
        <time>2026-03-13T14:18:07Z</time>
      </trkpt>
      <trkpt lat="45.92288" lon="6.48399">
        <ele>1445.154</ele>
        <time>2026-03-13T14:18:12Z</time>
      </trkpt>
      <trkpt lat="45.92288" lon="6.48399">
        <ele>1445.154</ele>
        <time>2026-03-13T14:18:17Z</time>
      </trkpt>
      <trkpt lat="45.92288" lon="6.48399">
        <ele>1445.153</ele>
        <time>2026-03-13T14:18:22Z</time>
      </trkpt>
      <trkpt lat="45.92288" lon="6.48399">
        <ele>1445.153</ele>
        <time>2026-03-13T14:18:27Z</time>
      </trkpt>
      <trkpt lat="45.92288" lon="6.48399">
        <ele>1445.156</ele>
        <time>2026-03-13T14:18:32Z</time>
      </trkpt>
      <trkpt lat="45.92288" lon="6.48399">
        <ele>1445.162</ele>
        <time>2026-03-13T14:18:37Z</time>
      </trkpt>
      <trkpt lat="45.92288" lon="6.48399">
        <ele>1445.213</ele>
        <time>2026-03-13T14:18:42Z</time>
      </trkpt>
      <trkpt lat="45.92288" lon="6.48399">
        <ele>1445.212</ele>
        <time>2026-03-13T14:18:47Z</time>
      </trkpt>
      <trkpt lat="45.92288" lon="6.48399">
        <ele>1445.206</ele>
        <time>2026-03-13T14:18:52Z</time>
      </trkpt>
      <trkpt lat="45.92288" lon="6.48399">
        <ele>1445.204</ele>
        <time>2026-03-13T14:18:57Z</time>
      </trkpt>
      <trkpt lat="45.92288" lon="6.48399">
        <ele>1445.21</ele>
        <time>2026-03-13T14:19:02Z</time>
      </trkpt>
      <trkpt lat="45.92288" lon="6.48399">
        <ele>1445.212</ele>
        <time>2026-03-13T14:19:07Z</time>
      </trkpt>
      <trkpt lat="45.92288" lon="6.48399">
        <ele>1445.22</ele>
        <time>2026-03-13T14:19:12Z</time>
      </trkpt>
      <trkpt lat="45.92288" lon="6.48399">
        <ele>1445.222</ele>
        <time>2026-03-13T14:19:17Z</time>
      </trkpt>
      <trkpt lat="45.92288" lon="6.48399">
        <ele>1445.228</ele>
        <time>2026-03-13T14:19:22Z</time>
      </trkpt>
      <trkpt lat="45.92288" lon="6.48399">
        <ele>1445.232</ele>
        <time>2026-03-13T14:19:27Z</time>
      </trkpt>
      <trkpt lat="45.92288" lon="6.48399">
        <ele>1445.229</ele>
        <time>2026-03-13T14:19:32Z</time>
      </trkpt>
      <trkpt lat="45.92288" lon="6.48399">
        <ele>1445.229</ele>
        <time>2026-03-13T14:19:37Z</time>
      </trkpt>
      <trkpt lat="45.92288" lon="6.48399">
        <ele>1445.226</ele>
        <time>2026-03-13T14:19:42Z</time>
      </trkpt>
      <trkpt lat="45.92288" lon="6.48399">
        <ele>1445.225</ele>
        <time>2026-03-13T14:19:47Z</time>
      </trkpt>
      <trkpt lat="45.92288" lon="6.48399">
        <ele>1445.227</ele>
        <time>2026-03-13T14:19:52Z</time>
      </trkpt>
      <trkpt lat="45.92288" lon="6.48399">
        <ele>1445.223</ele>
        <time>2026-03-13T14:19:57Z</time>
      </trkpt>
      <trkpt lat="45.92288" lon="6.48399">
        <ele>1445.22</ele>
        <time>2026-03-13T14:20:02Z</time>
      </trkpt>
      <trkpt lat="45.92288" lon="6.48399">
        <ele>1445.221</ele>
        <time>2026-03-13T14:20:07Z</time>
      </trkpt>
      <trkpt lat="45.92288" lon="6.48399">
        <ele>1445.217</ele>
        <time>2026-03-13T14:20:12Z</time>
      </trkpt>
      <trkpt lat="45.92288" lon="6.48399">
        <ele>1445.215</ele>
        <time>2026-03-13T14:20:17Z</time>
      </trkpt>
      <trkpt lat="45.92288" lon="6.48399">
        <ele>1445.211</ele>
        <time>2026-03-13T14:20:22Z</time>
      </trkpt>
      <trkpt lat="45.92288" lon="6.48399">
        <ele>1445.214</ele>
        <time>2026-03-13T14:20:27Z</time>
      </trkpt>
      <trkpt lat="45.92288" lon="6.48399">
        <ele>1445.216</ele>
        <time>2026-03-13T14:20:32Z</time>
      </trkpt>
      <trkpt lat="45.92288" lon="6.48399">
        <ele>1445.216</ele>
        <time>2026-03-13T14:20:37Z</time>
      </trkpt>
      <trkpt lat="45.92288" lon="6.48399">
        <ele>1445.211</ele>
        <time>2026-03-13T14:20:42Z</time>
      </trkpt>
      <trkpt lat="45.92288" lon="6.48399">
        <ele>1445.206</ele>
        <time>2026-03-13T14:20:47Z</time>
      </trkpt>
      <trkpt lat="45.92288" lon="6.48399">
        <ele>1445.207</ele>
        <time>2026-03-13T14:20:52Z</time>
      </trkpt>
      <trkpt lat="45.92288" lon="6.48399">
        <ele>1445.204</ele>
        <time>2026-03-13T14:20:57Z</time>
      </trkpt>
      <trkpt lat="45.92288" lon="6.48399">
        <ele>1445.206</ele>
        <time>2026-03-13T14:21:02Z</time>
      </trkpt>
      <trkpt lat="45.92288" lon="6.48399">
        <ele>1445.207</ele>
        <time>2026-03-13T14:21:07Z</time>
      </trkpt>
      <trkpt lat="45.92288" lon="6.48399">
        <ele>1445.211</ele>
        <time>2026-03-13T14:21:12Z</time>
      </trkpt>
      <trkpt lat="45.92288" lon="6.48399">
        <ele>1445.212</ele>
        <time>2026-03-13T14:21:17Z</time>
      </trkpt>
      <trkpt lat="45.92288" lon="6.48399">
        <ele>1445.216</ele>
        <time>2026-03-13T14:21:22Z</time>
      </trkpt>
      <trkpt lat="45.92288" lon="6.48399">
        <ele>1444.67</ele>
        <time>2026-03-13T14:21:27Z</time>
      </trkpt>
      <trkpt lat="45.92288" lon="6.48399">
        <ele>1444.482</ele>
        <time>2026-03-13T14:21:32Z</time>
      </trkpt>
      <trkpt lat="45.92288" lon="6.48399">
        <ele>1444.102</ele>
        <time>2026-03-13T14:21:37Z</time>
      </trkpt>
      <trkpt lat="45.92288" lon="6.48399">
        <ele>1444.13</ele>
        <time>2026-03-13T14:21:42Z</time>
      </trkpt>
      <trkpt lat="45.92288" lon="6.48399">
        <ele>1444.335</ele>
        <time>2026-03-13T14:21:47Z</time>
      </trkpt>
      <trkpt lat="45.92288" lon="6.48399">
        <ele>1444.931</ele>
        <time>2026-03-13T14:21:52Z</time>
      </trkpt>
      <trkpt lat="45.92288" lon="6.48399">
        <ele>1444.82</ele>
        <time>2026-03-13T14:21:57Z</time>
      </trkpt>
      <trkpt lat="45.92288" lon="6.48399">
        <ele>1445.056</ele>
        <time>2026-03-13T14:22:02Z</time>
      </trkpt>
      <trkpt lat="45.92288" lon="6.48399">
        <ele>1445.883</ele>
        <time>2026-03-13T14:22:07Z</time>
      </trkpt>
      <trkpt lat="45.92288" lon="6.48399">
        <ele>1446.683</ele>
        <time>2026-03-13T14:22:12Z</time>
      </trkpt>
      <trkpt lat="45.92288" lon="6.48399">
        <ele>1446.365</ele>
        <time>2026-03-13T14:22:17Z</time>
      </trkpt>
      <trkpt lat="45.92288" lon="6.48399">
        <ele>1446.574</ele>
        <time>2026-03-13T14:22:22Z</time>
      </trkpt>
      <trkpt lat="45.92288" lon="6.48399">
        <ele>1446.473</ele>
        <time>2026-03-13T14:22:27Z</time>
      </trkpt>
      <trkpt lat="45.92288" lon="6.48399">
        <ele>1446.586</ele>
        <time>2026-03-13T14:22:32Z</time>
      </trkpt>
      <trkpt lat="45.92288" lon="6.48399">
        <ele>1446.564</ele>
        <time>2026-03-13T14:22:37Z</time>
      </trkpt>
      <trkpt lat="45.92288" lon="6.48399">
        <ele>1446.557</ele>
        <time>2026-03-13T14:22:42Z</time>
      </trkpt>
      <trkpt lat="45.92288" lon="6.48399">
        <ele>1446.556</ele>
        <time>2026-03-13T14:22:47Z</time>
      </trkpt>
      <trkpt lat="45.92288" lon="6.48399">
        <ele>1446.551</ele>
        <time>2026-03-13T14:22:52Z</time>
      </trkpt>
      <trkpt lat="45.92288" lon="6.48399">
        <ele>1446.712</ele>
        <time>2026-03-13T14:22:57Z</time>
      </trkpt>
      <trkpt lat="45.92288" lon="6.48399">
        <ele>1445.582</ele>
        <time>2026-03-13T14:23:02Z</time>
      </trkpt>
      <trkpt lat="45.92288" lon="6.48399">
        <ele>1445.784</ele>
        <time>2026-03-13T14:23:07Z</time>
      </trkpt>
      <trkpt lat="45.92288" lon="6.48399">
        <ele>1445.561</ele>
        <time>2026-03-13T14:23:12Z</time>
      </trkpt>
      <trkpt lat="45.92288" lon="6.48399">
        <ele>1445.572</ele>
        <time>2026-03-13T14:23:17Z</time>
      </trkpt>
      <trkpt lat="45.92288" lon="6.48399">
        <ele>1445.573</ele>
        <time>2026-03-13T14:23:22Z</time>
      </trkpt>
      <trkpt lat="45.92288" lon="6.48399">
        <ele>1445.563</ele>
        <time>2026-03-13T14:23:27Z</time>
      </trkpt>
      <trkpt lat="45.92288" lon="6.48399">
        <ele>1445.542</ele>
        <time>2026-03-13T14:23:32Z</time>
      </trkpt>
      <trkpt lat="45.92288" lon="6.48399">
        <ele>1445.525</ele>
        <time>2026-03-13T14:23:37Z</time>
      </trkpt>
      <trkpt lat="45.92288" lon="6.48399">
        <ele>1445.512</ele>
        <time>2026-03-13T14:23:42Z</time>
      </trkpt>
      <trkpt lat="45.92288" lon="6.48399">
        <ele>1445.493</ele>
        <time>2026-03-13T14:23:47Z</time>
      </trkpt>
      <trkpt lat="45.92285" lon="6.48392">
        <ele>1445.471</ele>
        <time>2026-03-13T14:23:52Z</time>
      </trkpt>
    </trkseg>
  </trk>
</gpx>